<?xml version="1.0" encoding="UTF-8" standalone="no" ?>
<gpx xmlns="http://www.topografix.com/GPX/1/1" xmlns:xsi="http://www.w3.org/2001/XMLSchema-instance" xsi:schemaLocation="http://www.topografix.com/GPX/1/1 http://www.topografix.com/GPX/1/1/gpx.xsd" version="1.1" creator="VisuGPX - https://www.visugpx.com">
  <metadata>
    <name>140201ROBSebastienArgentis</name>
    <desc><![CDATA[640m - 25km]]></desc>
  </metadata>
  <trk>
    <name><![CDATA[140201ROBSebastienArgentis]]></name>
    <trkseg>
      <trkpt lat="43.40398" lon="6.06535">
        <ele>219</ele>
        <time>2014-02-01T13:04:22Z</time>
      </trkpt>
      <trkpt lat="43.40398" lon="6.06535">
        <ele>219</ele>
        <time>2014-02-01T13:04:23Z</time>
      </trkpt>
      <trkpt lat="43.40399" lon="6.06531">
        <ele>219</ele>
        <time>2014-02-01T13:04:25Z</time>
      </trkpt>
      <trkpt lat="43.40401" lon="6.06524">
        <ele>219</ele>
        <time>2014-02-01T13:04:27Z</time>
      </trkpt>
      <trkpt lat="43.404" lon="6.06514">
        <ele>219</ele>
        <time>2014-02-01T13:04:30Z</time>
      </trkpt>
      <trkpt lat="43.40399" lon="6.06511">
        <ele>219</ele>
        <time>2014-02-01T13:04:31Z</time>
      </trkpt>
      <trkpt lat="43.40398" lon="6.06507">
        <ele>219</ele>
        <time>2014-02-01T13:04:32Z</time>
      </trkpt>
      <trkpt lat="43.40398" lon="6.06502">
        <ele>219</ele>
        <time>2014-02-01T13:04:33Z</time>
      </trkpt>
      <trkpt lat="43.40397" lon="6.06491">
        <ele>219</ele>
        <time>2014-02-01T13:04:35Z</time>
      </trkpt>
      <trkpt lat="43.40389" lon="6.06488">
        <ele>219</ele>
        <time>2014-02-01T13:04:37Z</time>
      </trkpt>
      <trkpt lat="43.40377" lon="6.06495">
        <ele>219</ele>
        <time>2014-02-01T13:04:40Z</time>
      </trkpt>
      <trkpt lat="43.40373" lon="6.06498">
        <ele>219</ele>
        <time>2014-02-01T13:04:41Z</time>
      </trkpt>
      <trkpt lat="43.40365" lon="6.06503">
        <ele>219</ele>
        <time>2014-02-01T13:04:43Z</time>
      </trkpt>
      <trkpt lat="43.40351" lon="6.06512">
        <ele>219</ele>
        <time>2014-02-01T13:04:46Z</time>
      </trkpt>
      <trkpt lat="43.40315" lon="6.06539">
        <ele>219</ele>
        <time>2014-02-01T13:04:54Z</time>
      </trkpt>
      <trkpt lat="43.40311" lon="6.06542">
        <ele>219</ele>
        <time>2014-02-01T13:04:55Z</time>
      </trkpt>
      <trkpt lat="43.40292" lon="6.06547">
        <ele>219</ele>
        <time>2014-02-01T13:04:59Z</time>
      </trkpt>
      <trkpt lat="43.40272" lon="6.06553">
        <ele>219</ele>
        <time>2014-02-01T13:05:05Z</time>
      </trkpt>
      <trkpt lat="43.40255" lon="6.0656">
        <ele>219</ele>
        <time>2014-02-01T13:05:09Z</time>
      </trkpt>
      <trkpt lat="43.40251" lon="6.06563">
        <ele>219</ele>
        <time>2014-02-01T13:05:10Z</time>
      </trkpt>
      <trkpt lat="43.40237" lon="6.06582">
        <ele>219</ele>
        <time>2014-02-01T13:05:14Z</time>
      </trkpt>
      <trkpt lat="43.40233" lon="6.06594">
        <ele>219</ele>
        <time>2014-02-01T13:05:16Z</time>
      </trkpt>
      <trkpt lat="43.40228" lon="6.06606">
        <ele>219</ele>
        <time>2014-02-01T13:05:18Z</time>
      </trkpt>
      <trkpt lat="43.40225" lon="6.06611">
        <ele>219</ele>
        <time>2014-02-01T13:05:19Z</time>
      </trkpt>
      <trkpt lat="43.40207" lon="6.06637">
        <ele>219</ele>
        <time>2014-02-01T13:05:24Z</time>
      </trkpt>
      <trkpt lat="43.40205" lon="6.06643">
        <ele>219</ele>
        <time>2014-02-01T13:05:25Z</time>
      </trkpt>
      <trkpt lat="43.40191" lon="6.06677">
        <ele>219</ele>
        <time>2014-02-01T13:05:31Z</time>
      </trkpt>
      <trkpt lat="43.40159" lon="6.06748">
        <ele>219.39999389648</ele>
        <time>2014-02-01T13:05:46Z</time>
      </trkpt>
      <trkpt lat="43.40157" lon="6.06752">
        <ele>219.80000305176</ele>
        <time>2014-02-01T13:05:47Z</time>
      </trkpt>
      <trkpt lat="43.40152" lon="6.06765">
        <ele>220.80000305176</ele>
        <time>2014-02-01T13:05:50Z</time>
      </trkpt>
      <trkpt lat="43.40149" lon="6.06774">
        <ele>220.80000305176</ele>
        <time>2014-02-01T13:05:52Z</time>
      </trkpt>
      <trkpt lat="43.4014" lon="6.06801">
        <ele>221.19999694824</ele>
        <time>2014-02-01T13:05:58Z</time>
      </trkpt>
      <trkpt lat="43.40129" lon="6.06833">
        <ele>223</ele>
        <time>2014-02-01T13:06:05Z</time>
      </trkpt>
      <trkpt lat="43.40123" lon="6.0685">
        <ele>223</ele>
        <time>2014-02-01T13:06:09Z</time>
      </trkpt>
      <trkpt lat="43.4012" lon="6.06859">
        <ele>223.39999389648</ele>
        <time>2014-02-01T13:06:11Z</time>
      </trkpt>
      <trkpt lat="43.40115" lon="6.06871">
        <ele>224.60000610352</ele>
        <time>2014-02-01T13:06:14Z</time>
      </trkpt>
      <trkpt lat="43.40112" lon="6.06883">
        <ele>225</ele>
        <time>2014-02-01T13:06:17Z</time>
      </trkpt>
      <trkpt lat="43.40109" lon="6.06904">
        <ele>225</ele>
        <time>2014-02-01T13:06:21Z</time>
      </trkpt>
      <trkpt lat="43.40111" lon="6.06927">
        <ele>225</ele>
        <time>2014-02-01T13:06:25Z</time>
      </trkpt>
      <trkpt lat="43.40115" lon="6.06945">
        <ele>225</ele>
        <time>2014-02-01T13:06:28Z</time>
      </trkpt>
      <trkpt lat="43.40116" lon="6.0695">
        <ele>225</ele>
        <time>2014-02-01T13:06:29Z</time>
      </trkpt>
      <trkpt lat="43.40119" lon="6.06976">
        <ele>225</ele>
        <time>2014-02-01T13:06:33Z</time>
      </trkpt>
      <trkpt lat="43.4012" lon="6.07025">
        <ele>225</ele>
        <time>2014-02-01T13:06:41Z</time>
      </trkpt>
      <trkpt lat="43.4012" lon="6.07065">
        <ele>225</ele>
        <time>2014-02-01T13:06:47Z</time>
      </trkpt>
      <trkpt lat="43.40122" lon="6.07106">
        <ele>225</ele>
        <time>2014-02-01T13:06:53Z</time>
      </trkpt>
      <trkpt lat="43.40126" lon="6.07135">
        <ele>225</ele>
        <time>2014-02-01T13:06:57Z</time>
      </trkpt>
      <trkpt lat="43.40132" lon="6.07175">
        <ele>225</ele>
        <time>2014-02-01T13:07:03Z</time>
      </trkpt>
      <trkpt lat="43.40136" lon="6.07206">
        <ele>225</ele>
        <time>2014-02-01T13:07:08Z</time>
      </trkpt>
      <trkpt lat="43.40138" lon="6.07218">
        <ele>225</ele>
        <time>2014-02-01T13:07:10Z</time>
      </trkpt>
      <trkpt lat="43.4014" lon="6.07238">
        <ele>225</ele>
        <time>2014-02-01T13:07:13Z</time>
      </trkpt>
      <trkpt lat="43.40144" lon="6.07287">
        <ele>225</ele>
        <time>2014-02-01T13:07:20Z</time>
      </trkpt>
      <trkpt lat="43.40137" lon="6.07375">
        <ele>225</ele>
        <time>2014-02-01T13:07:35Z</time>
      </trkpt>
      <trkpt lat="43.40137" lon="6.07386">
        <ele>225</ele>
        <time>2014-02-01T13:07:37Z</time>
      </trkpt>
      <trkpt lat="43.40139" lon="6.07404">
        <ele>225</ele>
        <time>2014-02-01T13:07:40Z</time>
      </trkpt>
      <trkpt lat="43.40145" lon="6.07438">
        <ele>225</ele>
        <time>2014-02-01T13:07:46Z</time>
      </trkpt>
      <trkpt lat="43.40146" lon="6.07455">
        <ele>225</ele>
        <time>2014-02-01T13:07:49Z</time>
      </trkpt>
      <trkpt lat="43.40145" lon="6.07472">
        <ele>225</ele>
        <time>2014-02-01T13:07:52Z</time>
      </trkpt>
      <trkpt lat="43.40141" lon="6.07497">
        <ele>225</ele>
        <time>2014-02-01T13:07:57Z</time>
      </trkpt>
      <trkpt lat="43.40139" lon="6.07506">
        <ele>226</ele>
        <time>2014-02-01T13:07:59Z</time>
      </trkpt>
      <trkpt lat="43.40136" lon="6.07515">
        <ele>226.80000305176</ele>
        <time>2014-02-01T13:08:01Z</time>
      </trkpt>
      <trkpt lat="43.40134" lon="6.07519">
        <ele>227.19999694824</ele>
        <time>2014-02-01T13:08:02Z</time>
      </trkpt>
      <trkpt lat="43.40126" lon="6.07536">
        <ele>227.80000305176</ele>
        <time>2014-02-01T13:08:06Z</time>
      </trkpt>
      <trkpt lat="43.4011" lon="6.07564">
        <ele>229.39999389648</ele>
        <time>2014-02-01T13:08:13Z</time>
      </trkpt>
      <trkpt lat="43.40092" lon="6.07598">
        <ele>229.39999389648</ele>
        <time>2014-02-01T13:08:22Z</time>
      </trkpt>
      <trkpt lat="43.4009" lon="6.07626">
        <ele>229.80000305176</ele>
        <time>2014-02-01T13:08:28Z</time>
      </trkpt>
      <trkpt lat="43.40089" lon="6.07634">
        <ele>230.60000610352</ele>
        <time>2014-02-01T13:08:30Z</time>
      </trkpt>
      <trkpt lat="43.40088" lon="6.07649">
        <ele>231.39999389648</ele>
        <time>2014-02-01T13:08:34Z</time>
      </trkpt>
      <trkpt lat="43.40085" lon="6.07662">
        <ele>232.39999389648</ele>
        <time>2014-02-01T13:08:38Z</time>
      </trkpt>
      <trkpt lat="43.40084" lon="6.07666">
        <ele>232.80000305176</ele>
        <time>2014-02-01T13:08:39Z</time>
      </trkpt>
      <trkpt lat="43.40082" lon="6.07671">
        <ele>233.60000610352</ele>
        <time>2014-02-01T13:08:41Z</time>
      </trkpt>
      <trkpt lat="43.40078" lon="6.07678">
        <ele>233.60000610352</ele>
        <time>2014-02-01T13:08:44Z</time>
      </trkpt>
      <trkpt lat="43.40075" lon="6.07684">
        <ele>234</ele>
        <time>2014-02-01T13:08:46Z</time>
      </trkpt>
      <trkpt lat="43.40071" lon="6.07689">
        <ele>234.80000305176</ele>
        <time>2014-02-01T13:08:48Z</time>
      </trkpt>
      <trkpt lat="43.40068" lon="6.07695">
        <ele>235.60000610352</ele>
        <time>2014-02-01T13:08:50Z</time>
      </trkpt>
      <trkpt lat="43.40041" lon="6.07733">
        <ele>235.60000610352</ele>
        <time>2014-02-01T13:09:03Z</time>
      </trkpt>
      <trkpt lat="43.40031" lon="6.07756">
        <ele>237</ele>
        <time>2014-02-01T13:09:09Z</time>
      </trkpt>
      <trkpt lat="43.4003" lon="6.0776">
        <ele>237.39999389648</ele>
        <time>2014-02-01T13:09:10Z</time>
      </trkpt>
      <trkpt lat="43.40029" lon="6.07765">
        <ele>237.80000305176</ele>
        <time>2014-02-01T13:09:11Z</time>
      </trkpt>
      <trkpt lat="43.40018" lon="6.07801">
        <ele>237.80000305176</ele>
        <time>2014-02-01T13:09:19Z</time>
      </trkpt>
      <trkpt lat="43.40002" lon="6.07858">
        <ele>237.80000305176</ele>
        <time>2014-02-01T13:09:32Z</time>
      </trkpt>
      <trkpt lat="43.39995" lon="6.07885">
        <ele>237.80000305176</ele>
        <time>2014-02-01T13:09:38Z</time>
      </trkpt>
      <trkpt lat="43.39987" lon="6.07917">
        <ele>240</ele>
        <time>2014-02-01T13:09:46Z</time>
      </trkpt>
      <trkpt lat="43.39984" lon="6.07936">
        <ele>240</ele>
        <time>2014-02-01T13:09:51Z</time>
      </trkpt>
      <trkpt lat="43.39979" lon="6.07955">
        <ele>240.80000305176</ele>
        <time>2014-02-01T13:09:56Z</time>
      </trkpt>
      <trkpt lat="43.39975" lon="6.07965">
        <ele>242</ele>
        <time>2014-02-01T13:09:59Z</time>
      </trkpt>
      <trkpt lat="43.39971" lon="6.07972">
        <ele>242</ele>
        <time>2014-02-01T13:10:02Z</time>
      </trkpt>
      <trkpt lat="43.39967" lon="6.07977">
        <ele>242.39999389648</ele>
        <time>2014-02-01T13:10:05Z</time>
      </trkpt>
      <trkpt lat="43.39964" lon="6.07978">
        <ele>242.80000305176</ele>
        <time>2014-02-01T13:10:06Z</time>
      </trkpt>
      <trkpt lat="43.39957" lon="6.07982">
        <ele>244.19999694824</ele>
        <time>2014-02-01T13:10:09Z</time>
      </trkpt>
      <trkpt lat="43.39946" lon="6.07988">
        <ele>244.19999694824</ele>
        <time>2014-02-01T13:10:13Z</time>
      </trkpt>
      <trkpt lat="43.39927" lon="6.07999">
        <ele>244.19999694824</ele>
        <time>2014-02-01T13:10:20Z</time>
      </trkpt>
      <trkpt lat="43.39917" lon="6.08009">
        <ele>244.19999694824</ele>
        <time>2014-02-01T13:10:24Z</time>
      </trkpt>
      <trkpt lat="43.39905" lon="6.08026">
        <ele>244.19999694824</ele>
        <time>2014-02-01T13:10:29Z</time>
      </trkpt>
      <trkpt lat="43.39896" lon="6.08034">
        <ele>244.19999694824</ele>
        <time>2014-02-01T13:10:32Z</time>
      </trkpt>
      <trkpt lat="43.39889" lon="6.08035">
        <ele>244.19999694824</ele>
        <time>2014-02-01T13:10:34Z</time>
      </trkpt>
      <trkpt lat="43.39875" lon="6.08033">
        <ele>244.19999694824</ele>
        <time>2014-02-01T13:10:38Z</time>
      </trkpt>
      <trkpt lat="43.3986" lon="6.08024">
        <ele>244.19999694824</ele>
        <time>2014-02-01T13:10:42Z</time>
      </trkpt>
      <trkpt lat="43.39849" lon="6.08016">
        <ele>244.19999694824</ele>
        <time>2014-02-01T13:10:45Z</time>
      </trkpt>
      <trkpt lat="43.39843" lon="6.0801">
        <ele>244.19999694824</ele>
        <time>2014-02-01T13:10:47Z</time>
      </trkpt>
      <trkpt lat="43.39819" lon="6.07996">
        <ele>244.19999694824</ele>
        <time>2014-02-01T13:10:54Z</time>
      </trkpt>
      <trkpt lat="43.39801" lon="6.07991">
        <ele>244.19999694824</ele>
        <time>2014-02-01T13:10:59Z</time>
      </trkpt>
      <trkpt lat="43.39783" lon="6.07983">
        <ele>244.19999694824</ele>
        <time>2014-02-01T13:11:05Z</time>
      </trkpt>
      <trkpt lat="43.39776" lon="6.07978">
        <ele>244.19999694824</ele>
        <time>2014-02-01T13:11:08Z</time>
      </trkpt>
      <trkpt lat="43.39769" lon="6.07976">
        <ele>244.19999694824</ele>
        <time>2014-02-01T13:11:11Z</time>
      </trkpt>
      <trkpt lat="43.39758" lon="6.07972">
        <ele>244.19999694824</ele>
        <time>2014-02-01T13:11:16Z</time>
      </trkpt>
      <trkpt lat="43.39753" lon="6.07969">
        <ele>244.60000610352</ele>
        <time>2014-02-01T13:11:18Z</time>
      </trkpt>
      <trkpt lat="43.3975" lon="6.07968">
        <ele>245.39999389648</ele>
        <time>2014-02-01T13:11:19Z</time>
      </trkpt>
      <trkpt lat="43.3974" lon="6.07959">
        <ele>246.19999694824</ele>
        <time>2014-02-01T13:11:24Z</time>
      </trkpt>
      <trkpt lat="43.39727" lon="6.07946">
        <ele>246.19999694824</ele>
        <time>2014-02-01T13:11:30Z</time>
      </trkpt>
      <trkpt lat="43.39724" lon="6.07942">
        <ele>246.60000610352</ele>
        <time>2014-02-01T13:11:32Z</time>
      </trkpt>
      <trkpt lat="43.39721" lon="6.07938">
        <ele>247.39999389648</ele>
        <time>2014-02-01T13:11:34Z</time>
      </trkpt>
      <trkpt lat="43.39714" lon="6.0793">
        <ele>248.19999694824</ele>
        <time>2014-02-01T13:11:38Z</time>
      </trkpt>
      <trkpt lat="43.39706" lon="6.0792">
        <ele>249</ele>
        <time>2014-02-01T13:11:44Z</time>
      </trkpt>
      <trkpt lat="43.39703" lon="6.07915">
        <ele>250.19999694824</ele>
        <time>2014-02-01T13:11:47Z</time>
      </trkpt>
      <trkpt lat="43.39698" lon="6.07908">
        <ele>250.19999694824</ele>
        <time>2014-02-01T13:11:50Z</time>
      </trkpt>
      <trkpt lat="43.39688" lon="6.07899">
        <ele>252.19999694824</ele>
        <time>2014-02-01T13:11:57Z</time>
      </trkpt>
      <trkpt lat="43.39681" lon="6.07894">
        <ele>252.60000610352</ele>
        <time>2014-02-01T13:12:02Z</time>
      </trkpt>
      <trkpt lat="43.39668" lon="6.07891">
        <ele>254.39999389648</ele>
        <time>2014-02-01T13:12:09Z</time>
      </trkpt>
      <trkpt lat="43.39656" lon="6.0789">
        <ele>254.39999389648</ele>
        <time>2014-02-01T13:12:15Z</time>
      </trkpt>
      <trkpt lat="43.39655" lon="6.07889">
        <ele>254.39999389648</ele>
        <time>2014-02-01T13:12:16Z</time>
      </trkpt>
      <trkpt lat="43.39643" lon="6.07889">
        <ele>254.39999389648</ele>
        <time>2014-02-01T13:12:22Z</time>
      </trkpt>
      <trkpt lat="43.39627" lon="6.07893">
        <ele>254.80000305176</ele>
        <time>2014-02-01T13:12:29Z</time>
      </trkpt>
      <trkpt lat="43.39624" lon="6.07894">
        <ele>255.19999694824</ele>
        <time>2014-02-01T13:12:30Z</time>
      </trkpt>
      <trkpt lat="43.39622" lon="6.07895">
        <ele>255.60000610352</ele>
        <time>2014-02-01T13:12:31Z</time>
      </trkpt>
      <trkpt lat="43.39618" lon="6.07897">
        <ele>256.39999389648</ele>
        <time>2014-02-01T13:12:33Z</time>
      </trkpt>
      <trkpt lat="43.39611" lon="6.079">
        <ele>256.39999389648</ele>
        <time>2014-02-01T13:12:36Z</time>
      </trkpt>
      <trkpt lat="43.39595" lon="6.07904">
        <ele>256.79998779297</ele>
        <time>2014-02-01T13:12:44Z</time>
      </trkpt>
      <trkpt lat="43.39588" lon="6.07905">
        <ele>258.39999389648</ele>
        <time>2014-02-01T13:12:48Z</time>
      </trkpt>
      <trkpt lat="43.39584" lon="6.07906">
        <ele>258.79998779297</ele>
        <time>2014-02-01T13:12:51Z</time>
      </trkpt>
      <trkpt lat="43.39583" lon="6.07906">
        <ele>259.20001220703</ele>
        <time>2014-02-01T13:12:52Z</time>
      </trkpt>
      <trkpt lat="43.39581" lon="6.07909">
        <ele>260.20001220703</ele>
        <time>2014-02-01T13:12:54Z</time>
      </trkpt>
      <trkpt lat="43.39579" lon="6.07911">
        <ele>260.60000610352</ele>
        <time>2014-02-01T13:12:55Z</time>
      </trkpt>
      <trkpt lat="43.39578" lon="6.07919">
        <ele>260.60000610352</ele>
        <time>2014-02-01T13:13:00Z</time>
      </trkpt>
      <trkpt lat="43.39576" lon="6.07929">
        <ele>260.60000610352</ele>
        <time>2014-02-01T13:13:06Z</time>
      </trkpt>
      <trkpt lat="43.39569" lon="6.07934">
        <ele>261</ele>
        <time>2014-02-01T13:13:12Z</time>
      </trkpt>
      <trkpt lat="43.39564" lon="6.07933">
        <ele>262.60000610352</ele>
        <time>2014-02-01T13:13:16Z</time>
      </trkpt>
      <trkpt lat="43.39555" lon="6.07936">
        <ele>263</ele>
        <time>2014-02-01T13:13:22Z</time>
      </trkpt>
      <trkpt lat="43.39553" lon="6.07936">
        <ele>263.39999389648</ele>
        <time>2014-02-01T13:13:23Z</time>
      </trkpt>
      <trkpt lat="43.39549" lon="6.07937">
        <ele>264.20001220703</ele>
        <time>2014-02-01T13:13:25Z</time>
      </trkpt>
      <trkpt lat="43.39548" lon="6.07938">
        <ele>264.79998779297</ele>
        <time>2014-02-01T13:13:26Z</time>
      </trkpt>
      <trkpt lat="43.39532" lon="6.07945">
        <ele>265.20001220703</ele>
        <time>2014-02-01T13:13:37Z</time>
      </trkpt>
      <trkpt lat="43.39527" lon="6.07947">
        <ele>266.79998779297</ele>
        <time>2014-02-01T13:13:41Z</time>
      </trkpt>
      <trkpt lat="43.3952" lon="6.07951">
        <ele>266.79998779297</ele>
        <time>2014-02-01T13:13:46Z</time>
      </trkpt>
      <trkpt lat="43.39507" lon="6.07956">
        <ele>268.39999389648</ele>
        <time>2014-02-01T13:13:54Z</time>
      </trkpt>
      <trkpt lat="43.39505" lon="6.07956">
        <ele>269</ele>
        <time>2014-02-01T13:13:55Z</time>
      </trkpt>
      <trkpt lat="43.39494" lon="6.07959">
        <ele>269</ele>
        <time>2014-02-01T13:14:02Z</time>
      </trkpt>
      <trkpt lat="43.39482" lon="6.07964">
        <ele>269</ele>
        <time>2014-02-01T13:14:08Z</time>
      </trkpt>
      <trkpt lat="43.39473" lon="6.07969">
        <ele>269.39999389648</ele>
        <time>2014-02-01T13:14:14Z</time>
      </trkpt>
      <trkpt lat="43.39467" lon="6.07969">
        <ele>270.60000610352</ele>
        <time>2014-02-01T13:14:17Z</time>
      </trkpt>
      <trkpt lat="43.39465" lon="6.0797">
        <ele>271</ele>
        <time>2014-02-01T13:14:18Z</time>
      </trkpt>
      <trkpt lat="43.39459" lon="6.07972">
        <ele>271</ele>
        <time>2014-02-01T13:14:21Z</time>
      </trkpt>
      <trkpt lat="43.39449" lon="6.07978">
        <ele>271</ele>
        <time>2014-02-01T13:14:27Z</time>
      </trkpt>
      <trkpt lat="43.3944" lon="6.07982">
        <ele>271</ele>
        <time>2014-02-01T13:14:32Z</time>
      </trkpt>
      <trkpt lat="43.39405" lon="6.07998">
        <ele>273</ele>
        <time>2014-02-01T13:14:52Z</time>
      </trkpt>
      <trkpt lat="43.39398" lon="6.08002">
        <ele>274.20001220703</ele>
        <time>2014-02-01T13:14:56Z</time>
      </trkpt>
      <trkpt lat="43.39395" lon="6.08004">
        <ele>275</ele>
        <time>2014-02-01T13:14:58Z</time>
      </trkpt>
      <trkpt lat="43.39385" lon="6.08011">
        <ele>275.39999389648</ele>
        <time>2014-02-01T13:15:05Z</time>
      </trkpt>
      <trkpt lat="43.39384" lon="6.08013">
        <ele>275.79998779297</ele>
        <time>2014-02-01T13:15:06Z</time>
      </trkpt>
      <trkpt lat="43.39383" lon="6.08014">
        <ele>276.39999389648</ele>
        <time>2014-02-01T13:15:07Z</time>
      </trkpt>
      <trkpt lat="43.39378" lon="6.08022">
        <ele>277.20001220703</ele>
        <time>2014-02-01T13:15:12Z</time>
      </trkpt>
      <trkpt lat="43.39373" lon="6.08033">
        <ele>277.20001220703</ele>
        <time>2014-02-01T13:15:18Z</time>
      </trkpt>
      <trkpt lat="43.39368" lon="6.08043">
        <ele>279.20001220703</ele>
        <time>2014-02-01T13:15:23Z</time>
      </trkpt>
      <trkpt lat="43.3936" lon="6.08057">
        <ele>279.20001220703</ele>
        <time>2014-02-01T13:15:31Z</time>
      </trkpt>
      <trkpt lat="43.39347" lon="6.08076">
        <ele>279.60000610352</ele>
        <time>2014-02-01T13:15:43Z</time>
      </trkpt>
      <trkpt lat="43.39339" lon="6.08092">
        <ele>281.39999389648</ele>
        <time>2014-02-01T13:15:53Z</time>
      </trkpt>
      <trkpt lat="43.39332" lon="6.08099">
        <ele>282.20001220703</ele>
        <time>2014-02-01T13:15:58Z</time>
      </trkpt>
      <trkpt lat="43.39329" lon="6.08103">
        <ele>283</ele>
        <time>2014-02-01T13:16:00Z</time>
      </trkpt>
      <trkpt lat="43.39327" lon="6.08104">
        <ele>283.39999389648</ele>
        <time>2014-02-01T13:16:01Z</time>
      </trkpt>
      <trkpt lat="43.39326" lon="6.08106">
        <ele>283.39999389648</ele>
        <time>2014-02-01T13:16:02Z</time>
      </trkpt>
      <trkpt lat="43.39324" lon="6.08111">
        <ele>283.39999389648</ele>
        <time>2014-02-01T13:16:05Z</time>
      </trkpt>
      <trkpt lat="43.3932" lon="6.08121">
        <ele>283.39999389648</ele>
        <time>2014-02-01T13:16:12Z</time>
      </trkpt>
      <trkpt lat="43.3932" lon="6.08121">
        <ele>283.39999389648</ele>
        <time>2014-02-01T13:16:18Z</time>
      </trkpt>
      <trkpt lat="43.39318" lon="6.08122">
        <ele>283.39999389648</ele>
        <time>2014-02-01T13:16:22Z</time>
      </trkpt>
      <trkpt lat="43.39315" lon="6.08132">
        <ele>284.39999389648</ele>
        <time>2014-02-01T13:16:28Z</time>
      </trkpt>
      <trkpt lat="43.39315" lon="6.08134">
        <ele>284.79998779297</ele>
        <time>2014-02-01T13:16:29Z</time>
      </trkpt>
      <trkpt lat="43.39315" lon="6.08137">
        <ele>285.20001220703</ele>
        <time>2014-02-01T13:16:30Z</time>
      </trkpt>
      <trkpt lat="43.39311" lon="6.08146">
        <ele>285.60000610352</ele>
        <time>2014-02-01T13:16:34Z</time>
      </trkpt>
      <trkpt lat="43.39309" lon="6.08153">
        <ele>285.60000610352</ele>
        <time>2014-02-01T13:16:38Z</time>
      </trkpt>
      <trkpt lat="43.39305" lon="6.08164">
        <ele>287</ele>
        <time>2014-02-01T13:16:43Z</time>
      </trkpt>
      <trkpt lat="43.39303" lon="6.08171">
        <ele>287.79998779297</ele>
        <time>2014-02-01T13:16:46Z</time>
      </trkpt>
      <trkpt lat="43.39298" lon="6.08183">
        <ele>287.79998779297</ele>
        <time>2014-02-01T13:16:52Z</time>
      </trkpt>
      <trkpt lat="43.39293" lon="6.08194">
        <ele>288.60000610352</ele>
        <time>2014-02-01T13:16:58Z</time>
      </trkpt>
      <trkpt lat="43.39291" lon="6.08199">
        <ele>289.39999389648</ele>
        <time>2014-02-01T13:17:00Z</time>
      </trkpt>
      <trkpt lat="43.3929" lon="6.08201">
        <ele>289.79998779297</ele>
        <time>2014-02-01T13:17:01Z</time>
      </trkpt>
      <trkpt lat="43.39289" lon="6.08207">
        <ele>289.79998779297</ele>
        <time>2014-02-01T13:17:04Z</time>
      </trkpt>
      <trkpt lat="43.39286" lon="6.08223">
        <ele>289.79998779297</ele>
        <time>2014-02-01T13:17:11Z</time>
      </trkpt>
      <trkpt lat="43.39286" lon="6.08231">
        <ele>290.20001220703</ele>
        <time>2014-02-01T13:17:15Z</time>
      </trkpt>
      <trkpt lat="43.39283" lon="6.08238">
        <ele>291.39999389648</ele>
        <time>2014-02-01T13:17:18Z</time>
      </trkpt>
      <trkpt lat="43.39278" lon="6.0825">
        <ele>291.79998779297</ele>
        <time>2014-02-01T13:17:23Z</time>
      </trkpt>
      <trkpt lat="43.39264" lon="6.08279">
        <ele>294</ele>
        <time>2014-02-01T13:17:40Z</time>
      </trkpt>
      <trkpt lat="43.39262" lon="6.08286">
        <ele>294.39999389648</ele>
        <time>2014-02-01T13:17:44Z</time>
      </trkpt>
      <trkpt lat="43.3926" lon="6.08293">
        <ele>296</ele>
        <time>2014-02-01T13:17:48Z</time>
      </trkpt>
      <trkpt lat="43.39257" lon="6.08303">
        <ele>296</ele>
        <time>2014-02-01T13:17:54Z</time>
      </trkpt>
      <trkpt lat="43.39253" lon="6.08315">
        <ele>297.39999389648</ele>
        <time>2014-02-01T13:18:04Z</time>
      </trkpt>
      <trkpt lat="43.39252" lon="6.0832">
        <ele>298.20001220703</ele>
        <time>2014-02-01T13:18:07Z</time>
      </trkpt>
      <trkpt lat="43.39249" lon="6.08328">
        <ele>298.20001220703</ele>
        <time>2014-02-01T13:18:13Z</time>
      </trkpt>
      <trkpt lat="43.39249" lon="6.0833">
        <ele>298.20001220703</ele>
        <time>2014-02-01T13:18:14Z</time>
      </trkpt>
      <trkpt lat="43.39245" lon="6.08343">
        <ele>300.20001220703</ele>
        <time>2014-02-01T13:18:22Z</time>
      </trkpt>
      <trkpt lat="43.39243" lon="6.08352">
        <ele>300.20001220703</ele>
        <time>2014-02-01T13:18:27Z</time>
      </trkpt>
      <trkpt lat="43.39242" lon="6.0836">
        <ele>300.20001220703</ele>
        <time>2014-02-01T13:18:32Z</time>
      </trkpt>
      <trkpt lat="43.39238" lon="6.08372">
        <ele>301</ele>
        <time>2014-02-01T13:18:39Z</time>
      </trkpt>
      <trkpt lat="43.39232" lon="6.08385">
        <ele>302.20001220703</ele>
        <time>2014-02-01T13:18:48Z</time>
      </trkpt>
      <trkpt lat="43.39229" lon="6.08401">
        <ele>303.79998779297</ele>
        <time>2014-02-01T13:18:57Z</time>
      </trkpt>
      <trkpt lat="43.39227" lon="6.0841">
        <ele>304.20001220703</ele>
        <time>2014-02-01T13:19:02Z</time>
      </trkpt>
      <trkpt lat="43.39225" lon="6.08417">
        <ele>304.60000610352</ele>
        <time>2014-02-01T13:19:07Z</time>
      </trkpt>
      <trkpt lat="43.39225" lon="6.08423">
        <ele>306.39999389648</ele>
        <time>2014-02-01T13:19:10Z</time>
      </trkpt>
      <trkpt lat="43.39223" lon="6.08433">
        <ele>306.39999389648</ele>
        <time>2014-02-01T13:19:16Z</time>
      </trkpt>
      <trkpt lat="43.39219" lon="6.08445">
        <ele>307.20001220703</ele>
        <time>2014-02-01T13:19:23Z</time>
      </trkpt>
      <trkpt lat="43.39218" lon="6.0845">
        <ele>308.39999389648</ele>
        <time>2014-02-01T13:19:26Z</time>
      </trkpt>
      <trkpt lat="43.39215" lon="6.08464">
        <ele>309.60000610352</ele>
        <time>2014-02-01T13:19:34Z</time>
      </trkpt>
      <trkpt lat="43.39213" lon="6.08474">
        <ele>310.39999389648</ele>
        <time>2014-02-01T13:19:40Z</time>
      </trkpt>
      <trkpt lat="43.3921" lon="6.08482">
        <ele>310.39999389648</ele>
        <time>2014-02-01T13:19:45Z</time>
      </trkpt>
      <trkpt lat="43.39209" lon="6.08485">
        <ele>311.20001220703</ele>
        <time>2014-02-01T13:19:47Z</time>
      </trkpt>
      <trkpt lat="43.39208" lon="6.08486">
        <ele>311.60000610352</ele>
        <time>2014-02-01T13:19:48Z</time>
      </trkpt>
      <trkpt lat="43.39207" lon="6.08489">
        <ele>312.60000610352</ele>
        <time>2014-02-01T13:19:50Z</time>
      </trkpt>
      <trkpt lat="43.39207" lon="6.08491">
        <ele>312.60000610352</ele>
        <time>2014-02-01T13:19:52Z</time>
      </trkpt>
      <trkpt lat="43.39205" lon="6.08495">
        <ele>312.60000610352</ele>
        <time>2014-02-01T13:19:57Z</time>
      </trkpt>
      <trkpt lat="43.39205" lon="6.08495">
        <ele>312.60000610352</ele>
        <time>2014-02-01T13:20:11Z</time>
      </trkpt>
      <trkpt lat="43.39205" lon="6.08495">
        <ele>312.60000610352</ele>
        <time>2014-02-01T13:20:55Z</time>
      </trkpt>
      <trkpt lat="43.39205" lon="6.08495">
        <ele>312.60000610352</ele>
        <time>2014-02-01T13:21:52Z</time>
      </trkpt>
      <trkpt lat="43.39204" lon="6.08495">
        <ele>312.60000610352</ele>
        <time>2014-02-01T13:21:56Z</time>
      </trkpt>
      <trkpt lat="43.39201" lon="6.08502">
        <ele>312.60000610352</ele>
        <time>2014-02-01T13:22:01Z</time>
      </trkpt>
      <trkpt lat="43.39193" lon="6.08511">
        <ele>312.60000610352</ele>
        <time>2014-02-01T13:22:06Z</time>
      </trkpt>
      <trkpt lat="43.39187" lon="6.08524">
        <ele>312.60000610352</ele>
        <time>2014-02-01T13:22:11Z</time>
      </trkpt>
      <trkpt lat="43.3918" lon="6.08545">
        <ele>312.60000610352</ele>
        <time>2014-02-01T13:22:17Z</time>
      </trkpt>
      <trkpt lat="43.39173" lon="6.08567">
        <ele>312.60000610352</ele>
        <time>2014-02-01T13:22:22Z</time>
      </trkpt>
      <trkpt lat="43.3917" lon="6.0859">
        <ele>312.20001220703</ele>
        <time>2014-02-01T13:22:27Z</time>
      </trkpt>
      <trkpt lat="43.39168" lon="6.08598">
        <ele>311.39999389648</ele>
        <time>2014-02-01T13:22:29Z</time>
      </trkpt>
      <trkpt lat="43.39165" lon="6.08616">
        <ele>310.39999389648</ele>
        <time>2014-02-01T13:22:33Z</time>
      </trkpt>
      <trkpt lat="43.39158" lon="6.08633">
        <ele>310.39999389648</ele>
        <time>2014-02-01T13:22:37Z</time>
      </trkpt>
      <trkpt lat="43.39156" lon="6.08656">
        <ele>310.39999389648</ele>
        <time>2014-02-01T13:22:42Z</time>
      </trkpt>
      <trkpt lat="43.3915" lon="6.08678">
        <ele>310.39999389648</ele>
        <time>2014-02-01T13:22:47Z</time>
      </trkpt>
      <trkpt lat="43.39147" lon="6.08709">
        <ele>310.39999389648</ele>
        <time>2014-02-01T13:22:53Z</time>
      </trkpt>
      <trkpt lat="43.39145" lon="6.08723">
        <ele>310.39999389648</ele>
        <time>2014-02-01T13:22:56Z</time>
      </trkpt>
      <trkpt lat="43.39141" lon="6.0874">
        <ele>310.39999389648</ele>
        <time>2014-02-01T13:23:00Z</time>
      </trkpt>
      <trkpt lat="43.39137" lon="6.08761">
        <ele>310.39999389648</ele>
        <time>2014-02-01T13:23:05Z</time>
      </trkpt>
      <trkpt lat="43.3913" lon="6.08787">
        <ele>310.39999389648</ele>
        <time>2014-02-01T13:23:11Z</time>
      </trkpt>
      <trkpt lat="43.39128" lon="6.08796">
        <ele>310.39999389648</ele>
        <time>2014-02-01T13:23:13Z</time>
      </trkpt>
      <trkpt lat="43.39123" lon="6.08819">
        <ele>310.39999389648</ele>
        <time>2014-02-01T13:23:19Z</time>
      </trkpt>
      <trkpt lat="43.39117" lon="6.08843">
        <ele>310.39999389648</ele>
        <time>2014-02-01T13:23:25Z</time>
      </trkpt>
      <trkpt lat="43.39113" lon="6.08864">
        <ele>310.39999389648</ele>
        <time>2014-02-01T13:23:30Z</time>
      </trkpt>
      <trkpt lat="43.39107" lon="6.08882">
        <ele>311.39999389648</ele>
        <time>2014-02-01T13:23:35Z</time>
      </trkpt>
      <trkpt lat="43.391" lon="6.0892">
        <ele>312.60000610352</ele>
        <time>2014-02-01T13:23:44Z</time>
      </trkpt>
      <trkpt lat="43.39092" lon="6.08948">
        <ele>312.60000610352</ele>
        <time>2014-02-01T13:23:51Z</time>
      </trkpt>
      <trkpt lat="43.39085" lon="6.08971">
        <ele>312.60000610352</ele>
        <time>2014-02-01T13:23:57Z</time>
      </trkpt>
      <trkpt lat="43.39078" lon="6.08991">
        <ele>312.60000610352</ele>
        <time>2014-02-01T13:24:03Z</time>
      </trkpt>
      <trkpt lat="43.39069" lon="6.09011">
        <ele>313</ele>
        <time>2014-02-01T13:24:10Z</time>
      </trkpt>
      <trkpt lat="43.39063" lon="6.09028">
        <ele>314.60000610352</ele>
        <time>2014-02-01T13:24:15Z</time>
      </trkpt>
      <trkpt lat="43.39048" lon="6.09058">
        <ele>314.60000610352</ele>
        <time>2014-02-01T13:24:26Z</time>
      </trkpt>
      <trkpt lat="43.3904" lon="6.09077">
        <ele>314.60000610352</ele>
        <time>2014-02-01T13:24:32Z</time>
      </trkpt>
      <trkpt lat="43.39033" lon="6.09097">
        <ele>314.60000610352</ele>
        <time>2014-02-01T13:24:38Z</time>
      </trkpt>
      <trkpt lat="43.39029" lon="6.0911">
        <ele>315.39999389648</ele>
        <time>2014-02-01T13:24:43Z</time>
      </trkpt>
      <trkpt lat="43.39026" lon="6.09118">
        <ele>316.20001220703</ele>
        <time>2014-02-01T13:24:45Z</time>
      </trkpt>
      <trkpt lat="43.39023" lon="6.0913">
        <ele>316.60000610352</ele>
        <time>2014-02-01T13:24:48Z</time>
      </trkpt>
      <trkpt lat="43.39016" lon="6.09157">
        <ele>316.60000610352</ele>
        <time>2014-02-01T13:24:55Z</time>
      </trkpt>
      <trkpt lat="43.3901" lon="6.0918">
        <ele>316.60000610352</ele>
        <time>2014-02-01T13:25:02Z</time>
      </trkpt>
      <trkpt lat="43.39007" lon="6.09201">
        <ele>316.60000610352</ele>
        <time>2014-02-01T13:25:08Z</time>
      </trkpt>
      <trkpt lat="43.39003" lon="6.09223">
        <ele>316.60000610352</ele>
        <time>2014-02-01T13:25:14Z</time>
      </trkpt>
      <trkpt lat="43.38996" lon="6.0925">
        <ele>316.60000610352</ele>
        <time>2014-02-01T13:25:21Z</time>
      </trkpt>
      <trkpt lat="43.3899" lon="6.09269">
        <ele>316.60000610352</ele>
        <time>2014-02-01T13:25:27Z</time>
      </trkpt>
      <trkpt lat="43.38985" lon="6.09284">
        <ele>318.20001220703</ele>
        <time>2014-02-01T13:25:32Z</time>
      </trkpt>
      <trkpt lat="43.38983" lon="6.09288">
        <ele>318.60000610352</ele>
        <time>2014-02-01T13:25:34Z</time>
      </trkpt>
      <trkpt lat="43.38974" lon="6.09303">
        <ele>318.60000610352</ele>
        <time>2014-02-01T13:25:40Z</time>
      </trkpt>
      <trkpt lat="43.38969" lon="6.09312">
        <ele>319.39999389648</ele>
        <time>2014-02-01T13:25:44Z</time>
      </trkpt>
      <trkpt lat="43.38961" lon="6.0933">
        <ele>320.79998779297</ele>
        <time>2014-02-01T13:25:51Z</time>
      </trkpt>
      <trkpt lat="43.38952" lon="6.09341">
        <ele>320.79998779297</ele>
        <time>2014-02-01T13:25:56Z</time>
      </trkpt>
      <trkpt lat="43.38947" lon="6.09345">
        <ele>320.79998779297</ele>
        <time>2014-02-01T13:25:59Z</time>
      </trkpt>
      <trkpt lat="43.3894" lon="6.09349">
        <ele>320.79998779297</ele>
        <time>2014-02-01T13:26:02Z</time>
      </trkpt>
      <trkpt lat="43.38932" lon="6.09361">
        <ele>320.79998779297</ele>
        <time>2014-02-01T13:26:07Z</time>
      </trkpt>
      <trkpt lat="43.38923" lon="6.0937">
        <ele>320.79998779297</ele>
        <time>2014-02-01T13:26:12Z</time>
      </trkpt>
      <trkpt lat="43.38922" lon="6.09372">
        <ele>321.20001220703</ele>
        <time>2014-02-01T13:26:13Z</time>
      </trkpt>
      <trkpt lat="43.38921" lon="6.09374">
        <ele>321.60000610352</ele>
        <time>2014-02-01T13:26:14Z</time>
      </trkpt>
      <trkpt lat="43.38917" lon="6.09379">
        <ele>322.79998779297</ele>
        <time>2014-02-01T13:26:17Z</time>
      </trkpt>
      <trkpt lat="43.38909" lon="6.09392">
        <ele>323.20001220703</ele>
        <time>2014-02-01T13:26:25Z</time>
      </trkpt>
      <trkpt lat="43.389" lon="6.09399">
        <ele>324.79998779297</ele>
        <time>2014-02-01T13:26:30Z</time>
      </trkpt>
      <trkpt lat="43.38897" lon="6.09405">
        <ele>324.79998779297</ele>
        <time>2014-02-01T13:26:34Z</time>
      </trkpt>
      <trkpt lat="43.38895" lon="6.09407">
        <ele>324.79998779297</ele>
        <time>2014-02-01T13:26:35Z</time>
      </trkpt>
      <trkpt lat="43.38893" lon="6.09414">
        <ele>325.20001220703</ele>
        <time>2014-02-01T13:26:38Z</time>
      </trkpt>
      <trkpt lat="43.38892" lon="6.09416">
        <ele>325.79998779297</ele>
        <time>2014-02-01T13:26:39Z</time>
      </trkpt>
      <trkpt lat="43.38891" lon="6.09416">
        <ele>326.20001220703</ele>
        <time>2014-02-01T13:26:40Z</time>
      </trkpt>
      <trkpt lat="43.3889" lon="6.09417">
        <ele>326.60000610352</ele>
        <time>2014-02-01T13:26:41Z</time>
      </trkpt>
      <trkpt lat="43.3889" lon="6.09417">
        <ele>327</ele>
        <time>2014-02-01T13:26:45Z</time>
      </trkpt>
      <trkpt lat="43.3889" lon="6.09417">
        <ele>327</ele>
        <time>2014-02-01T13:26:53Z</time>
      </trkpt>
      <trkpt lat="43.38887" lon="6.0942">
        <ele>327</ele>
        <time>2014-02-01T13:26:59Z</time>
      </trkpt>
      <trkpt lat="43.38887" lon="6.0942">
        <ele>327</ele>
        <time>2014-02-01T13:27:05Z</time>
      </trkpt>
      <trkpt lat="43.38887" lon="6.09421">
        <ele>327</ele>
        <time>2014-02-01T13:27:11Z</time>
      </trkpt>
      <trkpt lat="43.38885" lon="6.09423">
        <ele>327</ele>
        <time>2014-02-01T13:27:16Z</time>
      </trkpt>
      <trkpt lat="43.38885" lon="6.09423">
        <ele>329.20001220703</ele>
        <time>2014-02-01T13:27:22Z</time>
      </trkpt>
      <trkpt lat="43.38885" lon="6.09423">
        <ele>329.20001220703</ele>
        <time>2014-02-01T13:27:27Z</time>
      </trkpt>
      <trkpt lat="43.38884" lon="6.09423">
        <ele>329.20001220703</ele>
        <time>2014-02-01T13:27:39Z</time>
      </trkpt>
      <trkpt lat="43.38884" lon="6.09423">
        <ele>329.20001220703</ele>
        <time>2014-02-01T13:27:47Z</time>
      </trkpt>
      <trkpt lat="43.38884" lon="6.09423">
        <ele>329.20001220703</ele>
        <time>2014-02-01T13:27:56Z</time>
      </trkpt>
      <trkpt lat="43.38884" lon="6.09423">
        <ele>329.20001220703</ele>
        <time>2014-02-01T13:28:06Z</time>
      </trkpt>
      <trkpt lat="43.38884" lon="6.09426">
        <ele>329.20001220703</ele>
        <time>2014-02-01T13:28:14Z</time>
      </trkpt>
      <trkpt lat="43.38884" lon="6.09426">
        <ele>329.20001220703</ele>
        <time>2014-02-01T13:28:18Z</time>
      </trkpt>
      <trkpt lat="43.38881" lon="6.0943">
        <ele>329.20001220703</ele>
        <time>2014-02-01T13:28:28Z</time>
      </trkpt>
      <trkpt lat="43.38881" lon="6.0943">
        <ele>329.20001220703</ele>
        <time>2014-02-01T13:28:29Z</time>
      </trkpt>
      <trkpt lat="43.38881" lon="6.09431">
        <ele>329.20001220703</ele>
        <time>2014-02-01T13:28:36Z</time>
      </trkpt>
      <trkpt lat="43.38881" lon="6.09431">
        <ele>329.20001220703</ele>
        <time>2014-02-01T13:28:38Z</time>
      </trkpt>
      <trkpt lat="43.3888" lon="6.09431">
        <ele>329.20001220703</ele>
        <time>2014-02-01T13:28:47Z</time>
      </trkpt>
      <trkpt lat="43.3888" lon="6.09431">
        <ele>329.20001220703</ele>
        <time>2014-02-01T13:28:54Z</time>
      </trkpt>
      <trkpt lat="43.3888" lon="6.09431">
        <ele>329.20001220703</ele>
        <time>2014-02-01T13:28:59Z</time>
      </trkpt>
      <trkpt lat="43.3888" lon="6.09431">
        <ele>329.20001220703</ele>
        <time>2014-02-01T13:29:08Z</time>
      </trkpt>
      <trkpt lat="43.3888" lon="6.09432">
        <ele>329.20001220703</ele>
        <time>2014-02-01T13:29:15Z</time>
      </trkpt>
      <trkpt lat="43.3888" lon="6.09432">
        <ele>329.20001220703</ele>
        <time>2014-02-01T13:29:36Z</time>
      </trkpt>
      <trkpt lat="43.3888" lon="6.09432">
        <ele>329.20001220703</ele>
        <time>2014-02-01T13:29:42Z</time>
      </trkpt>
      <trkpt lat="43.38878" lon="6.09432">
        <ele>329.20001220703</ele>
        <time>2014-02-01T13:29:50Z</time>
      </trkpt>
      <trkpt lat="43.38872" lon="6.09433">
        <ele>329.20001220703</ele>
        <time>2014-02-01T13:29:53Z</time>
      </trkpt>
      <trkpt lat="43.38871" lon="6.09432">
        <ele>329.20001220703</ele>
        <time>2014-02-01T13:29:54Z</time>
      </trkpt>
      <trkpt lat="43.38871" lon="6.09432">
        <ele>329.20001220703</ele>
        <time>2014-02-01T13:29:59Z</time>
      </trkpt>
      <trkpt lat="43.38871" lon="6.09432">
        <ele>329.20001220703</ele>
        <time>2014-02-01T13:30:01Z</time>
      </trkpt>
      <trkpt lat="43.38869" lon="6.0943">
        <ele>329.20001220703</ele>
        <time>2014-02-01T13:30:13Z</time>
      </trkpt>
      <trkpt lat="43.38864" lon="6.09426">
        <ele>329.20001220703</ele>
        <time>2014-02-01T13:30:17Z</time>
      </trkpt>
      <trkpt lat="43.38863" lon="6.09423">
        <ele>329.20001220703</ele>
        <time>2014-02-01T13:30:18Z</time>
      </trkpt>
      <trkpt lat="43.38858" lon="6.09415">
        <ele>328.60000610352</ele>
        <time>2014-02-01T13:30:21Z</time>
      </trkpt>
      <trkpt lat="43.38855" lon="6.09411">
        <ele>327.79998779297</ele>
        <time>2014-02-01T13:30:23Z</time>
      </trkpt>
      <trkpt lat="43.38853" lon="6.09408">
        <ele>327.39999389648</ele>
        <time>2014-02-01T13:30:24Z</time>
      </trkpt>
      <trkpt lat="43.38848" lon="6.09403">
        <ele>326.79998779297</ele>
        <time>2014-02-01T13:30:27Z</time>
      </trkpt>
      <trkpt lat="43.38842" lon="6.09391">
        <ele>324.60000610352</ele>
        <time>2014-02-01T13:30:32Z</time>
      </trkpt>
      <trkpt lat="43.38838" lon="6.09394">
        <ele>324.20001220703</ele>
        <time>2014-02-01T13:30:35Z</time>
      </trkpt>
      <trkpt lat="43.38837" lon="6.09397">
        <ele>323.79998779297</ele>
        <time>2014-02-01T13:30:36Z</time>
      </trkpt>
      <trkpt lat="43.38836" lon="6.09406">
        <ele>322.79998779297</ele>
        <time>2014-02-01T13:30:38Z</time>
      </trkpt>
      <trkpt lat="43.38835" lon="6.09409">
        <ele>322.39999389648</ele>
        <time>2014-02-01T13:30:39Z</time>
      </trkpt>
      <trkpt lat="43.38834" lon="6.09412">
        <ele>322</ele>
        <time>2014-02-01T13:30:40Z</time>
      </trkpt>
      <trkpt lat="43.38832" lon="6.09417">
        <ele>320.39999389648</ele>
        <time>2014-02-01T13:30:42Z</time>
      </trkpt>
      <trkpt lat="43.38831" lon="6.0942">
        <ele>320</ele>
        <time>2014-02-01T13:30:43Z</time>
      </trkpt>
      <trkpt lat="43.38829" lon="6.09426">
        <ele>319</ele>
        <time>2014-02-01T13:30:46Z</time>
      </trkpt>
      <trkpt lat="43.38828" lon="6.09427">
        <ele>318.60000610352</ele>
        <time>2014-02-01T13:30:47Z</time>
      </trkpt>
      <trkpt lat="43.38828" lon="6.09428">
        <ele>318.20001220703</ele>
        <time>2014-02-01T13:30:48Z</time>
      </trkpt>
      <trkpt lat="43.38828" lon="6.09428">
        <ele>317.79998779297</ele>
        <time>2014-02-01T13:30:49Z</time>
      </trkpt>
      <trkpt lat="43.38828" lon="6.09428">
        <ele>317.79998779297</ele>
        <time>2014-02-01T13:30:59Z</time>
      </trkpt>
      <trkpt lat="43.38828" lon="6.09428">
        <ele>317.79998779297</ele>
        <time>2014-02-01T13:31:08Z</time>
      </trkpt>
      <trkpt lat="43.38828" lon="6.09428">
        <ele>317.79998779297</ele>
        <time>2014-02-01T13:31:22Z</time>
      </trkpt>
      <trkpt lat="43.38828" lon="6.0943">
        <ele>317.79998779297</ele>
        <time>2014-02-01T13:31:25Z</time>
      </trkpt>
      <trkpt lat="43.38828" lon="6.09434">
        <ele>317.79998779297</ele>
        <time>2014-02-01T13:31:27Z</time>
      </trkpt>
      <trkpt lat="43.38827" lon="6.09444">
        <ele>317.79998779297</ele>
        <time>2014-02-01T13:31:34Z</time>
      </trkpt>
      <trkpt lat="43.38827" lon="6.09446">
        <ele>317.79998779297</ele>
        <time>2014-02-01T13:31:35Z</time>
      </trkpt>
      <trkpt lat="43.38829" lon="6.09453">
        <ele>317.79998779297</ele>
        <time>2014-02-01T13:31:39Z</time>
      </trkpt>
      <trkpt lat="43.38836" lon="6.09457">
        <ele>317.79998779297</ele>
        <time>2014-02-01T13:31:44Z</time>
      </trkpt>
      <trkpt lat="43.3884" lon="6.09457">
        <ele>317.79998779297</ele>
        <time>2014-02-01T13:31:47Z</time>
      </trkpt>
      <trkpt lat="43.38844" lon="6.0946">
        <ele>318.20001220703</ele>
        <time>2014-02-01T13:31:50Z</time>
      </trkpt>
      <trkpt lat="43.38846" lon="6.09461">
        <ele>319</ele>
        <time>2014-02-01T13:31:52Z</time>
      </trkpt>
      <trkpt lat="43.3885" lon="6.09461">
        <ele>320.39999389648</ele>
        <time>2014-02-01T13:31:55Z</time>
      </trkpt>
      <trkpt lat="43.38851" lon="6.09462">
        <ele>321.39999389648</ele>
        <time>2014-02-01T13:31:57Z</time>
      </trkpt>
      <trkpt lat="43.38852" lon="6.09463">
        <ele>321.79998779297</ele>
        <time>2014-02-01T13:31:58Z</time>
      </trkpt>
      <trkpt lat="43.38852" lon="6.09464">
        <ele>322.20001220703</ele>
        <time>2014-02-01T13:31:59Z</time>
      </trkpt>
      <trkpt lat="43.38851" lon="6.09465">
        <ele>322.20001220703</ele>
        <time>2014-02-01T13:32:00Z</time>
      </trkpt>
      <trkpt lat="43.38852" lon="6.09464">
        <ele>322.20001220703</ele>
        <time>2014-02-01T13:32:02Z</time>
      </trkpt>
      <trkpt lat="43.38853" lon="6.09463">
        <ele>322.20001220703</ele>
        <time>2014-02-01T13:32:05Z</time>
      </trkpt>
      <trkpt lat="43.38854" lon="6.09463">
        <ele>322.20001220703</ele>
        <time>2014-02-01T13:32:12Z</time>
      </trkpt>
      <trkpt lat="43.38855" lon="6.09464">
        <ele>322.60000610352</ele>
        <time>2014-02-01T13:32:15Z</time>
      </trkpt>
      <trkpt lat="43.38856" lon="6.09464">
        <ele>323</ele>
        <time>2014-02-01T13:32:16Z</time>
      </trkpt>
      <trkpt lat="43.38856" lon="6.09464">
        <ele>323.39999389648</ele>
        <time>2014-02-01T13:32:17Z</time>
      </trkpt>
      <trkpt lat="43.3886" lon="6.09465">
        <ele>324.20001220703</ele>
        <time>2014-02-01T13:32:24Z</time>
      </trkpt>
      <trkpt lat="43.38863" lon="6.09465">
        <ele>324.20001220703</ele>
        <time>2014-02-01T13:32:28Z</time>
      </trkpt>
      <trkpt lat="43.38863" lon="6.09465">
        <ele>324.20001220703</ele>
        <time>2014-02-01T13:32:29Z</time>
      </trkpt>
      <trkpt lat="43.38866" lon="6.0947">
        <ele>326.39999389648</ele>
        <time>2014-02-01T13:32:35Z</time>
      </trkpt>
      <trkpt lat="43.38867" lon="6.0947">
        <ele>326.39999389648</ele>
        <time>2014-02-01T13:32:36Z</time>
      </trkpt>
      <trkpt lat="43.38869" lon="6.09472">
        <ele>326.39999389648</ele>
        <time>2014-02-01T13:32:43Z</time>
      </trkpt>
      <trkpt lat="43.38869" lon="6.09472">
        <ele>326.39999389648</ele>
        <time>2014-02-01T13:32:47Z</time>
      </trkpt>
      <trkpt lat="43.38869" lon="6.09473">
        <ele>326.39999389648</ele>
        <time>2014-02-01T13:32:52Z</time>
      </trkpt>
      <trkpt lat="43.38869" lon="6.09473">
        <ele>326.39999389648</ele>
        <time>2014-02-01T13:33:13Z</time>
      </trkpt>
      <trkpt lat="43.38869" lon="6.09473">
        <ele>326.39999389648</ele>
        <time>2014-02-01T13:33:27Z</time>
      </trkpt>
      <trkpt lat="43.38869" lon="6.09473">
        <ele>326.39999389648</ele>
        <time>2014-02-01T13:33:31Z</time>
      </trkpt>
      <trkpt lat="43.38869" lon="6.09473">
        <ele>326.39999389648</ele>
        <time>2014-02-01T13:33:51Z</time>
      </trkpt>
      <trkpt lat="43.38869" lon="6.09473">
        <ele>326.39999389648</ele>
        <time>2014-02-01T13:34:03Z</time>
      </trkpt>
      <trkpt lat="43.38869" lon="6.09473">
        <ele>326.39999389648</ele>
        <time>2014-02-01T13:34:05Z</time>
      </trkpt>
      <trkpt lat="43.38871" lon="6.0948">
        <ele>326.39999389648</ele>
        <time>2014-02-01T13:34:09Z</time>
      </trkpt>
      <trkpt lat="43.38872" lon="6.09484">
        <ele>326.39999389648</ele>
        <time>2014-02-01T13:34:11Z</time>
      </trkpt>
      <trkpt lat="43.38873" lon="6.09499">
        <ele>326.39999389648</ele>
        <time>2014-02-01T13:34:17Z</time>
      </trkpt>
      <trkpt lat="43.38874" lon="6.09519">
        <ele>326.39999389648</ele>
        <time>2014-02-01T13:34:23Z</time>
      </trkpt>
      <trkpt lat="43.38877" lon="6.09575">
        <ele>326.39999389648</ele>
        <time>2014-02-01T13:34:36Z</time>
      </trkpt>
      <trkpt lat="43.38882" lon="6.09607">
        <ele>326.39999389648</ele>
        <time>2014-02-01T13:34:41Z</time>
      </trkpt>
      <trkpt lat="43.38895" lon="6.09632">
        <ele>326.39999389648</ele>
        <time>2014-02-01T13:34:46Z</time>
      </trkpt>
      <trkpt lat="43.38897" lon="6.09651">
        <ele>326.39999389648</ele>
        <time>2014-02-01T13:34:49Z</time>
      </trkpt>
      <trkpt lat="43.38899" lon="6.09695">
        <ele>324.20001220703</ele>
        <time>2014-02-01T13:34:55Z</time>
      </trkpt>
      <trkpt lat="43.38903" lon="6.09742">
        <ele>322.20001220703</ele>
        <time>2014-02-01T13:35:01Z</time>
      </trkpt>
      <trkpt lat="43.38902" lon="6.09757">
        <ele>321.79998779297</ele>
        <time>2014-02-01T13:35:03Z</time>
      </trkpt>
      <trkpt lat="43.389" lon="6.09774">
        <ele>321</ele>
        <time>2014-02-01T13:35:05Z</time>
      </trkpt>
      <trkpt lat="43.38898" lon="6.09782">
        <ele>320.60000610352</ele>
        <time>2014-02-01T13:35:06Z</time>
      </trkpt>
      <trkpt lat="43.38892" lon="6.09811">
        <ele>319</ele>
        <time>2014-02-01T13:35:09Z</time>
      </trkpt>
      <trkpt lat="43.38891" lon="6.0982">
        <ele>318.60000610352</ele>
        <time>2014-02-01T13:35:10Z</time>
      </trkpt>
      <trkpt lat="43.38889" lon="6.09841">
        <ele>316.39999389648</ele>
        <time>2014-02-01T13:35:12Z</time>
      </trkpt>
      <trkpt lat="43.38889" lon="6.09852">
        <ele>315.60000610352</ele>
        <time>2014-02-01T13:35:13Z</time>
      </trkpt>
      <trkpt lat="43.38887" lon="6.09864">
        <ele>314.79998779297</ele>
        <time>2014-02-01T13:35:14Z</time>
      </trkpt>
      <trkpt lat="43.38885" lon="6.09876">
        <ele>313.79998779297</ele>
        <time>2014-02-01T13:35:15Z</time>
      </trkpt>
      <trkpt lat="43.38882" lon="6.09889">
        <ele>312.60000610352</ele>
        <time>2014-02-01T13:35:16Z</time>
      </trkpt>
      <trkpt lat="43.38876" lon="6.09915">
        <ele>310.20001220703</ele>
        <time>2014-02-01T13:35:18Z</time>
      </trkpt>
      <trkpt lat="43.38872" lon="6.09928">
        <ele>309.20001220703</ele>
        <time>2014-02-01T13:35:19Z</time>
      </trkpt>
      <trkpt lat="43.38866" lon="6.09954">
        <ele>306.79998779297</ele>
        <time>2014-02-01T13:35:21Z</time>
      </trkpt>
      <trkpt lat="43.38864" lon="6.09967">
        <ele>305.79998779297</ele>
        <time>2014-02-01T13:35:22Z</time>
      </trkpt>
      <trkpt lat="43.38862" lon="6.0998">
        <ele>304.79998779297</ele>
        <time>2014-02-01T13:35:23Z</time>
      </trkpt>
      <trkpt lat="43.38861" lon="6.09994">
        <ele>303.79998779297</ele>
        <time>2014-02-01T13:35:24Z</time>
      </trkpt>
      <trkpt lat="43.38859" lon="6.10007">
        <ele>303</ele>
        <time>2014-02-01T13:35:25Z</time>
      </trkpt>
      <trkpt lat="43.38856" lon="6.10019">
        <ele>302.20001220703</ele>
        <time>2014-02-01T13:35:26Z</time>
      </trkpt>
      <trkpt lat="43.38853" lon="6.10032">
        <ele>301.39999389648</ele>
        <time>2014-02-01T13:35:27Z</time>
      </trkpt>
      <trkpt lat="43.3885" lon="6.10044">
        <ele>300.60000610352</ele>
        <time>2014-02-01T13:35:28Z</time>
      </trkpt>
      <trkpt lat="43.38847" lon="6.10056">
        <ele>299.79998779297</ele>
        <time>2014-02-01T13:35:29Z</time>
      </trkpt>
      <trkpt lat="43.38844" lon="6.10068">
        <ele>298.79998779297</ele>
        <time>2014-02-01T13:35:30Z</time>
      </trkpt>
      <trkpt lat="43.38841" lon="6.10079">
        <ele>298.20001220703</ele>
        <time>2014-02-01T13:35:31Z</time>
      </trkpt>
      <trkpt lat="43.38838" lon="6.10092">
        <ele>297.39999389648</ele>
        <time>2014-02-01T13:35:32Z</time>
      </trkpt>
      <trkpt lat="43.38835" lon="6.10103">
        <ele>296.60000610352</ele>
        <time>2014-02-01T13:35:33Z</time>
      </trkpt>
      <trkpt lat="43.38832" lon="6.10114">
        <ele>296</ele>
        <time>2014-02-01T13:35:34Z</time>
      </trkpt>
      <trkpt lat="43.3883" lon="6.10122">
        <ele>295.39999389648</ele>
        <time>2014-02-01T13:35:35Z</time>
      </trkpt>
      <trkpt lat="43.38828" lon="6.1013">
        <ele>294.79998779297</ele>
        <time>2014-02-01T13:35:36Z</time>
      </trkpt>
      <trkpt lat="43.38827" lon="6.10135">
        <ele>293.60000610352</ele>
        <time>2014-02-01T13:35:37Z</time>
      </trkpt>
      <trkpt lat="43.38826" lon="6.10138">
        <ele>293</ele>
        <time>2014-02-01T13:35:38Z</time>
      </trkpt>
      <trkpt lat="43.38824" lon="6.10145">
        <ele>293</ele>
        <time>2014-02-01T13:35:42Z</time>
      </trkpt>
      <trkpt lat="43.38824" lon="6.10149">
        <ele>292.60000610352</ele>
        <time>2014-02-01T13:35:45Z</time>
      </trkpt>
      <trkpt lat="43.38823" lon="6.10151">
        <ele>292.20001220703</ele>
        <time>2014-02-01T13:35:46Z</time>
      </trkpt>
      <trkpt lat="43.38824" lon="6.10152">
        <ele>291.79998779297</ele>
        <time>2014-02-01T13:35:47Z</time>
      </trkpt>
      <trkpt lat="43.38824" lon="6.10155">
        <ele>291.39999389648</ele>
        <time>2014-02-01T13:35:48Z</time>
      </trkpt>
      <trkpt lat="43.38824" lon="6.10157">
        <ele>291</ele>
        <time>2014-02-01T13:35:49Z</time>
      </trkpt>
      <trkpt lat="43.38826" lon="6.10165">
        <ele>291</ele>
        <time>2014-02-01T13:35:52Z</time>
      </trkpt>
      <trkpt lat="43.38827" lon="6.10172">
        <ele>291</ele>
        <time>2014-02-01T13:35:54Z</time>
      </trkpt>
      <trkpt lat="43.38826" lon="6.10183">
        <ele>291</ele>
        <time>2014-02-01T13:35:57Z</time>
      </trkpt>
      <trkpt lat="43.38818" lon="6.102">
        <ele>291</ele>
        <time>2014-02-01T13:36:02Z</time>
      </trkpt>
      <trkpt lat="43.38818" lon="6.10207">
        <ele>291</ele>
        <time>2014-02-01T13:36:04Z</time>
      </trkpt>
      <trkpt lat="43.38817" lon="6.10214">
        <ele>291.39999389648</ele>
        <time>2014-02-01T13:36:06Z</time>
      </trkpt>
      <trkpt lat="43.38817" lon="6.10217">
        <ele>291.79998779297</ele>
        <time>2014-02-01T13:36:07Z</time>
      </trkpt>
      <trkpt lat="43.38817" lon="6.10221">
        <ele>292.20001220703</ele>
        <time>2014-02-01T13:36:08Z</time>
      </trkpt>
      <trkpt lat="43.38824" lon="6.10248">
        <ele>293</ele>
        <time>2014-02-01T13:36:14Z</time>
      </trkpt>
      <trkpt lat="43.38828" lon="6.10277">
        <ele>292</ele>
        <time>2014-02-01T13:36:19Z</time>
      </trkpt>
      <trkpt lat="43.38828" lon="6.10283">
        <ele>291.60000610352</ele>
        <time>2014-02-01T13:36:20Z</time>
      </trkpt>
      <trkpt lat="43.38829" lon="6.10291">
        <ele>291.20001220703</ele>
        <time>2014-02-01T13:36:21Z</time>
      </trkpt>
      <trkpt lat="43.38829" lon="6.10298">
        <ele>290.79998779297</ele>
        <time>2014-02-01T13:36:22Z</time>
      </trkpt>
      <trkpt lat="43.3883" lon="6.10335">
        <ele>289.79998779297</ele>
        <time>2014-02-01T13:36:27Z</time>
      </trkpt>
      <trkpt lat="43.3883" lon="6.10342">
        <ele>289.39999389648</ele>
        <time>2014-02-01T13:36:28Z</time>
      </trkpt>
      <trkpt lat="43.3883" lon="6.10356">
        <ele>288.60000610352</ele>
        <time>2014-02-01T13:36:30Z</time>
      </trkpt>
      <trkpt lat="43.38832" lon="6.10395">
        <ele>288.60000610352</ele>
        <time>2014-02-01T13:36:35Z</time>
      </trkpt>
      <trkpt lat="43.38829" lon="6.10427">
        <ele>287.39999389648</ele>
        <time>2014-02-01T13:36:39Z</time>
      </trkpt>
      <trkpt lat="43.38826" lon="6.10442">
        <ele>286.60000610352</ele>
        <time>2014-02-01T13:36:41Z</time>
      </trkpt>
      <trkpt lat="43.38826" lon="6.10449">
        <ele>286.60000610352</ele>
        <time>2014-02-01T13:36:42Z</time>
      </trkpt>
      <trkpt lat="43.38826" lon="6.10472">
        <ele>286.20001220703</ele>
        <time>2014-02-01T13:36:45Z</time>
      </trkpt>
      <trkpt lat="43.38825" lon="6.1048">
        <ele>285.60000610352</ele>
        <time>2014-02-01T13:36:46Z</time>
      </trkpt>
      <trkpt lat="43.38821" lon="6.10494">
        <ele>284.60000610352</ele>
        <time>2014-02-01T13:36:48Z</time>
      </trkpt>
      <trkpt lat="43.3882" lon="6.10502">
        <ele>284.20001220703</ele>
        <time>2014-02-01T13:36:49Z</time>
      </trkpt>
      <trkpt lat="43.38814" lon="6.10521">
        <ele>283.39999389648</ele>
        <time>2014-02-01T13:36:52Z</time>
      </trkpt>
      <trkpt lat="43.38813" lon="6.10541">
        <ele>282</ele>
        <time>2014-02-01T13:36:55Z</time>
      </trkpt>
      <trkpt lat="43.38808" lon="6.10558">
        <ele>282</ele>
        <time>2014-02-01T13:36:58Z</time>
      </trkpt>
      <trkpt lat="43.38807" lon="6.10561">
        <ele>282</ele>
        <time>2014-02-01T13:36:59Z</time>
      </trkpt>
      <trkpt lat="43.38796" lon="6.10624">
        <ele>279.79998779297</ele>
        <time>2014-02-01T13:37:09Z</time>
      </trkpt>
      <trkpt lat="43.38794" lon="6.10641">
        <ele>279.39999389648</ele>
        <time>2014-02-01T13:37:12Z</time>
      </trkpt>
      <trkpt lat="43.3879" lon="6.10658">
        <ele>277.79998779297</ele>
        <time>2014-02-01T13:37:16Z</time>
      </trkpt>
      <trkpt lat="43.38786" lon="6.1067">
        <ele>277.79998779297</ele>
        <time>2014-02-01T13:37:19Z</time>
      </trkpt>
      <trkpt lat="43.38779" lon="6.10699">
        <ele>277.79998779297</ele>
        <time>2014-02-01T13:37:25Z</time>
      </trkpt>
      <trkpt lat="43.38777" lon="6.10709">
        <ele>277.39999389648</ele>
        <time>2014-02-01T13:37:27Z</time>
      </trkpt>
      <trkpt lat="43.38776" lon="6.10714">
        <ele>277</ele>
        <time>2014-02-01T13:37:28Z</time>
      </trkpt>
      <trkpt lat="43.38775" lon="6.10719">
        <ele>276.39999389648</ele>
        <time>2014-02-01T13:37:29Z</time>
      </trkpt>
      <trkpt lat="43.38774" lon="6.10724">
        <ele>276</ele>
        <time>2014-02-01T13:37:30Z</time>
      </trkpt>
      <trkpt lat="43.38774" lon="6.10728">
        <ele>275.60000610352</ele>
        <time>2014-02-01T13:37:31Z</time>
      </trkpt>
      <trkpt lat="43.38772" lon="6.10744">
        <ele>275.60000610352</ele>
        <time>2014-02-01T13:37:35Z</time>
      </trkpt>
      <trkpt lat="43.38772" lon="6.10749">
        <ele>275.60000610352</ele>
        <time>2014-02-01T13:37:39Z</time>
      </trkpt>
      <trkpt lat="43.38772" lon="6.10749">
        <ele>275.60000610352</ele>
        <time>2014-02-01T13:37:47Z</time>
      </trkpt>
      <trkpt lat="43.38772" lon="6.10749">
        <ele>275.60000610352</ele>
        <time>2014-02-01T13:37:53Z</time>
      </trkpt>
      <trkpt lat="43.38771" lon="6.10751">
        <ele>275.60000610352</ele>
        <time>2014-02-01T13:37:56Z</time>
      </trkpt>
      <trkpt lat="43.38771" lon="6.10755">
        <ele>275.60000610352</ele>
        <time>2014-02-01T13:37:58Z</time>
      </trkpt>
      <trkpt lat="43.38763" lon="6.10761">
        <ele>275.60000610352</ele>
        <time>2014-02-01T13:38:02Z</time>
      </trkpt>
      <trkpt lat="43.38757" lon="6.10765">
        <ele>275.60000610352</ele>
        <time>2014-02-01T13:38:06Z</time>
      </trkpt>
      <trkpt lat="43.38755" lon="6.10765">
        <ele>275.60000610352</ele>
        <time>2014-02-01T13:38:07Z</time>
      </trkpt>
      <trkpt lat="43.3875" lon="6.10767">
        <ele>275.60000610352</ele>
        <time>2014-02-01T13:38:09Z</time>
      </trkpt>
      <trkpt lat="43.38743" lon="6.1077">
        <ele>275.60000610352</ele>
        <time>2014-02-01T13:38:12Z</time>
      </trkpt>
      <trkpt lat="43.38739" lon="6.10772">
        <ele>275.60000610352</ele>
        <time>2014-02-01T13:38:14Z</time>
      </trkpt>
      <trkpt lat="43.3873" lon="6.10789">
        <ele>275.60000610352</ele>
        <time>2014-02-01T13:38:20Z</time>
      </trkpt>
      <trkpt lat="43.38728" lon="6.10793">
        <ele>275.60000610352</ele>
        <time>2014-02-01T13:38:22Z</time>
      </trkpt>
      <trkpt lat="43.38707" lon="6.1081">
        <ele>275.60000610352</ele>
        <time>2014-02-01T13:38:32Z</time>
      </trkpt>
      <trkpt lat="43.38699" lon="6.1082">
        <ele>275.60000610352</ele>
        <time>2014-02-01T13:38:36Z</time>
      </trkpt>
      <trkpt lat="43.38696" lon="6.10825">
        <ele>275.60000610352</ele>
        <time>2014-02-01T13:38:38Z</time>
      </trkpt>
      <trkpt lat="43.38692" lon="6.1084">
        <ele>275.60000610352</ele>
        <time>2014-02-01T13:38:43Z</time>
      </trkpt>
      <trkpt lat="43.38691" lon="6.10855">
        <ele>275.60000610352</ele>
        <time>2014-02-01T13:38:46Z</time>
      </trkpt>
      <trkpt lat="43.38689" lon="6.1086">
        <ele>275.60000610352</ele>
        <time>2014-02-01T13:38:47Z</time>
      </trkpt>
      <trkpt lat="43.38682" lon="6.10887">
        <ele>275.60000610352</ele>
        <time>2014-02-01T13:38:53Z</time>
      </trkpt>
      <trkpt lat="43.38676" lon="6.10906">
        <ele>275.60000610352</ele>
        <time>2014-02-01T13:38:58Z</time>
      </trkpt>
      <trkpt lat="43.3867" lon="6.10932">
        <ele>275.60000610352</ele>
        <time>2014-02-01T13:39:05Z</time>
      </trkpt>
      <trkpt lat="43.38664" lon="6.10961">
        <ele>275.60000610352</ele>
        <time>2014-02-01T13:39:13Z</time>
      </trkpt>
      <trkpt lat="43.38662" lon="6.10984">
        <ele>275.60000610352</ele>
        <time>2014-02-01T13:39:20Z</time>
      </trkpt>
      <trkpt lat="43.38659" lon="6.11003">
        <ele>275.60000610352</ele>
        <time>2014-02-01T13:39:26Z</time>
      </trkpt>
      <trkpt lat="43.38652" lon="6.11003">
        <ele>275.60000610352</ele>
        <time>2014-02-01T13:39:29Z</time>
      </trkpt>
      <trkpt lat="43.38649" lon="6.11001">
        <ele>276</ele>
        <time>2014-02-01T13:39:32Z</time>
      </trkpt>
      <trkpt lat="43.38648" lon="6.11001">
        <ele>276.60000610352</ele>
        <time>2014-02-01T13:39:33Z</time>
      </trkpt>
      <trkpt lat="43.38644" lon="6.11002">
        <ele>277.39999389648</ele>
        <time>2014-02-01T13:39:35Z</time>
      </trkpt>
      <trkpt lat="43.38643" lon="6.11003">
        <ele>277.79998779297</ele>
        <time>2014-02-01T13:39:36Z</time>
      </trkpt>
      <trkpt lat="43.38639" lon="6.11008">
        <ele>277.79998779297</ele>
        <time>2014-02-01T13:39:39Z</time>
      </trkpt>
      <trkpt lat="43.38636" lon="6.11009">
        <ele>277.79998779297</ele>
        <time>2014-02-01T13:39:41Z</time>
      </trkpt>
      <trkpt lat="43.38631" lon="6.11008">
        <ele>277.79998779297</ele>
        <time>2014-02-01T13:39:44Z</time>
      </trkpt>
      <trkpt lat="43.38623" lon="6.10998">
        <ele>280</ele>
        <time>2014-02-01T13:39:50Z</time>
      </trkpt>
      <trkpt lat="43.3861" lon="6.10991">
        <ele>280</ele>
        <time>2014-02-01T13:39:56Z</time>
      </trkpt>
      <trkpt lat="43.38599" lon="6.10989">
        <ele>280</ele>
        <time>2014-02-01T13:40:01Z</time>
      </trkpt>
      <trkpt lat="43.38586" lon="6.1099">
        <ele>280</ele>
        <time>2014-02-01T13:40:06Z</time>
      </trkpt>
      <trkpt lat="43.38585" lon="6.1099">
        <ele>280</ele>
        <time>2014-02-01T13:40:07Z</time>
      </trkpt>
      <trkpt lat="43.38583" lon="6.1099">
        <ele>280</ele>
        <time>2014-02-01T13:40:12Z</time>
      </trkpt>
      <trkpt lat="43.38579" lon="6.1099">
        <ele>280</ele>
        <time>2014-02-01T13:40:17Z</time>
      </trkpt>
      <trkpt lat="43.38562" lon="6.10988">
        <ele>279.60000610352</ele>
        <time>2014-02-01T13:40:22Z</time>
      </trkpt>
      <trkpt lat="43.38548" lon="6.10982">
        <ele>278.20001220703</ele>
        <time>2014-02-01T13:40:25Z</time>
      </trkpt>
      <trkpt lat="43.38543" lon="6.1098">
        <ele>277.79998779297</ele>
        <time>2014-02-01T13:40:26Z</time>
      </trkpt>
      <trkpt lat="43.38534" lon="6.10976">
        <ele>277.79998779297</ele>
        <time>2014-02-01T13:40:28Z</time>
      </trkpt>
      <trkpt lat="43.3851" lon="6.10967">
        <ele>277.20001220703</ele>
        <time>2014-02-01T13:40:32Z</time>
      </trkpt>
      <trkpt lat="43.38496" lon="6.10964">
        <ele>276</ele>
        <time>2014-02-01T13:40:34Z</time>
      </trkpt>
      <trkpt lat="43.3849" lon="6.10962">
        <ele>275.39999389648</ele>
        <time>2014-02-01T13:40:35Z</time>
      </trkpt>
      <trkpt lat="43.38485" lon="6.10961">
        <ele>274.79998779297</ele>
        <time>2014-02-01T13:40:36Z</time>
      </trkpt>
      <trkpt lat="43.3848" lon="6.1096">
        <ele>274.20001220703</ele>
        <time>2014-02-01T13:40:37Z</time>
      </trkpt>
      <trkpt lat="43.38477" lon="6.10959">
        <ele>273.60000610352</ele>
        <time>2014-02-01T13:40:38Z</time>
      </trkpt>
      <trkpt lat="43.38475" lon="6.10959">
        <ele>273</ele>
        <time>2014-02-01T13:40:39Z</time>
      </trkpt>
      <trkpt lat="43.38471" lon="6.10958">
        <ele>273</ele>
        <time>2014-02-01T13:40:41Z</time>
      </trkpt>
      <trkpt lat="43.38468" lon="6.10958">
        <ele>272.60000610352</ele>
        <time>2014-02-01T13:40:42Z</time>
      </trkpt>
      <trkpt lat="43.38465" lon="6.10959">
        <ele>272</ele>
        <time>2014-02-01T13:40:43Z</time>
      </trkpt>
      <trkpt lat="43.38461" lon="6.10959">
        <ele>271.60000610352</ele>
        <time>2014-02-01T13:40:44Z</time>
      </trkpt>
      <trkpt lat="43.38458" lon="6.10959">
        <ele>271.20001220703</ele>
        <time>2014-02-01T13:40:45Z</time>
      </trkpt>
      <trkpt lat="43.38454" lon="6.10959">
        <ele>270.79998779297</ele>
        <time>2014-02-01T13:40:46Z</time>
      </trkpt>
      <trkpt lat="43.38435" lon="6.10956">
        <ele>270.79998779297</ele>
        <time>2014-02-01T13:40:51Z</time>
      </trkpt>
      <trkpt lat="43.38417" lon="6.10952">
        <ele>270.79998779297</ele>
        <time>2014-02-01T13:40:55Z</time>
      </trkpt>
      <trkpt lat="43.384" lon="6.10948">
        <ele>270</ele>
        <time>2014-02-01T13:40:59Z</time>
      </trkpt>
      <trkpt lat="43.3839" lon="6.10946">
        <ele>269.20001220703</ele>
        <time>2014-02-01T13:41:01Z</time>
      </trkpt>
      <trkpt lat="43.38386" lon="6.10945">
        <ele>268.79998779297</ele>
        <time>2014-02-01T13:41:02Z</time>
      </trkpt>
      <trkpt lat="43.38364" lon="6.10939">
        <ele>268.79998779297</ele>
        <time>2014-02-01T13:41:07Z</time>
      </trkpt>
      <trkpt lat="43.38344" lon="6.10932">
        <ele>268.79998779297</ele>
        <time>2014-02-01T13:41:12Z</time>
      </trkpt>
      <trkpt lat="43.38312" lon="6.10921">
        <ele>268.79998779297</ele>
        <time>2014-02-01T13:41:20Z</time>
      </trkpt>
      <trkpt lat="43.38288" lon="6.10913">
        <ele>267.20001220703</ele>
        <time>2014-02-01T13:41:25Z</time>
      </trkpt>
      <trkpt lat="43.38279" lon="6.1091">
        <ele>266.79998779297</ele>
        <time>2014-02-01T13:41:27Z</time>
      </trkpt>
      <trkpt lat="43.38238" lon="6.10898">
        <ele>266.79998779297</ele>
        <time>2014-02-01T13:41:36Z</time>
      </trkpt>
      <trkpt lat="43.38213" lon="6.1089">
        <ele>266.79998779297</ele>
        <time>2014-02-01T13:41:43Z</time>
      </trkpt>
      <trkpt lat="43.382" lon="6.10886">
        <ele>266.79998779297</ele>
        <time>2014-02-01T13:41:49Z</time>
      </trkpt>
      <trkpt lat="43.38197" lon="6.10888">
        <ele>266.79998779297</ele>
        <time>2014-02-01T13:41:50Z</time>
      </trkpt>
      <trkpt lat="43.38195" lon="6.10894">
        <ele>266.79998779297</ele>
        <time>2014-02-01T13:41:52Z</time>
      </trkpt>
      <trkpt lat="43.38191" lon="6.10922">
        <ele>266.79998779297</ele>
        <time>2014-02-01T13:41:58Z</time>
      </trkpt>
      <trkpt lat="43.38187" lon="6.10944">
        <ele>266.79998779297</ele>
        <time>2014-02-01T13:42:03Z</time>
      </trkpt>
      <trkpt lat="43.38184" lon="6.10953">
        <ele>266.79998779297</ele>
        <time>2014-02-01T13:42:05Z</time>
      </trkpt>
      <trkpt lat="43.3818" lon="6.10974">
        <ele>267.20001220703</ele>
        <time>2014-02-01T13:42:10Z</time>
      </trkpt>
      <trkpt lat="43.38171" lon="6.11016">
        <ele>268.79998779297</ele>
        <time>2014-02-01T13:42:21Z</time>
      </trkpt>
      <trkpt lat="43.38167" lon="6.11044">
        <ele>268.79998779297</ele>
        <time>2014-02-01T13:42:29Z</time>
      </trkpt>
      <trkpt lat="43.38165" lon="6.11055">
        <ele>270</ele>
        <time>2014-02-01T13:42:32Z</time>
      </trkpt>
      <trkpt lat="43.38163" lon="6.11063">
        <ele>270.79998779297</ele>
        <time>2014-02-01T13:42:34Z</time>
      </trkpt>
      <trkpt lat="43.38161" lon="6.1107">
        <ele>270.79998779297</ele>
        <time>2014-02-01T13:42:36Z</time>
      </trkpt>
      <trkpt lat="43.38151" lon="6.11098">
        <ele>270.79998779297</ele>
        <time>2014-02-01T13:42:44Z</time>
      </trkpt>
      <trkpt lat="43.3814" lon="6.11115">
        <ele>271.20001220703</ele>
        <time>2014-02-01T13:42:50Z</time>
      </trkpt>
      <trkpt lat="43.38133" lon="6.11125">
        <ele>273</ele>
        <time>2014-02-01T13:42:54Z</time>
      </trkpt>
      <trkpt lat="43.38124" lon="6.11135">
        <ele>273</ele>
        <time>2014-02-01T13:42:59Z</time>
      </trkpt>
      <trkpt lat="43.38114" lon="6.11145">
        <ele>273</ele>
        <time>2014-02-01T13:43:06Z</time>
      </trkpt>
      <trkpt lat="43.38114" lon="6.11146">
        <ele>273</ele>
        <time>2014-02-01T13:43:11Z</time>
      </trkpt>
      <trkpt lat="43.38114" lon="6.11146">
        <ele>273</ele>
        <time>2014-02-01T13:43:31Z</time>
      </trkpt>
      <trkpt lat="43.38114" lon="6.11146">
        <ele>273</ele>
        <time>2014-02-01T13:44:36Z</time>
      </trkpt>
      <trkpt lat="43.38111" lon="6.11148">
        <ele>273</ele>
        <time>2014-02-01T13:44:46Z</time>
      </trkpt>
      <trkpt lat="43.38099" lon="6.1116">
        <ele>274.20001220703</ele>
        <time>2014-02-01T13:44:53Z</time>
      </trkpt>
      <trkpt lat="43.38097" lon="6.11162">
        <ele>274.60000610352</ele>
        <time>2014-02-01T13:44:54Z</time>
      </trkpt>
      <trkpt lat="43.38095" lon="6.11164">
        <ele>275</ele>
        <time>2014-02-01T13:44:55Z</time>
      </trkpt>
      <trkpt lat="43.38087" lon="6.11173">
        <ele>275</ele>
        <time>2014-02-01T13:44:59Z</time>
      </trkpt>
      <trkpt lat="43.38071" lon="6.11188">
        <ele>276.60000610352</ele>
        <time>2014-02-01T13:45:06Z</time>
      </trkpt>
      <trkpt lat="43.3806" lon="6.112">
        <ele>277</ele>
        <time>2014-02-01T13:45:11Z</time>
      </trkpt>
      <trkpt lat="43.38046" lon="6.11221">
        <ele>277</ele>
        <time>2014-02-01T13:45:17Z</time>
      </trkpt>
      <trkpt lat="43.38033" lon="6.11249">
        <ele>277</ele>
        <time>2014-02-01T13:45:23Z</time>
      </trkpt>
      <trkpt lat="43.38023" lon="6.11274">
        <ele>277</ele>
        <time>2014-02-01T13:45:29Z</time>
      </trkpt>
      <trkpt lat="43.3801" lon="6.11301">
        <ele>277</ele>
        <time>2014-02-01T13:45:35Z</time>
      </trkpt>
      <trkpt lat="43.37998" lon="6.11328">
        <ele>277</ele>
        <time>2014-02-01T13:45:41Z</time>
      </trkpt>
      <trkpt lat="43.37979" lon="6.11359">
        <ele>277</ele>
        <time>2014-02-01T13:45:48Z</time>
      </trkpt>
      <trkpt lat="43.37961" lon="6.11381">
        <ele>277</ele>
        <time>2014-02-01T13:45:54Z</time>
      </trkpt>
      <trkpt lat="43.37924" lon="6.11429">
        <ele>277</ele>
        <time>2014-02-01T13:46:08Z</time>
      </trkpt>
      <trkpt lat="43.37903" lon="6.11454">
        <ele>277</ele>
        <time>2014-02-01T13:46:16Z</time>
      </trkpt>
      <trkpt lat="43.3788" lon="6.11468">
        <ele>277</ele>
        <time>2014-02-01T13:46:23Z</time>
      </trkpt>
      <trkpt lat="43.37861" lon="6.11474">
        <ele>277</ele>
        <time>2014-02-01T13:46:29Z</time>
      </trkpt>
      <trkpt lat="43.37849" lon="6.11488">
        <ele>277</ele>
        <time>2014-02-01T13:46:35Z</time>
      </trkpt>
      <trkpt lat="43.37845" lon="6.11496">
        <ele>277.39999389648</ele>
        <time>2014-02-01T13:46:38Z</time>
      </trkpt>
      <trkpt lat="43.37832" lon="6.11525">
        <ele>279.20001220703</ele>
        <time>2014-02-01T13:46:47Z</time>
      </trkpt>
      <trkpt lat="43.37825" lon="6.11542">
        <ele>279.20001220703</ele>
        <time>2014-02-01T13:46:53Z</time>
      </trkpt>
      <trkpt lat="43.37822" lon="6.1155">
        <ele>280.39999389648</ele>
        <time>2014-02-01T13:46:56Z</time>
      </trkpt>
      <trkpt lat="43.37819" lon="6.11558">
        <ele>281.39999389648</ele>
        <time>2014-02-01T13:46:59Z</time>
      </trkpt>
      <trkpt lat="43.37807" lon="6.11577">
        <ele>281.39999389648</ele>
        <time>2014-02-01T13:47:06Z</time>
      </trkpt>
      <trkpt lat="43.37795" lon="6.11589">
        <ele>281.79998779297</ele>
        <time>2014-02-01T13:47:12Z</time>
      </trkpt>
      <trkpt lat="43.37789" lon="6.11598">
        <ele>283.39999389648</ele>
        <time>2014-02-01T13:47:16Z</time>
      </trkpt>
      <trkpt lat="43.37785" lon="6.11605">
        <ele>283.39999389648</ele>
        <time>2014-02-01T13:47:19Z</time>
      </trkpt>
      <trkpt lat="43.3777" lon="6.11624">
        <ele>283.39999389648</ele>
        <time>2014-02-01T13:47:27Z</time>
      </trkpt>
      <trkpt lat="43.37759" lon="6.11645">
        <ele>285.39999389648</ele>
        <time>2014-02-01T13:47:35Z</time>
      </trkpt>
      <trkpt lat="43.37755" lon="6.11658">
        <ele>285.39999389648</ele>
        <time>2014-02-01T13:47:40Z</time>
      </trkpt>
      <trkpt lat="43.37746" lon="6.1168">
        <ele>286.60000610352</ele>
        <time>2014-02-01T13:47:48Z</time>
      </trkpt>
      <trkpt lat="43.37742" lon="6.11686">
        <ele>287.39999389648</ele>
        <time>2014-02-01T13:47:50Z</time>
      </trkpt>
      <trkpt lat="43.37739" lon="6.11691">
        <ele>287.39999389648</ele>
        <time>2014-02-01T13:47:52Z</time>
      </trkpt>
      <trkpt lat="43.3773" lon="6.11711">
        <ele>287.39999389648</ele>
        <time>2014-02-01T13:47:59Z</time>
      </trkpt>
      <trkpt lat="43.37719" lon="6.1173">
        <ele>287.39999389648</ele>
        <time>2014-02-01T13:48:06Z</time>
      </trkpt>
      <trkpt lat="43.3771" lon="6.11745">
        <ele>289.60000610352</ele>
        <time>2014-02-01T13:48:13Z</time>
      </trkpt>
      <trkpt lat="43.37702" lon="6.11759">
        <ele>289.60000610352</ele>
        <time>2014-02-01T13:48:19Z</time>
      </trkpt>
      <trkpt lat="43.37696" lon="6.11774">
        <ele>290.39999389648</ele>
        <time>2014-02-01T13:48:25Z</time>
      </trkpt>
      <trkpt lat="43.37694" lon="6.11777">
        <ele>291.20001220703</ele>
        <time>2014-02-01T13:48:27Z</time>
      </trkpt>
      <trkpt lat="43.3769" lon="6.11784">
        <ele>291.60000610352</ele>
        <time>2014-02-01T13:48:30Z</time>
      </trkpt>
      <trkpt lat="43.37686" lon="6.11795">
        <ele>291.60000610352</ele>
        <time>2014-02-01T13:48:35Z</time>
      </trkpt>
      <trkpt lat="43.37683" lon="6.11802">
        <ele>292</ele>
        <time>2014-02-01T13:48:39Z</time>
      </trkpt>
      <trkpt lat="43.37682" lon="6.11807">
        <ele>293</ele>
        <time>2014-02-01T13:48:41Z</time>
      </trkpt>
      <trkpt lat="43.37681" lon="6.11811">
        <ele>293.79998779297</ele>
        <time>2014-02-01T13:48:43Z</time>
      </trkpt>
      <trkpt lat="43.37677" lon="6.11827">
        <ele>295</ele>
        <time>2014-02-01T13:48:50Z</time>
      </trkpt>
      <trkpt lat="43.37675" lon="6.1183">
        <ele>295.39999389648</ele>
        <time>2014-02-01T13:48:51Z</time>
      </trkpt>
      <trkpt lat="43.37674" lon="6.11831">
        <ele>295.79998779297</ele>
        <time>2014-02-01T13:48:52Z</time>
      </trkpt>
      <trkpt lat="43.37663" lon="6.11848">
        <ele>295.79998779297</ele>
        <time>2014-02-01T13:49:02Z</time>
      </trkpt>
      <trkpt lat="43.37656" lon="6.11856">
        <ele>298</ele>
        <time>2014-02-01T13:49:07Z</time>
      </trkpt>
      <trkpt lat="43.37645" lon="6.1187">
        <ele>298</ele>
        <time>2014-02-01T13:49:16Z</time>
      </trkpt>
      <trkpt lat="43.3764" lon="6.11878">
        <ele>298.39999389648</ele>
        <time>2014-02-01T13:49:20Z</time>
      </trkpt>
      <trkpt lat="43.37636" lon="6.11885">
        <ele>299.79998779297</ele>
        <time>2014-02-01T13:49:23Z</time>
      </trkpt>
      <trkpt lat="43.37635" lon="6.11886">
        <ele>300.20001220703</ele>
        <time>2014-02-01T13:49:24Z</time>
      </trkpt>
      <trkpt lat="43.37629" lon="6.11895">
        <ele>300.20001220703</ele>
        <time>2014-02-01T13:49:29Z</time>
      </trkpt>
      <trkpt lat="43.37627" lon="6.11902">
        <ele>300.60000610352</ele>
        <time>2014-02-01T13:49:34Z</time>
      </trkpt>
      <trkpt lat="43.37624" lon="6.11908">
        <ele>302.39999389648</ele>
        <time>2014-02-01T13:49:38Z</time>
      </trkpt>
      <trkpt lat="43.3762" lon="6.11913">
        <ele>302.39999389648</ele>
        <time>2014-02-01T13:49:42Z</time>
      </trkpt>
      <trkpt lat="43.37617" lon="6.11918">
        <ele>302.79998779297</ele>
        <time>2014-02-01T13:49:45Z</time>
      </trkpt>
      <trkpt lat="43.37616" lon="6.11922">
        <ele>303.60000610352</ele>
        <time>2014-02-01T13:49:47Z</time>
      </trkpt>
      <trkpt lat="43.37614" lon="6.11924">
        <ele>304.39999389648</ele>
        <time>2014-02-01T13:49:49Z</time>
      </trkpt>
      <trkpt lat="43.37609" lon="6.11935">
        <ele>304.39999389648</ele>
        <time>2014-02-01T13:49:55Z</time>
      </trkpt>
      <trkpt lat="43.37608" lon="6.11936">
        <ele>304.79998779297</ele>
        <time>2014-02-01T13:49:56Z</time>
      </trkpt>
      <trkpt lat="43.37602" lon="6.11943">
        <ele>306.60000610352</ele>
        <time>2014-02-01T13:50:00Z</time>
      </trkpt>
      <trkpt lat="43.37596" lon="6.11954">
        <ele>306.60000610352</ele>
        <time>2014-02-01T13:50:06Z</time>
      </trkpt>
      <trkpt lat="43.3759" lon="6.11961">
        <ele>308.79998779297</ele>
        <time>2014-02-01T13:50:11Z</time>
      </trkpt>
      <trkpt lat="43.37589" lon="6.11962">
        <ele>308.79998779297</ele>
        <time>2014-02-01T13:50:12Z</time>
      </trkpt>
      <trkpt lat="43.37581" lon="6.11968">
        <ele>309.20001220703</ele>
        <time>2014-02-01T13:50:19Z</time>
      </trkpt>
      <trkpt lat="43.37565" lon="6.1198">
        <ele>311.20001220703</ele>
        <time>2014-02-01T13:50:31Z</time>
      </trkpt>
      <trkpt lat="43.37559" lon="6.11985">
        <ele>312.79998779297</ele>
        <time>2014-02-01T13:50:36Z</time>
      </trkpt>
      <trkpt lat="43.37551" lon="6.11992">
        <ele>313.20001220703</ele>
        <time>2014-02-01T13:50:43Z</time>
      </trkpt>
      <trkpt lat="43.3755" lon="6.11993">
        <ele>313.60000610352</ele>
        <time>2014-02-01T13:50:44Z</time>
      </trkpt>
      <trkpt lat="43.37542" lon="6.12002">
        <ele>315</ele>
        <time>2014-02-01T13:50:51Z</time>
      </trkpt>
      <trkpt lat="43.37539" lon="6.12006">
        <ele>315.79998779297</ele>
        <time>2014-02-01T13:50:55Z</time>
      </trkpt>
      <trkpt lat="43.37534" lon="6.12014">
        <ele>317</ele>
        <time>2014-02-01T13:51:03Z</time>
      </trkpt>
      <trkpt lat="43.37532" lon="6.12017">
        <ele>317.39999389648</ele>
        <time>2014-02-01T13:51:05Z</time>
      </trkpt>
      <trkpt lat="43.37529" lon="6.12018">
        <ele>318.39999389648</ele>
        <time>2014-02-01T13:51:07Z</time>
      </trkpt>
      <trkpt lat="43.3752" lon="6.12027">
        <ele>319.60000610352</ele>
        <time>2014-02-01T13:51:16Z</time>
      </trkpt>
      <trkpt lat="43.37517" lon="6.12032">
        <ele>321.39999389648</ele>
        <time>2014-02-01T13:51:20Z</time>
      </trkpt>
      <trkpt lat="43.37505" lon="6.12044">
        <ele>323.39999389648</ele>
        <time>2014-02-01T13:51:32Z</time>
      </trkpt>
      <trkpt lat="43.37496" lon="6.12054">
        <ele>325</ele>
        <time>2014-02-01T13:51:42Z</time>
      </trkpt>
      <trkpt lat="43.37492" lon="6.12057">
        <ele>325.39999389648</ele>
        <time>2014-02-01T13:51:45Z</time>
      </trkpt>
      <trkpt lat="43.37488" lon="6.1206">
        <ele>325.79998779297</ele>
        <time>2014-02-01T13:51:49Z</time>
      </trkpt>
      <trkpt lat="43.37479" lon="6.12068">
        <ele>327.60000610352</ele>
        <time>2014-02-01T13:51:58Z</time>
      </trkpt>
      <trkpt lat="43.37476" lon="6.12071">
        <ele>328</ele>
        <time>2014-02-01T13:52:01Z</time>
      </trkpt>
      <trkpt lat="43.37472" lon="6.12074">
        <ele>329.60000610352</ele>
        <time>2014-02-01T13:52:05Z</time>
      </trkpt>
      <trkpt lat="43.37462" lon="6.1208">
        <ele>330.39999389648</ele>
        <time>2014-02-01T13:52:14Z</time>
      </trkpt>
      <trkpt lat="43.37453" lon="6.12085">
        <ele>331.60000610352</ele>
        <time>2014-02-01T13:52:20Z</time>
      </trkpt>
      <trkpt lat="43.3745" lon="6.12087">
        <ele>331.60000610352</ele>
        <time>2014-02-01T13:52:23Z</time>
      </trkpt>
      <trkpt lat="43.37443" lon="6.12087">
        <ele>332.39999389648</ele>
        <time>2014-02-01T13:52:28Z</time>
      </trkpt>
      <trkpt lat="43.37439" lon="6.12087">
        <ele>333.60000610352</ele>
        <time>2014-02-01T13:52:31Z</time>
      </trkpt>
      <trkpt lat="43.37433" lon="6.12087">
        <ele>333.60000610352</ele>
        <time>2014-02-01T13:52:37Z</time>
      </trkpt>
      <trkpt lat="43.37432" lon="6.12087">
        <ele>333.60000610352</ele>
        <time>2014-02-01T13:52:42Z</time>
      </trkpt>
      <trkpt lat="43.37432" lon="6.12087">
        <ele>333.60000610352</ele>
        <time>2014-02-01T13:52:58Z</time>
      </trkpt>
      <trkpt lat="43.37432" lon="6.12087">
        <ele>333.60000610352</ele>
        <time>2014-02-01T13:53:16Z</time>
      </trkpt>
      <trkpt lat="43.37432" lon="6.12086">
        <ele>333.60000610352</ele>
        <time>2014-02-01T13:53:19Z</time>
      </trkpt>
      <trkpt lat="43.37432" lon="6.12086">
        <ele>333.60000610352</ele>
        <time>2014-02-01T13:53:24Z</time>
      </trkpt>
      <trkpt lat="43.37433" lon="6.12086">
        <ele>333.60000610352</ele>
        <time>2014-02-01T13:53:28Z</time>
      </trkpt>
      <trkpt lat="43.37433" lon="6.12086">
        <ele>333.60000610352</ele>
        <time>2014-02-01T13:53:36Z</time>
      </trkpt>
      <trkpt lat="43.37432" lon="6.12086">
        <ele>333.60000610352</ele>
        <time>2014-02-01T13:53:38Z</time>
      </trkpt>
      <trkpt lat="43.37432" lon="6.12086">
        <ele>333.60000610352</ele>
        <time>2014-02-01T13:53:47Z</time>
      </trkpt>
      <trkpt lat="43.37434" lon="6.12083">
        <ele>333.60000610352</ele>
        <time>2014-02-01T13:53:53Z</time>
      </trkpt>
      <trkpt lat="43.37434" lon="6.12083">
        <ele>333.60000610352</ele>
        <time>2014-02-01T13:54:14Z</time>
      </trkpt>
      <trkpt lat="43.37434" lon="6.12083">
        <ele>333.60000610352</ele>
        <time>2014-02-01T13:54:51Z</time>
      </trkpt>
      <trkpt lat="43.37433" lon="6.12084">
        <ele>333.60000610352</ele>
        <time>2014-02-01T13:54:57Z</time>
      </trkpt>
      <trkpt lat="43.37432" lon="6.12086">
        <ele>333.60000610352</ele>
        <time>2014-02-01T13:55:02Z</time>
      </trkpt>
      <trkpt lat="43.37432" lon="6.12086">
        <ele>333.60000610352</ele>
        <time>2014-02-01T13:55:13Z</time>
      </trkpt>
      <trkpt lat="43.37432" lon="6.12086">
        <ele>333.60000610352</ele>
        <time>2014-02-01T13:55:30Z</time>
      </trkpt>
      <trkpt lat="43.37431" lon="6.12086">
        <ele>333.60000610352</ele>
        <time>2014-02-01T13:55:33Z</time>
      </trkpt>
      <trkpt lat="43.37427" lon="6.12088">
        <ele>333.60000610352</ele>
        <time>2014-02-01T13:55:38Z</time>
      </trkpt>
      <trkpt lat="43.37426" lon="6.12087">
        <ele>333.60000610352</ele>
        <time>2014-02-01T13:55:39Z</time>
      </trkpt>
      <trkpt lat="43.37417" lon="6.12087">
        <ele>333.60000610352</ele>
        <time>2014-02-01T13:55:43Z</time>
      </trkpt>
      <trkpt lat="43.37414" lon="6.12087">
        <ele>333.60000610352</ele>
        <time>2014-02-01T13:55:44Z</time>
      </trkpt>
      <trkpt lat="43.37396" lon="6.12089">
        <ele>333.60000610352</ele>
        <time>2014-02-01T13:55:48Z</time>
      </trkpt>
      <trkpt lat="43.37392" lon="6.12089">
        <ele>333.60000610352</ele>
        <time>2014-02-01T13:55:49Z</time>
      </trkpt>
      <trkpt lat="43.37381" lon="6.1209">
        <ele>333.20001220703</ele>
        <time>2014-02-01T13:55:51Z</time>
      </trkpt>
      <trkpt lat="43.37376" lon="6.12091">
        <ele>332.79998779297</ele>
        <time>2014-02-01T13:55:52Z</time>
      </trkpt>
      <trkpt lat="43.3737" lon="6.12093">
        <ele>332.39999389648</ele>
        <time>2014-02-01T13:55:53Z</time>
      </trkpt>
      <trkpt lat="43.37364" lon="6.12096">
        <ele>332</ele>
        <time>2014-02-01T13:55:54Z</time>
      </trkpt>
      <trkpt lat="43.37352" lon="6.12104">
        <ele>331</ele>
        <time>2014-02-01T13:55:56Z</time>
      </trkpt>
      <trkpt lat="43.37326" lon="6.12124">
        <ele>329</ele>
        <time>2014-02-01T13:56:00Z</time>
      </trkpt>
      <trkpt lat="43.37312" lon="6.12132">
        <ele>328</ele>
        <time>2014-02-01T13:56:02Z</time>
      </trkpt>
      <trkpt lat="43.37299" lon="6.1214">
        <ele>326.79998779297</ele>
        <time>2014-02-01T13:56:04Z</time>
      </trkpt>
      <trkpt lat="43.37292" lon="6.12144">
        <ele>326</ele>
        <time>2014-02-01T13:56:05Z</time>
      </trkpt>
      <trkpt lat="43.37286" lon="6.1215">
        <ele>325.20001220703</ele>
        <time>2014-02-01T13:56:06Z</time>
      </trkpt>
      <trkpt lat="43.37279" lon="6.12157">
        <ele>324.39999389648</ele>
        <time>2014-02-01T13:56:07Z</time>
      </trkpt>
      <trkpt lat="43.37273" lon="6.12165">
        <ele>323.39999389648</ele>
        <time>2014-02-01T13:56:08Z</time>
      </trkpt>
      <trkpt lat="43.37267" lon="6.12176">
        <ele>322.39999389648</ele>
        <time>2014-02-01T13:56:09Z</time>
      </trkpt>
      <trkpt lat="43.37251" lon="6.12208">
        <ele>318.39999389648</ele>
        <time>2014-02-01T13:56:12Z</time>
      </trkpt>
      <trkpt lat="43.37245" lon="6.1222">
        <ele>317.60000610352</ele>
        <time>2014-02-01T13:56:13Z</time>
      </trkpt>
      <trkpt lat="43.37236" lon="6.12243">
        <ele>316.20001220703</ele>
        <time>2014-02-01T13:56:15Z</time>
      </trkpt>
      <trkpt lat="43.37227" lon="6.12268">
        <ele>314.60000610352</ele>
        <time>2014-02-01T13:56:17Z</time>
      </trkpt>
      <trkpt lat="43.37223" lon="6.12281">
        <ele>314</ele>
        <time>2014-02-01T13:56:18Z</time>
      </trkpt>
      <trkpt lat="43.37219" lon="6.12293">
        <ele>313.20001220703</ele>
        <time>2014-02-01T13:56:19Z</time>
      </trkpt>
      <trkpt lat="43.37215" lon="6.12305">
        <ele>312.60000610352</ele>
        <time>2014-02-01T13:56:20Z</time>
      </trkpt>
      <trkpt lat="43.37209" lon="6.12318">
        <ele>311.79998779297</ele>
        <time>2014-02-01T13:56:21Z</time>
      </trkpt>
      <trkpt lat="43.37203" lon="6.12329">
        <ele>311.20001220703</ele>
        <time>2014-02-01T13:56:22Z</time>
      </trkpt>
      <trkpt lat="43.37196" lon="6.12341">
        <ele>310.39999389648</ele>
        <time>2014-02-01T13:56:23Z</time>
      </trkpt>
      <trkpt lat="43.37189" lon="6.12352">
        <ele>309.60000610352</ele>
        <time>2014-02-01T13:56:24Z</time>
      </trkpt>
      <trkpt lat="43.37181" lon="6.12362">
        <ele>308.79998779297</ele>
        <time>2014-02-01T13:56:25Z</time>
      </trkpt>
      <trkpt lat="43.37173" lon="6.12372">
        <ele>308</ele>
        <time>2014-02-01T13:56:26Z</time>
      </trkpt>
      <trkpt lat="43.37157" lon="6.12392">
        <ele>306.20001220703</ele>
        <time>2014-02-01T13:56:28Z</time>
      </trkpt>
      <trkpt lat="43.37151" lon="6.12402">
        <ele>305.39999389648</ele>
        <time>2014-02-01T13:56:29Z</time>
      </trkpt>
      <trkpt lat="43.37146" lon="6.12411">
        <ele>304.60000610352</ele>
        <time>2014-02-01T13:56:30Z</time>
      </trkpt>
      <trkpt lat="43.37141" lon="6.1242">
        <ele>304.60000610352</ele>
        <time>2014-02-01T13:56:31Z</time>
      </trkpt>
      <trkpt lat="43.37128" lon="6.12452">
        <ele>304.60000610352</ele>
        <time>2014-02-01T13:56:35Z</time>
      </trkpt>
      <trkpt lat="43.3712" lon="6.1247">
        <ele>304.60000610352</ele>
        <time>2014-02-01T13:56:38Z</time>
      </trkpt>
      <trkpt lat="43.37117" lon="6.12475">
        <ele>304.60000610352</ele>
        <time>2014-02-01T13:56:39Z</time>
      </trkpt>
      <trkpt lat="43.37103" lon="6.12503">
        <ele>304.60000610352</ele>
        <time>2014-02-01T13:56:45Z</time>
      </trkpt>
      <trkpt lat="43.37093" lon="6.12514">
        <ele>304.60000610352</ele>
        <time>2014-02-01T13:56:48Z</time>
      </trkpt>
      <trkpt lat="43.37084" lon="6.12524">
        <ele>304.60000610352</ele>
        <time>2014-02-01T13:56:51Z</time>
      </trkpt>
      <trkpt lat="43.3708" lon="6.12527">
        <ele>304.60000610352</ele>
        <time>2014-02-01T13:56:52Z</time>
      </trkpt>
      <trkpt lat="43.37067" lon="6.12539">
        <ele>304.60000610352</ele>
        <time>2014-02-01T13:56:56Z</time>
      </trkpt>
      <trkpt lat="43.37054" lon="6.12551">
        <ele>304.60000610352</ele>
        <time>2014-02-01T13:57:01Z</time>
      </trkpt>
      <trkpt lat="43.37046" lon="6.12559">
        <ele>304.60000610352</ele>
        <time>2014-02-01T13:57:04Z</time>
      </trkpt>
      <trkpt lat="43.37036" lon="6.12571">
        <ele>304.60000610352</ele>
        <time>2014-02-01T13:57:08Z</time>
      </trkpt>
      <trkpt lat="43.37032" lon="6.12578">
        <ele>305</ele>
        <time>2014-02-01T13:57:10Z</time>
      </trkpt>
      <trkpt lat="43.37026" lon="6.1259">
        <ele>306.20001220703</ele>
        <time>2014-02-01T13:57:13Z</time>
      </trkpt>
      <trkpt lat="43.37016" lon="6.1261">
        <ele>306.60000610352</ele>
        <time>2014-02-01T13:57:19Z</time>
      </trkpt>
      <trkpt lat="43.37006" lon="6.12634">
        <ele>306.60000610352</ele>
        <time>2014-02-01T13:57:26Z</time>
      </trkpt>
      <trkpt lat="43.37" lon="6.12647">
        <ele>307</ele>
        <time>2014-02-01T13:57:30Z</time>
      </trkpt>
      <trkpt lat="43.36993" lon="6.12662">
        <ele>308.60000610352</ele>
        <time>2014-02-01T13:57:34Z</time>
      </trkpt>
      <trkpt lat="43.36982" lon="6.12685">
        <ele>308.60000610352</ele>
        <time>2014-02-01T13:57:40Z</time>
      </trkpt>
      <trkpt lat="43.36969" lon="6.1271">
        <ele>308.60000610352</ele>
        <time>2014-02-01T13:57:47Z</time>
      </trkpt>
      <trkpt lat="43.36953" lon="6.12743">
        <ele>308.60000610352</ele>
        <time>2014-02-01T13:57:56Z</time>
      </trkpt>
      <trkpt lat="43.36924" lon="6.12804">
        <ele>310.20001220703</ele>
        <time>2014-02-01T13:58:17Z</time>
      </trkpt>
      <trkpt lat="43.36918" lon="6.12814">
        <ele>310.79998779297</ele>
        <time>2014-02-01T13:58:21Z</time>
      </trkpt>
      <trkpt lat="43.36911" lon="6.12828">
        <ele>310.79998779297</ele>
        <time>2014-02-01T13:58:27Z</time>
      </trkpt>
      <trkpt lat="43.369" lon="6.12849">
        <ele>311.60000610352</ele>
        <time>2014-02-01T13:58:36Z</time>
      </trkpt>
      <trkpt lat="43.36893" lon="6.12857">
        <ele>312.79998779297</ele>
        <time>2014-02-01T13:58:40Z</time>
      </trkpt>
      <trkpt lat="43.36882" lon="6.12868">
        <ele>312.79998779297</ele>
        <time>2014-02-01T13:58:47Z</time>
      </trkpt>
      <trkpt lat="43.36869" lon="6.1288">
        <ele>313.60000610352</ele>
        <time>2014-02-01T13:58:55Z</time>
      </trkpt>
      <trkpt lat="43.36861" lon="6.12888">
        <ele>314.79998779297</ele>
        <time>2014-02-01T13:59:00Z</time>
      </trkpt>
      <trkpt lat="43.36851" lon="6.12897">
        <ele>314.79998779297</ele>
        <time>2014-02-01T13:59:06Z</time>
      </trkpt>
      <trkpt lat="43.36842" lon="6.12905">
        <ele>316.39999389648</ele>
        <time>2014-02-01T13:59:12Z</time>
      </trkpt>
      <trkpt lat="43.36826" lon="6.1292">
        <ele>316.79998779297</ele>
        <time>2014-02-01T13:59:21Z</time>
      </trkpt>
      <trkpt lat="43.36824" lon="6.12921">
        <ele>317.39999389648</ele>
        <time>2014-02-01T13:59:22Z</time>
      </trkpt>
      <trkpt lat="43.36823" lon="6.12924">
        <ele>317.79998779297</ele>
        <time>2014-02-01T13:59:23Z</time>
      </trkpt>
      <trkpt lat="43.36807" lon="6.12942">
        <ele>319.20001220703</ele>
        <time>2014-02-01T13:59:34Z</time>
      </trkpt>
      <trkpt lat="43.36797" lon="6.12955">
        <ele>319.20001220703</ele>
        <time>2014-02-01T13:59:41Z</time>
      </trkpt>
      <trkpt lat="43.36789" lon="6.12962">
        <ele>320.39999389648</ele>
        <time>2014-02-01T13:59:46Z</time>
      </trkpt>
      <trkpt lat="43.36783" lon="6.12968">
        <ele>321.20001220703</ele>
        <time>2014-02-01T13:59:49Z</time>
      </trkpt>
      <trkpt lat="43.36773" lon="6.12979">
        <ele>321.20001220703</ele>
        <time>2014-02-01T13:59:56Z</time>
      </trkpt>
      <trkpt lat="43.36764" lon="6.12988">
        <ele>321.20001220703</ele>
        <time>2014-02-01T14:00:02Z</time>
      </trkpt>
      <trkpt lat="43.36758" lon="6.12996">
        <ele>321.60000610352</ele>
        <time>2014-02-01T14:00:06Z</time>
      </trkpt>
      <trkpt lat="43.36752" lon="6.13004">
        <ele>323.39999389648</ele>
        <time>2014-02-01T14:00:10Z</time>
      </trkpt>
      <trkpt lat="43.36741" lon="6.13024">
        <ele>324.20001220703</ele>
        <time>2014-02-01T14:00:20Z</time>
      </trkpt>
      <trkpt lat="43.36739" lon="6.13029">
        <ele>325</ele>
        <time>2014-02-01T14:00:22Z</time>
      </trkpt>
      <trkpt lat="43.3673" lon="6.13045">
        <ele>325.39999389648</ele>
        <time>2014-02-01T14:00:29Z</time>
      </trkpt>
      <trkpt lat="43.36721" lon="6.1306">
        <ele>325.39999389648</ele>
        <time>2014-02-01T14:00:36Z</time>
      </trkpt>
      <trkpt lat="43.36716" lon="6.13071">
        <ele>326.20001220703</ele>
        <time>2014-02-01T14:00:41Z</time>
      </trkpt>
      <trkpt lat="43.3671" lon="6.13092">
        <ele>327.60000610352</ele>
        <time>2014-02-01T14:00:49Z</time>
      </trkpt>
      <trkpt lat="43.36705" lon="6.1311">
        <ele>327.60000610352</ele>
        <time>2014-02-01T14:00:57Z</time>
      </trkpt>
      <trkpt lat="43.36701" lon="6.13119">
        <ele>328</ele>
        <time>2014-02-01T14:01:02Z</time>
      </trkpt>
      <trkpt lat="43.36698" lon="6.13126">
        <ele>329.60000610352</ele>
        <time>2014-02-01T14:01:06Z</time>
      </trkpt>
      <trkpt lat="43.36691" lon="6.13141">
        <ele>330</ele>
        <time>2014-02-01T14:01:14Z</time>
      </trkpt>
      <trkpt lat="43.36685" lon="6.13144">
        <ele>331.79998779297</ele>
        <time>2014-02-01T14:01:18Z</time>
      </trkpt>
      <trkpt lat="43.36681" lon="6.13147">
        <ele>331.79998779297</ele>
        <time>2014-02-01T14:01:21Z</time>
      </trkpt>
      <trkpt lat="43.36669" lon="6.13151">
        <ele>331.79998779297</ele>
        <time>2014-02-01T14:01:28Z</time>
      </trkpt>
      <trkpt lat="43.36664" lon="6.13155">
        <ele>332.60000610352</ele>
        <time>2014-02-01T14:01:31Z</time>
      </trkpt>
      <trkpt lat="43.36663" lon="6.13157">
        <ele>333.39999389648</ele>
        <time>2014-02-01T14:01:32Z</time>
      </trkpt>
      <trkpt lat="43.36662" lon="6.1316">
        <ele>333.79998779297</ele>
        <time>2014-02-01T14:01:33Z</time>
      </trkpt>
      <trkpt lat="43.36662" lon="6.13163">
        <ele>333.79998779297</ele>
        <time>2014-02-01T14:01:34Z</time>
      </trkpt>
      <trkpt lat="43.3666" lon="6.13182">
        <ele>333.79998779297</ele>
        <time>2014-02-01T14:01:42Z</time>
      </trkpt>
      <trkpt lat="43.36659" lon="6.13194">
        <ele>334.60000610352</ele>
        <time>2014-02-01T14:01:47Z</time>
      </trkpt>
      <trkpt lat="43.36658" lon="6.13199">
        <ele>335.39999389648</ele>
        <time>2014-02-01T14:01:49Z</time>
      </trkpt>
      <trkpt lat="43.36655" lon="6.13223">
        <ele>336</ele>
        <time>2014-02-01T14:01:59Z</time>
      </trkpt>
      <trkpt lat="43.36655" lon="6.13235">
        <ele>336.79998779297</ele>
        <time>2014-02-01T14:02:04Z</time>
      </trkpt>
      <trkpt lat="43.36654" lon="6.13243">
        <ele>338</ele>
        <time>2014-02-01T14:02:07Z</time>
      </trkpt>
      <trkpt lat="43.36653" lon="6.13258">
        <ele>338</ele>
        <time>2014-02-01T14:02:13Z</time>
      </trkpt>
      <trkpt lat="43.36652" lon="6.13262">
        <ele>338</ele>
        <time>2014-02-01T14:02:15Z</time>
      </trkpt>
      <trkpt lat="43.36652" lon="6.1327">
        <ele>338</ele>
        <time>2014-02-01T14:02:18Z</time>
      </trkpt>
      <trkpt lat="43.3665" lon="6.13278">
        <ele>338.39999389648</ele>
        <time>2014-02-01T14:02:22Z</time>
      </trkpt>
      <trkpt lat="43.36649" lon="6.13283">
        <ele>339.20001220703</ele>
        <time>2014-02-01T14:02:24Z</time>
      </trkpt>
      <trkpt lat="43.36648" lon="6.13291">
        <ele>340</ele>
        <time>2014-02-01T14:02:26Z</time>
      </trkpt>
      <trkpt lat="43.36647" lon="6.13299">
        <ele>340</ele>
        <time>2014-02-01T14:02:29Z</time>
      </trkpt>
      <trkpt lat="43.36644" lon="6.13314">
        <ele>340</ele>
        <time>2014-02-01T14:02:35Z</time>
      </trkpt>
      <trkpt lat="43.36642" lon="6.13325">
        <ele>340</ele>
        <time>2014-02-01T14:02:40Z</time>
      </trkpt>
      <trkpt lat="43.36638" lon="6.13338">
        <ele>340.39999389648</ele>
        <time>2014-02-01T14:02:45Z</time>
      </trkpt>
      <trkpt lat="43.36637" lon="6.13342">
        <ele>341.60000610352</ele>
        <time>2014-02-01T14:02:47Z</time>
      </trkpt>
      <trkpt lat="43.36633" lon="6.13356">
        <ele>342</ele>
        <time>2014-02-01T14:02:53Z</time>
      </trkpt>
      <trkpt lat="43.36628" lon="6.13377">
        <ele>342</ele>
        <time>2014-02-01T14:03:02Z</time>
      </trkpt>
      <trkpt lat="43.36624" lon="6.13395">
        <ele>342</ele>
        <time>2014-02-01T14:03:09Z</time>
      </trkpt>
      <trkpt lat="43.36619" lon="6.13413">
        <ele>342</ele>
        <time>2014-02-01T14:03:16Z</time>
      </trkpt>
      <trkpt lat="43.36618" lon="6.13418">
        <ele>342.39999389648</ele>
        <time>2014-02-01T14:03:18Z</time>
      </trkpt>
      <trkpt lat="43.36616" lon="6.13423">
        <ele>343.20001220703</ele>
        <time>2014-02-01T14:03:20Z</time>
      </trkpt>
      <trkpt lat="43.36612" lon="6.13434">
        <ele>344</ele>
        <time>2014-02-01T14:03:23Z</time>
      </trkpt>
      <trkpt lat="43.3661" lon="6.13444">
        <ele>344</ele>
        <time>2014-02-01T14:03:27Z</time>
      </trkpt>
      <trkpt lat="43.36604" lon="6.13463">
        <ele>344</ele>
        <time>2014-02-01T14:03:35Z</time>
      </trkpt>
      <trkpt lat="43.36599" lon="6.13497">
        <ele>344.39999389648</ele>
        <time>2014-02-01T14:03:47Z</time>
      </trkpt>
      <trkpt lat="43.36597" lon="6.13509">
        <ele>346</ele>
        <time>2014-02-01T14:03:51Z</time>
      </trkpt>
      <trkpt lat="43.36596" lon="6.13516">
        <ele>346</ele>
        <time>2014-02-01T14:03:54Z</time>
      </trkpt>
      <trkpt lat="43.36586" lon="6.13545">
        <ele>346.39999389648</ele>
        <time>2014-02-01T14:04:05Z</time>
      </trkpt>
      <trkpt lat="43.36585" lon="6.13556">
        <ele>348.20001220703</ele>
        <time>2014-02-01T14:04:09Z</time>
      </trkpt>
      <trkpt lat="43.36584" lon="6.13564">
        <ele>348.20001220703</ele>
        <time>2014-02-01T14:04:12Z</time>
      </trkpt>
      <trkpt lat="43.3658" lon="6.13584">
        <ele>348.20001220703</ele>
        <time>2014-02-01T14:04:20Z</time>
      </trkpt>
      <trkpt lat="43.36578" lon="6.13588">
        <ele>348.60000610352</ele>
        <time>2014-02-01T14:04:22Z</time>
      </trkpt>
      <trkpt lat="43.36568" lon="6.13625">
        <ele>350.20001220703</ele>
        <time>2014-02-01T14:04:37Z</time>
      </trkpt>
      <trkpt lat="43.36565" lon="6.13643">
        <ele>350.20001220703</ele>
        <time>2014-02-01T14:04:44Z</time>
      </trkpt>
      <trkpt lat="43.3656" lon="6.1368">
        <ele>352.60000610352</ele>
        <time>2014-02-01T14:04:56Z</time>
      </trkpt>
      <trkpt lat="43.36559" lon="6.13685">
        <ele>353.60000610352</ele>
        <time>2014-02-01T14:04:58Z</time>
      </trkpt>
      <trkpt lat="43.36557" lon="6.13692">
        <ele>354.39999389648</ele>
        <time>2014-02-01T14:05:00Z</time>
      </trkpt>
      <trkpt lat="43.36555" lon="6.13703">
        <ele>354.39999389648</ele>
        <time>2014-02-01T14:05:03Z</time>
      </trkpt>
      <trkpt lat="43.36553" lon="6.13715">
        <ele>354.79998779297</ele>
        <time>2014-02-01T14:05:07Z</time>
      </trkpt>
      <trkpt lat="43.36552" lon="6.13721">
        <ele>356</ele>
        <time>2014-02-01T14:05:09Z</time>
      </trkpt>
      <trkpt lat="43.36552" lon="6.13724">
        <ele>356.39999389648</ele>
        <time>2014-02-01T14:05:10Z</time>
      </trkpt>
      <trkpt lat="43.36551" lon="6.13733">
        <ele>356.39999389648</ele>
        <time>2014-02-01T14:05:13Z</time>
      </trkpt>
      <trkpt lat="43.36549" lon="6.1375">
        <ele>356.79998779297</ele>
        <time>2014-02-01T14:05:20Z</time>
      </trkpt>
      <trkpt lat="43.36547" lon="6.13753">
        <ele>357.60000610352</ele>
        <time>2014-02-01T14:05:22Z</time>
      </trkpt>
      <trkpt lat="43.36547" lon="6.13754">
        <ele>358</ele>
        <time>2014-02-01T14:05:23Z</time>
      </trkpt>
      <trkpt lat="43.36547" lon="6.13754">
        <ele>358.39999389648</ele>
        <time>2014-02-01T14:05:24Z</time>
      </trkpt>
      <trkpt lat="43.36547" lon="6.13754">
        <ele>358.39999389648</ele>
        <time>2014-02-01T14:05:36Z</time>
      </trkpt>
      <trkpt lat="43.36547" lon="6.13754">
        <ele>358.39999389648</ele>
        <time>2014-02-01T14:05:38Z</time>
      </trkpt>
      <trkpt lat="43.36547" lon="6.13762">
        <ele>358.39999389648</ele>
        <time>2014-02-01T14:05:45Z</time>
      </trkpt>
      <trkpt lat="43.36546" lon="6.13776">
        <ele>358.39999389648</ele>
        <time>2014-02-01T14:05:51Z</time>
      </trkpt>
      <trkpt lat="43.36544" lon="6.13789">
        <ele>359.79998779297</ele>
        <time>2014-02-01T14:05:57Z</time>
      </trkpt>
      <trkpt lat="43.36544" lon="6.13794">
        <ele>360.60000610352</ele>
        <time>2014-02-01T14:05:59Z</time>
      </trkpt>
      <trkpt lat="43.36539" lon="6.13811">
        <ele>360.60000610352</ele>
        <time>2014-02-01T14:06:04Z</time>
      </trkpt>
      <trkpt lat="43.36536" lon="6.13827">
        <ele>360.60000610352</ele>
        <time>2014-02-01T14:06:10Z</time>
      </trkpt>
      <trkpt lat="43.36534" lon="6.13835">
        <ele>361</ele>
        <time>2014-02-01T14:06:13Z</time>
      </trkpt>
      <trkpt lat="43.36532" lon="6.13866">
        <ele>362.60000610352</ele>
        <time>2014-02-01T14:06:24Z</time>
      </trkpt>
      <trkpt lat="43.36531" lon="6.13881">
        <ele>362.60000610352</ele>
        <time>2014-02-01T14:06:30Z</time>
      </trkpt>
      <trkpt lat="43.3653" lon="6.13886">
        <ele>363</ele>
        <time>2014-02-01T14:06:32Z</time>
      </trkpt>
      <trkpt lat="43.36525" lon="6.13922">
        <ele>364.60000610352</ele>
        <time>2014-02-01T14:06:46Z</time>
      </trkpt>
      <trkpt lat="43.36525" lon="6.13945">
        <ele>365</ele>
        <time>2014-02-01T14:06:54Z</time>
      </trkpt>
      <trkpt lat="43.36528" lon="6.13963">
        <ele>366.79998779297</ele>
        <time>2014-02-01T14:07:00Z</time>
      </trkpt>
      <trkpt lat="43.36532" lon="6.13985">
        <ele>366.79998779297</ele>
        <time>2014-02-01T14:07:08Z</time>
      </trkpt>
      <trkpt lat="43.36531" lon="6.14007">
        <ele>366.79998779297</ele>
        <time>2014-02-01T14:07:15Z</time>
      </trkpt>
      <trkpt lat="43.3653" lon="6.14025">
        <ele>366.79998779297</ele>
        <time>2014-02-01T14:07:21Z</time>
      </trkpt>
      <trkpt lat="43.36528" lon="6.14045">
        <ele>366.79998779297</ele>
        <time>2014-02-01T14:07:27Z</time>
      </trkpt>
      <trkpt lat="43.3653" lon="6.14061">
        <ele>367.20001220703</ele>
        <time>2014-02-01T14:07:32Z</time>
      </trkpt>
      <trkpt lat="43.36535" lon="6.14084">
        <ele>369</ele>
        <time>2014-02-01T14:07:40Z</time>
      </trkpt>
      <trkpt lat="43.36541" lon="6.14106">
        <ele>369</ele>
        <time>2014-02-01T14:07:47Z</time>
      </trkpt>
      <trkpt lat="43.36545" lon="6.14118">
        <ele>369.39999389648</ele>
        <time>2014-02-01T14:07:51Z</time>
      </trkpt>
      <trkpt lat="43.36548" lon="6.1415">
        <ele>371</ele>
        <time>2014-02-01T14:08:01Z</time>
      </trkpt>
      <trkpt lat="43.36551" lon="6.14176">
        <ele>371.39999389648</ele>
        <time>2014-02-01T14:08:09Z</time>
      </trkpt>
      <trkpt lat="43.36553" lon="6.14198">
        <ele>373</ele>
        <time>2014-02-01T14:08:16Z</time>
      </trkpt>
      <trkpt lat="43.36552" lon="6.14224">
        <ele>373.39999389648</ele>
        <time>2014-02-01T14:08:24Z</time>
      </trkpt>
      <trkpt lat="43.36551" lon="6.14234">
        <ele>375.20001220703</ele>
        <time>2014-02-01T14:08:27Z</time>
      </trkpt>
      <trkpt lat="43.36547" lon="6.14268">
        <ele>375.20001220703</ele>
        <time>2014-02-01T14:08:38Z</time>
      </trkpt>
      <trkpt lat="43.36544" lon="6.14283">
        <ele>375.60000610352</ele>
        <time>2014-02-01T14:08:43Z</time>
      </trkpt>
      <trkpt lat="43.3654" lon="6.14294">
        <ele>377.20001220703</ele>
        <time>2014-02-01T14:08:47Z</time>
      </trkpt>
      <trkpt lat="43.36536" lon="6.14306">
        <ele>377.20001220703</ele>
        <time>2014-02-01T14:08:51Z</time>
      </trkpt>
      <trkpt lat="43.36526" lon="6.14324">
        <ele>377.20001220703</ele>
        <time>2014-02-01T14:08:58Z</time>
      </trkpt>
      <trkpt lat="43.36523" lon="6.14336">
        <ele>378</ele>
        <time>2014-02-01T14:09:03Z</time>
      </trkpt>
      <trkpt lat="43.36522" lon="6.14339">
        <ele>378.39999389648</ele>
        <time>2014-02-01T14:09:04Z</time>
      </trkpt>
      <trkpt lat="43.36522" lon="6.14345">
        <ele>379.20001220703</ele>
        <time>2014-02-01T14:09:06Z</time>
      </trkpt>
      <trkpt lat="43.36523" lon="6.14354">
        <ele>379.20001220703</ele>
        <time>2014-02-01T14:09:09Z</time>
      </trkpt>
      <trkpt lat="43.36529" lon="6.14374">
        <ele>379.20001220703</ele>
        <time>2014-02-01T14:09:16Z</time>
      </trkpt>
      <trkpt lat="43.36534" lon="6.14395">
        <ele>379.20001220703</ele>
        <time>2014-02-01T14:09:23Z</time>
      </trkpt>
      <trkpt lat="43.3654" lon="6.14412">
        <ele>380</ele>
        <time>2014-02-01T14:09:29Z</time>
      </trkpt>
      <trkpt lat="43.36544" lon="6.14435">
        <ele>381.20001220703</ele>
        <time>2014-02-01T14:09:36Z</time>
      </trkpt>
      <trkpt lat="43.36542" lon="6.14466">
        <ele>381.20001220703</ele>
        <time>2014-02-01T14:09:45Z</time>
      </trkpt>
      <trkpt lat="43.36536" lon="6.14485">
        <ele>381.20001220703</ele>
        <time>2014-02-01T14:09:51Z</time>
      </trkpt>
      <trkpt lat="43.3653" lon="6.14504">
        <ele>381.20001220703</ele>
        <time>2014-02-01T14:09:57Z</time>
      </trkpt>
      <trkpt lat="43.36533" lon="6.14589">
        <ele>385.39999389648</ele>
        <time>2014-02-01T14:10:27Z</time>
      </trkpt>
      <trkpt lat="43.36532" lon="6.14605">
        <ele>385.79998779297</ele>
        <time>2014-02-01T14:10:33Z</time>
      </trkpt>
      <trkpt lat="43.3653" lon="6.14626">
        <ele>387.60000610352</ele>
        <time>2014-02-01T14:10:42Z</time>
      </trkpt>
      <trkpt lat="43.36528" lon="6.14647">
        <ele>389.20001220703</ele>
        <time>2014-02-01T14:10:51Z</time>
      </trkpt>
      <trkpt lat="43.36525" lon="6.14671">
        <ele>389.60000610352</ele>
        <time>2014-02-01T14:11:00Z</time>
      </trkpt>
      <trkpt lat="43.36528" lon="6.14685">
        <ele>390.79998779297</ele>
        <time>2014-02-01T14:11:06Z</time>
      </trkpt>
      <trkpt lat="43.36529" lon="6.14692">
        <ele>391.60000610352</ele>
        <time>2014-02-01T14:11:09Z</time>
      </trkpt>
      <trkpt lat="43.36531" lon="6.14706">
        <ele>391.60000610352</ele>
        <time>2014-02-01T14:11:15Z</time>
      </trkpt>
      <trkpt lat="43.36531" lon="6.14716">
        <ele>392</ele>
        <time>2014-02-01T14:11:19Z</time>
      </trkpt>
      <trkpt lat="43.36533" lon="6.14724">
        <ele>393.20001220703</ele>
        <time>2014-02-01T14:11:22Z</time>
      </trkpt>
      <trkpt lat="43.36531" lon="6.1474">
        <ele>393.60000610352</ele>
        <time>2014-02-01T14:11:28Z</time>
      </trkpt>
      <trkpt lat="43.36533" lon="6.14753">
        <ele>393.60000610352</ele>
        <time>2014-02-01T14:11:33Z</time>
      </trkpt>
      <trkpt lat="43.36533" lon="6.14761">
        <ele>393.60000610352</ele>
        <time>2014-02-01T14:11:36Z</time>
      </trkpt>
      <trkpt lat="43.36535" lon="6.14776">
        <ele>395.79998779297</ele>
        <time>2014-02-01T14:11:43Z</time>
      </trkpt>
      <trkpt lat="43.36535" lon="6.14781">
        <ele>395.79998779297</ele>
        <time>2014-02-01T14:11:46Z</time>
      </trkpt>
      <trkpt lat="43.36536" lon="6.14794">
        <ele>395.79998779297</ele>
        <time>2014-02-01T14:11:52Z</time>
      </trkpt>
      <trkpt lat="43.36539" lon="6.14807">
        <ele>397.79998779297</ele>
        <time>2014-02-01T14:11:58Z</time>
      </trkpt>
      <trkpt lat="43.3654" lon="6.14811">
        <ele>397.79998779297</ele>
        <time>2014-02-01T14:12:00Z</time>
      </trkpt>
      <trkpt lat="43.36545" lon="6.14831">
        <ele>398.60000610352</ele>
        <time>2014-02-01T14:12:10Z</time>
      </trkpt>
      <trkpt lat="43.36546" lon="6.14836">
        <ele>399.79998779297</ele>
        <time>2014-02-01T14:12:13Z</time>
      </trkpt>
      <trkpt lat="43.36549" lon="6.14847">
        <ele>399.79998779297</ele>
        <time>2014-02-01T14:12:19Z</time>
      </trkpt>
      <trkpt lat="43.36552" lon="6.14866">
        <ele>400.60000610352</ele>
        <time>2014-02-01T14:12:28Z</time>
      </trkpt>
      <trkpt lat="43.36553" lon="6.14873">
        <ele>401.79998779297</ele>
        <time>2014-02-01T14:12:31Z</time>
      </trkpt>
      <trkpt lat="43.36558" lon="6.149">
        <ele>403.79998779297</ele>
        <time>2014-02-01T14:12:43Z</time>
      </trkpt>
      <trkpt lat="43.36559" lon="6.14912">
        <ele>403.79998779297</ele>
        <time>2014-02-01T14:12:48Z</time>
      </trkpt>
      <trkpt lat="43.36561" lon="6.14928">
        <ele>403.79998779297</ele>
        <time>2014-02-01T14:12:55Z</time>
      </trkpt>
      <trkpt lat="43.36567" lon="6.14976">
        <ele>404.20001220703</ele>
        <time>2014-02-01T14:13:11Z</time>
      </trkpt>
      <trkpt lat="43.36566" lon="6.14987">
        <ele>405.39999389648</ele>
        <time>2014-02-01T14:13:14Z</time>
      </trkpt>
      <trkpt lat="43.36567" lon="6.15011">
        <ele>405.79998779297</ele>
        <time>2014-02-01T14:13:22Z</time>
      </trkpt>
      <trkpt lat="43.36566" lon="6.15036">
        <ele>405.79998779297</ele>
        <time>2014-02-01T14:13:30Z</time>
      </trkpt>
      <trkpt lat="43.36567" lon="6.15055">
        <ele>405.79998779297</ele>
        <time>2014-02-01T14:13:36Z</time>
      </trkpt>
      <trkpt lat="43.36568" lon="6.15065">
        <ele>406.20001220703</ele>
        <time>2014-02-01T14:13:39Z</time>
      </trkpt>
      <trkpt lat="43.36568" lon="6.15076">
        <ele>407.39999389648</ele>
        <time>2014-02-01T14:13:42Z</time>
      </trkpt>
      <trkpt lat="43.36568" lon="6.1508">
        <ele>407.79998779297</ele>
        <time>2014-02-01T14:13:43Z</time>
      </trkpt>
      <trkpt lat="43.36568" lon="6.151">
        <ele>407.79998779297</ele>
        <time>2014-02-01T14:13:49Z</time>
      </trkpt>
      <trkpt lat="43.36567" lon="6.15121">
        <ele>407.79998779297</ele>
        <time>2014-02-01T14:13:56Z</time>
      </trkpt>
      <trkpt lat="43.36567" lon="6.15142">
        <ele>409.60000610352</ele>
        <time>2014-02-01T14:14:03Z</time>
      </trkpt>
      <trkpt lat="43.36567" lon="6.15173">
        <ele>412</ele>
        <time>2014-02-01T14:14:14Z</time>
      </trkpt>
      <trkpt lat="43.36566" lon="6.15186">
        <ele>412</ele>
        <time>2014-02-01T14:14:19Z</time>
      </trkpt>
      <trkpt lat="43.36558" lon="6.15206">
        <ele>412.39999389648</ele>
        <time>2014-02-01T14:14:29Z</time>
      </trkpt>
      <trkpt lat="43.36554" lon="6.15209">
        <ele>413.60000610352</ele>
        <time>2014-02-01T14:14:32Z</time>
      </trkpt>
      <trkpt lat="43.36549" lon="6.15216">
        <ele>414</ele>
        <time>2014-02-01T14:14:37Z</time>
      </trkpt>
      <trkpt lat="43.36535" lon="6.15229">
        <ele>416</ele>
        <time>2014-02-01T14:14:46Z</time>
      </trkpt>
      <trkpt lat="43.3652" lon="6.15238">
        <ele>417.20001220703</ele>
        <time>2014-02-01T14:14:56Z</time>
      </trkpt>
      <trkpt lat="43.36509" lon="6.15251">
        <ele>418</ele>
        <time>2014-02-01T14:15:05Z</time>
      </trkpt>
      <trkpt lat="43.36499" lon="6.15266">
        <ele>418.60000610352</ele>
        <time>2014-02-01T14:15:13Z</time>
      </trkpt>
      <trkpt lat="43.36496" lon="6.15271">
        <ele>419.79998779297</ele>
        <time>2014-02-01T14:15:16Z</time>
      </trkpt>
      <trkpt lat="43.36495" lon="6.15273">
        <ele>420.20001220703</ele>
        <time>2014-02-01T14:15:17Z</time>
      </trkpt>
      <trkpt lat="43.36489" lon="6.15285">
        <ele>420.20001220703</ele>
        <time>2014-02-01T14:15:22Z</time>
      </trkpt>
      <trkpt lat="43.36486" lon="6.153">
        <ele>420.20001220703</ele>
        <time>2014-02-01T14:15:28Z</time>
      </trkpt>
      <trkpt lat="43.36482" lon="6.15315">
        <ele>420.20001220703</ele>
        <time>2014-02-01T14:15:35Z</time>
      </trkpt>
      <trkpt lat="43.36478" lon="6.15333">
        <ele>421</ele>
        <time>2014-02-01T14:15:43Z</time>
      </trkpt>
      <trkpt lat="43.36478" lon="6.15338">
        <ele>421.79998779297</ele>
        <time>2014-02-01T14:15:45Z</time>
      </trkpt>
      <trkpt lat="43.36478" lon="6.15339">
        <ele>422.20001220703</ele>
        <time>2014-02-01T14:15:46Z</time>
      </trkpt>
      <trkpt lat="43.36477" lon="6.15342">
        <ele>422.20001220703</ele>
        <time>2014-02-01T14:15:48Z</time>
      </trkpt>
      <trkpt lat="43.36476" lon="6.15346">
        <ele>422.20001220703</ele>
        <time>2014-02-01T14:15:54Z</time>
      </trkpt>
      <trkpt lat="43.36476" lon="6.15346">
        <ele>422.20001220703</ele>
        <time>2014-02-01T14:16:15Z</time>
      </trkpt>
      <trkpt lat="43.36476" lon="6.15346">
        <ele>422.20001220703</ele>
        <time>2014-02-01T14:16:57Z</time>
      </trkpt>
      <trkpt lat="43.36476" lon="6.15346">
        <ele>422.20001220703</ele>
        <time>2014-02-01T14:17:10Z</time>
      </trkpt>
      <trkpt lat="43.36475" lon="6.15346">
        <ele>422.20001220703</ele>
        <time>2014-02-01T14:17:15Z</time>
      </trkpt>
      <trkpt lat="43.36475" lon="6.15346">
        <ele>422.20001220703</ele>
        <time>2014-02-01T14:17:22Z</time>
      </trkpt>
      <trkpt lat="43.36474" lon="6.15346">
        <ele>422.20001220703</ele>
        <time>2014-02-01T14:17:26Z</time>
      </trkpt>
      <trkpt lat="43.3647" lon="6.15343">
        <ele>422.20001220703</ele>
        <time>2014-02-01T14:17:28Z</time>
      </trkpt>
      <trkpt lat="43.36466" lon="6.15343">
        <ele>422.20001220703</ele>
        <time>2014-02-01T14:17:30Z</time>
      </trkpt>
      <trkpt lat="43.36462" lon="6.15343">
        <ele>422.20001220703</ele>
        <time>2014-02-01T14:17:32Z</time>
      </trkpt>
      <trkpt lat="43.36457" lon="6.15344">
        <ele>422.60000610352</ele>
        <time>2014-02-01T14:17:35Z</time>
      </trkpt>
      <trkpt lat="43.36447" lon="6.15344">
        <ele>424.20001220703</ele>
        <time>2014-02-01T14:17:40Z</time>
      </trkpt>
      <trkpt lat="43.36442" lon="6.15345">
        <ele>424.20001220703</ele>
        <time>2014-02-01T14:17:43Z</time>
      </trkpt>
      <trkpt lat="43.36435" lon="6.15347">
        <ele>424.20001220703</ele>
        <time>2014-02-01T14:17:46Z</time>
      </trkpt>
      <trkpt lat="43.36433" lon="6.15349">
        <ele>424.20001220703</ele>
        <time>2014-02-01T14:17:47Z</time>
      </trkpt>
      <trkpt lat="43.36426" lon="6.15358">
        <ele>424.20001220703</ele>
        <time>2014-02-01T14:17:50Z</time>
      </trkpt>
      <trkpt lat="43.36418" lon="6.15371">
        <ele>424.20001220703</ele>
        <time>2014-02-01T14:17:54Z</time>
      </trkpt>
      <trkpt lat="43.36409" lon="6.15387">
        <ele>424.20001220703</ele>
        <time>2014-02-01T14:18:00Z</time>
      </trkpt>
      <trkpt lat="43.364" lon="6.15402">
        <ele>424.20001220703</ele>
        <time>2014-02-01T14:18:06Z</time>
      </trkpt>
      <trkpt lat="43.36396" lon="6.1541">
        <ele>424.79998779297</ele>
        <time>2014-02-01T14:18:10Z</time>
      </trkpt>
      <trkpt lat="43.36393" lon="6.15415">
        <ele>425.60000610352</ele>
        <time>2014-02-01T14:18:12Z</time>
      </trkpt>
      <trkpt lat="43.3639" lon="6.15419">
        <ele>426.39999389648</ele>
        <time>2014-02-01T14:18:14Z</time>
      </trkpt>
      <trkpt lat="43.36378" lon="6.15434">
        <ele>426.39999389648</ele>
        <time>2014-02-01T14:18:20Z</time>
      </trkpt>
      <trkpt lat="43.36366" lon="6.15448">
        <ele>426.39999389648</ele>
        <time>2014-02-01T14:18:26Z</time>
      </trkpt>
      <trkpt lat="43.36347" lon="6.15463">
        <ele>426.39999389648</ele>
        <time>2014-02-01T14:18:32Z</time>
      </trkpt>
      <trkpt lat="43.36327" lon="6.15479">
        <ele>426.39999389648</ele>
        <time>2014-02-01T14:18:38Z</time>
      </trkpt>
      <trkpt lat="43.36316" lon="6.15491">
        <ele>426.39999389648</ele>
        <time>2014-02-01T14:18:42Z</time>
      </trkpt>
      <trkpt lat="43.36312" lon="6.15493">
        <ele>426.39999389648</ele>
        <time>2014-02-01T14:18:43Z</time>
      </trkpt>
      <trkpt lat="43.36298" lon="6.15503">
        <ele>426.39999389648</ele>
        <time>2014-02-01T14:18:48Z</time>
      </trkpt>
      <trkpt lat="43.36287" lon="6.15515">
        <ele>426.39999389648</ele>
        <time>2014-02-01T14:18:53Z</time>
      </trkpt>
      <trkpt lat="43.36285" lon="6.1552">
        <ele>426.39999389648</ele>
        <time>2014-02-01T14:18:55Z</time>
      </trkpt>
      <trkpt lat="43.36284" lon="6.1553">
        <ele>426.39999389648</ele>
        <time>2014-02-01T14:18:57Z</time>
      </trkpt>
      <trkpt lat="43.36282" lon="6.15542">
        <ele>426.39999389648</ele>
        <time>2014-02-01T14:18:59Z</time>
      </trkpt>
      <trkpt lat="43.3628" lon="6.15546">
        <ele>426</ele>
        <time>2014-02-01T14:19:00Z</time>
      </trkpt>
      <trkpt lat="43.36277" lon="6.15557">
        <ele>424.79998779297</ele>
        <time>2014-02-01T14:19:03Z</time>
      </trkpt>
      <trkpt lat="43.36276" lon="6.1556">
        <ele>424.39999389648</ele>
        <time>2014-02-01T14:19:04Z</time>
      </trkpt>
      <trkpt lat="43.36276" lon="6.15567">
        <ele>424.39999389648</ele>
        <time>2014-02-01T14:19:06Z</time>
      </trkpt>
      <trkpt lat="43.36277" lon="6.15602">
        <ele>424.39999389648</ele>
        <time>2014-02-01T14:19:14Z</time>
      </trkpt>
      <trkpt lat="43.36277" lon="6.15608">
        <ele>425.20001220703</ele>
        <time>2014-02-01T14:19:16Z</time>
      </trkpt>
      <trkpt lat="43.36275" lon="6.15619">
        <ele>426.60000610352</ele>
        <time>2014-02-01T14:19:19Z</time>
      </trkpt>
      <trkpt lat="43.36272" lon="6.15633">
        <ele>426.60000610352</ele>
        <time>2014-02-01T14:19:24Z</time>
      </trkpt>
      <trkpt lat="43.3627" lon="6.15641">
        <ele>426.60000610352</ele>
        <time>2014-02-01T14:19:26Z</time>
      </trkpt>
      <trkpt lat="43.36264" lon="6.15656">
        <ele>426.60000610352</ele>
        <time>2014-02-01T14:19:31Z</time>
      </trkpt>
      <trkpt lat="43.36242" lon="6.15679">
        <ele>426.60000610352</ele>
        <time>2014-02-01T14:19:41Z</time>
      </trkpt>
      <trkpt lat="43.36238" lon="6.15697">
        <ele>426.60000610352</ele>
        <time>2014-02-01T14:19:46Z</time>
      </trkpt>
      <trkpt lat="43.36238" lon="6.15721">
        <ele>426.60000610352</ele>
        <time>2014-02-01T14:19:52Z</time>
      </trkpt>
      <trkpt lat="43.36238" lon="6.1576">
        <ele>426.60000610352</ele>
        <time>2014-02-01T14:20:04Z</time>
      </trkpt>
      <trkpt lat="43.36238" lon="6.15776">
        <ele>427.39999389648</ele>
        <time>2014-02-01T14:20:09Z</time>
      </trkpt>
      <trkpt lat="43.3624" lon="6.15793">
        <ele>428.60000610352</ele>
        <time>2014-02-01T14:20:14Z</time>
      </trkpt>
      <trkpt lat="43.36238" lon="6.15805">
        <ele>428.60000610352</ele>
        <time>2014-02-01T14:20:18Z</time>
      </trkpt>
      <trkpt lat="43.36236" lon="6.1582">
        <ele>428.60000610352</ele>
        <time>2014-02-01T14:20:23Z</time>
      </trkpt>
      <trkpt lat="43.36236" lon="6.15839">
        <ele>428.60000610352</ele>
        <time>2014-02-01T14:20:28Z</time>
      </trkpt>
      <trkpt lat="43.36235" lon="6.15841">
        <ele>428.60000610352</ele>
        <time>2014-02-01T14:20:29Z</time>
      </trkpt>
      <trkpt lat="43.36232" lon="6.15851">
        <ele>428.60000610352</ele>
        <time>2014-02-01T14:20:34Z</time>
      </trkpt>
      <trkpt lat="43.36232" lon="6.15852">
        <ele>428.60000610352</ele>
        <time>2014-02-01T14:20:35Z</time>
      </trkpt>
      <trkpt lat="43.36232" lon="6.15852">
        <ele>428.60000610352</ele>
        <time>2014-02-01T14:20:41Z</time>
      </trkpt>
      <trkpt lat="43.36232" lon="6.15852">
        <ele>428.60000610352</ele>
        <time>2014-02-01T14:20:59Z</time>
      </trkpt>
      <trkpt lat="43.36232" lon="6.15852">
        <ele>428.60000610352</ele>
        <time>2014-02-01T14:21:47Z</time>
      </trkpt>
      <trkpt lat="43.36231" lon="6.15854">
        <ele>428.60000610352</ele>
        <time>2014-02-01T14:21:50Z</time>
      </trkpt>
      <trkpt lat="43.36229" lon="6.15858">
        <ele>428.60000610352</ele>
        <time>2014-02-01T14:21:52Z</time>
      </trkpt>
      <trkpt lat="43.36221" lon="6.15871">
        <ele>428.60000610352</ele>
        <time>2014-02-01T14:21:57Z</time>
      </trkpt>
      <trkpt lat="43.36219" lon="6.15875">
        <ele>428.60000610352</ele>
        <time>2014-02-01T14:21:58Z</time>
      </trkpt>
      <trkpt lat="43.36218" lon="6.15891">
        <ele>428.60000610352</ele>
        <time>2014-02-01T14:22:02Z</time>
      </trkpt>
      <trkpt lat="43.36226" lon="6.15914">
        <ele>428.60000610352</ele>
        <time>2014-02-01T14:22:07Z</time>
      </trkpt>
      <trkpt lat="43.36233" lon="6.15934">
        <ele>428.60000610352</ele>
        <time>2014-02-01T14:22:12Z</time>
      </trkpt>
      <trkpt lat="43.36231" lon="6.15949">
        <ele>428.60000610352</ele>
        <time>2014-02-01T14:22:16Z</time>
      </trkpt>
      <trkpt lat="43.36235" lon="6.15968">
        <ele>428.60000610352</ele>
        <time>2014-02-01T14:22:22Z</time>
      </trkpt>
      <trkpt lat="43.36238" lon="6.1598">
        <ele>428.60000610352</ele>
        <time>2014-02-01T14:22:25Z</time>
      </trkpt>
      <trkpt lat="43.36247" lon="6.15988">
        <ele>428.20001220703</ele>
        <time>2014-02-01T14:22:28Z</time>
      </trkpt>
      <trkpt lat="43.36256" lon="6.16">
        <ele>427</ele>
        <time>2014-02-01T14:22:31Z</time>
      </trkpt>
      <trkpt lat="43.36259" lon="6.16002">
        <ele>426.60000610352</ele>
        <time>2014-02-01T14:22:32Z</time>
      </trkpt>
      <trkpt lat="43.36264" lon="6.16013">
        <ele>426.60000610352</ele>
        <time>2014-02-01T14:22:34Z</time>
      </trkpt>
      <trkpt lat="43.3627" lon="6.16027">
        <ele>426.60000610352</ele>
        <time>2014-02-01T14:22:37Z</time>
      </trkpt>
      <trkpt lat="43.36277" lon="6.16035">
        <ele>425.60000610352</ele>
        <time>2014-02-01T14:22:39Z</time>
      </trkpt>
      <trkpt lat="43.3628" lon="6.16039">
        <ele>425.20001220703</ele>
        <time>2014-02-01T14:22:40Z</time>
      </trkpt>
      <trkpt lat="43.36282" lon="6.16043">
        <ele>424.79998779297</ele>
        <time>2014-02-01T14:22:41Z</time>
      </trkpt>
      <trkpt lat="43.36289" lon="6.16047">
        <ele>424.39999389648</ele>
        <time>2014-02-01T14:22:43Z</time>
      </trkpt>
      <trkpt lat="43.36292" lon="6.16051">
        <ele>424</ele>
        <time>2014-02-01T14:22:44Z</time>
      </trkpt>
      <trkpt lat="43.36293" lon="6.16059">
        <ele>423</ele>
        <time>2014-02-01T14:22:46Z</time>
      </trkpt>
      <trkpt lat="43.36296" lon="6.16059">
        <ele>422.39999389648</ele>
        <time>2014-02-01T14:22:47Z</time>
      </trkpt>
      <trkpt lat="43.36298" lon="6.16058">
        <ele>422</ele>
        <time>2014-02-01T14:22:48Z</time>
      </trkpt>
      <trkpt lat="43.36305" lon="6.16051">
        <ele>421.20001220703</ele>
        <time>2014-02-01T14:22:51Z</time>
      </trkpt>
      <trkpt lat="43.36307" lon="6.16053">
        <ele>420.60000610352</ele>
        <time>2014-02-01T14:22:52Z</time>
      </trkpt>
      <trkpt lat="43.36309" lon="6.16055">
        <ele>420.20001220703</ele>
        <time>2014-02-01T14:22:53Z</time>
      </trkpt>
      <trkpt lat="43.36318" lon="6.16052">
        <ele>419.39999389648</ele>
        <time>2014-02-01T14:22:56Z</time>
      </trkpt>
      <trkpt lat="43.3632" lon="6.16056">
        <ele>419</ele>
        <time>2014-02-01T14:22:57Z</time>
      </trkpt>
      <trkpt lat="43.3632" lon="6.16058">
        <ele>418.39999389648</ele>
        <time>2014-02-01T14:22:58Z</time>
      </trkpt>
      <trkpt lat="43.36323" lon="6.16059">
        <ele>418</ele>
        <time>2014-02-01T14:22:59Z</time>
      </trkpt>
      <trkpt lat="43.36325" lon="6.16062">
        <ele>417.39999389648</ele>
        <time>2014-02-01T14:23:00Z</time>
      </trkpt>
      <trkpt lat="43.36329" lon="6.16066">
        <ele>417</ele>
        <time>2014-02-01T14:23:01Z</time>
      </trkpt>
      <trkpt lat="43.36332" lon="6.16067">
        <ele>416.39999389648</ele>
        <time>2014-02-01T14:23:02Z</time>
      </trkpt>
      <trkpt lat="43.36337" lon="6.16067">
        <ele>416</ele>
        <time>2014-02-01T14:23:03Z</time>
      </trkpt>
      <trkpt lat="43.36346" lon="6.16062">
        <ele>414.20001220703</ele>
        <time>2014-02-01T14:23:06Z</time>
      </trkpt>
      <trkpt lat="43.36353" lon="6.16063">
        <ele>413.20001220703</ele>
        <time>2014-02-01T14:23:08Z</time>
      </trkpt>
      <trkpt lat="43.36356" lon="6.16066">
        <ele>412.39999389648</ele>
        <time>2014-02-01T14:23:09Z</time>
      </trkpt>
      <trkpt lat="43.36361" lon="6.16071">
        <ele>411.20001220703</ele>
        <time>2014-02-01T14:23:11Z</time>
      </trkpt>
      <trkpt lat="43.36369" lon="6.16074">
        <ele>409.39999389648</ele>
        <time>2014-02-01T14:23:14Z</time>
      </trkpt>
      <trkpt lat="43.36376" lon="6.16082">
        <ele>407.60000610352</ele>
        <time>2014-02-01T14:23:16Z</time>
      </trkpt>
      <trkpt lat="43.36386" lon="6.16088">
        <ele>405.79998779297</ele>
        <time>2014-02-01T14:23:19Z</time>
      </trkpt>
      <trkpt lat="43.36393" lon="6.16093">
        <ele>404.79998779297</ele>
        <time>2014-02-01T14:23:21Z</time>
      </trkpt>
      <trkpt lat="43.36397" lon="6.16095">
        <ele>404.20001220703</ele>
        <time>2014-02-01T14:23:22Z</time>
      </trkpt>
      <trkpt lat="43.36401" lon="6.16096">
        <ele>403.60000610352</ele>
        <time>2014-02-01T14:23:23Z</time>
      </trkpt>
      <trkpt lat="43.36405" lon="6.16096">
        <ele>403</ele>
        <time>2014-02-01T14:23:24Z</time>
      </trkpt>
      <trkpt lat="43.36412" lon="6.16099">
        <ele>401.60000610352</ele>
        <time>2014-02-01T14:23:26Z</time>
      </trkpt>
      <trkpt lat="43.36418" lon="6.16105">
        <ele>400.20001220703</ele>
        <time>2014-02-01T14:23:28Z</time>
      </trkpt>
      <trkpt lat="43.3642" lon="6.16109">
        <ele>399.60000610352</ele>
        <time>2014-02-01T14:23:29Z</time>
      </trkpt>
      <trkpt lat="43.36423" lon="6.1611">
        <ele>399</ele>
        <time>2014-02-01T14:23:30Z</time>
      </trkpt>
      <trkpt lat="43.36425" lon="6.1611">
        <ele>398.20001220703</ele>
        <time>2014-02-01T14:23:31Z</time>
      </trkpt>
      <trkpt lat="43.36437" lon="6.16098">
        <ele>396.39999389648</ele>
        <time>2014-02-01T14:23:35Z</time>
      </trkpt>
      <trkpt lat="43.36438" lon="6.16098">
        <ele>395.79998779297</ele>
        <time>2014-02-01T14:23:36Z</time>
      </trkpt>
      <trkpt lat="43.3644" lon="6.16098">
        <ele>395.20001220703</ele>
        <time>2014-02-01T14:23:37Z</time>
      </trkpt>
      <trkpt lat="43.36446" lon="6.16093">
        <ele>392.20001220703</ele>
        <time>2014-02-01T14:23:41Z</time>
      </trkpt>
      <trkpt lat="43.36449" lon="6.16094">
        <ele>391</ele>
        <time>2014-02-01T14:23:43Z</time>
      </trkpt>
      <trkpt lat="43.36451" lon="6.16096">
        <ele>390.39999389648</ele>
        <time>2014-02-01T14:23:44Z</time>
      </trkpt>
      <trkpt lat="43.36453" lon="6.16095">
        <ele>389.79998779297</ele>
        <time>2014-02-01T14:23:45Z</time>
      </trkpt>
      <trkpt lat="43.3646" lon="6.16092">
        <ele>387.79998779297</ele>
        <time>2014-02-01T14:23:48Z</time>
      </trkpt>
      <trkpt lat="43.36462" lon="6.16092">
        <ele>387.20001220703</ele>
        <time>2014-02-01T14:23:49Z</time>
      </trkpt>
      <trkpt lat="43.36465" lon="6.16092">
        <ele>385.79998779297</ele>
        <time>2014-02-01T14:23:51Z</time>
      </trkpt>
      <trkpt lat="43.36467" lon="6.16093">
        <ele>385.20001220703</ele>
        <time>2014-02-01T14:23:52Z</time>
      </trkpt>
      <trkpt lat="43.36469" lon="6.16092">
        <ele>384.79998779297</ele>
        <time>2014-02-01T14:23:53Z</time>
      </trkpt>
      <trkpt lat="43.36473" lon="6.16089">
        <ele>383.79998779297</ele>
        <time>2014-02-01T14:23:55Z</time>
      </trkpt>
      <trkpt lat="43.36477" lon="6.16087">
        <ele>382</ele>
        <time>2014-02-01T14:23:58Z</time>
      </trkpt>
      <trkpt lat="43.36477" lon="6.16088">
        <ele>380.79998779297</ele>
        <time>2014-02-01T14:24:00Z</time>
      </trkpt>
      <trkpt lat="43.36478" lon="6.16089">
        <ele>380</ele>
        <time>2014-02-01T14:24:01Z</time>
      </trkpt>
      <trkpt lat="43.36478" lon="6.16089">
        <ele>379.60000610352</ele>
        <time>2014-02-01T14:24:02Z</time>
      </trkpt>
      <trkpt lat="43.36478" lon="6.16089">
        <ele>377.60000610352</ele>
        <time>2014-02-01T14:24:26Z</time>
      </trkpt>
      <trkpt lat="43.36478" lon="6.16089">
        <ele>377.60000610352</ele>
        <time>2014-02-01T14:24:42Z</time>
      </trkpt>
      <trkpt lat="43.36478" lon="6.16089">
        <ele>377.60000610352</ele>
        <time>2014-02-01T14:25:05Z</time>
      </trkpt>
      <trkpt lat="43.36477" lon="6.16089">
        <ele>377.60000610352</ele>
        <time>2014-02-01T14:25:08Z</time>
      </trkpt>
      <trkpt lat="43.36475" lon="6.16088">
        <ele>377.60000610352</ele>
        <time>2014-02-01T14:25:09Z</time>
      </trkpt>
      <trkpt lat="43.36475" lon="6.16088">
        <ele>377.60000610352</ele>
        <time>2014-02-01T14:25:14Z</time>
      </trkpt>
      <trkpt lat="43.36474" lon="6.16088">
        <ele>377.60000610352</ele>
        <time>2014-02-01T14:25:16Z</time>
      </trkpt>
      <trkpt lat="43.36475" lon="6.16088">
        <ele>377.60000610352</ele>
        <time>2014-02-01T14:25:18Z</time>
      </trkpt>
      <trkpt lat="43.36476" lon="6.16088">
        <ele>378.60000610352</ele>
        <time>2014-02-01T14:25:20Z</time>
      </trkpt>
      <trkpt lat="43.36476" lon="6.16088">
        <ele>379.20001220703</ele>
        <time>2014-02-01T14:25:28Z</time>
      </trkpt>
      <trkpt lat="43.36475" lon="6.16088">
        <ele>378.60000610352</ele>
        <time>2014-02-01T14:25:29Z</time>
      </trkpt>
      <trkpt lat="43.36475" lon="6.16088">
        <ele>380</ele>
        <time>2014-02-01T14:25:46Z</time>
      </trkpt>
      <trkpt lat="43.36475" lon="6.16088">
        <ele>380</ele>
        <time>2014-02-01T14:26:00Z</time>
      </trkpt>
      <trkpt lat="43.36475" lon="6.16088">
        <ele>380</ele>
        <time>2014-02-01T14:26:11Z</time>
      </trkpt>
      <trkpt lat="43.36474" lon="6.16088">
        <ele>380</ele>
        <time>2014-02-01T14:26:16Z</time>
      </trkpt>
      <trkpt lat="43.36474" lon="6.16089">
        <ele>380</ele>
        <time>2014-02-01T14:26:22Z</time>
      </trkpt>
      <trkpt lat="43.36475" lon="6.16089">
        <ele>380</ele>
        <time>2014-02-01T14:26:29Z</time>
      </trkpt>
      <trkpt lat="43.36476" lon="6.16089">
        <ele>379.39999389648</ele>
        <time>2014-02-01T14:26:30Z</time>
      </trkpt>
      <trkpt lat="43.36478" lon="6.16089">
        <ele>376.60000610352</ele>
        <time>2014-02-01T14:26:34Z</time>
      </trkpt>
      <trkpt lat="43.36478" lon="6.16089">
        <ele>377</ele>
        <time>2014-02-01T14:26:47Z</time>
      </trkpt>
      <trkpt lat="43.36478" lon="6.16089">
        <ele>375.60000610352</ele>
        <time>2014-02-01T14:27:09Z</time>
      </trkpt>
      <trkpt lat="43.36478" lon="6.1609">
        <ele>376.20001220703</ele>
        <time>2014-02-01T14:27:11Z</time>
      </trkpt>
      <trkpt lat="43.36479" lon="6.16093">
        <ele>376.79998779297</ele>
        <time>2014-02-01T14:27:12Z</time>
      </trkpt>
      <trkpt lat="43.36479" lon="6.16095">
        <ele>377.20001220703</ele>
        <time>2014-02-01T14:27:13Z</time>
      </trkpt>
      <trkpt lat="43.3648" lon="6.16099">
        <ele>376.79998779297</ele>
        <time>2014-02-01T14:27:15Z</time>
      </trkpt>
      <trkpt lat="43.36481" lon="6.16102">
        <ele>376.60000610352</ele>
        <time>2014-02-01T14:27:16Z</time>
      </trkpt>
      <trkpt lat="43.36482" lon="6.16105">
        <ele>376.39999389648</ele>
        <time>2014-02-01T14:27:17Z</time>
      </trkpt>
      <trkpt lat="43.36483" lon="6.16109">
        <ele>376.20001220703</ele>
        <time>2014-02-01T14:27:18Z</time>
      </trkpt>
      <trkpt lat="43.36485" lon="6.1612">
        <ele>375.79998779297</ele>
        <time>2014-02-01T14:27:20Z</time>
      </trkpt>
      <trkpt lat="43.36487" lon="6.16125">
        <ele>375.20001220703</ele>
        <time>2014-02-01T14:27:21Z</time>
      </trkpt>
      <trkpt lat="43.36488" lon="6.16132">
        <ele>374.60000610352</ele>
        <time>2014-02-01T14:27:22Z</time>
      </trkpt>
      <trkpt lat="43.3649" lon="6.16138">
        <ele>373.60000610352</ele>
        <time>2014-02-01T14:27:23Z</time>
      </trkpt>
      <trkpt lat="43.36493" lon="6.16145">
        <ele>372.79998779297</ele>
        <time>2014-02-01T14:27:24Z</time>
      </trkpt>
      <trkpt lat="43.36495" lon="6.16153">
        <ele>371.79998779297</ele>
        <time>2014-02-01T14:27:25Z</time>
      </trkpt>
      <trkpt lat="43.36497" lon="6.16159">
        <ele>370.79998779297</ele>
        <time>2014-02-01T14:27:26Z</time>
      </trkpt>
      <trkpt lat="43.365" lon="6.16165">
        <ele>369.60000610352</ele>
        <time>2014-02-01T14:27:27Z</time>
      </trkpt>
      <trkpt lat="43.36506" lon="6.16179">
        <ele>367.60000610352</ele>
        <time>2014-02-01T14:27:30Z</time>
      </trkpt>
      <trkpt lat="43.36507" lon="6.16183">
        <ele>367</ele>
        <time>2014-02-01T14:27:31Z</time>
      </trkpt>
      <trkpt lat="43.36509" lon="6.16192">
        <ele>364.60000610352</ele>
        <time>2014-02-01T14:27:33Z</time>
      </trkpt>
      <trkpt lat="43.36509" lon="6.16195">
        <ele>363.60000610352</ele>
        <time>2014-02-01T14:27:34Z</time>
      </trkpt>
      <trkpt lat="43.36509" lon="6.16197">
        <ele>362.79998779297</ele>
        <time>2014-02-01T14:27:35Z</time>
      </trkpt>
      <trkpt lat="43.3651" lon="6.16202">
        <ele>362.39999389648</ele>
        <time>2014-02-01T14:27:37Z</time>
      </trkpt>
      <trkpt lat="43.36512" lon="6.16203">
        <ele>362</ele>
        <time>2014-02-01T14:27:38Z</time>
      </trkpt>
      <trkpt lat="43.36513" lon="6.16206">
        <ele>361.39999389648</ele>
        <time>2014-02-01T14:27:39Z</time>
      </trkpt>
      <trkpt lat="43.36514" lon="6.1621">
        <ele>360.79998779297</ele>
        <time>2014-02-01T14:27:40Z</time>
      </trkpt>
      <trkpt lat="43.36516" lon="6.16216">
        <ele>360.20001220703</ele>
        <time>2014-02-01T14:27:41Z</time>
      </trkpt>
      <trkpt lat="43.36518" lon="6.16223">
        <ele>359.39999389648</ele>
        <time>2014-02-01T14:27:42Z</time>
      </trkpt>
      <trkpt lat="43.36519" lon="6.1623">
        <ele>358.79998779297</ele>
        <time>2014-02-01T14:27:43Z</time>
      </trkpt>
      <trkpt lat="43.3652" lon="6.16238">
        <ele>358</ele>
        <time>2014-02-01T14:27:44Z</time>
      </trkpt>
      <trkpt lat="43.3652" lon="6.16254">
        <ele>356.60000610352</ele>
        <time>2014-02-01T14:27:46Z</time>
      </trkpt>
      <trkpt lat="43.3652" lon="6.16266">
        <ele>355.20001220703</ele>
        <time>2014-02-01T14:27:48Z</time>
      </trkpt>
      <trkpt lat="43.36518" lon="6.1627">
        <ele>354.79998779297</ele>
        <time>2014-02-01T14:27:49Z</time>
      </trkpt>
      <trkpt lat="43.36517" lon="6.16276">
        <ele>354.39999389648</ele>
        <time>2014-02-01T14:27:50Z</time>
      </trkpt>
      <trkpt lat="43.36516" lon="6.16282">
        <ele>354</ele>
        <time>2014-02-01T14:27:51Z</time>
      </trkpt>
      <trkpt lat="43.36514" lon="6.16294">
        <ele>353</ele>
        <time>2014-02-01T14:27:53Z</time>
      </trkpt>
      <trkpt lat="43.36513" lon="6.163">
        <ele>352.39999389648</ele>
        <time>2014-02-01T14:27:54Z</time>
      </trkpt>
      <trkpt lat="43.36511" lon="6.16305">
        <ele>351.79998779297</ele>
        <time>2014-02-01T14:27:55Z</time>
      </trkpt>
      <trkpt lat="43.36509" lon="6.16311">
        <ele>351.20001220703</ele>
        <time>2014-02-01T14:27:56Z</time>
      </trkpt>
      <trkpt lat="43.36507" lon="6.16317">
        <ele>350.60000610352</ele>
        <time>2014-02-01T14:27:57Z</time>
      </trkpt>
      <trkpt lat="43.36498" lon="6.16329">
        <ele>350.20001220703</ele>
        <time>2014-02-01T14:28:00Z</time>
      </trkpt>
      <trkpt lat="43.36487" lon="6.16337">
        <ele>348</ele>
        <time>2014-02-01T14:28:04Z</time>
      </trkpt>
      <trkpt lat="43.36483" lon="6.16345">
        <ele>348</ele>
        <time>2014-02-01T14:28:06Z</time>
      </trkpt>
      <trkpt lat="43.36478" lon="6.16354">
        <ele>348</ele>
        <time>2014-02-01T14:28:08Z</time>
      </trkpt>
      <trkpt lat="43.36475" lon="6.16359">
        <ele>348</ele>
        <time>2014-02-01T14:28:09Z</time>
      </trkpt>
      <trkpt lat="43.36472" lon="6.16372">
        <ele>348</ele>
        <time>2014-02-01T14:28:11Z</time>
      </trkpt>
      <trkpt lat="43.36469" lon="6.16391">
        <ele>346.79998779297</ele>
        <time>2014-02-01T14:28:14Z</time>
      </trkpt>
      <trkpt lat="43.36469" lon="6.16397">
        <ele>346.20001220703</ele>
        <time>2014-02-01T14:28:15Z</time>
      </trkpt>
      <trkpt lat="43.36467" lon="6.16403">
        <ele>345.79998779297</ele>
        <time>2014-02-01T14:28:16Z</time>
      </trkpt>
      <trkpt lat="43.36465" lon="6.16409">
        <ele>345.79998779297</ele>
        <time>2014-02-01T14:28:17Z</time>
      </trkpt>
      <trkpt lat="43.36462" lon="6.16427">
        <ele>345.79998779297</ele>
        <time>2014-02-01T14:28:20Z</time>
      </trkpt>
      <trkpt lat="43.3646" lon="6.16446">
        <ele>345.39999389648</ele>
        <time>2014-02-01T14:28:23Z</time>
      </trkpt>
      <trkpt lat="43.36458" lon="6.16453">
        <ele>344.79998779297</ele>
        <time>2014-02-01T14:28:24Z</time>
      </trkpt>
      <trkpt lat="43.36457" lon="6.16459">
        <ele>344.20001220703</ele>
        <time>2014-02-01T14:28:25Z</time>
      </trkpt>
      <trkpt lat="43.36456" lon="6.16464">
        <ele>343.79998779297</ele>
        <time>2014-02-01T14:28:26Z</time>
      </trkpt>
      <trkpt lat="43.36456" lon="6.16468">
        <ele>343.20001220703</ele>
        <time>2014-02-01T14:28:27Z</time>
      </trkpt>
      <trkpt lat="43.36455" lon="6.16476">
        <ele>343.20001220703</ele>
        <time>2014-02-01T14:28:29Z</time>
      </trkpt>
      <trkpt lat="43.36456" lon="6.16494">
        <ele>343.20001220703</ele>
        <time>2014-02-01T14:28:33Z</time>
      </trkpt>
      <trkpt lat="43.36458" lon="6.165">
        <ele>343.20001220703</ele>
        <time>2014-02-01T14:28:34Z</time>
      </trkpt>
      <trkpt lat="43.36462" lon="6.16514">
        <ele>342.60000610352</ele>
        <time>2014-02-01T14:28:36Z</time>
      </trkpt>
      <trkpt lat="43.36466" lon="6.16529">
        <ele>341</ele>
        <time>2014-02-01T14:28:38Z</time>
      </trkpt>
      <trkpt lat="43.36465" lon="6.16545">
        <ele>339</ele>
        <time>2014-02-01T14:28:40Z</time>
      </trkpt>
      <trkpt lat="43.36465" lon="6.16553">
        <ele>338</ele>
        <time>2014-02-01T14:28:41Z</time>
      </trkpt>
      <trkpt lat="43.36465" lon="6.16563">
        <ele>337</ele>
        <time>2014-02-01T14:28:42Z</time>
      </trkpt>
      <trkpt lat="43.36466" lon="6.16572">
        <ele>337</ele>
        <time>2014-02-01T14:28:43Z</time>
      </trkpt>
      <trkpt lat="43.36467" lon="6.16582">
        <ele>336.20001220703</ele>
        <time>2014-02-01T14:28:44Z</time>
      </trkpt>
      <trkpt lat="43.36468" lon="6.16592">
        <ele>335.39999389648</ele>
        <time>2014-02-01T14:28:45Z</time>
      </trkpt>
      <trkpt lat="43.36469" lon="6.16601">
        <ele>334.79998779297</ele>
        <time>2014-02-01T14:28:46Z</time>
      </trkpt>
      <trkpt lat="43.36472" lon="6.1662">
        <ele>333</ele>
        <time>2014-02-01T14:28:48Z</time>
      </trkpt>
      <trkpt lat="43.36475" lon="6.16629">
        <ele>332.20001220703</ele>
        <time>2014-02-01T14:28:49Z</time>
      </trkpt>
      <trkpt lat="43.36479" lon="6.16644">
        <ele>330.39999389648</ele>
        <time>2014-02-01T14:28:51Z</time>
      </trkpt>
      <trkpt lat="43.36485" lon="6.16667">
        <ele>329</ele>
        <time>2014-02-01T14:28:54Z</time>
      </trkpt>
      <trkpt lat="43.36477" lon="6.16699">
        <ele>326.20001220703</ele>
        <time>2014-02-01T14:28:58Z</time>
      </trkpt>
      <trkpt lat="43.36475" lon="6.16708">
        <ele>325.39999389648</ele>
        <time>2014-02-01T14:28:59Z</time>
      </trkpt>
      <trkpt lat="43.36474" lon="6.16717">
        <ele>324.60000610352</ele>
        <time>2014-02-01T14:29:00Z</time>
      </trkpt>
      <trkpt lat="43.36469" lon="6.16735">
        <ele>324.20001220703</ele>
        <time>2014-02-01T14:29:02Z</time>
      </trkpt>
      <trkpt lat="43.36468" lon="6.16743">
        <ele>323.79998779297</ele>
        <time>2014-02-01T14:29:03Z</time>
      </trkpt>
      <trkpt lat="43.36465" lon="6.16751">
        <ele>323.39999389648</ele>
        <time>2014-02-01T14:29:04Z</time>
      </trkpt>
      <trkpt lat="43.36459" lon="6.16764">
        <ele>322.39999389648</ele>
        <time>2014-02-01T14:29:05Z</time>
      </trkpt>
      <trkpt lat="43.36456" lon="6.16771">
        <ele>322</ele>
        <time>2014-02-01T14:29:07Z</time>
      </trkpt>
      <trkpt lat="43.36455" lon="6.1678">
        <ele>321</ele>
        <time>2014-02-01T14:29:08Z</time>
      </trkpt>
      <trkpt lat="43.36456" lon="6.16784">
        <ele>320.39999389648</ele>
        <time>2014-02-01T14:29:09Z</time>
      </trkpt>
      <trkpt lat="43.36458" lon="6.16785">
        <ele>319.39999389648</ele>
        <time>2014-02-01T14:29:13Z</time>
      </trkpt>
      <trkpt lat="43.36459" lon="6.16785">
        <ele>319.39999389648</ele>
        <time>2014-02-01T14:29:14Z</time>
      </trkpt>
      <trkpt lat="43.36459" lon="6.16785">
        <ele>319.60000610352</ele>
        <time>2014-02-01T14:29:30Z</time>
      </trkpt>
      <trkpt lat="43.36459" lon="6.16785">
        <ele>319.20001220703</ele>
        <time>2014-02-01T14:30:21Z</time>
      </trkpt>
      <trkpt lat="43.36459" lon="6.16785">
        <ele>320.20001220703</ele>
        <time>2014-02-01T14:31:05Z</time>
      </trkpt>
      <trkpt lat="43.36459" lon="6.16785">
        <ele>320.20001220703</ele>
        <time>2014-02-01T14:31:13Z</time>
      </trkpt>
      <trkpt lat="43.36462" lon="6.16785">
        <ele>320.20001220703</ele>
        <time>2014-02-01T14:31:15Z</time>
      </trkpt>
      <trkpt lat="43.36467" lon="6.16787">
        <ele>320.20001220703</ele>
        <time>2014-02-01T14:31:17Z</time>
      </trkpt>
      <trkpt lat="43.36467" lon="6.16789">
        <ele>320.20001220703</ele>
        <time>2014-02-01T14:31:18Z</time>
      </trkpt>
      <trkpt lat="43.36465" lon="6.16796">
        <ele>320.20001220703</ele>
        <time>2014-02-01T14:31:21Z</time>
      </trkpt>
      <trkpt lat="43.36463" lon="6.16804">
        <ele>320.20001220703</ele>
        <time>2014-02-01T14:31:25Z</time>
      </trkpt>
      <trkpt lat="43.36463" lon="6.16809">
        <ele>320.20001220703</ele>
        <time>2014-02-01T14:31:27Z</time>
      </trkpt>
      <trkpt lat="43.36464" lon="6.16812">
        <ele>320.20001220703</ele>
        <time>2014-02-01T14:31:29Z</time>
      </trkpt>
      <trkpt lat="43.36466" lon="6.16813">
        <ele>320.20001220703</ele>
        <time>2014-02-01T14:31:31Z</time>
      </trkpt>
      <trkpt lat="43.36468" lon="6.16813">
        <ele>320.20001220703</ele>
        <time>2014-02-01T14:31:33Z</time>
      </trkpt>
      <trkpt lat="43.36469" lon="6.16812">
        <ele>321.20001220703</ele>
        <time>2014-02-01T14:31:36Z</time>
      </trkpt>
      <trkpt lat="43.3647" lon="6.1681">
        <ele>322.60000610352</ele>
        <time>2014-02-01T14:31:39Z</time>
      </trkpt>
      <trkpt lat="43.36474" lon="6.16807">
        <ele>322.60000610352</ele>
        <time>2014-02-01T14:31:42Z</time>
      </trkpt>
      <trkpt lat="43.36475" lon="6.16806">
        <ele>323</ele>
        <time>2014-02-01T14:31:43Z</time>
      </trkpt>
      <trkpt lat="43.36478" lon="6.16807">
        <ele>325.39999389648</ele>
        <time>2014-02-01T14:31:47Z</time>
      </trkpt>
      <trkpt lat="43.3648" lon="6.16808">
        <ele>326.20001220703</ele>
        <time>2014-02-01T14:31:48Z</time>
      </trkpt>
      <trkpt lat="43.36488" lon="6.16808">
        <ele>328.20001220703</ele>
        <time>2014-02-01T14:31:56Z</time>
      </trkpt>
      <trkpt lat="43.3649" lon="6.16807">
        <ele>329.39999389648</ele>
        <time>2014-02-01T14:31:58Z</time>
      </trkpt>
      <trkpt lat="43.36495" lon="6.16807">
        <ele>329.39999389648</ele>
        <time>2014-02-01T14:32:03Z</time>
      </trkpt>
      <trkpt lat="43.36501" lon="6.16807">
        <ele>331.60000610352</ele>
        <time>2014-02-01T14:32:09Z</time>
      </trkpt>
      <trkpt lat="43.36511" lon="6.16806">
        <ele>331.60000610352</ele>
        <time>2014-02-01T14:32:17Z</time>
      </trkpt>
      <trkpt lat="43.36518" lon="6.16805">
        <ele>331.60000610352</ele>
        <time>2014-02-01T14:32:24Z</time>
      </trkpt>
      <trkpt lat="43.36527" lon="6.16803">
        <ele>331.60000610352</ele>
        <time>2014-02-01T14:32:31Z</time>
      </trkpt>
      <trkpt lat="43.36532" lon="6.16802">
        <ele>331.60000610352</ele>
        <time>2014-02-01T14:32:35Z</time>
      </trkpt>
      <trkpt lat="43.36547" lon="6.168">
        <ele>333.60000610352</ele>
        <time>2014-02-01T14:32:50Z</time>
      </trkpt>
      <trkpt lat="43.36552" lon="6.168">
        <ele>334.20001220703</ele>
        <time>2014-02-01T14:32:55Z</time>
      </trkpt>
      <trkpt lat="43.36556" lon="6.168">
        <ele>335.79998779297</ele>
        <time>2014-02-01T14:32:59Z</time>
      </trkpt>
      <trkpt lat="43.36568" lon="6.16801">
        <ele>335.79998779297</ele>
        <time>2014-02-01T14:33:07Z</time>
      </trkpt>
      <trkpt lat="43.36573" lon="6.16801">
        <ele>335.79998779297</ele>
        <time>2014-02-01T14:33:13Z</time>
      </trkpt>
      <trkpt lat="43.36573" lon="6.16801">
        <ele>336.39999389648</ele>
        <time>2014-02-01T14:33:17Z</time>
      </trkpt>
      <trkpt lat="43.36576" lon="6.16802">
        <ele>337.39999389648</ele>
        <time>2014-02-01T14:33:19Z</time>
      </trkpt>
      <trkpt lat="43.36584" lon="6.16801">
        <ele>338.60000610352</ele>
        <time>2014-02-01T14:33:25Z</time>
      </trkpt>
      <trkpt lat="43.36587" lon="6.16802">
        <ele>338.60000610352</ele>
        <time>2014-02-01T14:33:28Z</time>
      </trkpt>
      <trkpt lat="43.36596" lon="6.16805">
        <ele>338.60000610352</ele>
        <time>2014-02-01T14:33:35Z</time>
      </trkpt>
      <trkpt lat="43.36605" lon="6.16808">
        <ele>338.60000610352</ele>
        <time>2014-02-01T14:33:42Z</time>
      </trkpt>
      <trkpt lat="43.36621" lon="6.16807">
        <ele>340.60000610352</ele>
        <time>2014-02-01T14:33:58Z</time>
      </trkpt>
      <trkpt lat="43.36626" lon="6.16806">
        <ele>343.79998779297</ele>
        <time>2014-02-01T14:34:04Z</time>
      </trkpt>
      <trkpt lat="43.36628" lon="6.16807">
        <ele>343.79998779297</ele>
        <time>2014-02-01T14:34:06Z</time>
      </trkpt>
      <trkpt lat="43.36635" lon="6.16806">
        <ele>343.79998779297</ele>
        <time>2014-02-01T14:34:14Z</time>
      </trkpt>
      <trkpt lat="43.36644" lon="6.16807">
        <ele>343.79998779297</ele>
        <time>2014-02-01T14:34:21Z</time>
      </trkpt>
      <trkpt lat="43.3665" lon="6.16807">
        <ele>343.79998779297</ele>
        <time>2014-02-01T14:34:28Z</time>
      </trkpt>
      <trkpt lat="43.36655" lon="6.16805">
        <ele>344.79998779297</ele>
        <time>2014-02-01T14:34:33Z</time>
      </trkpt>
      <trkpt lat="43.36657" lon="6.16804">
        <ele>346.20001220703</ele>
        <time>2014-02-01T14:34:36Z</time>
      </trkpt>
      <trkpt lat="43.36664" lon="6.16802">
        <ele>346.20001220703</ele>
        <time>2014-02-01T14:34:43Z</time>
      </trkpt>
      <trkpt lat="43.3667" lon="6.16795">
        <ele>348.20001220703</ele>
        <time>2014-02-01T14:34:51Z</time>
      </trkpt>
      <trkpt lat="43.36676" lon="6.16789">
        <ele>350.39999389648</ele>
        <time>2014-02-01T14:34:58Z</time>
      </trkpt>
      <trkpt lat="43.36679" lon="6.16786">
        <ele>351.20001220703</ele>
        <time>2014-02-01T14:35:01Z</time>
      </trkpt>
      <trkpt lat="43.36681" lon="6.16783">
        <ele>350.79998779297</ele>
        <time>2014-02-01T14:35:04Z</time>
      </trkpt>
      <trkpt lat="43.36682" lon="6.16782">
        <ele>351</ele>
        <time>2014-02-01T14:35:05Z</time>
      </trkpt>
      <trkpt lat="43.36684" lon="6.16778">
        <ele>352.39999389648</ele>
        <time>2014-02-01T14:35:09Z</time>
      </trkpt>
      <trkpt lat="43.36687" lon="6.16773">
        <ele>352.39999389648</ele>
        <time>2014-02-01T14:35:14Z</time>
      </trkpt>
      <trkpt lat="43.36692" lon="6.16765">
        <ele>352.39999389648</ele>
        <time>2014-02-01T14:35:21Z</time>
      </trkpt>
      <trkpt lat="43.36697" lon="6.16756">
        <ele>355.39999389648</ele>
        <time>2014-02-01T14:35:30Z</time>
      </trkpt>
      <trkpt lat="43.36701" lon="6.16743">
        <ele>355.39999389648</ele>
        <time>2014-02-01T14:35:40Z</time>
      </trkpt>
      <trkpt lat="43.36704" lon="6.16734">
        <ele>355.39999389648</ele>
        <time>2014-02-01T14:35:47Z</time>
      </trkpt>
      <trkpt lat="43.36708" lon="6.16722">
        <ele>356.20001220703</ele>
        <time>2014-02-01T14:35:54Z</time>
      </trkpt>
      <trkpt lat="43.3671" lon="6.16717">
        <ele>357.60000610352</ele>
        <time>2014-02-01T14:35:57Z</time>
      </trkpt>
      <trkpt lat="43.3671" lon="6.16716">
        <ele>357.60000610352</ele>
        <time>2014-02-01T14:35:58Z</time>
      </trkpt>
      <trkpt lat="43.36715" lon="6.16709">
        <ele>357.60000610352</ele>
        <time>2014-02-01T14:36:05Z</time>
      </trkpt>
      <trkpt lat="43.36718" lon="6.16703">
        <ele>358.79998779297</ele>
        <time>2014-02-01T14:36:13Z</time>
      </trkpt>
      <trkpt lat="43.36719" lon="6.16701">
        <ele>359.79998779297</ele>
        <time>2014-02-01T14:36:15Z</time>
      </trkpt>
      <trkpt lat="43.36722" lon="6.16695">
        <ele>359.79998779297</ele>
        <time>2014-02-01T14:36:22Z</time>
      </trkpt>
      <trkpt lat="43.36723" lon="6.16691">
        <ele>360.20001220703</ele>
        <time>2014-02-01T14:36:26Z</time>
      </trkpt>
      <trkpt lat="43.36725" lon="6.16685">
        <ele>362</ele>
        <time>2014-02-01T14:36:30Z</time>
      </trkpt>
      <trkpt lat="43.36728" lon="6.1667">
        <ele>362</ele>
        <time>2014-02-01T14:36:38Z</time>
      </trkpt>
      <trkpt lat="43.36728" lon="6.16668">
        <ele>362.39999389648</ele>
        <time>2014-02-01T14:36:40Z</time>
      </trkpt>
      <trkpt lat="43.36729" lon="6.16667">
        <ele>363.39999389648</ele>
        <time>2014-02-01T14:36:42Z</time>
      </trkpt>
      <trkpt lat="43.36729" lon="6.16665">
        <ele>363.79998779297</ele>
        <time>2014-02-01T14:36:43Z</time>
      </trkpt>
      <trkpt lat="43.36729" lon="6.16662">
        <ele>364.20001220703</ele>
        <time>2014-02-01T14:36:46Z</time>
      </trkpt>
      <trkpt lat="43.36731" lon="6.16659">
        <ele>365.39999389648</ele>
        <time>2014-02-01T14:36:49Z</time>
      </trkpt>
      <trkpt lat="43.36731" lon="6.16658">
        <ele>365.79998779297</ele>
        <time>2014-02-01T14:36:50Z</time>
      </trkpt>
      <trkpt lat="43.36731" lon="6.16655">
        <ele>366.20001220703</ele>
        <time>2014-02-01T14:36:54Z</time>
      </trkpt>
      <trkpt lat="43.36729" lon="6.16648">
        <ele>366.79998779297</ele>
        <time>2014-02-01T14:37:02Z</time>
      </trkpt>
      <trkpt lat="43.36726" lon="6.16642">
        <ele>369.39999389648</ele>
        <time>2014-02-01T14:37:10Z</time>
      </trkpt>
      <trkpt lat="43.36721" lon="6.16637">
        <ele>369.79998779297</ele>
        <time>2014-02-01T14:37:17Z</time>
      </trkpt>
      <trkpt lat="43.36721" lon="6.16635">
        <ele>370.60000610352</ele>
        <time>2014-02-01T14:37:19Z</time>
      </trkpt>
      <trkpt lat="43.36719" lon="6.16633">
        <ele>371.39999389648</ele>
        <time>2014-02-01T14:37:21Z</time>
      </trkpt>
      <trkpt lat="43.36715" lon="6.1663">
        <ele>371.79998779297</ele>
        <time>2014-02-01T14:37:26Z</time>
      </trkpt>
      <trkpt lat="43.36711" lon="6.16627">
        <ele>373.60000610352</ele>
        <time>2014-02-01T14:37:32Z</time>
      </trkpt>
      <trkpt lat="43.36708" lon="6.16624">
        <ele>373.60000610352</ele>
        <time>2014-02-01T14:37:38Z</time>
      </trkpt>
      <trkpt lat="43.36703" lon="6.1662">
        <ele>376.60000610352</ele>
        <time>2014-02-01T14:37:45Z</time>
      </trkpt>
      <trkpt lat="43.36701" lon="6.1661">
        <ele>376.60000610352</ele>
        <time>2014-02-01T14:37:51Z</time>
      </trkpt>
      <trkpt lat="43.367" lon="6.16601">
        <ele>377.20001220703</ele>
        <time>2014-02-01T14:38:00Z</time>
      </trkpt>
      <trkpt lat="43.367" lon="6.16596">
        <ele>377.79998779297</ele>
        <time>2014-02-01T14:38:03Z</time>
      </trkpt>
      <trkpt lat="43.36703" lon="6.16588">
        <ele>379.39999389648</ele>
        <time>2014-02-01T14:38:07Z</time>
      </trkpt>
      <trkpt lat="43.36705" lon="6.16584">
        <ele>379</ele>
        <time>2014-02-01T14:38:09Z</time>
      </trkpt>
      <trkpt lat="43.36705" lon="6.16582">
        <ele>378.79998779297</ele>
        <time>2014-02-01T14:38:10Z</time>
      </trkpt>
      <trkpt lat="43.36706" lon="6.16578">
        <ele>378.39999389648</ele>
        <time>2014-02-01T14:38:12Z</time>
      </trkpt>
      <trkpt lat="43.36709" lon="6.16568">
        <ele>378.39999389648</ele>
        <time>2014-02-01T14:38:17Z</time>
      </trkpt>
      <trkpt lat="43.36709" lon="6.1657">
        <ele>378.39999389648</ele>
        <time>2014-02-01T14:38:22Z</time>
      </trkpt>
      <trkpt lat="43.3671" lon="6.1657">
        <ele>378.39999389648</ele>
        <time>2014-02-01T14:38:23Z</time>
      </trkpt>
      <trkpt lat="43.36722" lon="6.16564">
        <ele>378.39999389648</ele>
        <time>2014-02-01T14:38:27Z</time>
      </trkpt>
      <trkpt lat="43.36724" lon="6.16573">
        <ele>378.39999389648</ele>
        <time>2014-02-01T14:38:30Z</time>
      </trkpt>
      <trkpt lat="43.36726" lon="6.16577">
        <ele>377.79998779297</ele>
        <time>2014-02-01T14:38:32Z</time>
      </trkpt>
      <trkpt lat="43.36727" lon="6.16579">
        <ele>377.20001220703</ele>
        <time>2014-02-01T14:38:33Z</time>
      </trkpt>
      <trkpt lat="43.36728" lon="6.1658">
        <ele>376.60000610352</ele>
        <time>2014-02-01T14:38:34Z</time>
      </trkpt>
      <trkpt lat="43.36729" lon="6.16583">
        <ele>375.39999389648</ele>
        <time>2014-02-01T14:38:37Z</time>
      </trkpt>
      <trkpt lat="43.3673" lon="6.16588">
        <ele>374.79998779297</ele>
        <time>2014-02-01T14:38:42Z</time>
      </trkpt>
      <trkpt lat="43.3673" lon="6.16589">
        <ele>374.39999389648</ele>
        <time>2014-02-01T14:38:43Z</time>
      </trkpt>
      <trkpt lat="43.3673" lon="6.16589">
        <ele>372.79998779297</ele>
        <time>2014-02-01T14:38:56Z</time>
      </trkpt>
      <trkpt lat="43.3673" lon="6.16589">
        <ele>372.79998779297</ele>
        <time>2014-02-01T14:39:14Z</time>
      </trkpt>
      <trkpt lat="43.36731" lon="6.16592">
        <ele>372.79998779297</ele>
        <time>2014-02-01T14:39:20Z</time>
      </trkpt>
      <trkpt lat="43.36732" lon="6.16596">
        <ele>372.79998779297</ele>
        <time>2014-02-01T14:39:21Z</time>
      </trkpt>
      <trkpt lat="43.36739" lon="6.16619">
        <ele>372.79998779297</ele>
        <time>2014-02-01T14:39:26Z</time>
      </trkpt>
      <trkpt lat="43.3674" lon="6.16625">
        <ele>372.39999389648</ele>
        <time>2014-02-01T14:39:27Z</time>
      </trkpt>
      <trkpt lat="43.36739" lon="6.1663">
        <ele>372</ele>
        <time>2014-02-01T14:39:28Z</time>
      </trkpt>
      <trkpt lat="43.36739" lon="6.16635">
        <ele>370.79998779297</ele>
        <time>2014-02-01T14:39:29Z</time>
      </trkpt>
      <trkpt lat="43.36737" lon="6.16641">
        <ele>369.60000610352</ele>
        <time>2014-02-01T14:39:30Z</time>
      </trkpt>
      <trkpt lat="43.36734" lon="6.16657">
        <ele>366</ele>
        <time>2014-02-01T14:39:33Z</time>
      </trkpt>
      <trkpt lat="43.36731" lon="6.16665">
        <ele>366</ele>
        <time>2014-02-01T14:39:35Z</time>
      </trkpt>
      <trkpt lat="43.36727" lon="6.16674">
        <ele>365</ele>
        <time>2014-02-01T14:39:37Z</time>
      </trkpt>
      <trkpt lat="43.36724" lon="6.16679">
        <ele>364.60000610352</ele>
        <time>2014-02-01T14:39:38Z</time>
      </trkpt>
      <trkpt lat="43.36715" lon="6.16699">
        <ele>362.60000610352</ele>
        <time>2014-02-01T14:39:41Z</time>
      </trkpt>
      <trkpt lat="43.36709" lon="6.1672">
        <ele>360.60000610352</ele>
        <time>2014-02-01T14:39:44Z</time>
      </trkpt>
      <trkpt lat="43.36707" lon="6.16727">
        <ele>359.79998779297</ele>
        <time>2014-02-01T14:39:45Z</time>
      </trkpt>
      <trkpt lat="43.36703" lon="6.16733">
        <ele>359.20001220703</ele>
        <time>2014-02-01T14:39:46Z</time>
      </trkpt>
      <trkpt lat="43.36701" lon="6.16738">
        <ele>358.39999389648</ele>
        <time>2014-02-01T14:39:47Z</time>
      </trkpt>
      <trkpt lat="43.36694" lon="6.16756">
        <ele>356.60000610352</ele>
        <time>2014-02-01T14:39:50Z</time>
      </trkpt>
      <trkpt lat="43.36687" lon="6.16768">
        <ele>355.79998779297</ele>
        <time>2014-02-01T14:39:52Z</time>
      </trkpt>
      <trkpt lat="43.36684" lon="6.16773">
        <ele>355.20001220703</ele>
        <time>2014-02-01T14:39:53Z</time>
      </trkpt>
      <trkpt lat="43.36671" lon="6.16793">
        <ele>352.79998779297</ele>
        <time>2014-02-01T14:39:57Z</time>
      </trkpt>
      <trkpt lat="43.36668" lon="6.16795">
        <ele>352.20001220703</ele>
        <time>2014-02-01T14:39:58Z</time>
      </trkpt>
      <trkpt lat="43.36653" lon="6.16802">
        <ele>350.60000610352</ele>
        <time>2014-02-01T14:40:01Z</time>
      </trkpt>
      <trkpt lat="43.36636" lon="6.16803">
        <ele>348.79998779297</ele>
        <time>2014-02-01T14:40:04Z</time>
      </trkpt>
      <trkpt lat="43.36627" lon="6.16804">
        <ele>347.39999389648</ele>
        <time>2014-02-01T14:40:06Z</time>
      </trkpt>
      <trkpt lat="43.36617" lon="6.16806">
        <ele>346.20001220703</ele>
        <time>2014-02-01T14:40:08Z</time>
      </trkpt>
      <trkpt lat="43.36611" lon="6.16806">
        <ele>345.60000610352</ele>
        <time>2014-02-01T14:40:09Z</time>
      </trkpt>
      <trkpt lat="43.36603" lon="6.16805">
        <ele>344.39999389648</ele>
        <time>2014-02-01T14:40:11Z</time>
      </trkpt>
      <trkpt lat="43.36594" lon="6.16804">
        <ele>343</ele>
        <time>2014-02-01T14:40:13Z</time>
      </trkpt>
      <trkpt lat="43.36575" lon="6.16801">
        <ele>341.39999389648</ele>
        <time>2014-02-01T14:40:18Z</time>
      </trkpt>
      <trkpt lat="43.36566" lon="6.168">
        <ele>340.39999389648</ele>
        <time>2014-02-01T14:40:20Z</time>
      </trkpt>
      <trkpt lat="43.36557" lon="6.168">
        <ele>338.39999389648</ele>
        <time>2014-02-01T14:40:22Z</time>
      </trkpt>
      <trkpt lat="43.36552" lon="6.168">
        <ele>337.79998779297</ele>
        <time>2014-02-01T14:40:23Z</time>
      </trkpt>
      <trkpt lat="43.36532" lon="6.16803">
        <ele>337.79998779297</ele>
        <time>2014-02-01T14:40:28Z</time>
      </trkpt>
      <trkpt lat="43.36527" lon="6.16805">
        <ele>337.39999389648</ele>
        <time>2014-02-01T14:40:29Z</time>
      </trkpt>
      <trkpt lat="43.36517" lon="6.16808">
        <ele>336.60000610352</ele>
        <time>2014-02-01T14:40:31Z</time>
      </trkpt>
      <trkpt lat="43.36513" lon="6.16809">
        <ele>336.20001220703</ele>
        <time>2014-02-01T14:40:32Z</time>
      </trkpt>
      <trkpt lat="43.36509" lon="6.16809">
        <ele>335.60000610352</ele>
        <time>2014-02-01T14:40:33Z</time>
      </trkpt>
      <trkpt lat="43.36503" lon="6.16811">
        <ele>334.60000610352</ele>
        <time>2014-02-01T14:40:35Z</time>
      </trkpt>
      <trkpt lat="43.36488" lon="6.16806">
        <ele>333.20001220703</ele>
        <time>2014-02-01T14:40:41Z</time>
      </trkpt>
      <trkpt lat="43.36486" lon="6.16806">
        <ele>332.79998779297</ele>
        <time>2014-02-01T14:40:42Z</time>
      </trkpt>
      <trkpt lat="43.36485" lon="6.16806">
        <ele>332.20001220703</ele>
        <time>2014-02-01T14:40:43Z</time>
      </trkpt>
      <trkpt lat="43.36481" lon="6.16811">
        <ele>330.79998779297</ele>
        <time>2014-02-01T14:40:45Z</time>
      </trkpt>
      <trkpt lat="43.3648" lon="6.1682">
        <ele>329</ele>
        <time>2014-02-01T14:40:48Z</time>
      </trkpt>
      <trkpt lat="43.36477" lon="6.16823">
        <ele>328.39999389648</ele>
        <time>2014-02-01T14:40:49Z</time>
      </trkpt>
      <trkpt lat="43.36471" lon="6.16823">
        <ele>327.39999389648</ele>
        <time>2014-02-01T14:40:51Z</time>
      </trkpt>
      <trkpt lat="43.36469" lon="6.16821">
        <ele>326.79998779297</ele>
        <time>2014-02-01T14:40:52Z</time>
      </trkpt>
      <trkpt lat="43.36468" lon="6.16817">
        <ele>326.39999389648</ele>
        <time>2014-02-01T14:40:54Z</time>
      </trkpt>
      <trkpt lat="43.36469" lon="6.16811">
        <ele>324.79998779297</ele>
        <time>2014-02-01T14:40:57Z</time>
      </trkpt>
      <trkpt lat="43.36469" lon="6.16806">
        <ele>323.79998779297</ele>
        <time>2014-02-01T14:40:59Z</time>
      </trkpt>
      <trkpt lat="43.36468" lon="6.16805">
        <ele>323.20001220703</ele>
        <time>2014-02-01T14:41:00Z</time>
      </trkpt>
      <trkpt lat="43.36463" lon="6.16802">
        <ele>322.60000610352</ele>
        <time>2014-02-01T14:41:04Z</time>
      </trkpt>
      <trkpt lat="43.36461" lon="6.16801">
        <ele>322.60000610352</ele>
        <time>2014-02-01T14:41:07Z</time>
      </trkpt>
      <trkpt lat="43.36456" lon="6.168">
        <ele>322.60000610352</ele>
        <time>2014-02-01T14:41:11Z</time>
      </trkpt>
      <trkpt lat="43.36455" lon="6.16798">
        <ele>322.60000610352</ele>
        <time>2014-02-01T14:41:14Z</time>
      </trkpt>
      <trkpt lat="43.36455" lon="6.16795">
        <ele>324</ele>
        <time>2014-02-01T14:41:17Z</time>
      </trkpt>
      <trkpt lat="43.36455" lon="6.16794">
        <ele>324.39999389648</ele>
        <time>2014-02-01T14:41:18Z</time>
      </trkpt>
      <trkpt lat="43.36455" lon="6.16793">
        <ele>324.79998779297</ele>
        <time>2014-02-01T14:41:19Z</time>
      </trkpt>
      <trkpt lat="43.36456" lon="6.16788">
        <ele>324.79998779297</ele>
        <time>2014-02-01T14:41:25Z</time>
      </trkpt>
      <trkpt lat="43.36457" lon="6.16787">
        <ele>324.79998779297</ele>
        <time>2014-02-01T14:41:26Z</time>
      </trkpt>
      <trkpt lat="43.36458" lon="6.16786">
        <ele>324.79998779297</ele>
        <time>2014-02-01T14:41:27Z</time>
      </trkpt>
      <trkpt lat="43.36463" lon="6.16777">
        <ele>324.79998779297</ele>
        <time>2014-02-01T14:41:32Z</time>
      </trkpt>
      <trkpt lat="43.36465" lon="6.16769">
        <ele>325.20001220703</ele>
        <time>2014-02-01T14:41:35Z</time>
      </trkpt>
      <trkpt lat="43.36466" lon="6.16766">
        <ele>325.60000610352</ele>
        <time>2014-02-01T14:41:36Z</time>
      </trkpt>
      <trkpt lat="43.36467" lon="6.16764">
        <ele>326</ele>
        <time>2014-02-01T14:41:37Z</time>
      </trkpt>
      <trkpt lat="43.36467" lon="6.1676">
        <ele>326.79998779297</ele>
        <time>2014-02-01T14:41:39Z</time>
      </trkpt>
      <trkpt lat="43.36469" lon="6.16742">
        <ele>326.79998779297</ele>
        <time>2014-02-01T14:41:50Z</time>
      </trkpt>
      <trkpt lat="43.36469" lon="6.16739">
        <ele>327.79998779297</ele>
        <time>2014-02-01T14:41:52Z</time>
      </trkpt>
      <trkpt lat="43.3647" lon="6.16736">
        <ele>328.79998779297</ele>
        <time>2014-02-01T14:41:54Z</time>
      </trkpt>
      <trkpt lat="43.3647" lon="6.16735">
        <ele>329.20001220703</ele>
        <time>2014-02-01T14:41:55Z</time>
      </trkpt>
      <trkpt lat="43.3647" lon="6.16734">
        <ele>329.20001220703</ele>
        <time>2014-02-01T14:41:56Z</time>
      </trkpt>
      <trkpt lat="43.36471" lon="6.16731">
        <ele>330</ele>
        <time>2014-02-01T14:42:01Z</time>
      </trkpt>
      <trkpt lat="43.36471" lon="6.16731">
        <ele>330.60000610352</ele>
        <time>2014-02-01T14:42:03Z</time>
      </trkpt>
      <trkpt lat="43.36471" lon="6.1673">
        <ele>330.60000610352</ele>
        <time>2014-02-01T14:42:04Z</time>
      </trkpt>
      <trkpt lat="43.36472" lon="6.1673">
        <ele>330.60000610352</ele>
        <time>2014-02-01T14:42:05Z</time>
      </trkpt>
      <trkpt lat="43.36472" lon="6.1673">
        <ele>330.60000610352</ele>
        <time>2014-02-01T14:42:06Z</time>
      </trkpt>
      <trkpt lat="43.36472" lon="6.1673">
        <ele>330.60000610352</ele>
        <time>2014-02-01T14:42:07Z</time>
      </trkpt>
      <trkpt lat="43.36473" lon="6.16729">
        <ele>330</ele>
        <time>2014-02-01T14:42:11Z</time>
      </trkpt>
      <trkpt lat="43.36476" lon="6.16724">
        <ele>330</ele>
        <time>2014-02-01T14:42:15Z</time>
      </trkpt>
      <trkpt lat="43.36476" lon="6.16724">
        <ele>331.79998779297</ele>
        <time>2014-02-01T14:42:18Z</time>
      </trkpt>
      <trkpt lat="43.36477" lon="6.16723">
        <ele>331.79998779297</ele>
        <time>2014-02-01T14:42:23Z</time>
      </trkpt>
      <trkpt lat="43.36477" lon="6.16723">
        <ele>329.79998779297</ele>
        <time>2014-02-01T14:42:34Z</time>
      </trkpt>
      <trkpt lat="43.36477" lon="6.16723">
        <ele>329.79998779297</ele>
        <time>2014-02-01T14:42:43Z</time>
      </trkpt>
      <trkpt lat="43.36478" lon="6.16722">
        <ele>332</ele>
        <time>2014-02-01T14:42:51Z</time>
      </trkpt>
      <trkpt lat="43.36478" lon="6.16722">
        <ele>331</ele>
        <time>2014-02-01T14:43:02Z</time>
      </trkpt>
      <trkpt lat="43.36479" lon="6.1672">
        <ele>331</ele>
        <time>2014-02-01T14:43:04Z</time>
      </trkpt>
      <trkpt lat="43.36479" lon="6.1672">
        <ele>331</ele>
        <time>2014-02-01T14:43:15Z</time>
      </trkpt>
      <trkpt lat="43.3648" lon="6.16718">
        <ele>331</ele>
        <time>2014-02-01T14:43:21Z</time>
      </trkpt>
      <trkpt lat="43.36481" lon="6.16711">
        <ele>331</ele>
        <time>2014-02-01T14:43:25Z</time>
      </trkpt>
      <trkpt lat="43.3648" lon="6.167">
        <ele>331</ele>
        <time>2014-02-01T14:43:30Z</time>
      </trkpt>
      <trkpt lat="43.36481" lon="6.16698">
        <ele>331</ele>
        <time>2014-02-01T14:43:31Z</time>
      </trkpt>
      <trkpt lat="43.36482" lon="6.16686">
        <ele>331</ele>
        <time>2014-02-01T14:43:38Z</time>
      </trkpt>
      <trkpt lat="43.36479" lon="6.16676">
        <ele>331.39999389648</ele>
        <time>2014-02-01T14:43:44Z</time>
      </trkpt>
      <trkpt lat="43.36475" lon="6.16666">
        <ele>333</ele>
        <time>2014-02-01T14:43:52Z</time>
      </trkpt>
      <trkpt lat="43.36475" lon="6.16663">
        <ele>333.39999389648</ele>
        <time>2014-02-01T14:43:54Z</time>
      </trkpt>
      <trkpt lat="43.36474" lon="6.16661">
        <ele>334.20001220703</ele>
        <time>2014-02-01T14:43:56Z</time>
      </trkpt>
      <trkpt lat="43.36472" lon="6.16654">
        <ele>335</ele>
        <time>2014-02-01T14:44:02Z</time>
      </trkpt>
      <trkpt lat="43.3647" lon="6.16644">
        <ele>336.60000610352</ele>
        <time>2014-02-01T14:44:08Z</time>
      </trkpt>
      <trkpt lat="43.36469" lon="6.1664">
        <ele>337</ele>
        <time>2014-02-01T14:44:10Z</time>
      </trkpt>
      <trkpt lat="43.36466" lon="6.1663">
        <ele>337</ele>
        <time>2014-02-01T14:44:17Z</time>
      </trkpt>
      <trkpt lat="43.36465" lon="6.16616">
        <ele>337</ele>
        <time>2014-02-01T14:44:25Z</time>
      </trkpt>
      <trkpt lat="43.36464" lon="6.16606">
        <ele>337.79998779297</ele>
        <time>2014-02-01T14:44:32Z</time>
      </trkpt>
      <trkpt lat="43.36464" lon="6.16599">
        <ele>339</ele>
        <time>2014-02-01T14:44:37Z</time>
      </trkpt>
      <trkpt lat="43.36462" lon="6.16587">
        <ele>340</ele>
        <time>2014-02-01T14:44:45Z</time>
      </trkpt>
      <trkpt lat="43.36462" lon="6.16577">
        <ele>341.20001220703</ele>
        <time>2014-02-01T14:44:52Z</time>
      </trkpt>
      <trkpt lat="43.36461" lon="6.16571">
        <ele>341.20001220703</ele>
        <time>2014-02-01T14:44:56Z</time>
      </trkpt>
      <trkpt lat="43.36461" lon="6.16568">
        <ele>341.60000610352</ele>
        <time>2014-02-01T14:44:59Z</time>
      </trkpt>
      <trkpt lat="43.36461" lon="6.16567">
        <ele>342</ele>
        <time>2014-02-01T14:45:00Z</time>
      </trkpt>
      <trkpt lat="43.36462" lon="6.16564">
        <ele>342.79998779297</ele>
        <time>2014-02-01T14:45:02Z</time>
      </trkpt>
      <trkpt lat="43.36462" lon="6.1656">
        <ele>343.20001220703</ele>
        <time>2014-02-01T14:45:04Z</time>
      </trkpt>
      <trkpt lat="43.36462" lon="6.16559">
        <ele>343.20001220703</ele>
        <time>2014-02-01T14:45:05Z</time>
      </trkpt>
      <trkpt lat="43.36462" lon="6.16556">
        <ele>343.20001220703</ele>
        <time>2014-02-01T14:45:09Z</time>
      </trkpt>
      <trkpt lat="43.36462" lon="6.16556">
        <ele>343.20001220703</ele>
        <time>2014-02-01T14:45:35Z</time>
      </trkpt>
      <trkpt lat="43.36462" lon="6.16556">
        <ele>343.20001220703</ele>
        <time>2014-02-01T14:46:28Z</time>
      </trkpt>
      <trkpt lat="43.36462" lon="6.16556">
        <ele>343.20001220703</ele>
        <time>2014-02-01T14:46:40Z</time>
      </trkpt>
      <trkpt lat="43.36462" lon="6.16556">
        <ele>343.20001220703</ele>
        <time>2014-02-01T14:46:51Z</time>
      </trkpt>
      <trkpt lat="43.36462" lon="6.16553">
        <ele>343.20001220703</ele>
        <time>2014-02-01T14:47:01Z</time>
      </trkpt>
      <trkpt lat="43.36459" lon="6.16541">
        <ele>343.20001220703</ele>
        <time>2014-02-01T14:47:07Z</time>
      </trkpt>
      <trkpt lat="43.36456" lon="6.16535">
        <ele>343.20001220703</ele>
        <time>2014-02-01T14:47:10Z</time>
      </trkpt>
      <trkpt lat="43.36455" lon="6.16532">
        <ele>343.20001220703</ele>
        <time>2014-02-01T14:47:12Z</time>
      </trkpt>
      <trkpt lat="43.36453" lon="6.1653">
        <ele>344</ele>
        <time>2014-02-01T14:47:14Z</time>
      </trkpt>
      <trkpt lat="43.36452" lon="6.16528">
        <ele>345.20001220703</ele>
        <time>2014-02-01T14:47:16Z</time>
      </trkpt>
      <trkpt lat="43.36451" lon="6.16527">
        <ele>345.60000610352</ele>
        <time>2014-02-01T14:47:17Z</time>
      </trkpt>
      <trkpt lat="43.3645" lon="6.16522">
        <ele>346.79998779297</ele>
        <time>2014-02-01T14:47:20Z</time>
      </trkpt>
      <trkpt lat="43.36449" lon="6.16516">
        <ele>347.39999389648</ele>
        <time>2014-02-01T14:47:24Z</time>
      </trkpt>
      <trkpt lat="43.36448" lon="6.16514">
        <ele>347.79998779297</ele>
        <time>2014-02-01T14:47:27Z</time>
      </trkpt>
      <trkpt lat="43.36448" lon="6.16514">
        <ele>348.20001220703</ele>
        <time>2014-02-01T14:47:28Z</time>
      </trkpt>
      <trkpt lat="43.36448" lon="6.16514">
        <ele>349.60000610352</ele>
        <time>2014-02-01T14:47:40Z</time>
      </trkpt>
      <trkpt lat="43.36448" lon="6.16513">
        <ele>349.60000610352</ele>
        <time>2014-02-01T14:47:48Z</time>
      </trkpt>
      <trkpt lat="43.36448" lon="6.16514">
        <ele>349.60000610352</ele>
        <time>2014-02-01T14:47:58Z</time>
      </trkpt>
      <trkpt lat="43.3645" lon="6.16516">
        <ele>349.60000610352</ele>
        <time>2014-02-01T14:48:04Z</time>
      </trkpt>
      <trkpt lat="43.36451" lon="6.1652">
        <ele>349.60000610352</ele>
        <time>2014-02-01T14:48:05Z</time>
      </trkpt>
      <trkpt lat="43.36456" lon="6.16535">
        <ele>349.20001220703</ele>
        <time>2014-02-01T14:48:08Z</time>
      </trkpt>
      <trkpt lat="43.36458" lon="6.16542">
        <ele>348.60000610352</ele>
        <time>2014-02-01T14:48:09Z</time>
      </trkpt>
      <trkpt lat="43.3646" lon="6.16549">
        <ele>348</ele>
        <time>2014-02-01T14:48:10Z</time>
      </trkpt>
      <trkpt lat="43.3646" lon="6.16555">
        <ele>347.20001220703</ele>
        <time>2014-02-01T14:48:11Z</time>
      </trkpt>
      <trkpt lat="43.36459" lon="6.16562">
        <ele>346.60000610352</ele>
        <time>2014-02-01T14:48:12Z</time>
      </trkpt>
      <trkpt lat="43.36459" lon="6.16569">
        <ele>345.79998779297</ele>
        <time>2014-02-01T14:48:13Z</time>
      </trkpt>
      <trkpt lat="43.3646" lon="6.16577">
        <ele>345.20001220703</ele>
        <time>2014-02-01T14:48:14Z</time>
      </trkpt>
      <trkpt lat="43.3646" lon="6.16594">
        <ele>344.79998779297</ele>
        <time>2014-02-01T14:48:16Z</time>
      </trkpt>
      <trkpt lat="43.36462" lon="6.16603">
        <ele>344.39999389648</ele>
        <time>2014-02-01T14:48:17Z</time>
      </trkpt>
      <trkpt lat="43.36464" lon="6.16622">
        <ele>342.79998779297</ele>
        <time>2014-02-01T14:48:19Z</time>
      </trkpt>
      <trkpt lat="43.36468" lon="6.16647">
        <ele>340.60000610352</ele>
        <time>2014-02-01T14:48:22Z</time>
      </trkpt>
      <trkpt lat="43.36473" lon="6.16661">
        <ele>339.39999389648</ele>
        <time>2014-02-01T14:48:24Z</time>
      </trkpt>
      <trkpt lat="43.36478" lon="6.16674">
        <ele>338.20001220703</ele>
        <time>2014-02-01T14:48:26Z</time>
      </trkpt>
      <trkpt lat="43.36479" lon="6.16681">
        <ele>337.60000610352</ele>
        <time>2014-02-01T14:48:27Z</time>
      </trkpt>
      <trkpt lat="43.3648" lon="6.16689">
        <ele>337</ele>
        <time>2014-02-01T14:48:28Z</time>
      </trkpt>
      <trkpt lat="43.36476" lon="6.1671">
        <ele>334</ele>
        <time>2014-02-01T14:48:31Z</time>
      </trkpt>
      <trkpt lat="43.36473" lon="6.16718">
        <ele>333.39999389648</ele>
        <time>2014-02-01T14:48:32Z</time>
      </trkpt>
      <trkpt lat="43.36471" lon="6.16726">
        <ele>332.60000610352</ele>
        <time>2014-02-01T14:48:33Z</time>
      </trkpt>
      <trkpt lat="43.3647" lon="6.16734">
        <ele>332</ele>
        <time>2014-02-01T14:48:34Z</time>
      </trkpt>
      <trkpt lat="43.36466" lon="6.16761">
        <ele>330.79998779297</ele>
        <time>2014-02-01T14:48:37Z</time>
      </trkpt>
      <trkpt lat="43.36458" lon="6.16777">
        <ele>329.39999389648</ele>
        <time>2014-02-01T14:48:39Z</time>
      </trkpt>
      <trkpt lat="43.36455" lon="6.16783">
        <ele>328.60000610352</ele>
        <time>2014-02-01T14:48:40Z</time>
      </trkpt>
      <trkpt lat="43.36452" lon="6.16787">
        <ele>327.79998779297</ele>
        <time>2014-02-01T14:48:41Z</time>
      </trkpt>
      <trkpt lat="43.36452" lon="6.16792">
        <ele>327.20001220703</ele>
        <time>2014-02-01T14:48:42Z</time>
      </trkpt>
      <trkpt lat="43.36456" lon="6.16796">
        <ele>327.20001220703</ele>
        <time>2014-02-01T14:48:44Z</time>
      </trkpt>
      <trkpt lat="43.36467" lon="6.16802">
        <ele>326.60000610352</ele>
        <time>2014-02-01T14:48:47Z</time>
      </trkpt>
      <trkpt lat="43.36467" lon="6.16809">
        <ele>325.60000610352</ele>
        <time>2014-02-01T14:48:49Z</time>
      </trkpt>
      <trkpt lat="43.36467" lon="6.16811">
        <ele>325.20001220703</ele>
        <time>2014-02-01T14:48:50Z</time>
      </trkpt>
      <trkpt lat="43.36467" lon="6.16812">
        <ele>324.79998779297</ele>
        <time>2014-02-01T14:48:51Z</time>
      </trkpt>
      <trkpt lat="43.36466" lon="6.16814">
        <ele>324.79998779297</ele>
        <time>2014-02-01T14:48:52Z</time>
      </trkpt>
      <trkpt lat="43.36465" lon="6.16816">
        <ele>324.79998779297</ele>
        <time>2014-02-01T14:48:53Z</time>
      </trkpt>
      <trkpt lat="43.36467" lon="6.16826">
        <ele>324.79998779297</ele>
        <time>2014-02-01T14:48:58Z</time>
      </trkpt>
      <trkpt lat="43.3647" lon="6.16829">
        <ele>324.79998779297</ele>
        <time>2014-02-01T14:49:01Z</time>
      </trkpt>
      <trkpt lat="43.36474" lon="6.16827">
        <ele>325.20001220703</ele>
        <time>2014-02-01T14:49:04Z</time>
      </trkpt>
      <trkpt lat="43.36475" lon="6.16826">
        <ele>325.60000610352</ele>
        <time>2014-02-01T14:49:05Z</time>
      </trkpt>
      <trkpt lat="43.36475" lon="6.16814">
        <ele>326.79998779297</ele>
        <time>2014-02-01T14:49:12Z</time>
      </trkpt>
      <trkpt lat="43.36479" lon="6.16808">
        <ele>329</ele>
        <time>2014-02-01T14:49:17Z</time>
      </trkpt>
      <trkpt lat="43.3648" lon="6.16808">
        <ele>329.39999389648</ele>
        <time>2014-02-01T14:49:18Z</time>
      </trkpt>
      <trkpt lat="43.36483" lon="6.16808">
        <ele>329.39999389648</ele>
        <time>2014-02-01T14:49:20Z</time>
      </trkpt>
      <trkpt lat="43.36488" lon="6.16811">
        <ele>330.79998779297</ele>
        <time>2014-02-01T14:49:25Z</time>
      </trkpt>
      <trkpt lat="43.36489" lon="6.16813">
        <ele>331.60000610352</ele>
        <time>2014-02-01T14:49:27Z</time>
      </trkpt>
      <trkpt lat="43.36492" lon="6.16814">
        <ele>331.60000610352</ele>
        <time>2014-02-01T14:49:29Z</time>
      </trkpt>
      <trkpt lat="43.36494" lon="6.16813">
        <ele>331.60000610352</ele>
        <time>2014-02-01T14:49:30Z</time>
      </trkpt>
      <trkpt lat="43.36499" lon="6.16812">
        <ele>332</ele>
        <time>2014-02-01T14:49:34Z</time>
      </trkpt>
      <trkpt lat="43.36506" lon="6.16811">
        <ele>334.20001220703</ele>
        <time>2014-02-01T14:49:42Z</time>
      </trkpt>
      <trkpt lat="43.36507" lon="6.1681">
        <ele>335.39999389648</ele>
        <time>2014-02-01T14:49:44Z</time>
      </trkpt>
      <trkpt lat="43.36514" lon="6.16808">
        <ele>335.79998779297</ele>
        <time>2014-02-01T14:49:51Z</time>
      </trkpt>
      <trkpt lat="43.3652" lon="6.16807">
        <ele>335.79998779297</ele>
        <time>2014-02-01T14:49:57Z</time>
      </trkpt>
      <trkpt lat="43.36528" lon="6.16805">
        <ele>335.79998779297</ele>
        <time>2014-02-01T14:50:04Z</time>
      </trkpt>
      <trkpt lat="43.36537" lon="6.16803">
        <ele>335.79998779297</ele>
        <time>2014-02-01T14:50:11Z</time>
      </trkpt>
      <trkpt lat="43.36546" lon="6.16802">
        <ele>336.20001220703</ele>
        <time>2014-02-01T14:50:18Z</time>
      </trkpt>
      <trkpt lat="43.36549" lon="6.16802">
        <ele>337</ele>
        <time>2014-02-01T14:50:20Z</time>
      </trkpt>
      <trkpt lat="43.36557" lon="6.16804">
        <ele>337.79998779297</ele>
        <time>2014-02-01T14:50:27Z</time>
      </trkpt>
      <trkpt lat="43.36566" lon="6.16804">
        <ele>337.79998779297</ele>
        <time>2014-02-01T14:50:35Z</time>
      </trkpt>
      <trkpt lat="43.36573" lon="6.16805">
        <ele>337.79998779297</ele>
        <time>2014-02-01T14:50:40Z</time>
      </trkpt>
      <trkpt lat="43.36576" lon="6.16803">
        <ele>339.39999389648</ele>
        <time>2014-02-01T14:50:44Z</time>
      </trkpt>
      <trkpt lat="43.3658" lon="6.16803">
        <ele>340.39999389648</ele>
        <time>2014-02-01T14:50:47Z</time>
      </trkpt>
      <trkpt lat="43.36588" lon="6.16803">
        <ele>340.39999389648</ele>
        <time>2014-02-01T14:50:54Z</time>
      </trkpt>
      <trkpt lat="43.36595" lon="6.16803">
        <ele>340.39999389648</ele>
        <time>2014-02-01T14:50:59Z</time>
      </trkpt>
      <trkpt lat="43.36597" lon="6.16805">
        <ele>340.39999389648</ele>
        <time>2014-02-01T14:51:01Z</time>
      </trkpt>
      <trkpt lat="43.36604" lon="6.16806">
        <ele>342</ele>
        <time>2014-02-01T14:51:06Z</time>
      </trkpt>
      <trkpt lat="43.36612" lon="6.16808">
        <ele>342.39999389648</ele>
        <time>2014-02-01T14:51:13Z</time>
      </trkpt>
      <trkpt lat="43.3662" lon="6.16809">
        <ele>342.79998779297</ele>
        <time>2014-02-01T14:51:20Z</time>
      </trkpt>
      <trkpt lat="43.36622" lon="6.16809">
        <ele>343.79998779297</ele>
        <time>2014-02-01T14:51:22Z</time>
      </trkpt>
      <trkpt lat="43.36625" lon="6.1681">
        <ele>344.60000610352</ele>
        <time>2014-02-01T14:51:26Z</time>
      </trkpt>
      <trkpt lat="43.36633" lon="6.16809">
        <ele>345.39999389648</ele>
        <time>2014-02-01T14:51:32Z</time>
      </trkpt>
      <trkpt lat="43.36637" lon="6.16809">
        <ele>346.60000610352</ele>
        <time>2014-02-01T14:51:37Z</time>
      </trkpt>
      <trkpt lat="43.36649" lon="6.16808">
        <ele>346.60000610352</ele>
        <time>2014-02-01T14:51:46Z</time>
      </trkpt>
      <trkpt lat="43.36653" lon="6.16808">
        <ele>346.60000610352</ele>
        <time>2014-02-01T14:51:49Z</time>
      </trkpt>
      <trkpt lat="43.3666" lon="6.16805">
        <ele>348.20001220703</ele>
        <time>2014-02-01T14:51:56Z</time>
      </trkpt>
      <trkpt lat="43.36666" lon="6.16803">
        <ele>348.60000610352</ele>
        <time>2014-02-01T14:52:01Z</time>
      </trkpt>
      <trkpt lat="43.36677" lon="6.16793">
        <ele>350</ele>
        <time>2014-02-01T14:52:12Z</time>
      </trkpt>
      <trkpt lat="43.36685" lon="6.16786">
        <ele>351.60000610352</ele>
        <time>2014-02-01T14:52:20Z</time>
      </trkpt>
      <trkpt lat="43.36686" lon="6.16783">
        <ele>353</ele>
        <time>2014-02-01T14:52:23Z</time>
      </trkpt>
      <trkpt lat="43.36691" lon="6.16774">
        <ele>353</ele>
        <time>2014-02-01T14:52:31Z</time>
      </trkpt>
      <trkpt lat="43.36695" lon="6.16767">
        <ele>353</ele>
        <time>2014-02-01T14:52:37Z</time>
      </trkpt>
      <trkpt lat="43.36698" lon="6.16759">
        <ele>354.79998779297</ele>
        <time>2014-02-01T14:52:43Z</time>
      </trkpt>
      <trkpt lat="43.36699" lon="6.16758">
        <ele>355.20001220703</ele>
        <time>2014-02-01T14:52:44Z</time>
      </trkpt>
      <trkpt lat="43.36701" lon="6.1675">
        <ele>355.20001220703</ele>
        <time>2014-02-01T14:52:49Z</time>
      </trkpt>
      <trkpt lat="43.36709" lon="6.16732">
        <ele>357.20001220703</ele>
        <time>2014-02-01T14:53:02Z</time>
      </trkpt>
      <trkpt lat="43.36711" lon="6.16723">
        <ele>357.20001220703</ele>
        <time>2014-02-01T14:53:08Z</time>
      </trkpt>
      <trkpt lat="43.36712" lon="6.16715">
        <ele>357.20001220703</ele>
        <time>2014-02-01T14:53:13Z</time>
      </trkpt>
      <trkpt lat="43.36715" lon="6.16705">
        <ele>358.39999389648</ele>
        <time>2014-02-01T14:53:20Z</time>
      </trkpt>
      <trkpt lat="43.36717" lon="6.16702">
        <ele>359.20001220703</ele>
        <time>2014-02-01T14:53:22Z</time>
      </trkpt>
      <trkpt lat="43.36721" lon="6.16695">
        <ele>359.20001220703</ele>
        <time>2014-02-01T14:53:28Z</time>
      </trkpt>
      <trkpt lat="43.36729" lon="6.16678">
        <ele>361.20001220703</ele>
        <time>2014-02-01T14:53:41Z</time>
      </trkpt>
      <trkpt lat="43.36736" lon="6.16667">
        <ele>362</ele>
        <time>2014-02-01T14:53:51Z</time>
      </trkpt>
      <trkpt lat="43.36736" lon="6.16666">
        <ele>362.79998779297</ele>
        <time>2014-02-01T14:53:52Z</time>
      </trkpt>
      <trkpt lat="43.36739" lon="6.1665">
        <ele>363.79998779297</ele>
        <time>2014-02-01T14:54:03Z</time>
      </trkpt>
      <trkpt lat="43.36739" lon="6.16647">
        <ele>364.60000610352</ele>
        <time>2014-02-01T14:54:05Z</time>
      </trkpt>
      <trkpt lat="43.36745" lon="6.16633">
        <ele>365.39999389648</ele>
        <time>2014-02-01T14:54:15Z</time>
      </trkpt>
      <trkpt lat="43.36745" lon="6.16632">
        <ele>365.39999389648</ele>
        <time>2014-02-01T14:54:16Z</time>
      </trkpt>
      <trkpt lat="43.36745" lon="6.16622">
        <ele>367.60000610352</ele>
        <time>2014-02-01T14:54:22Z</time>
      </trkpt>
      <trkpt lat="43.36744" lon="6.16616">
        <ele>368</ele>
        <time>2014-02-01T14:54:26Z</time>
      </trkpt>
      <trkpt lat="43.36742" lon="6.16613">
        <ele>368.79998779297</ele>
        <time>2014-02-01T14:54:28Z</time>
      </trkpt>
      <trkpt lat="43.3674" lon="6.16608">
        <ele>369.60000610352</ele>
        <time>2014-02-01T14:54:33Z</time>
      </trkpt>
      <trkpt lat="43.36738" lon="6.16603">
        <ele>370</ele>
        <time>2014-02-01T14:54:37Z</time>
      </trkpt>
      <trkpt lat="43.36734" lon="6.16593">
        <ele>371.79998779297</ele>
        <time>2014-02-01T14:54:45Z</time>
      </trkpt>
      <trkpt lat="43.36732" lon="6.16587">
        <ele>373</ele>
        <time>2014-02-01T14:54:50Z</time>
      </trkpt>
      <trkpt lat="43.36726" lon="6.16575">
        <ele>374.60000610352</ele>
        <time>2014-02-01T14:55:02Z</time>
      </trkpt>
      <trkpt lat="43.36725" lon="6.16572">
        <ele>376</ele>
        <time>2014-02-01T14:55:05Z</time>
      </trkpt>
      <trkpt lat="43.36724" lon="6.1657">
        <ele>376</ele>
        <time>2014-02-01T14:55:07Z</time>
      </trkpt>
      <trkpt lat="43.36724" lon="6.16567">
        <ele>376</ele>
        <time>2014-02-01T14:55:13Z</time>
      </trkpt>
      <trkpt lat="43.36724" lon="6.16567">
        <ele>376</ele>
        <time>2014-02-01T14:55:25Z</time>
      </trkpt>
      <trkpt lat="43.36724" lon="6.16567">
        <ele>376</ele>
        <time>2014-02-01T14:55:32Z</time>
      </trkpt>
      <trkpt lat="43.36723" lon="6.16565">
        <ele>376</ele>
        <time>2014-02-01T14:55:36Z</time>
      </trkpt>
      <trkpt lat="43.36722" lon="6.16557">
        <ele>376</ele>
        <time>2014-02-01T14:55:41Z</time>
      </trkpt>
      <trkpt lat="43.36722" lon="6.16553">
        <ele>376.39999389648</ele>
        <time>2014-02-01T14:55:44Z</time>
      </trkpt>
      <trkpt lat="43.36722" lon="6.16552">
        <ele>376.79998779297</ele>
        <time>2014-02-01T14:55:45Z</time>
      </trkpt>
      <trkpt lat="43.36722" lon="6.1655">
        <ele>377.60000610352</ele>
        <time>2014-02-01T14:55:47Z</time>
      </trkpt>
      <trkpt lat="43.36722" lon="6.16549">
        <ele>378</ele>
        <time>2014-02-01T14:55:48Z</time>
      </trkpt>
      <trkpt lat="43.36726" lon="6.1654">
        <ele>378</ele>
        <time>2014-02-01T14:55:56Z</time>
      </trkpt>
      <trkpt lat="43.36728" lon="6.16535">
        <ele>378</ele>
        <time>2014-02-01T14:56:01Z</time>
      </trkpt>
      <trkpt lat="43.36734" lon="6.16524">
        <ele>378.39999389648</ele>
        <time>2014-02-01T14:56:11Z</time>
      </trkpt>
      <trkpt lat="43.36737" lon="6.16516">
        <ele>380</ele>
        <time>2014-02-01T14:56:17Z</time>
      </trkpt>
      <trkpt lat="43.3674" lon="6.1651">
        <ele>380</ele>
        <time>2014-02-01T14:56:21Z</time>
      </trkpt>
      <trkpt lat="43.36742" lon="6.16507">
        <ele>380</ele>
        <time>2014-02-01T14:56:23Z</time>
      </trkpt>
      <trkpt lat="43.36745" lon="6.16499">
        <ele>380.39999389648</ele>
        <time>2014-02-01T14:56:28Z</time>
      </trkpt>
      <trkpt lat="43.36749" lon="6.16494">
        <ele>382</ele>
        <time>2014-02-01T14:56:32Z</time>
      </trkpt>
      <trkpt lat="43.36752" lon="6.16488">
        <ele>382</ele>
        <time>2014-02-01T14:56:36Z</time>
      </trkpt>
      <trkpt lat="43.36756" lon="6.16478">
        <ele>382</ele>
        <time>2014-02-01T14:56:43Z</time>
      </trkpt>
      <trkpt lat="43.36761" lon="6.16467">
        <ele>382.39999389648</ele>
        <time>2014-02-01T14:56:49Z</time>
      </trkpt>
      <trkpt lat="43.36762" lon="6.16463">
        <ele>383.39999389648</ele>
        <time>2014-02-01T14:56:51Z</time>
      </trkpt>
      <trkpt lat="43.36765" lon="6.16455">
        <ele>384.20001220703</ele>
        <time>2014-02-01T14:56:56Z</time>
      </trkpt>
      <trkpt lat="43.36771" lon="6.16441">
        <ele>384.20001220703</ele>
        <time>2014-02-01T14:57:04Z</time>
      </trkpt>
      <trkpt lat="43.36777" lon="6.16431">
        <ele>385.79998779297</ele>
        <time>2014-02-01T14:57:10Z</time>
      </trkpt>
      <trkpt lat="43.36782" lon="6.16424">
        <ele>386.20001220703</ele>
        <time>2014-02-01T14:57:15Z</time>
      </trkpt>
      <trkpt lat="43.3679" lon="6.16411">
        <ele>388.20001220703</ele>
        <time>2014-02-01T14:57:25Z</time>
      </trkpt>
      <trkpt lat="43.36792" lon="6.16409">
        <ele>388.20001220703</ele>
        <time>2014-02-01T14:57:27Z</time>
      </trkpt>
      <trkpt lat="43.36795" lon="6.16405">
        <ele>388.20001220703</ele>
        <time>2014-02-01T14:57:31Z</time>
      </trkpt>
      <trkpt lat="43.36798" lon="6.164">
        <ele>389</ele>
        <time>2014-02-01T14:57:35Z</time>
      </trkpt>
      <trkpt lat="43.36798" lon="6.16399">
        <ele>389.60000610352</ele>
        <time>2014-02-01T14:57:36Z</time>
      </trkpt>
      <trkpt lat="43.36799" lon="6.16396">
        <ele>390.39999389648</ele>
        <time>2014-02-01T14:57:38Z</time>
      </trkpt>
      <trkpt lat="43.36802" lon="6.1639">
        <ele>390.39999389648</ele>
        <time>2014-02-01T14:57:42Z</time>
      </trkpt>
      <trkpt lat="43.36804" lon="6.16386">
        <ele>390.39999389648</ele>
        <time>2014-02-01T14:57:44Z</time>
      </trkpt>
      <trkpt lat="43.36809" lon="6.16375">
        <ele>390.39999389648</ele>
        <time>2014-02-01T14:57:50Z</time>
      </trkpt>
      <trkpt lat="43.36816" lon="6.16351">
        <ele>390.39999389648</ele>
        <time>2014-02-01T14:58:03Z</time>
      </trkpt>
      <trkpt lat="43.3682" lon="6.16342">
        <ele>390.39999389648</ele>
        <time>2014-02-01T14:58:08Z</time>
      </trkpt>
      <trkpt lat="43.36823" lon="6.16333">
        <ele>390.79998779297</ele>
        <time>2014-02-01T14:58:13Z</time>
      </trkpt>
      <trkpt lat="43.36823" lon="6.16331">
        <ele>391.20001220703</ele>
        <time>2014-02-01T14:58:14Z</time>
      </trkpt>
      <trkpt lat="43.36823" lon="6.16325">
        <ele>392.39999389648</ele>
        <time>2014-02-01T14:58:17Z</time>
      </trkpt>
      <trkpt lat="43.36826" lon="6.16313">
        <ele>392.39999389648</ele>
        <time>2014-02-01T14:58:23Z</time>
      </trkpt>
      <trkpt lat="43.36829" lon="6.16301">
        <ele>392.79998779297</ele>
        <time>2014-02-01T14:58:31Z</time>
      </trkpt>
      <trkpt lat="43.36829" lon="6.16297">
        <ele>393.79998779297</ele>
        <time>2014-02-01T14:58:33Z</time>
      </trkpt>
      <trkpt lat="43.36832" lon="6.16283">
        <ele>394.60000610352</ele>
        <time>2014-02-01T14:58:42Z</time>
      </trkpt>
      <trkpt lat="43.36833" lon="6.16279">
        <ele>394.60000610352</ele>
        <time>2014-02-01T14:58:45Z</time>
      </trkpt>
      <trkpt lat="43.36836" lon="6.16265">
        <ele>396.60000610352</ele>
        <time>2014-02-01T14:58:54Z</time>
      </trkpt>
      <trkpt lat="43.36839" lon="6.1626">
        <ele>396.60000610352</ele>
        <time>2014-02-01T14:58:57Z</time>
      </trkpt>
      <trkpt lat="43.3684" lon="6.16255">
        <ele>397</ele>
        <time>2014-02-01T14:59:01Z</time>
      </trkpt>
      <trkpt lat="43.36843" lon="6.16243">
        <ele>398.79998779297</ele>
        <time>2014-02-01T14:59:08Z</time>
      </trkpt>
      <trkpt lat="43.36845" lon="6.16239">
        <ele>398.79998779297</ele>
        <time>2014-02-01T14:59:11Z</time>
      </trkpt>
      <trkpt lat="43.36846" lon="6.16236">
        <ele>399.20001220703</ele>
        <time>2014-02-01T14:59:13Z</time>
      </trkpt>
      <trkpt lat="43.3685" lon="6.16232">
        <ele>400.79998779297</ele>
        <time>2014-02-01T14:59:16Z</time>
      </trkpt>
      <trkpt lat="43.36854" lon="6.16228">
        <ele>400.79998779297</ele>
        <time>2014-02-01T14:59:20Z</time>
      </trkpt>
      <trkpt lat="43.36855" lon="6.16224">
        <ele>401.79998779297</ele>
        <time>2014-02-01T14:59:23Z</time>
      </trkpt>
      <trkpt lat="43.36854" lon="6.16219">
        <ele>403</ele>
        <time>2014-02-01T14:59:26Z</time>
      </trkpt>
      <trkpt lat="43.36845" lon="6.16203">
        <ele>403</ele>
        <time>2014-02-01T14:59:38Z</time>
      </trkpt>
      <trkpt lat="43.36839" lon="6.16195">
        <ele>403</ele>
        <time>2014-02-01T14:59:45Z</time>
      </trkpt>
      <trkpt lat="43.36838" lon="6.16194">
        <ele>403</ele>
        <time>2014-02-01T14:59:46Z</time>
      </trkpt>
      <trkpt lat="43.36837" lon="6.1619">
        <ele>403.39999389648</ele>
        <time>2014-02-01T14:59:51Z</time>
      </trkpt>
      <trkpt lat="43.36837" lon="6.1619">
        <ele>403.79998779297</ele>
        <time>2014-02-01T14:59:52Z</time>
      </trkpt>
      <trkpt lat="43.36837" lon="6.1619">
        <ele>404.20001220703</ele>
        <time>2014-02-01T14:59:53Z</time>
      </trkpt>
      <trkpt lat="43.36837" lon="6.1619">
        <ele>405</ele>
        <time>2014-02-01T15:00:13Z</time>
      </trkpt>
      <trkpt lat="43.36837" lon="6.1619">
        <ele>405</ele>
        <time>2014-02-01T15:01:16Z</time>
      </trkpt>
      <trkpt lat="43.36837" lon="6.1619">
        <ele>405</ele>
        <time>2014-02-01T15:01:40Z</time>
      </trkpt>
      <trkpt lat="43.36835" lon="6.16184">
        <ele>405</ele>
        <time>2014-02-01T15:01:49Z</time>
      </trkpt>
      <trkpt lat="43.3683" lon="6.16172">
        <ele>405</ele>
        <time>2014-02-01T15:01:55Z</time>
      </trkpt>
      <trkpt lat="43.36823" lon="6.16153">
        <ele>405</ele>
        <time>2014-02-01T15:02:04Z</time>
      </trkpt>
      <trkpt lat="43.36821" lon="6.16138">
        <ele>405</ele>
        <time>2014-02-01T15:02:10Z</time>
      </trkpt>
      <trkpt lat="43.36818" lon="6.16119">
        <ele>405</ele>
        <time>2014-02-01T15:02:17Z</time>
      </trkpt>
      <trkpt lat="43.36819" lon="6.16091">
        <ele>405</ele>
        <time>2014-02-01T15:02:25Z</time>
      </trkpt>
      <trkpt lat="43.36821" lon="6.16067">
        <ele>405</ele>
        <time>2014-02-01T15:02:32Z</time>
      </trkpt>
      <trkpt lat="43.36821" lon="6.16041">
        <ele>405</ele>
        <time>2014-02-01T15:02:39Z</time>
      </trkpt>
      <trkpt lat="43.36819" lon="6.16025">
        <ele>405</ele>
        <time>2014-02-01T15:02:44Z</time>
      </trkpt>
      <trkpt lat="43.36816" lon="6.15959">
        <ele>405</ele>
        <time>2014-02-01T15:03:00Z</time>
      </trkpt>
      <trkpt lat="43.36817" lon="6.15955">
        <ele>405</ele>
        <time>2014-02-01T15:03:01Z</time>
      </trkpt>
      <trkpt lat="43.36812" lon="6.1591">
        <ele>405</ele>
        <time>2014-02-01T15:03:11Z</time>
      </trkpt>
      <trkpt lat="43.36809" lon="6.15892">
        <ele>405.39999389648</ele>
        <time>2014-02-01T15:03:15Z</time>
      </trkpt>
      <trkpt lat="43.36808" lon="6.15882">
        <ele>406.20001220703</ele>
        <time>2014-02-01T15:03:17Z</time>
      </trkpt>
      <trkpt lat="43.36807" lon="6.15872">
        <ele>407.20001220703</ele>
        <time>2014-02-01T15:03:19Z</time>
      </trkpt>
      <trkpt lat="43.36801" lon="6.15822">
        <ele>407.20001220703</ele>
        <time>2014-02-01T15:03:30Z</time>
      </trkpt>
      <trkpt lat="43.36791" lon="6.15797">
        <ele>407.20001220703</ele>
        <time>2014-02-01T15:03:36Z</time>
      </trkpt>
      <trkpt lat="43.36777" lon="6.1578">
        <ele>407.20001220703</ele>
        <time>2014-02-01T15:03:42Z</time>
      </trkpt>
      <trkpt lat="43.36772" lon="6.15782">
        <ele>407.20001220703</ele>
        <time>2014-02-01T15:03:43Z</time>
      </trkpt>
      <trkpt lat="43.36768" lon="6.15787">
        <ele>407.20001220703</ele>
        <time>2014-02-01T15:03:45Z</time>
      </trkpt>
      <trkpt lat="43.3676" lon="6.15808">
        <ele>407.20001220703</ele>
        <time>2014-02-01T15:03:51Z</time>
      </trkpt>
      <trkpt lat="43.36752" lon="6.15821">
        <ele>407.20001220703</ele>
        <time>2014-02-01T15:03:56Z</time>
      </trkpt>
      <trkpt lat="43.36741" lon="6.15836">
        <ele>407.20001220703</ele>
        <time>2014-02-01T15:04:02Z</time>
      </trkpt>
      <trkpt lat="43.36736" lon="6.15844">
        <ele>408</ele>
        <time>2014-02-01T15:04:05Z</time>
      </trkpt>
      <trkpt lat="43.3673" lon="6.15852">
        <ele>409.20001220703</ele>
        <time>2014-02-01T15:04:08Z</time>
      </trkpt>
      <trkpt lat="43.36708" lon="6.15879">
        <ele>409.20001220703</ele>
        <time>2014-02-01T15:04:20Z</time>
      </trkpt>
      <trkpt lat="43.36697" lon="6.15887">
        <ele>409.20001220703</ele>
        <time>2014-02-01T15:04:25Z</time>
      </trkpt>
      <trkpt lat="43.36695" lon="6.15888">
        <ele>409.20001220703</ele>
        <time>2014-02-01T15:04:26Z</time>
      </trkpt>
      <trkpt lat="43.36684" lon="6.15885">
        <ele>410.39999389648</ele>
        <time>2014-02-01T15:04:31Z</time>
      </trkpt>
      <trkpt lat="43.36683" lon="6.15881">
        <ele>410.79998779297</ele>
        <time>2014-02-01T15:04:32Z</time>
      </trkpt>
      <trkpt lat="43.36675" lon="6.15861">
        <ele>411.20001220703</ele>
        <time>2014-02-01T15:04:37Z</time>
      </trkpt>
      <trkpt lat="43.36666" lon="6.15837">
        <ele>411.20001220703</ele>
        <time>2014-02-01T15:04:43Z</time>
      </trkpt>
      <trkpt lat="43.36655" lon="6.15815">
        <ele>411.20001220703</ele>
        <time>2014-02-01T15:04:50Z</time>
      </trkpt>
      <trkpt lat="43.36644" lon="6.15805">
        <ele>411.20001220703</ele>
        <time>2014-02-01T15:04:55Z</time>
      </trkpt>
      <trkpt lat="43.36631" lon="6.15796">
        <ele>411.20001220703</ele>
        <time>2014-02-01T15:05:01Z</time>
      </trkpt>
      <trkpt lat="43.36622" lon="6.15787">
        <ele>411.60000610352</ele>
        <time>2014-02-01T15:05:06Z</time>
      </trkpt>
      <trkpt lat="43.36616" lon="6.15781">
        <ele>413</ele>
        <time>2014-02-01T15:05:09Z</time>
      </trkpt>
      <trkpt lat="43.36607" lon="6.15774">
        <ele>413.39999389648</ele>
        <time>2014-02-01T15:05:13Z</time>
      </trkpt>
      <trkpt lat="43.36597" lon="6.15772">
        <ele>413.39999389648</ele>
        <time>2014-02-01T15:05:17Z</time>
      </trkpt>
      <trkpt lat="43.36584" lon="6.15775">
        <ele>413.39999389648</ele>
        <time>2014-02-01T15:05:22Z</time>
      </trkpt>
      <trkpt lat="43.3657" lon="6.15787">
        <ele>413.39999389648</ele>
        <time>2014-02-01T15:05:28Z</time>
      </trkpt>
      <trkpt lat="43.36555" lon="6.15787">
        <ele>413.79998779297</ele>
        <time>2014-02-01T15:05:34Z</time>
      </trkpt>
      <trkpt lat="43.36549" lon="6.15782">
        <ele>415</ele>
        <time>2014-02-01T15:05:37Z</time>
      </trkpt>
      <trkpt lat="43.36546" lon="6.15775">
        <ele>415.39999389648</ele>
        <time>2014-02-01T15:05:40Z</time>
      </trkpt>
      <trkpt lat="43.36543" lon="6.15759">
        <ele>415.39999389648</ele>
        <time>2014-02-01T15:05:46Z</time>
      </trkpt>
      <trkpt lat="43.36541" lon="6.15737">
        <ele>415.39999389648</ele>
        <time>2014-02-01T15:05:53Z</time>
      </trkpt>
      <trkpt lat="43.36533" lon="6.157">
        <ele>417</ele>
        <time>2014-02-01T15:06:04Z</time>
      </trkpt>
      <trkpt lat="43.36532" lon="6.1569">
        <ele>417.39999389648</ele>
        <time>2014-02-01T15:06:07Z</time>
      </trkpt>
      <trkpt lat="43.36527" lon="6.15668">
        <ele>417.39999389648</ele>
        <time>2014-02-01T15:06:13Z</time>
      </trkpt>
      <trkpt lat="43.36523" lon="6.15642">
        <ele>417.39999389648</ele>
        <time>2014-02-01T15:06:20Z</time>
      </trkpt>
      <trkpt lat="43.36518" lon="6.15622">
        <ele>417.39999389648</ele>
        <time>2014-02-01T15:06:26Z</time>
      </trkpt>
      <trkpt lat="43.36517" lon="6.15599">
        <ele>417.39999389648</ele>
        <time>2014-02-01T15:06:33Z</time>
      </trkpt>
      <trkpt lat="43.36516" lon="6.1559">
        <ele>418.20001220703</ele>
        <time>2014-02-01T15:06:36Z</time>
      </trkpt>
      <trkpt lat="43.36515" lon="6.15559">
        <ele>419.39999389648</ele>
        <time>2014-02-01T15:06:45Z</time>
      </trkpt>
      <trkpt lat="43.36512" lon="6.1551">
        <ele>419.39999389648</ele>
        <time>2014-02-01T15:07:00Z</time>
      </trkpt>
      <trkpt lat="43.36512" lon="6.15504">
        <ele>419.39999389648</ele>
        <time>2014-02-01T15:07:02Z</time>
      </trkpt>
      <trkpt lat="43.36513" lon="6.15481">
        <ele>419.39999389648</ele>
        <time>2014-02-01T15:07:09Z</time>
      </trkpt>
      <trkpt lat="43.36513" lon="6.15469">
        <ele>420.60000610352</ele>
        <time>2014-02-01T15:07:13Z</time>
      </trkpt>
      <trkpt lat="43.36513" lon="6.15462">
        <ele>421.39999389648</ele>
        <time>2014-02-01T15:07:15Z</time>
      </trkpt>
      <trkpt lat="43.36512" lon="6.15458">
        <ele>421.39999389648</ele>
        <time>2014-02-01T15:07:16Z</time>
      </trkpt>
      <trkpt lat="43.36512" lon="6.15431">
        <ele>421.39999389648</ele>
        <time>2014-02-01T15:07:24Z</time>
      </trkpt>
      <trkpt lat="43.3651" lon="6.15412">
        <ele>421.39999389648</ele>
        <time>2014-02-01T15:07:30Z</time>
      </trkpt>
      <trkpt lat="43.36507" lon="6.15391">
        <ele>421.39999389648</ele>
        <time>2014-02-01T15:07:37Z</time>
      </trkpt>
      <trkpt lat="43.36504" lon="6.15374">
        <ele>422.20001220703</ele>
        <time>2014-02-01T15:07:43Z</time>
      </trkpt>
      <trkpt lat="43.36502" lon="6.15371">
        <ele>422.60000610352</ele>
        <time>2014-02-01T15:07:44Z</time>
      </trkpt>
      <trkpt lat="43.36499" lon="6.15366">
        <ele>423.60000610352</ele>
        <time>2014-02-01T15:07:46Z</time>
      </trkpt>
      <trkpt lat="43.36496" lon="6.15359">
        <ele>423.60000610352</ele>
        <time>2014-02-01T15:07:49Z</time>
      </trkpt>
      <trkpt lat="43.36488" lon="6.15342">
        <ele>423.60000610352</ele>
        <time>2014-02-01T15:07:57Z</time>
      </trkpt>
      <trkpt lat="43.36486" lon="6.15338">
        <ele>424</ele>
        <time>2014-02-01T15:07:59Z</time>
      </trkpt>
      <trkpt lat="43.36485" lon="6.15336">
        <ele>424.79998779297</ele>
        <time>2014-02-01T15:08:01Z</time>
      </trkpt>
      <trkpt lat="43.36483" lon="6.15335">
        <ele>425.60000610352</ele>
        <time>2014-02-01T15:08:03Z</time>
      </trkpt>
      <trkpt lat="43.36483" lon="6.15334">
        <ele>425.60000610352</ele>
        <time>2014-02-01T15:08:07Z</time>
      </trkpt>
      <trkpt lat="43.36483" lon="6.15334">
        <ele>425.60000610352</ele>
        <time>2014-02-01T15:08:12Z</time>
      </trkpt>
      <trkpt lat="43.36483" lon="6.15334">
        <ele>425.60000610352</ele>
        <time>2014-02-01T15:08:19Z</time>
      </trkpt>
      <trkpt lat="43.36482" lon="6.15331">
        <ele>425.60000610352</ele>
        <time>2014-02-01T15:08:25Z</time>
      </trkpt>
      <trkpt lat="43.36481" lon="6.15329">
        <ele>425.60000610352</ele>
        <time>2014-02-01T15:08:26Z</time>
      </trkpt>
      <trkpt lat="43.36483" lon="6.15318">
        <ele>425.60000610352</ele>
        <time>2014-02-01T15:08:29Z</time>
      </trkpt>
      <trkpt lat="43.36488" lon="6.15297">
        <ele>425.60000610352</ele>
        <time>2014-02-01T15:08:33Z</time>
      </trkpt>
      <trkpt lat="43.3649" lon="6.15291">
        <ele>425.60000610352</ele>
        <time>2014-02-01T15:08:34Z</time>
      </trkpt>
      <trkpt lat="43.36502" lon="6.15268">
        <ele>424.39999389648</ele>
        <time>2014-02-01T15:08:39Z</time>
      </trkpt>
      <trkpt lat="43.36507" lon="6.15261">
        <ele>423.39999389648</ele>
        <time>2014-02-01T15:08:41Z</time>
      </trkpt>
      <trkpt lat="43.36519" lon="6.15246">
        <ele>423.39999389648</ele>
        <time>2014-02-01T15:08:45Z</time>
      </trkpt>
      <trkpt lat="43.36536" lon="6.15233">
        <ele>423.39999389648</ele>
        <time>2014-02-01T15:08:49Z</time>
      </trkpt>
      <trkpt lat="43.36541" lon="6.1523">
        <ele>423</ele>
        <time>2014-02-01T15:08:50Z</time>
      </trkpt>
      <trkpt lat="43.36546" lon="6.15227">
        <ele>422.60000610352</ele>
        <time>2014-02-01T15:08:51Z</time>
      </trkpt>
      <trkpt lat="43.36552" lon="6.15223">
        <ele>422.20001220703</ele>
        <time>2014-02-01T15:08:52Z</time>
      </trkpt>
      <trkpt lat="43.36558" lon="6.1522">
        <ele>421.79998779297</ele>
        <time>2014-02-01T15:08:53Z</time>
      </trkpt>
      <trkpt lat="43.36564" lon="6.15216">
        <ele>421.20001220703</ele>
        <time>2014-02-01T15:08:54Z</time>
      </trkpt>
      <trkpt lat="43.3657" lon="6.15211">
        <ele>420.79998779297</ele>
        <time>2014-02-01T15:08:55Z</time>
      </trkpt>
      <trkpt lat="43.36576" lon="6.15208">
        <ele>420.20001220703</ele>
        <time>2014-02-01T15:08:56Z</time>
      </trkpt>
      <trkpt lat="43.36581" lon="6.15204">
        <ele>419.60000610352</ele>
        <time>2014-02-01T15:08:57Z</time>
      </trkpt>
      <trkpt lat="43.36586" lon="6.15201">
        <ele>419</ele>
        <time>2014-02-01T15:08:58Z</time>
      </trkpt>
      <trkpt lat="43.3659" lon="6.15198">
        <ele>418.39999389648</ele>
        <time>2014-02-01T15:08:59Z</time>
      </trkpt>
      <trkpt lat="43.36593" lon="6.15196">
        <ele>417.79998779297</ele>
        <time>2014-02-01T15:09:00Z</time>
      </trkpt>
      <trkpt lat="43.36596" lon="6.15196">
        <ele>417.20001220703</ele>
        <time>2014-02-01T15:09:01Z</time>
      </trkpt>
      <trkpt lat="43.36599" lon="6.15196">
        <ele>416.79998779297</ele>
        <time>2014-02-01T15:09:02Z</time>
      </trkpt>
      <trkpt lat="43.366" lon="6.15196">
        <ele>416.20001220703</ele>
        <time>2014-02-01T15:09:03Z</time>
      </trkpt>
      <trkpt lat="43.36603" lon="6.15195">
        <ele>415.60000610352</ele>
        <time>2014-02-01T15:09:04Z</time>
      </trkpt>
      <trkpt lat="43.36605" lon="6.15194">
        <ele>415.20001220703</ele>
        <time>2014-02-01T15:09:05Z</time>
      </trkpt>
      <trkpt lat="43.36607" lon="6.15193">
        <ele>414.60000610352</ele>
        <time>2014-02-01T15:09:06Z</time>
      </trkpt>
      <trkpt lat="43.36609" lon="6.15193">
        <ele>414.60000610352</ele>
        <time>2014-02-01T15:09:07Z</time>
      </trkpt>
      <trkpt lat="43.36617" lon="6.1519">
        <ele>414.60000610352</ele>
        <time>2014-02-01T15:09:11Z</time>
      </trkpt>
      <trkpt lat="43.36621" lon="6.15189">
        <ele>414.60000610352</ele>
        <time>2014-02-01T15:09:13Z</time>
      </trkpt>
      <trkpt lat="43.36625" lon="6.15187">
        <ele>414.60000610352</ele>
        <time>2014-02-01T15:09:16Z</time>
      </trkpt>
      <trkpt lat="43.3663" lon="6.15186">
        <ele>415.39999389648</ele>
        <time>2014-02-01T15:09:19Z</time>
      </trkpt>
      <trkpt lat="43.36637" lon="6.15184">
        <ele>416.60000610352</ele>
        <time>2014-02-01T15:09:23Z</time>
      </trkpt>
      <trkpt lat="43.36647" lon="6.15182">
        <ele>418.39999389648</ele>
        <time>2014-02-01T15:09:31Z</time>
      </trkpt>
      <trkpt lat="43.36652" lon="6.15182">
        <ele>418.79998779297</ele>
        <time>2014-02-01T15:09:34Z</time>
      </trkpt>
      <trkpt lat="43.36655" lon="6.15181">
        <ele>418.79998779297</ele>
        <time>2014-02-01T15:09:36Z</time>
      </trkpt>
      <trkpt lat="43.36662" lon="6.15177">
        <ele>419.60000610352</ele>
        <time>2014-02-01T15:09:41Z</time>
      </trkpt>
      <trkpt lat="43.36663" lon="6.15177">
        <ele>420</ele>
        <time>2014-02-01T15:09:42Z</time>
      </trkpt>
      <trkpt lat="43.36671" lon="6.1518">
        <ele>420.79998779297</ele>
        <time>2014-02-01T15:09:47Z</time>
      </trkpt>
      <trkpt lat="43.36683" lon="6.15181">
        <ele>420.79998779297</ele>
        <time>2014-02-01T15:09:53Z</time>
      </trkpt>
      <trkpt lat="43.36695" lon="6.15184">
        <ele>420.79998779297</ele>
        <time>2014-02-01T15:10:00Z</time>
      </trkpt>
      <trkpt lat="43.36721" lon="6.1519">
        <ele>422.79998779297</ele>
        <time>2014-02-01T15:10:17Z</time>
      </trkpt>
      <trkpt lat="43.36724" lon="6.15193">
        <ele>422.79998779297</ele>
        <time>2014-02-01T15:10:20Z</time>
      </trkpt>
      <trkpt lat="43.36732" lon="6.15198">
        <ele>424</ele>
        <time>2014-02-01T15:10:26Z</time>
      </trkpt>
      <trkpt lat="43.36736" lon="6.152">
        <ele>424.79998779297</ele>
        <time>2014-02-01T15:10:29Z</time>
      </trkpt>
      <trkpt lat="43.36742" lon="6.15206">
        <ele>424.79998779297</ele>
        <time>2014-02-01T15:10:34Z</time>
      </trkpt>
      <trkpt lat="43.36744" lon="6.15217">
        <ele>424.79998779297</ele>
        <time>2014-02-01T15:10:41Z</time>
      </trkpt>
      <trkpt lat="43.36745" lon="6.15221">
        <ele>425.20001220703</ele>
        <time>2014-02-01T15:10:44Z</time>
      </trkpt>
      <trkpt lat="43.36747" lon="6.15224">
        <ele>426.60000610352</ele>
        <time>2014-02-01T15:10:46Z</time>
      </trkpt>
      <trkpt lat="43.36755" lon="6.1523">
        <ele>427</ele>
        <time>2014-02-01T15:10:53Z</time>
      </trkpt>
      <trkpt lat="43.3676" lon="6.15232">
        <ele>427.39999389648</ele>
        <time>2014-02-01T15:10:56Z</time>
      </trkpt>
      <trkpt lat="43.36762" lon="6.15233">
        <ele>428.20001220703</ele>
        <time>2014-02-01T15:10:58Z</time>
      </trkpt>
      <trkpt lat="43.36766" lon="6.15235">
        <ele>429.20001220703</ele>
        <time>2014-02-01T15:11:01Z</time>
      </trkpt>
      <trkpt lat="43.3677" lon="6.15233">
        <ele>429.60000610352</ele>
        <time>2014-02-01T15:11:05Z</time>
      </trkpt>
      <trkpt lat="43.36771" lon="6.1523">
        <ele>430.39999389648</ele>
        <time>2014-02-01T15:11:07Z</time>
      </trkpt>
      <trkpt lat="43.36772" lon="6.15228">
        <ele>431.39999389648</ele>
        <time>2014-02-01T15:11:09Z</time>
      </trkpt>
      <trkpt lat="43.36772" lon="6.15222">
        <ele>431.39999389648</ele>
        <time>2014-02-01T15:11:14Z</time>
      </trkpt>
      <trkpt lat="43.36773" lon="6.15213">
        <ele>431.39999389648</ele>
        <time>2014-02-01T15:11:17Z</time>
      </trkpt>
      <trkpt lat="43.36776" lon="6.15202">
        <ele>431.39999389648</ele>
        <time>2014-02-01T15:11:23Z</time>
      </trkpt>
      <trkpt lat="43.36777" lon="6.152">
        <ele>431.39999389648</ele>
        <time>2014-02-01T15:11:24Z</time>
      </trkpt>
      <trkpt lat="43.36782" lon="6.15194">
        <ele>431.39999389648</ele>
        <time>2014-02-01T15:11:29Z</time>
      </trkpt>
      <trkpt lat="43.36784" lon="6.15192">
        <ele>431.39999389648</ele>
        <time>2014-02-01T15:11:31Z</time>
      </trkpt>
      <trkpt lat="43.36787" lon="6.15189">
        <ele>431.39999389648</ele>
        <time>2014-02-01T15:11:35Z</time>
      </trkpt>
      <trkpt lat="43.3679" lon="6.15188">
        <ele>431.39999389648</ele>
        <time>2014-02-01T15:11:38Z</time>
      </trkpt>
      <trkpt lat="43.36796" lon="6.15186">
        <ele>431.39999389648</ele>
        <time>2014-02-01T15:11:43Z</time>
      </trkpt>
      <trkpt lat="43.368" lon="6.15184">
        <ele>433</ele>
        <time>2014-02-01T15:11:47Z</time>
      </trkpt>
      <trkpt lat="43.36802" lon="6.15183">
        <ele>433.39999389648</ele>
        <time>2014-02-01T15:11:49Z</time>
      </trkpt>
      <trkpt lat="43.36806" lon="6.15182">
        <ele>433.39999389648</ele>
        <time>2014-02-01T15:11:52Z</time>
      </trkpt>
      <trkpt lat="43.36811" lon="6.15179">
        <ele>433.39999389648</ele>
        <time>2014-02-01T15:11:57Z</time>
      </trkpt>
      <trkpt lat="43.36813" lon="6.15178">
        <ele>434.60000610352</ele>
        <time>2014-02-01T15:11:59Z</time>
      </trkpt>
      <trkpt lat="43.36814" lon="6.15178">
        <ele>435</ele>
        <time>2014-02-01T15:12:00Z</time>
      </trkpt>
      <trkpt lat="43.36815" lon="6.15178">
        <ele>435.39999389648</ele>
        <time>2014-02-01T15:12:01Z</time>
      </trkpt>
      <trkpt lat="43.36819" lon="6.15178">
        <ele>435.39999389648</ele>
        <time>2014-02-01T15:12:05Z</time>
      </trkpt>
      <trkpt lat="43.36822" lon="6.15178">
        <ele>435.79998779297</ele>
        <time>2014-02-01T15:12:08Z</time>
      </trkpt>
      <trkpt lat="43.36824" lon="6.15178">
        <ele>436.60000610352</ele>
        <time>2014-02-01T15:12:10Z</time>
      </trkpt>
      <trkpt lat="43.36824" lon="6.15178">
        <ele>437</ele>
        <time>2014-02-01T15:12:11Z</time>
      </trkpt>
      <trkpt lat="43.36824" lon="6.15178">
        <ele>437.39999389648</ele>
        <time>2014-02-01T15:12:16Z</time>
      </trkpt>
      <trkpt lat="43.36825" lon="6.15178">
        <ele>437.39999389648</ele>
        <time>2014-02-01T15:12:22Z</time>
      </trkpt>
      <trkpt lat="43.36825" lon="6.15178">
        <ele>437.39999389648</ele>
        <time>2014-02-01T15:12:28Z</time>
      </trkpt>
      <trkpt lat="43.36825" lon="6.15177">
        <ele>437.39999389648</ele>
        <time>2014-02-01T15:12:31Z</time>
      </trkpt>
      <trkpt lat="43.36827" lon="6.15177">
        <ele>437.39999389648</ele>
        <time>2014-02-01T15:12:37Z</time>
      </trkpt>
      <trkpt lat="43.3683" lon="6.15178">
        <ele>437.39999389648</ele>
        <time>2014-02-01T15:12:44Z</time>
      </trkpt>
      <trkpt lat="43.36832" lon="6.15179">
        <ele>438</ele>
        <time>2014-02-01T15:12:46Z</time>
      </trkpt>
      <trkpt lat="43.36835" lon="6.15182">
        <ele>439.60000610352</ele>
        <time>2014-02-01T15:12:49Z</time>
      </trkpt>
      <trkpt lat="43.36837" lon="6.15181">
        <ele>439.60000610352</ele>
        <time>2014-02-01T15:12:50Z</time>
      </trkpt>
      <trkpt lat="43.36841" lon="6.15178">
        <ele>440.39999389648</ele>
        <time>2014-02-01T15:12:54Z</time>
      </trkpt>
      <trkpt lat="43.36844" lon="6.15179">
        <ele>441.39999389648</ele>
        <time>2014-02-01T15:12:56Z</time>
      </trkpt>
      <trkpt lat="43.36845" lon="6.1518">
        <ele>441.79998779297</ele>
        <time>2014-02-01T15:12:57Z</time>
      </trkpt>
      <trkpt lat="43.36853" lon="6.15184">
        <ele>441.79998779297</ele>
        <time>2014-02-01T15:13:04Z</time>
      </trkpt>
      <trkpt lat="43.36858" lon="6.15184">
        <ele>441.79998779297</ele>
        <time>2014-02-01T15:13:10Z</time>
      </trkpt>
      <trkpt lat="43.36858" lon="6.15184">
        <ele>442.60000610352</ele>
        <time>2014-02-01T15:13:14Z</time>
      </trkpt>
      <trkpt lat="43.36858" lon="6.15184">
        <ele>443</ele>
        <time>2014-02-01T15:13:15Z</time>
      </trkpt>
      <trkpt lat="43.36858" lon="6.15184">
        <ele>443.79998779297</ele>
        <time>2014-02-01T15:13:34Z</time>
      </trkpt>
      <trkpt lat="43.36858" lon="6.15184">
        <ele>443.79998779297</ele>
        <time>2014-02-01T15:13:52Z</time>
      </trkpt>
      <trkpt lat="43.36857" lon="6.15184">
        <ele>443.79998779297</ele>
        <time>2014-02-01T15:13:56Z</time>
      </trkpt>
      <trkpt lat="43.36857" lon="6.15184">
        <ele>443.79998779297</ele>
        <time>2014-02-01T15:14:13Z</time>
      </trkpt>
      <trkpt lat="43.36857" lon="6.15184">
        <ele>443.79998779297</ele>
        <time>2014-02-01T15:14:54Z</time>
      </trkpt>
      <trkpt lat="43.36857" lon="6.15184">
        <ele>443.79998779297</ele>
        <time>2014-02-01T15:15:01Z</time>
      </trkpt>
      <trkpt lat="43.36858" lon="6.15184">
        <ele>443.79998779297</ele>
        <time>2014-02-01T15:15:10Z</time>
      </trkpt>
      <trkpt lat="43.36858" lon="6.15185">
        <ele>443.79998779297</ele>
        <time>2014-02-01T15:15:11Z</time>
      </trkpt>
      <trkpt lat="43.36864" lon="6.15187">
        <ele>443.79998779297</ele>
        <time>2014-02-01T15:15:15Z</time>
      </trkpt>
      <trkpt lat="43.3687" lon="6.15188">
        <ele>443.79998779297</ele>
        <time>2014-02-01T15:15:18Z</time>
      </trkpt>
      <trkpt lat="43.36872" lon="6.15188">
        <ele>443.79998779297</ele>
        <time>2014-02-01T15:15:20Z</time>
      </trkpt>
      <trkpt lat="43.36877" lon="6.15189">
        <ele>443.79998779297</ele>
        <time>2014-02-01T15:15:23Z</time>
      </trkpt>
      <trkpt lat="43.36881" lon="6.15192">
        <ele>443.79998779297</ele>
        <time>2014-02-01T15:15:26Z</time>
      </trkpt>
      <trkpt lat="43.36884" lon="6.15195">
        <ele>443.79998779297</ele>
        <time>2014-02-01T15:15:29Z</time>
      </trkpt>
      <trkpt lat="43.36893" lon="6.15202">
        <ele>443.79998779297</ele>
        <time>2014-02-01T15:15:34Z</time>
      </trkpt>
      <trkpt lat="43.36906" lon="6.15213">
        <ele>443.79998779297</ele>
        <time>2014-02-01T15:15:39Z</time>
      </trkpt>
      <trkpt lat="43.36919" lon="6.15212">
        <ele>443.39999389648</ele>
        <time>2014-02-01T15:15:42Z</time>
      </trkpt>
      <trkpt lat="43.36927" lon="6.15208">
        <ele>442.39999389648</ele>
        <time>2014-02-01T15:15:44Z</time>
      </trkpt>
      <trkpt lat="43.3693" lon="6.15206">
        <ele>441.79998779297</ele>
        <time>2014-02-01T15:15:45Z</time>
      </trkpt>
      <trkpt lat="43.36933" lon="6.15205">
        <ele>441.20001220703</ele>
        <time>2014-02-01T15:15:46Z</time>
      </trkpt>
      <trkpt lat="43.3694" lon="6.15206">
        <ele>440.20001220703</ele>
        <time>2014-02-01T15:15:48Z</time>
      </trkpt>
      <trkpt lat="43.36947" lon="6.15207">
        <ele>439</ele>
        <time>2014-02-01T15:15:50Z</time>
      </trkpt>
      <trkpt lat="43.36954" lon="6.15204">
        <ele>438</ele>
        <time>2014-02-01T15:15:52Z</time>
      </trkpt>
      <trkpt lat="43.36962" lon="6.152">
        <ele>437</ele>
        <time>2014-02-01T15:15:54Z</time>
      </trkpt>
      <trkpt lat="43.36966" lon="6.15198">
        <ele>436.60000610352</ele>
        <time>2014-02-01T15:15:55Z</time>
      </trkpt>
      <trkpt lat="43.36973" lon="6.15191">
        <ele>436.20001220703</ele>
        <time>2014-02-01T15:15:57Z</time>
      </trkpt>
      <trkpt lat="43.36976" lon="6.15186">
        <ele>435.79998779297</ele>
        <time>2014-02-01T15:15:58Z</time>
      </trkpt>
      <trkpt lat="43.36979" lon="6.15181">
        <ele>435.39999389648</ele>
        <time>2014-02-01T15:15:59Z</time>
      </trkpt>
      <trkpt lat="43.36981" lon="6.15177">
        <ele>434.79998779297</ele>
        <time>2014-02-01T15:16:00Z</time>
      </trkpt>
      <trkpt lat="43.36983" lon="6.15173">
        <ele>434.39999389648</ele>
        <time>2014-02-01T15:16:01Z</time>
      </trkpt>
      <trkpt lat="43.36987" lon="6.15157">
        <ele>434.39999389648</ele>
        <time>2014-02-01T15:16:05Z</time>
      </trkpt>
      <trkpt lat="43.36991" lon="6.15149">
        <ele>434.39999389648</ele>
        <time>2014-02-01T15:16:08Z</time>
      </trkpt>
      <trkpt lat="43.3699" lon="6.15148">
        <ele>434.39999389648</ele>
        <time>2014-02-01T15:16:09Z</time>
      </trkpt>
      <trkpt lat="43.36987" lon="6.15145">
        <ele>433.60000610352</ele>
        <time>2014-02-01T15:16:11Z</time>
      </trkpt>
      <trkpt lat="43.36986" lon="6.15144">
        <ele>433.20001220703</ele>
        <time>2014-02-01T15:16:12Z</time>
      </trkpt>
      <trkpt lat="43.36985" lon="6.15143">
        <ele>432.79998779297</ele>
        <time>2014-02-01T15:16:13Z</time>
      </trkpt>
      <trkpt lat="43.36985" lon="6.15141">
        <ele>432.39999389648</ele>
        <time>2014-02-01T15:16:14Z</time>
      </trkpt>
      <trkpt lat="43.36984" lon="6.15138">
        <ele>432.39999389648</ele>
        <time>2014-02-01T15:16:15Z</time>
      </trkpt>
      <trkpt lat="43.36985" lon="6.15135">
        <ele>432.39999389648</ele>
        <time>2014-02-01T15:16:16Z</time>
      </trkpt>
      <trkpt lat="43.36985" lon="6.1513">
        <ele>432.39999389648</ele>
        <time>2014-02-01T15:16:18Z</time>
      </trkpt>
      <trkpt lat="43.36984" lon="6.15125">
        <ele>432.39999389648</ele>
        <time>2014-02-01T15:16:20Z</time>
      </trkpt>
      <trkpt lat="43.36984" lon="6.15118">
        <ele>432.39999389648</ele>
        <time>2014-02-01T15:16:22Z</time>
      </trkpt>
      <trkpt lat="43.36991" lon="6.151">
        <ele>430.39999389648</ele>
        <time>2014-02-01T15:16:31Z</time>
      </trkpt>
      <trkpt lat="43.36992" lon="6.15094">
        <ele>430.39999389648</ele>
        <time>2014-02-01T15:16:33Z</time>
      </trkpt>
      <trkpt lat="43.36987" lon="6.15075">
        <ele>430.39999389648</ele>
        <time>2014-02-01T15:16:39Z</time>
      </trkpt>
      <trkpt lat="43.36987" lon="6.15057">
        <ele>430.39999389648</ele>
        <time>2014-02-01T15:16:43Z</time>
      </trkpt>
      <trkpt lat="43.36987" lon="6.1504">
        <ele>430.39999389648</ele>
        <time>2014-02-01T15:16:47Z</time>
      </trkpt>
      <trkpt lat="43.36989" lon="6.15036">
        <ele>430.39999389648</ele>
        <time>2014-02-01T15:16:48Z</time>
      </trkpt>
      <trkpt lat="43.36995" lon="6.15028">
        <ele>430.39999389648</ele>
        <time>2014-02-01T15:16:50Z</time>
      </trkpt>
      <trkpt lat="43.37" lon="6.15018">
        <ele>429.39999389648</ele>
        <time>2014-02-01T15:16:52Z</time>
      </trkpt>
      <trkpt lat="43.37004" lon="6.15">
        <ele>427.60000610352</ele>
        <time>2014-02-01T15:16:55Z</time>
      </trkpt>
      <trkpt lat="43.37007" lon="6.14995">
        <ele>426.20001220703</ele>
        <time>2014-02-01T15:16:56Z</time>
      </trkpt>
      <trkpt lat="43.37009" lon="6.14991">
        <ele>425.60000610352</ele>
        <time>2014-02-01T15:16:57Z</time>
      </trkpt>
      <trkpt lat="43.3701" lon="6.14987">
        <ele>424.79998779297</ele>
        <time>2014-02-01T15:16:58Z</time>
      </trkpt>
      <trkpt lat="43.37012" lon="6.14978">
        <ele>423.39999389648</ele>
        <time>2014-02-01T15:17:00Z</time>
      </trkpt>
      <trkpt lat="43.37016" lon="6.14965">
        <ele>421.39999389648</ele>
        <time>2014-02-01T15:17:03Z</time>
      </trkpt>
      <trkpt lat="43.37017" lon="6.1496">
        <ele>420.79998779297</ele>
        <time>2014-02-01T15:17:04Z</time>
      </trkpt>
      <trkpt lat="43.37023" lon="6.14942">
        <ele>418</ele>
        <time>2014-02-01T15:17:09Z</time>
      </trkpt>
      <trkpt lat="43.37024" lon="6.14938">
        <ele>417.60000610352</ele>
        <time>2014-02-01T15:17:10Z</time>
      </trkpt>
      <trkpt lat="43.37024" lon="6.14928">
        <ele>415.79998779297</ele>
        <time>2014-02-01T15:17:13Z</time>
      </trkpt>
      <trkpt lat="43.37024" lon="6.14924">
        <ele>415.20001220703</ele>
        <time>2014-02-01T15:17:14Z</time>
      </trkpt>
      <trkpt lat="43.37029" lon="6.14906">
        <ele>412.60000610352</ele>
        <time>2014-02-01T15:17:19Z</time>
      </trkpt>
      <trkpt lat="43.37031" lon="6.14897">
        <ele>410.79998779297</ele>
        <time>2014-02-01T15:17:22Z</time>
      </trkpt>
      <trkpt lat="43.37031" lon="6.14895">
        <ele>410.39999389648</ele>
        <time>2014-02-01T15:17:23Z</time>
      </trkpt>
      <trkpt lat="43.3703" lon="6.14886">
        <ele>409.20001220703</ele>
        <time>2014-02-01T15:17:26Z</time>
      </trkpt>
      <trkpt lat="43.37029" lon="6.14883">
        <ele>408.60000610352</ele>
        <time>2014-02-01T15:17:27Z</time>
      </trkpt>
      <trkpt lat="43.37029" lon="6.14881">
        <ele>408.20001220703</ele>
        <time>2014-02-01T15:17:28Z</time>
      </trkpt>
      <trkpt lat="43.3703" lon="6.14874">
        <ele>407.20001220703</ele>
        <time>2014-02-01T15:17:30Z</time>
      </trkpt>
      <trkpt lat="43.37032" lon="6.14867">
        <ele>406.39999389648</ele>
        <time>2014-02-01T15:17:32Z</time>
      </trkpt>
      <trkpt lat="43.37032" lon="6.14864">
        <ele>406</ele>
        <time>2014-02-01T15:17:33Z</time>
      </trkpt>
      <trkpt lat="43.37032" lon="6.14855">
        <ele>404.20001220703</ele>
        <time>2014-02-01T15:17:36Z</time>
      </trkpt>
      <trkpt lat="43.37032" lon="6.14851">
        <ele>403.60000610352</ele>
        <time>2014-02-01T15:17:37Z</time>
      </trkpt>
      <trkpt lat="43.37032" lon="6.14846">
        <ele>403</ele>
        <time>2014-02-01T15:17:38Z</time>
      </trkpt>
      <trkpt lat="43.37033" lon="6.14836">
        <ele>401.79998779297</ele>
        <time>2014-02-01T15:17:40Z</time>
      </trkpt>
      <trkpt lat="43.37037" lon="6.14827">
        <ele>400.60000610352</ele>
        <time>2014-02-01T15:17:42Z</time>
      </trkpt>
      <trkpt lat="43.37045" lon="6.14808">
        <ele>397.39999389648</ele>
        <time>2014-02-01T15:17:46Z</time>
      </trkpt>
      <trkpt lat="43.37045" lon="6.14803">
        <ele>396.60000610352</ele>
        <time>2014-02-01T15:17:47Z</time>
      </trkpt>
      <trkpt lat="43.37047" lon="6.14795">
        <ele>395.60000610352</ele>
        <time>2014-02-01T15:17:49Z</time>
      </trkpt>
      <trkpt lat="43.37052" lon="6.14772">
        <ele>393.39999389648</ele>
        <time>2014-02-01T15:17:53Z</time>
      </trkpt>
      <trkpt lat="43.37057" lon="6.14754">
        <ele>391.60000610352</ele>
        <time>2014-02-01T15:17:56Z</time>
      </trkpt>
      <trkpt lat="43.37058" lon="6.1475">
        <ele>391.20001220703</ele>
        <time>2014-02-01T15:17:57Z</time>
      </trkpt>
      <trkpt lat="43.37058" lon="6.14745">
        <ele>390.60000610352</ele>
        <time>2014-02-01T15:17:58Z</time>
      </trkpt>
      <trkpt lat="43.37058" lon="6.14733">
        <ele>389.60000610352</ele>
        <time>2014-02-01T15:18:00Z</time>
      </trkpt>
      <trkpt lat="43.37059" lon="6.14727">
        <ele>389.20001220703</ele>
        <time>2014-02-01T15:18:01Z</time>
      </trkpt>
      <trkpt lat="43.37066" lon="6.14707">
        <ele>387.39999389648</ele>
        <time>2014-02-01T15:18:05Z</time>
      </trkpt>
      <trkpt lat="43.37067" lon="6.14702">
        <ele>387</ele>
        <time>2014-02-01T15:18:06Z</time>
      </trkpt>
      <trkpt lat="43.37067" lon="6.14693">
        <ele>386.20001220703</ele>
        <time>2014-02-01T15:18:08Z</time>
      </trkpt>
      <trkpt lat="43.37066" lon="6.14688">
        <ele>385.60000610352</ele>
        <time>2014-02-01T15:18:09Z</time>
      </trkpt>
      <trkpt lat="43.37067" lon="6.14683">
        <ele>385.20001220703</ele>
        <time>2014-02-01T15:18:10Z</time>
      </trkpt>
      <trkpt lat="43.37068" lon="6.14674">
        <ele>384.60000610352</ele>
        <time>2014-02-01T15:18:13Z</time>
      </trkpt>
      <trkpt lat="43.37069" lon="6.14664">
        <ele>383.79998779297</ele>
        <time>2014-02-01T15:18:15Z</time>
      </trkpt>
      <trkpt lat="43.37068" lon="6.1466">
        <ele>383.20001220703</ele>
        <time>2014-02-01T15:18:16Z</time>
      </trkpt>
      <trkpt lat="43.37067" lon="6.14657">
        <ele>382.79998779297</ele>
        <time>2014-02-01T15:18:17Z</time>
      </trkpt>
      <trkpt lat="43.37067" lon="6.14655">
        <ele>382.79998779297</ele>
        <time>2014-02-01T15:18:18Z</time>
      </trkpt>
      <trkpt lat="43.37067" lon="6.14655">
        <ele>382.79998779297</ele>
        <time>2014-02-01T15:18:39Z</time>
      </trkpt>
      <trkpt lat="43.37067" lon="6.14655">
        <ele>382.79998779297</ele>
        <time>2014-02-01T15:18:46Z</time>
      </trkpt>
      <trkpt lat="43.37065" lon="6.14645">
        <ele>382.79998779297</ele>
        <time>2014-02-01T15:18:51Z</time>
      </trkpt>
      <trkpt lat="43.37064" lon="6.14637">
        <ele>382.39999389648</ele>
        <time>2014-02-01T15:18:53Z</time>
      </trkpt>
      <trkpt lat="43.37061" lon="6.14625">
        <ele>381.20001220703</ele>
        <time>2014-02-01T15:18:56Z</time>
      </trkpt>
      <trkpt lat="43.37059" lon="6.14622">
        <ele>380.79998779297</ele>
        <time>2014-02-01T15:18:57Z</time>
      </trkpt>
      <trkpt lat="43.37058" lon="6.14613">
        <ele>380.79998779297</ele>
        <time>2014-02-01T15:18:59Z</time>
      </trkpt>
      <trkpt lat="43.37059" lon="6.14607">
        <ele>380.79998779297</ele>
        <time>2014-02-01T15:19:00Z</time>
      </trkpt>
      <trkpt lat="43.3706" lon="6.14596">
        <ele>380.39999389648</ele>
        <time>2014-02-01T15:19:02Z</time>
      </trkpt>
      <trkpt lat="43.37062" lon="6.14577">
        <ele>379.20001220703</ele>
        <time>2014-02-01T15:19:05Z</time>
      </trkpt>
      <trkpt lat="43.37069" lon="6.14559">
        <ele>378.79998779297</ele>
        <time>2014-02-01T15:19:09Z</time>
      </trkpt>
      <trkpt lat="43.37072" lon="6.14543">
        <ele>378.79998779297</ele>
        <time>2014-02-01T15:19:12Z</time>
      </trkpt>
      <trkpt lat="43.37075" lon="6.14522">
        <ele>377.79998779297</ele>
        <time>2014-02-01T15:19:15Z</time>
      </trkpt>
      <trkpt lat="43.37075" lon="6.14515">
        <ele>377.39999389648</ele>
        <time>2014-02-01T15:19:16Z</time>
      </trkpt>
      <trkpt lat="43.37076" lon="6.14509">
        <ele>377</ele>
        <time>2014-02-01T15:19:17Z</time>
      </trkpt>
      <trkpt lat="43.3707" lon="6.1449">
        <ele>376.20001220703</ele>
        <time>2014-02-01T15:19:21Z</time>
      </trkpt>
      <trkpt lat="43.37068" lon="6.14485">
        <ele>375.79998779297</ele>
        <time>2014-02-01T15:19:22Z</time>
      </trkpt>
      <trkpt lat="43.37067" lon="6.14479">
        <ele>374.79998779297</ele>
        <time>2014-02-01T15:19:23Z</time>
      </trkpt>
      <trkpt lat="43.37067" lon="6.14474">
        <ele>374.39999389648</ele>
        <time>2014-02-01T15:19:24Z</time>
      </trkpt>
      <trkpt lat="43.37067" lon="6.14467">
        <ele>374.39999389648</ele>
        <time>2014-02-01T15:19:25Z</time>
      </trkpt>
      <trkpt lat="43.37069" lon="6.14454">
        <ele>373.60000610352</ele>
        <time>2014-02-01T15:19:27Z</time>
      </trkpt>
      <trkpt lat="43.37072" lon="6.14421">
        <ele>371.39999389648</ele>
        <time>2014-02-01T15:19:32Z</time>
      </trkpt>
      <trkpt lat="43.37074" lon="6.14415">
        <ele>370.79998779297</ele>
        <time>2014-02-01T15:19:33Z</time>
      </trkpt>
      <trkpt lat="43.37075" lon="6.14411">
        <ele>370.39999389648</ele>
        <time>2014-02-01T15:19:34Z</time>
      </trkpt>
      <trkpt lat="43.37077" lon="6.14406">
        <ele>370</ele>
        <time>2014-02-01T15:19:36Z</time>
      </trkpt>
      <trkpt lat="43.37086" lon="6.144">
        <ele>370</ele>
        <time>2014-02-01T15:19:39Z</time>
      </trkpt>
      <trkpt lat="43.37092" lon="6.14394">
        <ele>369.60000610352</ele>
        <time>2014-02-01T15:19:41Z</time>
      </trkpt>
      <trkpt lat="43.37093" lon="6.14391">
        <ele>369</ele>
        <time>2014-02-01T15:19:42Z</time>
      </trkpt>
      <trkpt lat="43.37093" lon="6.14388">
        <ele>368.60000610352</ele>
        <time>2014-02-01T15:19:43Z</time>
      </trkpt>
      <trkpt lat="43.37092" lon="6.14383">
        <ele>368.20001220703</ele>
        <time>2014-02-01T15:19:44Z</time>
      </trkpt>
      <trkpt lat="43.37091" lon="6.14378">
        <ele>367.79998779297</ele>
        <time>2014-02-01T15:19:45Z</time>
      </trkpt>
      <trkpt lat="43.3709" lon="6.14372">
        <ele>367.39999389648</ele>
        <time>2014-02-01T15:19:46Z</time>
      </trkpt>
      <trkpt lat="43.3709" lon="6.14366">
        <ele>366.79998779297</ele>
        <time>2014-02-01T15:19:47Z</time>
      </trkpt>
      <trkpt lat="43.37092" lon="6.14346">
        <ele>365</ele>
        <time>2014-02-01T15:19:50Z</time>
      </trkpt>
      <trkpt lat="43.37091" lon="6.14342">
        <ele>364.60000610352</ele>
        <time>2014-02-01T15:19:51Z</time>
      </trkpt>
      <trkpt lat="43.37091" lon="6.1434">
        <ele>364</ele>
        <time>2014-02-01T15:19:52Z</time>
      </trkpt>
      <trkpt lat="43.37091" lon="6.1434">
        <ele>363.60000610352</ele>
        <time>2014-02-01T15:19:53Z</time>
      </trkpt>
      <trkpt lat="43.37091" lon="6.1434">
        <ele>363.60000610352</ele>
        <time>2014-02-01T15:19:57Z</time>
      </trkpt>
      <trkpt lat="43.37091" lon="6.1434">
        <ele>363.60000610352</ele>
        <time>2014-02-01T15:20:10Z</time>
      </trkpt>
      <trkpt lat="43.37091" lon="6.1434">
        <ele>363.60000610352</ele>
        <time>2014-02-01T15:20:23Z</time>
      </trkpt>
      <trkpt lat="43.37091" lon="6.14339">
        <ele>363.60000610352</ele>
        <time>2014-02-01T15:20:30Z</time>
      </trkpt>
      <trkpt lat="43.37089" lon="6.14323">
        <ele>363.20001220703</ele>
        <time>2014-02-01T15:20:35Z</time>
      </trkpt>
      <trkpt lat="43.37086" lon="6.14316">
        <ele>361.79998779297</ele>
        <time>2014-02-01T15:20:37Z</time>
      </trkpt>
      <trkpt lat="43.37084" lon="6.14309">
        <ele>361.39999389648</ele>
        <time>2014-02-01T15:20:39Z</time>
      </trkpt>
      <trkpt lat="43.37082" lon="6.14305">
        <ele>361.39999389648</ele>
        <time>2014-02-01T15:20:40Z</time>
      </trkpt>
      <trkpt lat="43.37074" lon="6.1428">
        <ele>361.39999389648</ele>
        <time>2014-02-01T15:20:45Z</time>
      </trkpt>
      <trkpt lat="43.37071" lon="6.14258">
        <ele>361</ele>
        <time>2014-02-01T15:20:49Z</time>
      </trkpt>
      <trkpt lat="43.3707" lon="6.14253">
        <ele>360.60000610352</ele>
        <time>2014-02-01T15:20:50Z</time>
      </trkpt>
      <trkpt lat="43.37069" lon="6.14247">
        <ele>360.20001220703</ele>
        <time>2014-02-01T15:20:51Z</time>
      </trkpt>
      <trkpt lat="43.37067" lon="6.14236">
        <ele>359.39999389648</ele>
        <time>2014-02-01T15:20:53Z</time>
      </trkpt>
      <trkpt lat="43.37066" lon="6.14231">
        <ele>359.39999389648</ele>
        <time>2014-02-01T15:20:54Z</time>
      </trkpt>
      <trkpt lat="43.37063" lon="6.14213">
        <ele>359.39999389648</ele>
        <time>2014-02-01T15:20:59Z</time>
      </trkpt>
      <trkpt lat="43.37061" lon="6.14207">
        <ele>359.39999389648</ele>
        <time>2014-02-01T15:21:01Z</time>
      </trkpt>
      <trkpt lat="43.37059" lon="6.14204">
        <ele>359.39999389648</ele>
        <time>2014-02-01T15:21:02Z</time>
      </trkpt>
      <trkpt lat="43.37053" lon="6.14195">
        <ele>359.39999389648</ele>
        <time>2014-02-01T15:21:05Z</time>
      </trkpt>
      <trkpt lat="43.3704" lon="6.14173">
        <ele>359.39999389648</ele>
        <time>2014-02-01T15:21:10Z</time>
      </trkpt>
      <trkpt lat="43.37034" lon="6.14162">
        <ele>359</ele>
        <time>2014-02-01T15:21:12Z</time>
      </trkpt>
      <trkpt lat="43.37032" lon="6.14156">
        <ele>358.60000610352</ele>
        <time>2014-02-01T15:21:13Z</time>
      </trkpt>
      <trkpt lat="43.37029" lon="6.1415">
        <ele>358</ele>
        <time>2014-02-01T15:21:14Z</time>
      </trkpt>
      <trkpt lat="43.37026" lon="6.14143">
        <ele>357.60000610352</ele>
        <time>2014-02-01T15:21:15Z</time>
      </trkpt>
      <trkpt lat="43.37023" lon="6.14137">
        <ele>357.20001220703</ele>
        <time>2014-02-01T15:21:16Z</time>
      </trkpt>
      <trkpt lat="43.37015" lon="6.14126">
        <ele>357.20001220703</ele>
        <time>2014-02-01T15:21:18Z</time>
      </trkpt>
      <trkpt lat="43.36999" lon="6.14107">
        <ele>356.79998779297</ele>
        <time>2014-02-01T15:21:22Z</time>
      </trkpt>
      <trkpt lat="43.36996" lon="6.14106">
        <ele>356.20001220703</ele>
        <time>2014-02-01T15:21:23Z</time>
      </trkpt>
      <trkpt lat="43.36993" lon="6.14105">
        <ele>355.79998779297</ele>
        <time>2014-02-01T15:21:24Z</time>
      </trkpt>
      <trkpt lat="43.36992" lon="6.14105">
        <ele>355.39999389648</ele>
        <time>2014-02-01T15:21:25Z</time>
      </trkpt>
      <trkpt lat="43.36989" lon="6.14104">
        <ele>355</ele>
        <time>2014-02-01T15:21:26Z</time>
      </trkpt>
      <trkpt lat="43.36979" lon="6.14101">
        <ele>355</ele>
        <time>2014-02-01T15:21:30Z</time>
      </trkpt>
      <trkpt lat="43.36967" lon="6.14102">
        <ele>355</ele>
        <time>2014-02-01T15:21:34Z</time>
      </trkpt>
      <trkpt lat="43.36951" lon="6.14108">
        <ele>355</ele>
        <time>2014-02-01T15:21:39Z</time>
      </trkpt>
      <trkpt lat="43.36941" lon="6.14116">
        <ele>355</ele>
        <time>2014-02-01T15:21:43Z</time>
      </trkpt>
      <trkpt lat="43.36936" lon="6.14118">
        <ele>355</ele>
        <time>2014-02-01T15:21:45Z</time>
      </trkpt>
      <trkpt lat="43.36931" lon="6.14117">
        <ele>355</ele>
        <time>2014-02-01T15:21:47Z</time>
      </trkpt>
      <trkpt lat="43.36924" lon="6.14113">
        <ele>355.39999389648</ele>
        <time>2014-02-01T15:21:50Z</time>
      </trkpt>
      <trkpt lat="43.36922" lon="6.14112">
        <ele>356.20001220703</ele>
        <time>2014-02-01T15:21:51Z</time>
      </trkpt>
      <trkpt lat="43.3692" lon="6.14111">
        <ele>356.60000610352</ele>
        <time>2014-02-01T15:21:52Z</time>
      </trkpt>
      <trkpt lat="43.36918" lon="6.14111">
        <ele>357</ele>
        <time>2014-02-01T15:21:53Z</time>
      </trkpt>
      <trkpt lat="43.36911" lon="6.14113">
        <ele>357</ele>
        <time>2014-02-01T15:21:56Z</time>
      </trkpt>
      <trkpt lat="43.369" lon="6.14121">
        <ele>357</ele>
        <time>2014-02-01T15:22:00Z</time>
      </trkpt>
      <trkpt lat="43.36888" lon="6.14115">
        <ele>357</ele>
        <time>2014-02-01T15:22:03Z</time>
      </trkpt>
      <trkpt lat="43.36881" lon="6.14095">
        <ele>356.20001220703</ele>
        <time>2014-02-01T15:22:06Z</time>
      </trkpt>
      <trkpt lat="43.36879" lon="6.14088">
        <ele>355.79998779297</ele>
        <time>2014-02-01T15:22:07Z</time>
      </trkpt>
      <trkpt lat="43.36877" lon="6.14081">
        <ele>355.39999389648</ele>
        <time>2014-02-01T15:22:08Z</time>
      </trkpt>
      <trkpt lat="43.36875" lon="6.14073">
        <ele>355</ele>
        <time>2014-02-01T15:22:09Z</time>
      </trkpt>
      <trkpt lat="43.36874" lon="6.14066">
        <ele>354.60000610352</ele>
        <time>2014-02-01T15:22:10Z</time>
      </trkpt>
      <trkpt lat="43.36872" lon="6.14058">
        <ele>354</ele>
        <time>2014-02-01T15:22:11Z</time>
      </trkpt>
      <trkpt lat="43.3687" lon="6.1405">
        <ele>353.60000610352</ele>
        <time>2014-02-01T15:22:12Z</time>
      </trkpt>
      <trkpt lat="43.36867" lon="6.14042">
        <ele>353.20001220703</ele>
        <time>2014-02-01T15:22:13Z</time>
      </trkpt>
      <trkpt lat="43.36864" lon="6.14034">
        <ele>352.79998779297</ele>
        <time>2014-02-01T15:22:14Z</time>
      </trkpt>
      <trkpt lat="43.36863" lon="6.14025">
        <ele>352.20001220703</ele>
        <time>2014-02-01T15:22:15Z</time>
      </trkpt>
      <trkpt lat="43.36861" lon="6.14002">
        <ele>349.20001220703</ele>
        <time>2014-02-01T15:22:18Z</time>
      </trkpt>
      <trkpt lat="43.36861" lon="6.13995">
        <ele>348.39999389648</ele>
        <time>2014-02-01T15:22:19Z</time>
      </trkpt>
      <trkpt lat="43.3686" lon="6.13989">
        <ele>347.79998779297</ele>
        <time>2014-02-01T15:22:20Z</time>
      </trkpt>
      <trkpt lat="43.36859" lon="6.13985">
        <ele>347.20001220703</ele>
        <time>2014-02-01T15:22:21Z</time>
      </trkpt>
      <trkpt lat="43.36855" lon="6.1398">
        <ele>346</ele>
        <time>2014-02-01T15:22:23Z</time>
      </trkpt>
      <trkpt lat="43.36848" lon="6.13974">
        <ele>345.39999389648</ele>
        <time>2014-02-01T15:22:25Z</time>
      </trkpt>
      <trkpt lat="43.36845" lon="6.13971">
        <ele>345</ele>
        <time>2014-02-01T15:22:26Z</time>
      </trkpt>
      <trkpt lat="43.36837" lon="6.13961">
        <ele>343.79998779297</ele>
        <time>2014-02-01T15:22:29Z</time>
      </trkpt>
      <trkpt lat="43.36835" lon="6.1396">
        <ele>343.79998779297</ele>
        <time>2014-02-01T15:22:30Z</time>
      </trkpt>
      <trkpt lat="43.36827" lon="6.13959">
        <ele>343.79998779297</ele>
        <time>2014-02-01T15:22:36Z</time>
      </trkpt>
      <trkpt lat="43.36824" lon="6.13969">
        <ele>343.79998779297</ele>
        <time>2014-02-01T15:22:40Z</time>
      </trkpt>
      <trkpt lat="43.36824" lon="6.13974">
        <ele>343.79998779297</ele>
        <time>2014-02-01T15:22:42Z</time>
      </trkpt>
      <trkpt lat="43.36822" lon="6.13979">
        <ele>343.79998779297</ele>
        <time>2014-02-01T15:22:45Z</time>
      </trkpt>
      <trkpt lat="43.36821" lon="6.1398">
        <ele>343.79998779297</ele>
        <time>2014-02-01T15:22:46Z</time>
      </trkpt>
      <trkpt lat="43.36811" lon="6.13982">
        <ele>345.79998779297</ele>
        <time>2014-02-01T15:22:51Z</time>
      </trkpt>
      <trkpt lat="43.36793" lon="6.13994">
        <ele>345.79998779297</ele>
        <time>2014-02-01T15:23:00Z</time>
      </trkpt>
      <trkpt lat="43.36782" lon="6.14002">
        <ele>346.20001220703</ele>
        <time>2014-02-01T15:23:06Z</time>
      </trkpt>
      <trkpt lat="43.36781" lon="6.14004">
        <ele>346.60000610352</ele>
        <time>2014-02-01T15:23:07Z</time>
      </trkpt>
      <trkpt lat="43.36778" lon="6.14007">
        <ele>347.39999389648</ele>
        <time>2014-02-01T15:23:09Z</time>
      </trkpt>
      <trkpt lat="43.36776" lon="6.14009">
        <ele>347.79998779297</ele>
        <time>2014-02-01T15:23:11Z</time>
      </trkpt>
      <trkpt lat="43.36771" lon="6.14013">
        <ele>348.60000610352</ele>
        <time>2014-02-01T15:23:15Z</time>
      </trkpt>
      <trkpt lat="43.36769" lon="6.14014">
        <ele>349</ele>
        <time>2014-02-01T15:23:16Z</time>
      </trkpt>
      <trkpt lat="43.36768" lon="6.14014">
        <ele>349.39999389648</ele>
        <time>2014-02-01T15:23:17Z</time>
      </trkpt>
      <trkpt lat="43.36767" lon="6.14015">
        <ele>349.79998779297</ele>
        <time>2014-02-01T15:23:18Z</time>
      </trkpt>
      <trkpt lat="43.36761" lon="6.14018">
        <ele>349.79998779297</ele>
        <time>2014-02-01T15:23:23Z</time>
      </trkpt>
      <trkpt lat="43.36749" lon="6.14018">
        <ele>351.20001220703</ele>
        <time>2014-02-01T15:23:30Z</time>
      </trkpt>
      <trkpt lat="43.36747" lon="6.14017">
        <ele>351.60000610352</ele>
        <time>2014-02-01T15:23:31Z</time>
      </trkpt>
      <trkpt lat="43.36745" lon="6.14016">
        <ele>352</ele>
        <time>2014-02-01T15:23:32Z</time>
      </trkpt>
      <trkpt lat="43.36741" lon="6.14013">
        <ele>352</ele>
        <time>2014-02-01T15:23:34Z</time>
      </trkpt>
      <trkpt lat="43.36728" lon="6.14005">
        <ele>352</ele>
        <time>2014-02-01T15:23:41Z</time>
      </trkpt>
      <trkpt lat="43.3672" lon="6.14005">
        <ele>352</ele>
        <time>2014-02-01T15:23:47Z</time>
      </trkpt>
      <trkpt lat="43.3672" lon="6.14005">
        <ele>352</ele>
        <time>2014-02-01T15:23:51Z</time>
      </trkpt>
      <trkpt lat="43.3672" lon="6.14005">
        <ele>352</ele>
        <time>2014-02-01T15:23:54Z</time>
      </trkpt>
      <trkpt lat="43.36718" lon="6.14005">
        <ele>352</ele>
        <time>2014-02-01T15:24:00Z</time>
      </trkpt>
      <trkpt lat="43.36709" lon="6.14014">
        <ele>352</ele>
        <time>2014-02-01T15:24:05Z</time>
      </trkpt>
      <trkpt lat="43.36698" lon="6.14031">
        <ele>352</ele>
        <time>2014-02-01T15:24:13Z</time>
      </trkpt>
      <trkpt lat="43.36696" lon="6.14033">
        <ele>352</ele>
        <time>2014-02-01T15:24:14Z</time>
      </trkpt>
      <trkpt lat="43.36682" lon="6.14046">
        <ele>352</ele>
        <time>2014-02-01T15:24:21Z</time>
      </trkpt>
      <trkpt lat="43.36673" lon="6.14063">
        <ele>352</ele>
        <time>2014-02-01T15:24:27Z</time>
      </trkpt>
      <trkpt lat="43.36667" lon="6.14085">
        <ele>352</ele>
        <time>2014-02-01T15:24:34Z</time>
      </trkpt>
      <trkpt lat="43.36665" lon="6.14096">
        <ele>352</ele>
        <time>2014-02-01T15:24:38Z</time>
      </trkpt>
      <trkpt lat="43.36665" lon="6.14104">
        <ele>352</ele>
        <time>2014-02-01T15:24:41Z</time>
      </trkpt>
      <trkpt lat="43.36665" lon="6.14127">
        <ele>352</ele>
        <time>2014-02-01T15:24:49Z</time>
      </trkpt>
      <trkpt lat="43.36665" lon="6.14136">
        <ele>352.79998779297</ele>
        <time>2014-02-01T15:24:52Z</time>
      </trkpt>
      <trkpt lat="43.36666" lon="6.14146">
        <ele>354</ele>
        <time>2014-02-01T15:24:55Z</time>
      </trkpt>
      <trkpt lat="43.36666" lon="6.1415">
        <ele>354</ele>
        <time>2014-02-01T15:24:57Z</time>
      </trkpt>
      <trkpt lat="43.36669" lon="6.14155">
        <ele>354</ele>
        <time>2014-02-01T15:24:59Z</time>
      </trkpt>
      <trkpt lat="43.36671" lon="6.14167">
        <ele>354</ele>
        <time>2014-02-01T15:25:04Z</time>
      </trkpt>
      <trkpt lat="43.36674" lon="6.14181">
        <ele>356.39999389648</ele>
        <time>2014-02-01T15:25:11Z</time>
      </trkpt>
      <trkpt lat="43.36677" lon="6.14196">
        <ele>356.39999389648</ele>
        <time>2014-02-01T15:25:18Z</time>
      </trkpt>
      <trkpt lat="43.36677" lon="6.14206">
        <ele>356.79998779297</ele>
        <time>2014-02-01T15:25:24Z</time>
      </trkpt>
      <trkpt lat="43.36677" lon="6.14206">
        <ele>357.20001220703</ele>
        <time>2014-02-01T15:25:25Z</time>
      </trkpt>
      <trkpt lat="43.36677" lon="6.14206">
        <ele>358.39999389648</ele>
        <time>2014-02-01T15:25:39Z</time>
      </trkpt>
      <trkpt lat="43.36676" lon="6.14206">
        <ele>358.39999389648</ele>
        <time>2014-02-01T15:25:44Z</time>
      </trkpt>
      <trkpt lat="43.36676" lon="6.14208">
        <ele>358.39999389648</ele>
        <time>2014-02-01T15:25:48Z</time>
      </trkpt>
      <trkpt lat="43.36677" lon="6.14213">
        <ele>358.39999389648</ele>
        <time>2014-02-01T15:25:51Z</time>
      </trkpt>
      <trkpt lat="43.36678" lon="6.14218">
        <ele>358.39999389648</ele>
        <time>2014-02-01T15:25:53Z</time>
      </trkpt>
      <trkpt lat="43.36679" lon="6.14228">
        <ele>358.39999389648</ele>
        <time>2014-02-01T15:25:56Z</time>
      </trkpt>
      <trkpt lat="43.36681" lon="6.14249">
        <ele>358.39999389648</ele>
        <time>2014-02-01T15:26:03Z</time>
      </trkpt>
      <trkpt lat="43.3668" lon="6.14267">
        <ele>358.39999389648</ele>
        <time>2014-02-01T15:26:09Z</time>
      </trkpt>
      <trkpt lat="43.3668" lon="6.14284">
        <ele>358.39999389648</ele>
        <time>2014-02-01T15:26:15Z</time>
      </trkpt>
      <trkpt lat="43.36679" lon="6.14292">
        <ele>359.60000610352</ele>
        <time>2014-02-01T15:26:18Z</time>
      </trkpt>
      <trkpt lat="43.36679" lon="6.14305">
        <ele>360.60000610352</ele>
        <time>2014-02-01T15:26:23Z</time>
      </trkpt>
      <trkpt lat="43.36672" lon="6.1433">
        <ele>360.60000610352</ele>
        <time>2014-02-01T15:26:31Z</time>
      </trkpt>
      <trkpt lat="43.36665" lon="6.14349">
        <ele>360.60000610352</ele>
        <time>2014-02-01T15:26:38Z</time>
      </trkpt>
      <trkpt lat="43.36655" lon="6.14367">
        <ele>362.60000610352</ele>
        <time>2014-02-01T15:26:46Z</time>
      </trkpt>
      <trkpt lat="43.36648" lon="6.14378">
        <ele>362.60000610352</ele>
        <time>2014-02-01T15:26:51Z</time>
      </trkpt>
      <trkpt lat="43.36637" lon="6.1439">
        <ele>362.60000610352</ele>
        <time>2014-02-01T15:26:58Z</time>
      </trkpt>
      <trkpt lat="43.36627" lon="6.14401">
        <ele>363.79998779297</ele>
        <time>2014-02-01T15:27:05Z</time>
      </trkpt>
      <trkpt lat="43.36626" lon="6.14403">
        <ele>364.20001220703</ele>
        <time>2014-02-01T15:27:06Z</time>
      </trkpt>
      <trkpt lat="43.36617" lon="6.14417">
        <ele>364.60000610352</ele>
        <time>2014-02-01T15:27:14Z</time>
      </trkpt>
      <trkpt lat="43.3661" lon="6.14428">
        <ele>364.60000610352</ele>
        <time>2014-02-01T15:27:20Z</time>
      </trkpt>
      <trkpt lat="43.36605" lon="6.1444">
        <ele>366.39999389648</ele>
        <time>2014-02-01T15:27:26Z</time>
      </trkpt>
      <trkpt lat="43.36598" lon="6.14459">
        <ele>366.79998779297</ele>
        <time>2014-02-01T15:27:37Z</time>
      </trkpt>
      <trkpt lat="43.36588" lon="6.14461">
        <ele>366.79998779297</ele>
        <time>2014-02-01T15:27:42Z</time>
      </trkpt>
      <trkpt lat="43.36586" lon="6.14459">
        <ele>366.79998779297</ele>
        <time>2014-02-01T15:27:43Z</time>
      </trkpt>
      <trkpt lat="43.36584" lon="6.14452">
        <ele>366.79998779297</ele>
        <time>2014-02-01T15:27:46Z</time>
      </trkpt>
      <trkpt lat="43.36583" lon="6.14447">
        <ele>366.79998779297</ele>
        <time>2014-02-01T15:27:48Z</time>
      </trkpt>
      <trkpt lat="43.36583" lon="6.14434">
        <ele>366.79998779297</ele>
        <time>2014-02-01T15:27:54Z</time>
      </trkpt>
      <trkpt lat="43.36583" lon="6.1443">
        <ele>366.79998779297</ele>
        <time>2014-02-01T15:27:56Z</time>
      </trkpt>
      <trkpt lat="43.36582" lon="6.14426">
        <ele>367.20001220703</ele>
        <time>2014-02-01T15:27:58Z</time>
      </trkpt>
      <trkpt lat="43.36581" lon="6.1442">
        <ele>368.39999389648</ele>
        <time>2014-02-01T15:28:01Z</time>
      </trkpt>
      <trkpt lat="43.36578" lon="6.14402">
        <ele>368.79998779297</ele>
        <time>2014-02-01T15:28:10Z</time>
      </trkpt>
      <trkpt lat="43.36574" lon="6.14396">
        <ele>370.20001220703</ele>
        <time>2014-02-01T15:28:13Z</time>
      </trkpt>
      <trkpt lat="43.3657" lon="6.14392">
        <ele>371</ele>
        <time>2014-02-01T15:28:16Z</time>
      </trkpt>
      <trkpt lat="43.36567" lon="6.14391">
        <ele>371</ele>
        <time>2014-02-01T15:28:18Z</time>
      </trkpt>
      <trkpt lat="43.36564" lon="6.1439">
        <ele>372</ele>
        <time>2014-02-01T15:28:20Z</time>
      </trkpt>
      <trkpt lat="43.36557" lon="6.14387">
        <ele>373.39999389648</ele>
        <time>2014-02-01T15:28:27Z</time>
      </trkpt>
      <trkpt lat="43.36553" lon="6.14387">
        <ele>374.60000610352</ele>
        <time>2014-02-01T15:28:30Z</time>
      </trkpt>
      <trkpt lat="43.36547" lon="6.14385">
        <ele>375.39999389648</ele>
        <time>2014-02-01T15:28:36Z</time>
      </trkpt>
      <trkpt lat="43.36544" lon="6.14383">
        <ele>375.39999389648</ele>
        <time>2014-02-01T15:28:38Z</time>
      </trkpt>
      <trkpt lat="43.3654" lon="6.14381">
        <ele>376.20001220703</ele>
        <time>2014-02-01T15:28:42Z</time>
      </trkpt>
      <trkpt lat="43.36539" lon="6.14381">
        <ele>376.79998779297</ele>
        <time>2014-02-01T15:28:43Z</time>
      </trkpt>
      <trkpt lat="43.36538" lon="6.1438">
        <ele>377.20001220703</ele>
        <time>2014-02-01T15:28:44Z</time>
      </trkpt>
      <trkpt lat="43.36536" lon="6.1438">
        <ele>377.60000610352</ele>
        <time>2014-02-01T15:28:46Z</time>
      </trkpt>
      <trkpt lat="43.36534" lon="6.14378">
        <ele>377.60000610352</ele>
        <time>2014-02-01T15:28:49Z</time>
      </trkpt>
      <trkpt lat="43.36531" lon="6.14375">
        <ele>378.39999389648</ele>
        <time>2014-02-01T15:28:53Z</time>
      </trkpt>
      <trkpt lat="43.36529" lon="6.14372">
        <ele>379.60000610352</ele>
        <time>2014-02-01T15:28:57Z</time>
      </trkpt>
      <trkpt lat="43.36527" lon="6.14369">
        <ele>379.60000610352</ele>
        <time>2014-02-01T15:29:00Z</time>
      </trkpt>
      <trkpt lat="43.36526" lon="6.14367">
        <ele>379.60000610352</ele>
        <time>2014-02-01T15:29:04Z</time>
      </trkpt>
      <trkpt lat="43.36526" lon="6.14367">
        <ele>379.60000610352</ele>
        <time>2014-02-01T15:29:24Z</time>
      </trkpt>
      <trkpt lat="43.36526" lon="6.14367">
        <ele>379.60000610352</ele>
        <time>2014-02-01T15:29:40Z</time>
      </trkpt>
      <trkpt lat="43.36526" lon="6.14367">
        <ele>379.60000610352</ele>
        <time>2014-02-01T15:29:43Z</time>
      </trkpt>
      <trkpt lat="43.36526" lon="6.14367">
        <ele>379.60000610352</ele>
        <time>2014-02-01T15:30:00Z</time>
      </trkpt>
      <trkpt lat="43.36526" lon="6.14367">
        <ele>379.60000610352</ele>
        <time>2014-02-01T15:30:29Z</time>
      </trkpt>
      <trkpt lat="43.36526" lon="6.14367">
        <ele>379.60000610352</ele>
        <time>2014-02-01T15:30:43Z</time>
      </trkpt>
      <trkpt lat="43.36526" lon="6.14365">
        <ele>379.60000610352</ele>
        <time>2014-02-01T15:30:46Z</time>
      </trkpt>
      <trkpt lat="43.36522" lon="6.14351">
        <ele>379.60000610352</ele>
        <time>2014-02-01T15:30:52Z</time>
      </trkpt>
      <trkpt lat="43.36522" lon="6.14348">
        <ele>379.60000610352</ele>
        <time>2014-02-01T15:30:53Z</time>
      </trkpt>
      <trkpt lat="43.36525" lon="6.14328">
        <ele>379.60000610352</ele>
        <time>2014-02-01T15:30:58Z</time>
      </trkpt>
      <trkpt lat="43.36525" lon="6.14322">
        <ele>379.60000610352</ele>
        <time>2014-02-01T15:30:59Z</time>
      </trkpt>
      <trkpt lat="43.36526" lon="6.14314">
        <ele>379.60000610352</ele>
        <time>2014-02-01T15:31:01Z</time>
      </trkpt>
      <trkpt lat="43.3653" lon="6.14307">
        <ele>379.60000610352</ele>
        <time>2014-02-01T15:31:03Z</time>
      </trkpt>
      <trkpt lat="43.36531" lon="6.14299">
        <ele>379.60000610352</ele>
        <time>2014-02-01T15:31:05Z</time>
      </trkpt>
      <trkpt lat="43.36533" lon="6.14288">
        <ele>379.60000610352</ele>
        <time>2014-02-01T15:31:07Z</time>
      </trkpt>
      <trkpt lat="43.3654" lon="6.14245">
        <ele>379.60000610352</ele>
        <time>2014-02-01T15:31:15Z</time>
      </trkpt>
      <trkpt lat="43.36542" lon="6.14231">
        <ele>378.79998779297</ele>
        <time>2014-02-01T15:31:17Z</time>
      </trkpt>
      <trkpt lat="43.36544" lon="6.14213">
        <ele>377.60000610352</ele>
        <time>2014-02-01T15:31:20Z</time>
      </trkpt>
      <trkpt lat="43.36546" lon="6.14194">
        <ele>377.60000610352</ele>
        <time>2014-02-01T15:31:23Z</time>
      </trkpt>
      <trkpt lat="43.36546" lon="6.14189">
        <ele>377.20001220703</ele>
        <time>2014-02-01T15:31:24Z</time>
      </trkpt>
      <trkpt lat="43.36541" lon="6.14164">
        <ele>375.39999389648</ele>
        <time>2014-02-01T15:31:28Z</time>
      </trkpt>
      <trkpt lat="43.36532" lon="6.14117">
        <ele>375.39999389648</ele>
        <time>2014-02-01T15:31:36Z</time>
      </trkpt>
      <trkpt lat="43.36529" lon="6.14105">
        <ele>374.39999389648</ele>
        <time>2014-02-01T15:31:38Z</time>
      </trkpt>
      <trkpt lat="43.36525" lon="6.14087">
        <ele>373</ele>
        <time>2014-02-01T15:31:41Z</time>
      </trkpt>
      <trkpt lat="43.36528" lon="6.14051">
        <ele>370.60000610352</ele>
        <time>2014-02-01T15:31:47Z</time>
      </trkpt>
      <trkpt lat="43.36528" lon="6.14039">
        <ele>369.79998779297</ele>
        <time>2014-02-01T15:31:49Z</time>
      </trkpt>
      <trkpt lat="43.36528" lon="6.14026">
        <ele>368.79998779297</ele>
        <time>2014-02-01T15:31:51Z</time>
      </trkpt>
      <trkpt lat="43.36531" lon="6.13993">
        <ele>368.39999389648</ele>
        <time>2014-02-01T15:31:56Z</time>
      </trkpt>
      <trkpt lat="43.36526" lon="6.13965">
        <ele>368.39999389648</ele>
        <time>2014-02-01T15:32:00Z</time>
      </trkpt>
      <trkpt lat="43.36525" lon="6.13942">
        <ele>368.39999389648</ele>
        <time>2014-02-01T15:32:03Z</time>
      </trkpt>
      <trkpt lat="43.36525" lon="6.1392">
        <ele>367.60000610352</ele>
        <time>2014-02-01T15:32:06Z</time>
      </trkpt>
      <trkpt lat="43.36527" lon="6.13903">
        <ele>366.60000610352</ele>
        <time>2014-02-01T15:32:08Z</time>
      </trkpt>
      <trkpt lat="43.36533" lon="6.1387">
        <ele>365.79998779297</ele>
        <time>2014-02-01T15:32:12Z</time>
      </trkpt>
      <trkpt lat="43.36534" lon="6.13843">
        <ele>364.39999389648</ele>
        <time>2014-02-01T15:32:15Z</time>
      </trkpt>
      <trkpt lat="43.36535" lon="6.13834">
        <ele>363.79998779297</ele>
        <time>2014-02-01T15:32:16Z</time>
      </trkpt>
      <trkpt lat="43.36547" lon="6.13758">
        <ele>361.60000610352</ele>
        <time>2014-02-01T15:32:24Z</time>
      </trkpt>
      <trkpt lat="43.36553" lon="6.13715">
        <ele>360</ele>
        <time>2014-02-01T15:32:28Z</time>
      </trkpt>
      <trkpt lat="43.36555" lon="6.13704">
        <ele>359.39999389648</ele>
        <time>2014-02-01T15:32:29Z</time>
      </trkpt>
      <trkpt lat="43.36559" lon="6.13682">
        <ele>358.39999389648</ele>
        <time>2014-02-01T15:32:31Z</time>
      </trkpt>
      <trkpt lat="43.36561" lon="6.1367">
        <ele>357.79998779297</ele>
        <time>2014-02-01T15:32:32Z</time>
      </trkpt>
      <trkpt lat="43.36563" lon="6.13657">
        <ele>356.60000610352</ele>
        <time>2014-02-01T15:32:33Z</time>
      </trkpt>
      <trkpt lat="43.36565" lon="6.13645">
        <ele>356.20001220703</ele>
        <time>2014-02-01T15:32:34Z</time>
      </trkpt>
      <trkpt lat="43.36567" lon="6.13633">
        <ele>355.39999389648</ele>
        <time>2014-02-01T15:32:35Z</time>
      </trkpt>
      <trkpt lat="43.36569" lon="6.13621">
        <ele>354.79998779297</ele>
        <time>2014-02-01T15:32:36Z</time>
      </trkpt>
      <trkpt lat="43.36572" lon="6.13609">
        <ele>354</ele>
        <time>2014-02-01T15:32:37Z</time>
      </trkpt>
      <trkpt lat="43.36576" lon="6.13598">
        <ele>353.20001220703</ele>
        <time>2014-02-01T15:32:38Z</time>
      </trkpt>
      <trkpt lat="43.36585" lon="6.13565">
        <ele>351.60000610352</ele>
        <time>2014-02-01T15:32:41Z</time>
      </trkpt>
      <trkpt lat="43.36587" lon="6.13556">
        <ele>351.20001220703</ele>
        <time>2014-02-01T15:32:42Z</time>
      </trkpt>
      <trkpt lat="43.36588" lon="6.13549">
        <ele>350.79998779297</ele>
        <time>2014-02-01T15:32:43Z</time>
      </trkpt>
      <trkpt lat="43.36589" lon="6.13544">
        <ele>350.20001220703</ele>
        <time>2014-02-01T15:32:44Z</time>
      </trkpt>
      <trkpt lat="43.36587" lon="6.13528">
        <ele>348.60000610352</ele>
        <time>2014-02-01T15:32:47Z</time>
      </trkpt>
      <trkpt lat="43.36588" lon="6.13522">
        <ele>348</ele>
        <time>2014-02-01T15:32:48Z</time>
      </trkpt>
      <trkpt lat="43.36588" lon="6.13503">
        <ele>347.20001220703</ele>
        <time>2014-02-01T15:32:51Z</time>
      </trkpt>
      <trkpt lat="43.36588" lon="6.13486">
        <ele>345.79998779297</ele>
        <time>2014-02-01T15:32:54Z</time>
      </trkpt>
      <trkpt lat="43.36586" lon="6.13468">
        <ele>345.39999389648</ele>
        <time>2014-02-01T15:32:57Z</time>
      </trkpt>
      <trkpt lat="43.36586" lon="6.13463">
        <ele>344.60000610352</ele>
        <time>2014-02-01T15:32:58Z</time>
      </trkpt>
      <trkpt lat="43.36585" lon="6.1346">
        <ele>344</ele>
        <time>2014-02-01T15:32:59Z</time>
      </trkpt>
      <trkpt lat="43.36585" lon="6.13458">
        <ele>343.60000610352</ele>
        <time>2014-02-01T15:33:00Z</time>
      </trkpt>
      <trkpt lat="43.36585" lon="6.13455">
        <ele>343</ele>
        <time>2014-02-01T15:33:01Z</time>
      </trkpt>
      <trkpt lat="43.36585" lon="6.13454">
        <ele>342.60000610352</ele>
        <time>2014-02-01T15:33:02Z</time>
      </trkpt>
      <trkpt lat="43.36584" lon="6.13452">
        <ele>342</ele>
        <time>2014-02-01T15:33:03Z</time>
      </trkpt>
      <trkpt lat="43.36584" lon="6.13452">
        <ele>341.39999389648</ele>
        <time>2014-02-01T15:33:04Z</time>
      </trkpt>
      <trkpt lat="43.36581" lon="6.13445">
        <ele>341.39999389648</ele>
        <time>2014-02-01T15:33:09Z</time>
      </trkpt>
      <trkpt lat="43.36578" lon="6.13432">
        <ele>341</ele>
        <time>2014-02-01T15:33:12Z</time>
      </trkpt>
      <trkpt lat="43.36574" lon="6.13422">
        <ele>340.20001220703</ele>
        <time>2014-02-01T15:33:14Z</time>
      </trkpt>
      <trkpt lat="43.36572" lon="6.13416">
        <ele>339.60000610352</ele>
        <time>2014-02-01T15:33:15Z</time>
      </trkpt>
      <trkpt lat="43.36566" lon="6.13405">
        <ele>339.20001220703</ele>
        <time>2014-02-01T15:33:17Z</time>
      </trkpt>
      <trkpt lat="43.36563" lon="6.13395">
        <ele>338.79998779297</ele>
        <time>2014-02-01T15:33:19Z</time>
      </trkpt>
      <trkpt lat="43.36562" lon="6.13391">
        <ele>338.20001220703</ele>
        <time>2014-02-01T15:33:20Z</time>
      </trkpt>
      <trkpt lat="43.3656" lon="6.13381">
        <ele>337.39999389648</ele>
        <time>2014-02-01T15:33:22Z</time>
      </trkpt>
      <trkpt lat="43.3656" lon="6.13365">
        <ele>337</ele>
        <time>2014-02-01T15:33:26Z</time>
      </trkpt>
      <trkpt lat="43.36557" lon="6.13345">
        <ele>336.39999389648</ele>
        <time>2014-02-01T15:33:30Z</time>
      </trkpt>
      <trkpt lat="43.36561" lon="6.13331">
        <ele>335.20001220703</ele>
        <time>2014-02-01T15:33:33Z</time>
      </trkpt>
      <trkpt lat="43.36562" lon="6.13326">
        <ele>334.79998779297</ele>
        <time>2014-02-01T15:33:34Z</time>
      </trkpt>
      <trkpt lat="43.36563" lon="6.13309">
        <ele>334.79998779297</ele>
        <time>2014-02-01T15:33:38Z</time>
      </trkpt>
      <trkpt lat="43.36564" lon="6.13299">
        <ele>334.79998779297</ele>
        <time>2014-02-01T15:33:41Z</time>
      </trkpt>
      <trkpt lat="43.36562" lon="6.13291">
        <ele>334.79998779297</ele>
        <time>2014-02-01T15:33:43Z</time>
      </trkpt>
      <trkpt lat="43.36562" lon="6.13279">
        <ele>334.79998779297</ele>
        <time>2014-02-01T15:33:46Z</time>
      </trkpt>
      <trkpt lat="43.36562" lon="6.13276">
        <ele>334.39999389648</ele>
        <time>2014-02-01T15:33:47Z</time>
      </trkpt>
      <trkpt lat="43.36562" lon="6.13273">
        <ele>334</ele>
        <time>2014-02-01T15:33:48Z</time>
      </trkpt>
      <trkpt lat="43.36562" lon="6.1327">
        <ele>333.60000610352</ele>
        <time>2014-02-01T15:33:49Z</time>
      </trkpt>
      <trkpt lat="43.36562" lon="6.13264">
        <ele>332.79998779297</ele>
        <time>2014-02-01T15:33:51Z</time>
      </trkpt>
      <trkpt lat="43.36562" lon="6.13261">
        <ele>332.79998779297</ele>
        <time>2014-02-01T15:33:54Z</time>
      </trkpt>
      <trkpt lat="43.36562" lon="6.13257">
        <ele>332.79998779297</ele>
        <time>2014-02-01T15:33:59Z</time>
      </trkpt>
      <trkpt lat="43.36563" lon="6.13236">
        <ele>332.79998779297</ele>
        <time>2014-02-01T15:34:04Z</time>
      </trkpt>
      <trkpt lat="43.36566" lon="6.13204">
        <ele>332.79998779297</ele>
        <time>2014-02-01T15:34:10Z</time>
      </trkpt>
      <trkpt lat="43.36565" lon="6.13192">
        <ele>331.39999389648</ele>
        <time>2014-02-01T15:34:13Z</time>
      </trkpt>
      <trkpt lat="43.36563" lon="6.13166">
        <ele>330</ele>
        <time>2014-02-01T15:34:19Z</time>
      </trkpt>
      <trkpt lat="43.36563" lon="6.13154">
        <ele>329.20001220703</ele>
        <time>2014-02-01T15:34:21Z</time>
      </trkpt>
      <trkpt lat="43.36562" lon="6.13141">
        <ele>328.39999389648</ele>
        <time>2014-02-01T15:34:23Z</time>
      </trkpt>
      <trkpt lat="43.36561" lon="6.13134">
        <ele>328.39999389648</ele>
        <time>2014-02-01T15:34:24Z</time>
      </trkpt>
      <trkpt lat="43.36559" lon="6.13105">
        <ele>328</ele>
        <time>2014-02-01T15:34:28Z</time>
      </trkpt>
      <trkpt lat="43.3656" lon="6.13098">
        <ele>327.60000610352</ele>
        <time>2014-02-01T15:34:29Z</time>
      </trkpt>
      <trkpt lat="43.36561" lon="6.13084">
        <ele>326.79998779297</ele>
        <time>2014-02-01T15:34:31Z</time>
      </trkpt>
      <trkpt lat="43.36562" lon="6.13078">
        <ele>326.20001220703</ele>
        <time>2014-02-01T15:34:32Z</time>
      </trkpt>
      <trkpt lat="43.36564" lon="6.13076">
        <ele>326.20001220703</ele>
        <time>2014-02-01T15:34:33Z</time>
      </trkpt>
      <trkpt lat="43.36568" lon="6.1307">
        <ele>326.20001220703</ele>
        <time>2014-02-01T15:34:35Z</time>
      </trkpt>
      <trkpt lat="43.36572" lon="6.13061">
        <ele>326.20001220703</ele>
        <time>2014-02-01T15:34:37Z</time>
      </trkpt>
      <trkpt lat="43.36572" lon="6.13056">
        <ele>326.20001220703</ele>
        <time>2014-02-01T15:34:38Z</time>
      </trkpt>
      <trkpt lat="43.36573" lon="6.13051">
        <ele>326.20001220703</ele>
        <time>2014-02-01T15:34:39Z</time>
      </trkpt>
      <trkpt lat="43.36572" lon="6.13047">
        <ele>325.79998779297</ele>
        <time>2014-02-01T15:34:40Z</time>
      </trkpt>
      <trkpt lat="43.36572" lon="6.13042">
        <ele>325.39999389648</ele>
        <time>2014-02-01T15:34:41Z</time>
      </trkpt>
      <trkpt lat="43.36572" lon="6.13038">
        <ele>325</ele>
        <time>2014-02-01T15:34:42Z</time>
      </trkpt>
      <trkpt lat="43.36572" lon="6.13031">
        <ele>324.20001220703</ele>
        <time>2014-02-01T15:34:44Z</time>
      </trkpt>
      <trkpt lat="43.36577" lon="6.13023">
        <ele>324.20001220703</ele>
        <time>2014-02-01T15:34:47Z</time>
      </trkpt>
      <trkpt lat="43.36584" lon="6.13011">
        <ele>324.20001220703</ele>
        <time>2014-02-01T15:34:51Z</time>
      </trkpt>
      <trkpt lat="43.36591" lon="6.13001">
        <ele>322.79998779297</ele>
        <time>2014-02-01T15:34:54Z</time>
      </trkpt>
      <trkpt lat="43.36596" lon="6.12992">
        <ele>322</ele>
        <time>2014-02-01T15:34:56Z</time>
      </trkpt>
      <trkpt lat="43.36602" lon="6.12966">
        <ele>322</ele>
        <time>2014-02-01T15:35:01Z</time>
      </trkpt>
      <trkpt lat="43.36609" lon="6.12943">
        <ele>322</ele>
        <time>2014-02-01T15:35:05Z</time>
      </trkpt>
      <trkpt lat="43.3662" lon="6.1291">
        <ele>322</ele>
        <time>2014-02-01T15:35:11Z</time>
      </trkpt>
      <trkpt lat="43.36625" lon="6.12881">
        <ele>322</ele>
        <time>2014-02-01T15:35:17Z</time>
      </trkpt>
      <trkpt lat="43.36628" lon="6.12872">
        <ele>321.20001220703</ele>
        <time>2014-02-01T15:35:20Z</time>
      </trkpt>
      <trkpt lat="43.3663" lon="6.12867">
        <ele>320.39999389648</ele>
        <time>2014-02-01T15:35:22Z</time>
      </trkpt>
      <trkpt lat="43.36631" lon="6.12865">
        <ele>320</ele>
        <time>2014-02-01T15:35:23Z</time>
      </trkpt>
      <trkpt lat="43.36633" lon="6.12861">
        <ele>320</ele>
        <time>2014-02-01T15:35:25Z</time>
      </trkpt>
      <trkpt lat="43.36636" lon="6.12856">
        <ele>320</ele>
        <time>2014-02-01T15:35:27Z</time>
      </trkpt>
      <trkpt lat="43.36638" lon="6.12853">
        <ele>320</ele>
        <time>2014-02-01T15:35:29Z</time>
      </trkpt>
      <trkpt lat="43.36642" lon="6.12847">
        <ele>319.60000610352</ele>
        <time>2014-02-01T15:35:32Z</time>
      </trkpt>
      <trkpt lat="43.36644" lon="6.12845">
        <ele>319.20001220703</ele>
        <time>2014-02-01T15:35:33Z</time>
      </trkpt>
      <trkpt lat="43.36647" lon="6.12841">
        <ele>318.20001220703</ele>
        <time>2014-02-01T15:35:35Z</time>
      </trkpt>
      <trkpt lat="43.36648" lon="6.1284">
        <ele>317.79998779297</ele>
        <time>2014-02-01T15:35:36Z</time>
      </trkpt>
      <trkpt lat="43.36656" lon="6.12836">
        <ele>317.79998779297</ele>
        <time>2014-02-01T15:35:40Z</time>
      </trkpt>
      <trkpt lat="43.36658" lon="6.12835">
        <ele>317.79998779297</ele>
        <time>2014-02-01T15:35:41Z</time>
      </trkpt>
      <trkpt lat="43.36659" lon="6.12834">
        <ele>317.79998779297</ele>
        <time>2014-02-01T15:35:46Z</time>
      </trkpt>
      <trkpt lat="43.36659" lon="6.12834">
        <ele>317.79998779297</ele>
        <time>2014-02-01T15:35:57Z</time>
      </trkpt>
      <trkpt lat="43.36659" lon="6.12834">
        <ele>317.79998779297</ele>
        <time>2014-02-01T15:36:10Z</time>
      </trkpt>
      <trkpt lat="43.36659" lon="6.12833">
        <ele>317.79998779297</ele>
        <time>2014-02-01T15:36:15Z</time>
      </trkpt>
      <trkpt lat="43.36661" lon="6.12831">
        <ele>317.79998779297</ele>
        <time>2014-02-01T15:36:16Z</time>
      </trkpt>
      <trkpt lat="43.36662" lon="6.12829">
        <ele>317.79998779297</ele>
        <time>2014-02-01T15:36:17Z</time>
      </trkpt>
      <trkpt lat="43.36663" lon="6.1282">
        <ele>317.79998779297</ele>
        <time>2014-02-01T15:36:22Z</time>
      </trkpt>
      <trkpt lat="43.36666" lon="6.12806">
        <ele>317.39999389648</ele>
        <time>2014-02-01T15:36:27Z</time>
      </trkpt>
      <trkpt lat="43.36668" lon="6.12804">
        <ele>317</ele>
        <time>2014-02-01T15:36:28Z</time>
      </trkpt>
      <trkpt lat="43.36671" lon="6.12798">
        <ele>315.60000610352</ele>
        <time>2014-02-01T15:36:31Z</time>
      </trkpt>
      <trkpt lat="43.36679" lon="6.12782">
        <ele>315.60000610352</ele>
        <time>2014-02-01T15:36:37Z</time>
      </trkpt>
      <trkpt lat="43.36681" lon="6.1277">
        <ele>315.60000610352</ele>
        <time>2014-02-01T15:36:41Z</time>
      </trkpt>
      <trkpt lat="43.36688" lon="6.12747">
        <ele>315.60000610352</ele>
        <time>2014-02-01T15:36:47Z</time>
      </trkpt>
      <trkpt lat="43.36697" lon="6.12721">
        <ele>315.60000610352</ele>
        <time>2014-02-01T15:36:53Z</time>
      </trkpt>
      <trkpt lat="43.36701" lon="6.12709">
        <ele>314.79998779297</ele>
        <time>2014-02-01T15:36:56Z</time>
      </trkpt>
      <trkpt lat="43.36703" lon="6.127">
        <ele>314</ele>
        <time>2014-02-01T15:36:58Z</time>
      </trkpt>
      <trkpt lat="43.36705" lon="6.12695">
        <ele>313.60000610352</ele>
        <time>2014-02-01T15:36:59Z</time>
      </trkpt>
      <trkpt lat="43.36709" lon="6.12684">
        <ele>313.60000610352</ele>
        <time>2014-02-01T15:37:02Z</time>
      </trkpt>
      <trkpt lat="43.36712" lon="6.12654">
        <ele>313.60000610352</ele>
        <time>2014-02-01T15:37:10Z</time>
      </trkpt>
      <trkpt lat="43.36712" lon="6.12645">
        <ele>313.60000610352</ele>
        <time>2014-02-01T15:37:13Z</time>
      </trkpt>
      <trkpt lat="43.36713" lon="6.12639">
        <ele>313.60000610352</ele>
        <time>2014-02-01T15:37:15Z</time>
      </trkpt>
      <trkpt lat="43.36714" lon="6.12631">
        <ele>312.79998779297</ele>
        <time>2014-02-01T15:37:17Z</time>
      </trkpt>
      <trkpt lat="43.36718" lon="6.12616">
        <ele>311.60000610352</ele>
        <time>2014-02-01T15:37:20Z</time>
      </trkpt>
      <trkpt lat="43.36729" lon="6.12601">
        <ele>311.60000610352</ele>
        <time>2014-02-01T15:37:24Z</time>
      </trkpt>
      <trkpt lat="43.3674" lon="6.12576">
        <ele>311.60000610352</ele>
        <time>2014-02-01T15:37:29Z</time>
      </trkpt>
      <trkpt lat="43.36745" lon="6.12569">
        <ele>310.79998779297</ele>
        <time>2014-02-01T15:37:31Z</time>
      </trkpt>
      <trkpt lat="43.36748" lon="6.12566">
        <ele>310.39999389648</ele>
        <time>2014-02-01T15:37:32Z</time>
      </trkpt>
      <trkpt lat="43.36756" lon="6.12559">
        <ele>309.60000610352</ele>
        <time>2014-02-01T15:37:34Z</time>
      </trkpt>
      <trkpt lat="43.36766" lon="6.12548">
        <ele>309.60000610352</ele>
        <time>2014-02-01T15:37:37Z</time>
      </trkpt>
      <trkpt lat="43.3677" lon="6.12545">
        <ele>309.60000610352</ele>
        <time>2014-02-01T15:37:38Z</time>
      </trkpt>
      <trkpt lat="43.3678" lon="6.12535">
        <ele>309.60000610352</ele>
        <time>2014-02-01T15:37:41Z</time>
      </trkpt>
      <trkpt lat="43.36785" lon="6.12527">
        <ele>309.60000610352</ele>
        <time>2014-02-01T15:37:43Z</time>
      </trkpt>
      <trkpt lat="43.36792" lon="6.12517">
        <ele>309.60000610352</ele>
        <time>2014-02-01T15:37:47Z</time>
      </trkpt>
      <trkpt lat="43.36793" lon="6.12517">
        <ele>309.60000610352</ele>
        <time>2014-02-01T15:37:51Z</time>
      </trkpt>
      <trkpt lat="43.36795" lon="6.12517">
        <ele>309.60000610352</ele>
        <time>2014-02-01T15:37:59Z</time>
      </trkpt>
      <trkpt lat="43.368" lon="6.12518">
        <ele>309.60000610352</ele>
        <time>2014-02-01T15:38:02Z</time>
      </trkpt>
      <trkpt lat="43.36803" lon="6.12517">
        <ele>309.60000610352</ele>
        <time>2014-02-01T15:38:03Z</time>
      </trkpt>
      <trkpt lat="43.3682" lon="6.12516">
        <ele>309.60000610352</ele>
        <time>2014-02-01T15:38:08Z</time>
      </trkpt>
      <trkpt lat="43.36834" lon="6.12523">
        <ele>309.60000610352</ele>
        <time>2014-02-01T15:38:12Z</time>
      </trkpt>
      <trkpt lat="43.36852" lon="6.12526">
        <ele>309.60000610352</ele>
        <time>2014-02-01T15:38:17Z</time>
      </trkpt>
      <trkpt lat="43.36862" lon="6.12515">
        <ele>309.20001220703</ele>
        <time>2014-02-01T15:38:20Z</time>
      </trkpt>
      <trkpt lat="43.36868" lon="6.12503">
        <ele>308.20001220703</ele>
        <time>2014-02-01T15:38:22Z</time>
      </trkpt>
      <trkpt lat="43.36868" lon="6.12497">
        <ele>307.79998779297</ele>
        <time>2014-02-01T15:38:23Z</time>
      </trkpt>
      <trkpt lat="43.36871" lon="6.12486">
        <ele>307.39999389648</ele>
        <time>2014-02-01T15:38:25Z</time>
      </trkpt>
      <trkpt lat="43.36875" lon="6.12467">
        <ele>307.39999389648</ele>
        <time>2014-02-01T15:38:28Z</time>
      </trkpt>
      <trkpt lat="43.36876" lon="6.12459">
        <ele>307</ele>
        <time>2014-02-01T15:38:29Z</time>
      </trkpt>
      <trkpt lat="43.36869" lon="6.12424">
        <ele>305.20001220703</ele>
        <time>2014-02-01T15:38:34Z</time>
      </trkpt>
      <trkpt lat="43.36867" lon="6.12386">
        <ele>305.20001220703</ele>
        <time>2014-02-01T15:38:39Z</time>
      </trkpt>
      <trkpt lat="43.36862" lon="6.12366">
        <ele>304.39999389648</ele>
        <time>2014-02-01T15:38:42Z</time>
      </trkpt>
      <trkpt lat="43.36863" lon="6.12352">
        <ele>303.60000610352</ele>
        <time>2014-02-01T15:38:44Z</time>
      </trkpt>
      <trkpt lat="43.36867" lon="6.12337">
        <ele>303.20001220703</ele>
        <time>2014-02-01T15:38:46Z</time>
      </trkpt>
      <trkpt lat="43.36879" lon="6.12318">
        <ele>303.20001220703</ele>
        <time>2014-02-01T15:38:49Z</time>
      </trkpt>
      <trkpt lat="43.36892" lon="6.123">
        <ele>302.79998779297</ele>
        <time>2014-02-01T15:38:52Z</time>
      </trkpt>
      <trkpt lat="43.36896" lon="6.12294">
        <ele>302.39999389648</ele>
        <time>2014-02-01T15:38:53Z</time>
      </trkpt>
      <trkpt lat="43.36904" lon="6.12282">
        <ele>301.60000610352</ele>
        <time>2014-02-01T15:38:55Z</time>
      </trkpt>
      <trkpt lat="43.36908" lon="6.12277">
        <ele>301.20001220703</ele>
        <time>2014-02-01T15:38:56Z</time>
      </trkpt>
      <trkpt lat="43.36924" lon="6.12256">
        <ele>301.20001220703</ele>
        <time>2014-02-01T15:39:00Z</time>
      </trkpt>
      <trkpt lat="43.3693" lon="6.12245">
        <ele>301.20001220703</ele>
        <time>2014-02-01T15:39:02Z</time>
      </trkpt>
      <trkpt lat="43.3694" lon="6.1222">
        <ele>299.79998779297</ele>
        <time>2014-02-01T15:39:06Z</time>
      </trkpt>
      <trkpt lat="43.36943" lon="6.12213">
        <ele>299.39999389648</ele>
        <time>2014-02-01T15:39:07Z</time>
      </trkpt>
      <trkpt lat="43.36946" lon="6.12207">
        <ele>299</ele>
        <time>2014-02-01T15:39:08Z</time>
      </trkpt>
      <trkpt lat="43.36956" lon="6.12189">
        <ele>299</ele>
        <time>2014-02-01T15:39:11Z</time>
      </trkpt>
      <trkpt lat="43.36963" lon="6.12178">
        <ele>299</ele>
        <time>2014-02-01T15:39:13Z</time>
      </trkpt>
      <trkpt lat="43.36983" lon="6.12134">
        <ele>299</ele>
        <time>2014-02-01T15:39:20Z</time>
      </trkpt>
      <trkpt lat="43.36992" lon="6.12116">
        <ele>298.60000610352</ele>
        <time>2014-02-01T15:39:23Z</time>
      </trkpt>
      <trkpt lat="43.37" lon="6.12107">
        <ele>297.79998779297</ele>
        <time>2014-02-01T15:39:25Z</time>
      </trkpt>
      <trkpt lat="43.37006" lon="6.12094">
        <ele>297</ele>
        <time>2014-02-01T15:39:27Z</time>
      </trkpt>
      <trkpt lat="43.37007" lon="6.12087">
        <ele>297</ele>
        <time>2014-02-01T15:39:28Z</time>
      </trkpt>
      <trkpt lat="43.37011" lon="6.12039">
        <ele>297</ele>
        <time>2014-02-01T15:39:34Z</time>
      </trkpt>
      <trkpt lat="43.37019" lon="6.12009">
        <ele>297</ele>
        <time>2014-02-01T15:39:38Z</time>
      </trkpt>
      <trkpt lat="43.37022" lon="6.11994">
        <ele>296.60000610352</ele>
        <time>2014-02-01T15:39:40Z</time>
      </trkpt>
      <trkpt lat="43.37032" lon="6.11947">
        <ele>295</ele>
        <time>2014-02-01T15:39:46Z</time>
      </trkpt>
      <trkpt lat="43.37037" lon="6.11918">
        <ele>295</ele>
        <time>2014-02-01T15:39:50Z</time>
      </trkpt>
      <trkpt lat="43.37037" lon="6.11903">
        <ele>295</ele>
        <time>2014-02-01T15:39:52Z</time>
      </trkpt>
      <trkpt lat="43.37037" lon="6.11855">
        <ele>293.60000610352</ele>
        <time>2014-02-01T15:39:58Z</time>
      </trkpt>
      <trkpt lat="43.37037" lon="6.11846">
        <ele>293.20001220703</ele>
        <time>2014-02-01T15:39:59Z</time>
      </trkpt>
      <trkpt lat="43.37045" lon="6.11813">
        <ele>292.79998779297</ele>
        <time>2014-02-01T15:40:03Z</time>
      </trkpt>
      <trkpt lat="43.37051" lon="6.11787">
        <ele>291.60000610352</ele>
        <time>2014-02-01T15:40:06Z</time>
      </trkpt>
      <trkpt lat="43.37072" lon="6.11681">
        <ele>288.60000610352</ele>
        <time>2014-02-01T15:40:18Z</time>
      </trkpt>
      <trkpt lat="43.37075" lon="6.11643">
        <ele>288.60000610352</ele>
        <time>2014-02-01T15:40:22Z</time>
      </trkpt>
      <trkpt lat="43.37075" lon="6.11613">
        <ele>287.39999389648</ele>
        <time>2014-02-01T15:40:25Z</time>
      </trkpt>
      <trkpt lat="43.37072" lon="6.11584">
        <ele>286.60000610352</ele>
        <time>2014-02-01T15:40:28Z</time>
      </trkpt>
      <trkpt lat="43.37066" lon="6.11529">
        <ele>286.60000610352</ele>
        <time>2014-02-01T15:40:34Z</time>
      </trkpt>
      <trkpt lat="43.37067" lon="6.11503">
        <ele>286.60000610352</ele>
        <time>2014-02-01T15:40:37Z</time>
      </trkpt>
      <trkpt lat="43.37068" lon="6.11487">
        <ele>286.60000610352</ele>
        <time>2014-02-01T15:40:39Z</time>
      </trkpt>
      <trkpt lat="43.3707" lon="6.11469">
        <ele>286.20001220703</ele>
        <time>2014-02-01T15:40:41Z</time>
      </trkpt>
      <trkpt lat="43.37079" lon="6.11434">
        <ele>284.60000610352</ele>
        <time>2014-02-01T15:40:45Z</time>
      </trkpt>
      <trkpt lat="43.37096" lon="6.11389">
        <ele>284.60000610352</ele>
        <time>2014-02-01T15:40:50Z</time>
      </trkpt>
      <trkpt lat="43.37109" lon="6.11357">
        <ele>284.60000610352</ele>
        <time>2014-02-01T15:40:54Z</time>
      </trkpt>
      <trkpt lat="43.37111" lon="6.11349">
        <ele>284.60000610352</ele>
        <time>2014-02-01T15:40:55Z</time>
      </trkpt>
      <trkpt lat="43.37116" lon="6.11333">
        <ele>284.60000610352</ele>
        <time>2014-02-01T15:40:57Z</time>
      </trkpt>
      <trkpt lat="43.3713" lon="6.11283">
        <ele>284.20001220703</ele>
        <time>2014-02-01T15:41:03Z</time>
      </trkpt>
      <trkpt lat="43.37138" lon="6.1125">
        <ele>282.60000610352</ele>
        <time>2014-02-01T15:41:07Z</time>
      </trkpt>
      <trkpt lat="43.37143" lon="6.11233">
        <ele>282.60000610352</ele>
        <time>2014-02-01T15:41:09Z</time>
      </trkpt>
      <trkpt lat="43.37148" lon="6.11225">
        <ele>282.60000610352</ele>
        <time>2014-02-01T15:41:10Z</time>
      </trkpt>
      <trkpt lat="43.3717" lon="6.11183">
        <ele>282.60000610352</ele>
        <time>2014-02-01T15:41:16Z</time>
      </trkpt>
      <trkpt lat="43.37174" lon="6.11151">
        <ele>282.60000610352</ele>
        <time>2014-02-01T15:41:20Z</time>
      </trkpt>
      <trkpt lat="43.37177" lon="6.11101">
        <ele>282.60000610352</ele>
        <time>2014-02-01T15:41:26Z</time>
      </trkpt>
      <trkpt lat="43.37178" lon="6.11086">
        <ele>282.20001220703</ele>
        <time>2014-02-01T15:41:28Z</time>
      </trkpt>
      <trkpt lat="43.37181" lon="6.11054">
        <ele>280.39999389648</ele>
        <time>2014-02-01T15:41:32Z</time>
      </trkpt>
      <trkpt lat="43.37187" lon="6.11004">
        <ele>280.39999389648</ele>
        <time>2014-02-01T15:41:38Z</time>
      </trkpt>
      <trkpt lat="43.37193" lon="6.10953">
        <ele>280</ele>
        <time>2014-02-01T15:41:44Z</time>
      </trkpt>
      <trkpt lat="43.37193" lon="6.10936">
        <ele>279.20001220703</ele>
        <time>2014-02-01T15:41:46Z</time>
      </trkpt>
      <trkpt lat="43.37193" lon="6.10917">
        <ele>278.39999389648</ele>
        <time>2014-02-01T15:41:48Z</time>
      </trkpt>
      <trkpt lat="43.37193" lon="6.10882">
        <ele>278.39999389648</ele>
        <time>2014-02-01T15:41:52Z</time>
      </trkpt>
      <trkpt lat="43.37194" lon="6.10857">
        <ele>278.39999389648</ele>
        <time>2014-02-01T15:41:55Z</time>
      </trkpt>
      <trkpt lat="43.37203" lon="6.10824">
        <ele>278.39999389648</ele>
        <time>2014-02-01T15:42:00Z</time>
      </trkpt>
      <trkpt lat="43.37209" lon="6.10805">
        <ele>278.39999389648</ele>
        <time>2014-02-01T15:42:03Z</time>
      </trkpt>
      <trkpt lat="43.37215" lon="6.1078">
        <ele>278.39999389648</ele>
        <time>2014-02-01T15:42:07Z</time>
      </trkpt>
      <trkpt lat="43.37221" lon="6.1076">
        <ele>278.39999389648</ele>
        <time>2014-02-01T15:42:10Z</time>
      </trkpt>
      <trkpt lat="43.37226" lon="6.10735">
        <ele>279</ele>
        <time>2014-02-01T15:42:14Z</time>
      </trkpt>
      <trkpt lat="43.3723" lon="6.10711">
        <ele>280.60000610352</ele>
        <time>2014-02-01T15:42:18Z</time>
      </trkpt>
      <trkpt lat="43.37239" lon="6.10685">
        <ele>280.60000610352</ele>
        <time>2014-02-01T15:42:23Z</time>
      </trkpt>
      <trkpt lat="43.37253" lon="6.10656">
        <ele>280.60000610352</ele>
        <time>2014-02-01T15:42:29Z</time>
      </trkpt>
      <trkpt lat="43.37264" lon="6.10631">
        <ele>281.39999389648</ele>
        <time>2014-02-01T15:42:34Z</time>
      </trkpt>
      <trkpt lat="43.37283" lon="6.10589">
        <ele>282.60000610352</ele>
        <time>2014-02-01T15:42:43Z</time>
      </trkpt>
      <trkpt lat="43.37288" lon="6.10558">
        <ele>282.60000610352</ele>
        <time>2014-02-01T15:42:49Z</time>
      </trkpt>
      <trkpt lat="43.37288" lon="6.10521">
        <ele>282.60000610352</ele>
        <time>2014-02-01T15:42:56Z</time>
      </trkpt>
      <trkpt lat="43.37287" lon="6.10501">
        <ele>283.39999389648</ele>
        <time>2014-02-01T15:43:00Z</time>
      </trkpt>
      <trkpt lat="43.37283" lon="6.10465">
        <ele>284.79998779297</ele>
        <time>2014-02-01T15:43:07Z</time>
      </trkpt>
      <trkpt lat="43.37281" lon="6.10439">
        <ele>284.79998779297</ele>
        <time>2014-02-01T15:43:12Z</time>
      </trkpt>
      <trkpt lat="43.37279" lon="6.1041">
        <ele>284.79998779297</ele>
        <time>2014-02-01T15:43:18Z</time>
      </trkpt>
      <trkpt lat="43.3728" lon="6.10404">
        <ele>285.20001220703</ele>
        <time>2014-02-01T15:43:19Z</time>
      </trkpt>
      <trkpt lat="43.37285" lon="6.10347">
        <ele>286.79998779297</ele>
        <time>2014-02-01T15:43:30Z</time>
      </trkpt>
      <trkpt lat="43.37284" lon="6.10314">
        <ele>286.79998779297</ele>
        <time>2014-02-01T15:43:36Z</time>
      </trkpt>
      <trkpt lat="43.37277" lon="6.10284">
        <ele>286.79998779297</ele>
        <time>2014-02-01T15:43:42Z</time>
      </trkpt>
      <trkpt lat="43.37268" lon="6.10262">
        <ele>287.20001220703</ele>
        <time>2014-02-01T15:43:47Z</time>
      </trkpt>
      <trkpt lat="43.37265" lon="6.10254">
        <ele>288</ele>
        <time>2014-02-01T15:43:49Z</time>
      </trkpt>
      <trkpt lat="43.37262" lon="6.10246">
        <ele>288.79998779297</ele>
        <time>2014-02-01T15:43:51Z</time>
      </trkpt>
      <trkpt lat="43.37259" lon="6.10236">
        <ele>288.79998779297</ele>
        <time>2014-02-01T15:43:53Z</time>
      </trkpt>
      <trkpt lat="43.37256" lon="6.10215">
        <ele>288.79998779297</ele>
        <time>2014-02-01T15:43:57Z</time>
      </trkpt>
      <trkpt lat="43.37253" lon="6.10188">
        <ele>288.79998779297</ele>
        <time>2014-02-01T15:44:01Z</time>
      </trkpt>
      <trkpt lat="43.37257" lon="6.10143">
        <ele>288.79998779297</ele>
        <time>2014-02-01T15:44:07Z</time>
      </trkpt>
      <trkpt lat="43.37261" lon="6.1013">
        <ele>288.79998779297</ele>
        <time>2014-02-01T15:44:09Z</time>
      </trkpt>
      <trkpt lat="43.37265" lon="6.10117">
        <ele>288.79998779297</ele>
        <time>2014-02-01T15:44:11Z</time>
      </trkpt>
      <trkpt lat="43.3727" lon="6.10103">
        <ele>288.79998779297</ele>
        <time>2014-02-01T15:44:13Z</time>
      </trkpt>
      <trkpt lat="43.3728" lon="6.10082">
        <ele>288.39999389648</ele>
        <time>2014-02-01T15:44:16Z</time>
      </trkpt>
      <trkpt lat="43.37283" lon="6.10075">
        <ele>288</ele>
        <time>2014-02-01T15:44:17Z</time>
      </trkpt>
      <trkpt lat="43.37287" lon="6.10069">
        <ele>287.60000610352</ele>
        <time>2014-02-01T15:44:18Z</time>
      </trkpt>
      <trkpt lat="43.3729" lon="6.10062">
        <ele>287</ele>
        <time>2014-02-01T15:44:19Z</time>
      </trkpt>
      <trkpt lat="43.37294" lon="6.10055">
        <ele>286.60000610352</ele>
        <time>2014-02-01T15:44:20Z</time>
      </trkpt>
      <trkpt lat="43.37302" lon="6.10044">
        <ele>286.60000610352</ele>
        <time>2014-02-01T15:44:22Z</time>
      </trkpt>
      <trkpt lat="43.3731" lon="6.10037">
        <ele>286.60000610352</ele>
        <time>2014-02-01T15:44:24Z</time>
      </trkpt>
      <trkpt lat="43.37314" lon="6.10033">
        <ele>286.60000610352</ele>
        <time>2014-02-01T15:44:27Z</time>
      </trkpt>
      <trkpt lat="43.37317" lon="6.10033">
        <ele>286.60000610352</ele>
        <time>2014-02-01T15:44:29Z</time>
      </trkpt>
      <trkpt lat="43.37322" lon="6.10036">
        <ele>286.60000610352</ele>
        <time>2014-02-01T15:44:33Z</time>
      </trkpt>
      <trkpt lat="43.37325" lon="6.10034">
        <ele>286.60000610352</ele>
        <time>2014-02-01T15:44:35Z</time>
      </trkpt>
      <trkpt lat="43.37329" lon="6.10032">
        <ele>286.60000610352</ele>
        <time>2014-02-01T15:44:37Z</time>
      </trkpt>
      <trkpt lat="43.37342" lon="6.10029">
        <ele>286.60000610352</ele>
        <time>2014-02-01T15:44:42Z</time>
      </trkpt>
      <trkpt lat="43.37355" lon="6.10027">
        <ele>286.60000610352</ele>
        <time>2014-02-01T15:44:46Z</time>
      </trkpt>
      <trkpt lat="43.37362" lon="6.10025">
        <ele>286.60000610352</ele>
        <time>2014-02-01T15:44:48Z</time>
      </trkpt>
      <trkpt lat="43.37373" lon="6.10014">
        <ele>286.60000610352</ele>
        <time>2014-02-01T15:44:52Z</time>
      </trkpt>
      <trkpt lat="43.37388" lon="6.10003">
        <ele>286.60000610352</ele>
        <time>2014-02-01T15:44:57Z</time>
      </trkpt>
      <trkpt lat="43.37417" lon="6.09985">
        <ele>286.60000610352</ele>
        <time>2014-02-01T15:45:06Z</time>
      </trkpt>
      <trkpt lat="43.37423" lon="6.09984">
        <ele>286.60000610352</ele>
        <time>2014-02-01T15:45:08Z</time>
      </trkpt>
      <trkpt lat="43.3744" lon="6.09986">
        <ele>286.60000610352</ele>
        <time>2014-02-01T15:45:13Z</time>
      </trkpt>
      <trkpt lat="43.37456" lon="6.09997">
        <ele>286.60000610352</ele>
        <time>2014-02-01T15:45:18Z</time>
      </trkpt>
      <trkpt lat="43.37473" lon="6.10009">
        <ele>286.60000610352</ele>
        <time>2014-02-01T15:45:23Z</time>
      </trkpt>
      <trkpt lat="43.37493" lon="6.10012">
        <ele>286.60000610352</ele>
        <time>2014-02-01T15:45:28Z</time>
      </trkpt>
      <trkpt lat="43.37509" lon="6.10009">
        <ele>286.60000610352</ele>
        <time>2014-02-01T15:45:31Z</time>
      </trkpt>
      <trkpt lat="43.3752" lon="6.10006">
        <ele>286.20001220703</ele>
        <time>2014-02-01T15:45:33Z</time>
      </trkpt>
      <trkpt lat="43.37526" lon="6.10002">
        <ele>285.79998779297</ele>
        <time>2014-02-01T15:45:34Z</time>
      </trkpt>
      <trkpt lat="43.37533" lon="6.09999">
        <ele>285.39999389648</ele>
        <time>2014-02-01T15:45:35Z</time>
      </trkpt>
      <trkpt lat="43.3754" lon="6.09994">
        <ele>285</ele>
        <time>2014-02-01T15:45:36Z</time>
      </trkpt>
      <trkpt lat="43.37546" lon="6.09991">
        <ele>284.60000610352</ele>
        <time>2014-02-01T15:45:37Z</time>
      </trkpt>
      <trkpt lat="43.3756" lon="6.09986">
        <ele>284.60000610352</ele>
        <time>2014-02-01T15:45:39Z</time>
      </trkpt>
      <trkpt lat="43.37567" lon="6.09984">
        <ele>284.20001220703</ele>
        <time>2014-02-01T15:45:40Z</time>
      </trkpt>
      <trkpt lat="43.37574" lon="6.09983">
        <ele>283.60000610352</ele>
        <time>2014-02-01T15:45:41Z</time>
      </trkpt>
      <trkpt lat="43.3758" lon="6.09982">
        <ele>283.20001220703</ele>
        <time>2014-02-01T15:45:42Z</time>
      </trkpt>
      <trkpt lat="43.37587" lon="6.09981">
        <ele>282</ele>
        <time>2014-02-01T15:45:43Z</time>
      </trkpt>
      <trkpt lat="43.37593" lon="6.09979">
        <ele>281.60000610352</ele>
        <time>2014-02-01T15:45:44Z</time>
      </trkpt>
      <trkpt lat="43.37605" lon="6.09975">
        <ele>280.79998779297</ele>
        <time>2014-02-01T15:45:46Z</time>
      </trkpt>
      <trkpt lat="43.37618" lon="6.09972">
        <ele>280</ele>
        <time>2014-02-01T15:45:48Z</time>
      </trkpt>
      <trkpt lat="43.37624" lon="6.09971">
        <ele>279.60000610352</ele>
        <time>2014-02-01T15:45:49Z</time>
      </trkpt>
      <trkpt lat="43.37634" lon="6.09969">
        <ele>278.79998779297</ele>
        <time>2014-02-01T15:45:51Z</time>
      </trkpt>
      <trkpt lat="43.37644" lon="6.09966">
        <ele>278</ele>
        <time>2014-02-01T15:45:53Z</time>
      </trkpt>
      <trkpt lat="43.37655" lon="6.09963">
        <ele>277.60000610352</ele>
        <time>2014-02-01T15:45:55Z</time>
      </trkpt>
      <trkpt lat="43.37665" lon="6.09957">
        <ele>276.60000610352</ele>
        <time>2014-02-01T15:45:57Z</time>
      </trkpt>
      <trkpt lat="43.37677" lon="6.0995">
        <ele>275.60000610352</ele>
        <time>2014-02-01T15:45:59Z</time>
      </trkpt>
      <trkpt lat="43.37683" lon="6.09947">
        <ele>275</ele>
        <time>2014-02-01T15:46:00Z</time>
      </trkpt>
      <trkpt lat="43.37698" lon="6.09933">
        <ele>273.39999389648</ele>
        <time>2014-02-01T15:46:03Z</time>
      </trkpt>
      <trkpt lat="43.37707" lon="6.09919">
        <ele>272.39999389648</ele>
        <time>2014-02-01T15:46:05Z</time>
      </trkpt>
      <trkpt lat="43.37712" lon="6.09903">
        <ele>270.79998779297</ele>
        <time>2014-02-01T15:46:07Z</time>
      </trkpt>
      <trkpt lat="43.3772" lon="6.0988">
        <ele>269.20001220703</ele>
        <time>2014-02-01T15:46:10Z</time>
      </trkpt>
      <trkpt lat="43.37729" lon="6.09847">
        <ele>268</ele>
        <time>2014-02-01T15:46:14Z</time>
      </trkpt>
      <trkpt lat="43.37732" lon="6.09839">
        <ele>267.60000610352</ele>
        <time>2014-02-01T15:46:15Z</time>
      </trkpt>
      <trkpt lat="43.37737" lon="6.09822">
        <ele>266.60000610352</ele>
        <time>2014-02-01T15:46:17Z</time>
      </trkpt>
      <trkpt lat="43.37742" lon="6.09808">
        <ele>265.79998779297</ele>
        <time>2014-02-01T15:46:19Z</time>
      </trkpt>
      <trkpt lat="43.37743" lon="6.09801">
        <ele>265.20001220703</ele>
        <time>2014-02-01T15:46:20Z</time>
      </trkpt>
      <trkpt lat="43.37745" lon="6.09793">
        <ele>264.79998779297</ele>
        <time>2014-02-01T15:46:21Z</time>
      </trkpt>
      <trkpt lat="43.37747" lon="6.09785">
        <ele>264.20001220703</ele>
        <time>2014-02-01T15:46:22Z</time>
      </trkpt>
      <trkpt lat="43.37748" lon="6.09777">
        <ele>263.60000610352</ele>
        <time>2014-02-01T15:46:23Z</time>
      </trkpt>
      <trkpt lat="43.37749" lon="6.09767">
        <ele>263.20001220703</ele>
        <time>2014-02-01T15:46:24Z</time>
      </trkpt>
      <trkpt lat="43.3775" lon="6.09748">
        <ele>262.20001220703</ele>
        <time>2014-02-01T15:46:26Z</time>
      </trkpt>
      <trkpt lat="43.37752" lon="6.0972">
        <ele>260.79998779297</ele>
        <time>2014-02-01T15:46:29Z</time>
      </trkpt>
      <trkpt lat="43.37752" lon="6.09713">
        <ele>260.39999389648</ele>
        <time>2014-02-01T15:46:30Z</time>
      </trkpt>
      <trkpt lat="43.37753" lon="6.09706">
        <ele>260</ele>
        <time>2014-02-01T15:46:31Z</time>
      </trkpt>
      <trkpt lat="43.37755" lon="6.09702">
        <ele>259.20001220703</ele>
        <time>2014-02-01T15:46:32Z</time>
      </trkpt>
      <trkpt lat="43.37757" lon="6.09703">
        <ele>258.79998779297</ele>
        <time>2014-02-01T15:46:33Z</time>
      </trkpt>
      <trkpt lat="43.37759" lon="6.09703">
        <ele>258.39999389648</ele>
        <time>2014-02-01T15:46:34Z</time>
      </trkpt>
      <trkpt lat="43.37766" lon="6.09711">
        <ele>257.79998779297</ele>
        <time>2014-02-01T15:46:37Z</time>
      </trkpt>
      <trkpt lat="43.37767" lon="6.09714">
        <ele>257.39999389648</ele>
        <time>2014-02-01T15:46:38Z</time>
      </trkpt>
      <trkpt lat="43.3777" lon="6.09717">
        <ele>257</ele>
        <time>2014-02-01T15:46:39Z</time>
      </trkpt>
      <trkpt lat="43.37772" lon="6.09721">
        <ele>256.39999389648</ele>
        <time>2014-02-01T15:46:40Z</time>
      </trkpt>
      <trkpt lat="43.37775" lon="6.09724">
        <ele>256</ele>
        <time>2014-02-01T15:46:41Z</time>
      </trkpt>
      <trkpt lat="43.37777" lon="6.09727">
        <ele>256</ele>
        <time>2014-02-01T15:46:42Z</time>
      </trkpt>
      <trkpt lat="43.37788" lon="6.09735">
        <ele>255.60000610352</ele>
        <time>2014-02-01T15:46:46Z</time>
      </trkpt>
      <trkpt lat="43.3779" lon="6.09735">
        <ele>255.19999694824</ele>
        <time>2014-02-01T15:46:47Z</time>
      </trkpt>
      <trkpt lat="43.37797" lon="6.09734">
        <ele>253.80000305176</ele>
        <time>2014-02-01T15:46:50Z</time>
      </trkpt>
      <trkpt lat="43.37807" lon="6.09733">
        <ele>253.80000305176</ele>
        <time>2014-02-01T15:46:56Z</time>
      </trkpt>
      <trkpt lat="43.37807" lon="6.09733">
        <ele>253.80000305176</ele>
        <time>2014-02-01T15:47:03Z</time>
      </trkpt>
      <trkpt lat="43.37807" lon="6.09733">
        <ele>251.80000305176</ele>
        <time>2014-02-01T15:47:15Z</time>
      </trkpt>
      <trkpt lat="43.37807" lon="6.09733">
        <ele>251.80000305176</ele>
        <time>2014-02-01T15:47:23Z</time>
      </trkpt>
      <trkpt lat="43.37807" lon="6.09733">
        <ele>251.80000305176</ele>
        <time>2014-02-01T15:47:30Z</time>
      </trkpt>
      <trkpt lat="43.37815" lon="6.09733">
        <ele>251.80000305176</ele>
        <time>2014-02-01T15:47:35Z</time>
      </trkpt>
      <trkpt lat="43.37839" lon="6.09732">
        <ele>251.80000305176</ele>
        <time>2014-02-01T15:47:40Z</time>
      </trkpt>
      <trkpt lat="43.37861" lon="6.09735">
        <ele>251.39999389648</ele>
        <time>2014-02-01T15:47:44Z</time>
      </trkpt>
      <trkpt lat="43.37866" lon="6.09737">
        <ele>251</ele>
        <time>2014-02-01T15:47:45Z</time>
      </trkpt>
      <trkpt lat="43.37871" lon="6.09739">
        <ele>250.19999694824</ele>
        <time>2014-02-01T15:47:46Z</time>
      </trkpt>
      <trkpt lat="43.37876" lon="6.09741">
        <ele>249.80000305176</ele>
        <time>2014-02-01T15:47:47Z</time>
      </trkpt>
      <trkpt lat="43.37897" lon="6.09749">
        <ele>249.80000305176</ele>
        <time>2014-02-01T15:47:51Z</time>
      </trkpt>
      <trkpt lat="43.37913" lon="6.09754">
        <ele>249.80000305176</ele>
        <time>2014-02-01T15:47:54Z</time>
      </trkpt>
      <trkpt lat="43.37953" lon="6.09769">
        <ele>249.80000305176</ele>
        <time>2014-02-01T15:48:02Z</time>
      </trkpt>
      <trkpt lat="43.37987" lon="6.09783">
        <ele>249.80000305176</ele>
        <time>2014-02-01T15:48:10Z</time>
      </trkpt>
      <trkpt lat="43.38007" lon="6.0979">
        <ele>249.80000305176</ele>
        <time>2014-02-01T15:48:15Z</time>
      </trkpt>
      <trkpt lat="43.38015" lon="6.09794">
        <ele>249.80000305176</ele>
        <time>2014-02-01T15:48:17Z</time>
      </trkpt>
      <trkpt lat="43.38036" lon="6.09801">
        <ele>249.80000305176</ele>
        <time>2014-02-01T15:48:22Z</time>
      </trkpt>
      <trkpt lat="43.38048" lon="6.09804">
        <ele>249.80000305176</ele>
        <time>2014-02-01T15:48:25Z</time>
      </trkpt>
      <trkpt lat="43.38063" lon="6.09807">
        <ele>249.80000305176</ele>
        <time>2014-02-01T15:48:29Z</time>
      </trkpt>
      <trkpt lat="43.38065" lon="6.09809">
        <ele>249.80000305176</ele>
        <time>2014-02-01T15:48:31Z</time>
      </trkpt>
      <trkpt lat="43.38064" lon="6.09808">
        <ele>249.80000305176</ele>
        <time>2014-02-01T15:48:35Z</time>
      </trkpt>
      <trkpt lat="43.38064" lon="6.09808">
        <ele>249.80000305176</ele>
        <time>2014-02-01T15:48:50Z</time>
      </trkpt>
      <trkpt lat="43.38065" lon="6.09808">
        <ele>249.80000305176</ele>
        <time>2014-02-01T15:49:01Z</time>
      </trkpt>
      <trkpt lat="43.38065" lon="6.09808">
        <ele>249.80000305176</ele>
        <time>2014-02-01T15:49:14Z</time>
      </trkpt>
      <trkpt lat="43.38065" lon="6.09808">
        <ele>249.80000305176</ele>
        <time>2014-02-01T15:49:47Z</time>
      </trkpt>
      <trkpt lat="43.38065" lon="6.09808">
        <ele>249.80000305176</ele>
        <time>2014-02-01T15:50:06Z</time>
      </trkpt>
      <trkpt lat="43.38073" lon="6.0981">
        <ele>249.80000305176</ele>
        <time>2014-02-01T15:50:11Z</time>
      </trkpt>
      <trkpt lat="43.38088" lon="6.09806">
        <ele>249.80000305176</ele>
        <time>2014-02-01T15:50:15Z</time>
      </trkpt>
      <trkpt lat="43.38113" lon="6.098">
        <ele>249.80000305176</ele>
        <time>2014-02-01T15:50:20Z</time>
      </trkpt>
      <trkpt lat="43.38142" lon="6.09793">
        <ele>249.80000305176</ele>
        <time>2014-02-01T15:50:25Z</time>
      </trkpt>
      <trkpt lat="43.38148" lon="6.09791">
        <ele>249.80000305176</ele>
        <time>2014-02-01T15:50:26Z</time>
      </trkpt>
      <trkpt lat="43.3818" lon="6.09782">
        <ele>249.80000305176</ele>
        <time>2014-02-01T15:50:31Z</time>
      </trkpt>
      <trkpt lat="43.38199" lon="6.09773">
        <ele>249.80000305176</ele>
        <time>2014-02-01T15:50:34Z</time>
      </trkpt>
      <trkpt lat="43.38247" lon="6.09752">
        <ele>249.80000305176</ele>
        <time>2014-02-01T15:50:42Z</time>
      </trkpt>
      <trkpt lat="43.38324" lon="6.0972">
        <ele>249.80000305176</ele>
        <time>2014-02-01T15:50:55Z</time>
      </trkpt>
      <trkpt lat="43.38355" lon="6.09713">
        <ele>249.80000305176</ele>
        <time>2014-02-01T15:51:00Z</time>
      </trkpt>
      <trkpt lat="43.38393" lon="6.09707">
        <ele>249.80000305176</ele>
        <time>2014-02-01T15:51:07Z</time>
      </trkpt>
      <trkpt lat="43.38423" lon="6.09702">
        <ele>249.80000305176</ele>
        <time>2014-02-01T15:51:13Z</time>
      </trkpt>
      <trkpt lat="43.38447" lon="6.09701">
        <ele>249.80000305176</ele>
        <time>2014-02-01T15:51:18Z</time>
      </trkpt>
      <trkpt lat="43.38462" lon="6.097">
        <ele>249.80000305176</ele>
        <time>2014-02-01T15:51:22Z</time>
      </trkpt>
      <trkpt lat="43.38494" lon="6.09696">
        <ele>249.80000305176</ele>
        <time>2014-02-01T15:51:30Z</time>
      </trkpt>
      <trkpt lat="43.38512" lon="6.09693">
        <ele>250.19999694824</ele>
        <time>2014-02-01T15:51:35Z</time>
      </trkpt>
      <trkpt lat="43.38534" lon="6.09689">
        <ele>252</ele>
        <time>2014-02-01T15:51:42Z</time>
      </trkpt>
      <trkpt lat="43.3856" lon="6.09684">
        <ele>254</ele>
        <time>2014-02-01T15:51:51Z</time>
      </trkpt>
      <trkpt lat="43.3857" lon="6.09683">
        <ele>254</ele>
        <time>2014-02-01T15:51:55Z</time>
      </trkpt>
      <trkpt lat="43.3858" lon="6.09684">
        <ele>254.39999389648</ele>
        <time>2014-02-01T15:51:59Z</time>
      </trkpt>
      <trkpt lat="43.38587" lon="6.09688">
        <ele>255.60000610352</ele>
        <time>2014-02-01T15:52:02Z</time>
      </trkpt>
      <trkpt lat="43.38588" lon="6.0969">
        <ele>256</ele>
        <time>2014-02-01T15:52:03Z</time>
      </trkpt>
      <trkpt lat="43.38591" lon="6.09698">
        <ele>256</ele>
        <time>2014-02-01T15:52:06Z</time>
      </trkpt>
      <trkpt lat="43.38589" lon="6.09706">
        <ele>256.39999389648</ele>
        <time>2014-02-01T15:52:09Z</time>
      </trkpt>
      <trkpt lat="43.38588" lon="6.09712">
        <ele>257.39999389648</ele>
        <time>2014-02-01T15:52:11Z</time>
      </trkpt>
      <trkpt lat="43.38588" lon="6.09717">
        <ele>258.20001220703</ele>
        <time>2014-02-01T15:52:13Z</time>
      </trkpt>
      <trkpt lat="43.38586" lon="6.09737">
        <ele>258.20001220703</ele>
        <time>2014-02-01T15:52:20Z</time>
      </trkpt>
      <trkpt lat="43.38579" lon="6.09763">
        <ele>260.39999389648</ele>
        <time>2014-02-01T15:52:29Z</time>
      </trkpt>
      <trkpt lat="43.38574" lon="6.09788">
        <ele>260.39999389648</ele>
        <time>2014-02-01T15:52:36Z</time>
      </trkpt>
      <trkpt lat="43.38572" lon="6.098">
        <ele>260.79998779297</ele>
        <time>2014-02-01T15:52:40Z</time>
      </trkpt>
      <trkpt lat="43.3857" lon="6.0981">
        <ele>262.39999389648</ele>
        <time>2014-02-01T15:52:43Z</time>
      </trkpt>
      <trkpt lat="43.38568" lon="6.0983">
        <ele>262.39999389648</ele>
        <time>2014-02-01T15:52:49Z</time>
      </trkpt>
      <trkpt lat="43.38571" lon="6.09842">
        <ele>262.39999389648</ele>
        <time>2014-02-01T15:52:53Z</time>
      </trkpt>
      <trkpt lat="43.38573" lon="6.09843">
        <ele>262.39999389648</ele>
        <time>2014-02-01T15:52:54Z</time>
      </trkpt>
      <trkpt lat="43.38577" lon="6.09839">
        <ele>262.79998779297</ele>
        <time>2014-02-01T15:52:57Z</time>
      </trkpt>
      <trkpt lat="43.38578" lon="6.09835">
        <ele>263.60000610352</ele>
        <time>2014-02-01T15:52:59Z</time>
      </trkpt>
      <trkpt lat="43.3858" lon="6.0983">
        <ele>264.39999389648</ele>
        <time>2014-02-01T15:53:01Z</time>
      </trkpt>
      <trkpt lat="43.38582" lon="6.0982">
        <ele>264.39999389648</ele>
        <time>2014-02-01T15:53:05Z</time>
      </trkpt>
      <trkpt lat="43.38596" lon="6.09784">
        <ele>264.39999389648</ele>
        <time>2014-02-01T15:53:18Z</time>
      </trkpt>
      <trkpt lat="43.38605" lon="6.0976">
        <ele>264.39999389648</ele>
        <time>2014-02-01T15:53:25Z</time>
      </trkpt>
      <trkpt lat="43.38614" lon="6.09739">
        <ele>264.39999389648</ele>
        <time>2014-02-01T15:53:32Z</time>
      </trkpt>
      <trkpt lat="43.38619" lon="6.0973">
        <ele>265.60000610352</ele>
        <time>2014-02-01T15:53:35Z</time>
      </trkpt>
      <trkpt lat="43.38633" lon="6.09704">
        <ele>266.39999389648</ele>
        <time>2014-02-01T15:53:45Z</time>
      </trkpt>
      <trkpt lat="43.38639" lon="6.09689">
        <ele>266.39999389648</ele>
        <time>2014-02-01T15:53:52Z</time>
      </trkpt>
      <trkpt lat="43.38644" lon="6.09679">
        <ele>266.79998779297</ele>
        <time>2014-02-01T15:53:56Z</time>
      </trkpt>
      <trkpt lat="43.38648" lon="6.09673">
        <ele>268.39999389648</ele>
        <time>2014-02-01T15:53:59Z</time>
      </trkpt>
      <trkpt lat="43.38656" lon="6.09657">
        <ele>268.39999389648</ele>
        <time>2014-02-01T15:54:06Z</time>
      </trkpt>
      <trkpt lat="43.38661" lon="6.09641">
        <ele>269.60000610352</ele>
        <time>2014-02-01T15:54:12Z</time>
      </trkpt>
      <trkpt lat="43.38667" lon="6.09612">
        <ele>270.60000610352</ele>
        <time>2014-02-01T15:54:21Z</time>
      </trkpt>
      <trkpt lat="43.38671" lon="6.09591">
        <ele>270.60000610352</ele>
        <time>2014-02-01T15:54:27Z</time>
      </trkpt>
      <trkpt lat="43.38672" lon="6.09567">
        <ele>270.60000610352</ele>
        <time>2014-02-01T15:54:33Z</time>
      </trkpt>
      <trkpt lat="43.3867" lon="6.09517">
        <ele>270.60000610352</ele>
        <time>2014-02-01T15:54:45Z</time>
      </trkpt>
      <trkpt lat="43.38673" lon="6.09493">
        <ele>270.60000610352</ele>
        <time>2014-02-01T15:54:50Z</time>
      </trkpt>
      <trkpt lat="43.38678" lon="6.09467">
        <ele>270.60000610352</ele>
        <time>2014-02-01T15:54:56Z</time>
      </trkpt>
      <trkpt lat="43.38679" lon="6.09458">
        <ele>271</ele>
        <time>2014-02-01T15:54:58Z</time>
      </trkpt>
      <trkpt lat="43.38677" lon="6.09437">
        <ele>272.60000610352</ele>
        <time>2014-02-01T15:55:03Z</time>
      </trkpt>
      <trkpt lat="43.38675" lon="6.09427">
        <ele>272.60000610352</ele>
        <time>2014-02-01T15:55:05Z</time>
      </trkpt>
      <trkpt lat="43.38674" lon="6.09406">
        <ele>272.60000610352</ele>
        <time>2014-02-01T15:55:09Z</time>
      </trkpt>
      <trkpt lat="43.38674" lon="6.09388">
        <ele>272.60000610352</ele>
        <time>2014-02-01T15:55:14Z</time>
      </trkpt>
      <trkpt lat="43.38675" lon="6.09375">
        <ele>272.60000610352</ele>
        <time>2014-02-01T15:55:18Z</time>
      </trkpt>
      <trkpt lat="43.38674" lon="6.09367">
        <ele>272.60000610352</ele>
        <time>2014-02-01T15:55:20Z</time>
      </trkpt>
      <trkpt lat="43.38672" lon="6.09356">
        <ele>273</ele>
        <time>2014-02-01T15:55:23Z</time>
      </trkpt>
      <trkpt lat="43.38671" lon="6.09349">
        <ele>273.79998779297</ele>
        <time>2014-02-01T15:55:25Z</time>
      </trkpt>
      <trkpt lat="43.38672" lon="6.09342">
        <ele>274.60000610352</ele>
        <time>2014-02-01T15:55:27Z</time>
      </trkpt>
      <trkpt lat="43.38671" lon="6.09327">
        <ele>274.60000610352</ele>
        <time>2014-02-01T15:55:31Z</time>
      </trkpt>
      <trkpt lat="43.38672" lon="6.0931">
        <ele>274.60000610352</ele>
        <time>2014-02-01T15:55:36Z</time>
      </trkpt>
      <trkpt lat="43.38673" lon="6.09308">
        <ele>274.60000610352</ele>
        <time>2014-02-01T15:55:37Z</time>
      </trkpt>
      <trkpt lat="43.38681" lon="6.093">
        <ele>275.20001220703</ele>
        <time>2014-02-01T15:55:44Z</time>
      </trkpt>
      <trkpt lat="43.38683" lon="6.09302">
        <ele>276</ele>
        <time>2014-02-01T15:55:46Z</time>
      </trkpt>
      <trkpt lat="43.38685" lon="6.09303">
        <ele>276.79998779297</ele>
        <time>2014-02-01T15:55:48Z</time>
      </trkpt>
      <trkpt lat="43.38691" lon="6.09309">
        <ele>277.60000610352</ele>
        <time>2014-02-01T15:55:54Z</time>
      </trkpt>
      <trkpt lat="43.38697" lon="6.09318">
        <ele>279.79998779297</ele>
        <time>2014-02-01T15:56:01Z</time>
      </trkpt>
      <trkpt lat="43.38698" lon="6.09319">
        <ele>280.20001220703</ele>
        <time>2014-02-01T15:56:02Z</time>
      </trkpt>
      <trkpt lat="43.38705" lon="6.09323">
        <ele>281</ele>
        <time>2014-02-01T15:56:09Z</time>
      </trkpt>
      <trkpt lat="43.38712" lon="6.09326">
        <ele>283</ele>
        <time>2014-02-01T15:56:16Z</time>
      </trkpt>
      <trkpt lat="43.38717" lon="6.09332">
        <ele>283</ele>
        <time>2014-02-01T15:56:22Z</time>
      </trkpt>
      <trkpt lat="43.38725" lon="6.09335">
        <ele>285.20001220703</ele>
        <time>2014-02-01T15:56:30Z</time>
      </trkpt>
      <trkpt lat="43.38733" lon="6.09338">
        <ele>287.39999389648</ele>
        <time>2014-02-01T15:56:39Z</time>
      </trkpt>
      <trkpt lat="43.38739" lon="6.09341">
        <ele>287.79998779297</ele>
        <time>2014-02-01T15:56:46Z</time>
      </trkpt>
      <trkpt lat="43.38741" lon="6.09341">
        <ele>288.60000610352</ele>
        <time>2014-02-01T15:56:48Z</time>
      </trkpt>
      <trkpt lat="43.38743" lon="6.0934">
        <ele>289.60000610352</ele>
        <time>2014-02-01T15:56:52Z</time>
      </trkpt>
      <trkpt lat="43.38743" lon="6.0934">
        <ele>289.60000610352</ele>
        <time>2014-02-01T15:57:00Z</time>
      </trkpt>
      <trkpt lat="43.38747" lon="6.0934">
        <ele>289.60000610352</ele>
        <time>2014-02-01T15:57:06Z</time>
      </trkpt>
      <trkpt lat="43.3875" lon="6.09341">
        <ele>290.39999389648</ele>
        <time>2014-02-01T15:57:10Z</time>
      </trkpt>
      <trkpt lat="43.38752" lon="6.09342">
        <ele>291.60000610352</ele>
        <time>2014-02-01T15:57:13Z</time>
      </trkpt>
      <trkpt lat="43.38758" lon="6.09345">
        <ele>292</ele>
        <time>2014-02-01T15:57:24Z</time>
      </trkpt>
      <trkpt lat="43.38768" lon="6.09352">
        <ele>295.60000610352</ele>
        <time>2014-02-01T15:57:44Z</time>
      </trkpt>
      <trkpt lat="43.38772" lon="6.09354">
        <ele>295.60000610352</ele>
        <time>2014-02-01T15:57:50Z</time>
      </trkpt>
      <trkpt lat="43.38776" lon="6.09356">
        <ele>297.39999389648</ele>
        <time>2014-02-01T15:57:59Z</time>
      </trkpt>
      <trkpt lat="43.38779" lon="6.09357">
        <ele>297.79998779297</ele>
        <time>2014-02-01T15:58:06Z</time>
      </trkpt>
      <trkpt lat="43.38779" lon="6.09358">
        <ele>297.79998779297</ele>
        <time>2014-02-01T15:58:12Z</time>
      </trkpt>
      <trkpt lat="43.38779" lon="6.09358">
        <ele>297.79998779297</ele>
        <time>2014-02-01T15:58:21Z</time>
      </trkpt>
      <trkpt lat="43.3878" lon="6.09359">
        <ele>298.20001220703</ele>
        <time>2014-02-01T15:58:23Z</time>
      </trkpt>
      <trkpt lat="43.38781" lon="6.09361">
        <ele>299</ele>
        <time>2014-02-01T15:58:25Z</time>
      </trkpt>
      <trkpt lat="43.38783" lon="6.09363">
        <ele>299.79998779297</ele>
        <time>2014-02-01T15:58:27Z</time>
      </trkpt>
      <trkpt lat="43.38788" lon="6.09368">
        <ele>299.79998779297</ele>
        <time>2014-02-01T15:58:32Z</time>
      </trkpt>
      <trkpt lat="43.38791" lon="6.09371">
        <ele>299.79998779297</ele>
        <time>2014-02-01T15:58:36Z</time>
      </trkpt>
      <trkpt lat="43.38795" lon="6.09376">
        <ele>302</ele>
        <time>2014-02-01T15:58:41Z</time>
      </trkpt>
      <trkpt lat="43.38799" lon="6.0938">
        <ele>302</ele>
        <time>2014-02-01T15:58:45Z</time>
      </trkpt>
      <trkpt lat="43.38802" lon="6.09386">
        <ele>302.79998779297</ele>
        <time>2014-02-01T15:58:51Z</time>
      </trkpt>
      <trkpt lat="43.38809" lon="6.09398">
        <ele>304.39999389648</ele>
        <time>2014-02-01T15:59:01Z</time>
      </trkpt>
      <trkpt lat="43.38818" lon="6.09412">
        <ele>306.60000610352</ele>
        <time>2014-02-01T15:59:14Z</time>
      </trkpt>
      <trkpt lat="43.38819" lon="6.09414">
        <ele>307.39999389648</ele>
        <time>2014-02-01T15:59:16Z</time>
      </trkpt>
      <trkpt lat="43.38827" lon="6.09427">
        <ele>309.39999389648</ele>
        <time>2014-02-01T15:59:27Z</time>
      </trkpt>
      <trkpt lat="43.38828" lon="6.0943">
        <ele>310.20001220703</ele>
        <time>2014-02-01T15:59:29Z</time>
      </trkpt>
      <trkpt lat="43.38828" lon="6.09435">
        <ele>310.20001220703</ele>
        <time>2014-02-01T15:59:32Z</time>
      </trkpt>
      <trkpt lat="43.38827" lon="6.0944">
        <ele>310.20001220703</ele>
        <time>2014-02-01T15:59:35Z</time>
      </trkpt>
      <trkpt lat="43.38827" lon="6.09441">
        <ele>310.79998779297</ele>
        <time>2014-02-01T15:59:36Z</time>
      </trkpt>
      <trkpt lat="43.38827" lon="6.09442">
        <ele>311.20001220703</ele>
        <time>2014-02-01T15:59:37Z</time>
      </trkpt>
      <trkpt lat="43.38827" lon="6.09443">
        <ele>311.60000610352</ele>
        <time>2014-02-01T15:59:38Z</time>
      </trkpt>
      <trkpt lat="43.38827" lon="6.09444">
        <ele>312</ele>
        <time>2014-02-01T15:59:39Z</time>
      </trkpt>
      <trkpt lat="43.38827" lon="6.09444">
        <ele>312.39999389648</ele>
        <time>2014-02-01T15:59:58Z</time>
      </trkpt>
      <trkpt lat="43.38827" lon="6.09444">
        <ele>312.39999389648</ele>
        <time>2014-02-01T16:00:17Z</time>
      </trkpt>
      <trkpt lat="43.38828" lon="6.09446">
        <ele>312.39999389648</ele>
        <time>2014-02-01T16:00:26Z</time>
      </trkpt>
      <trkpt lat="43.38832" lon="6.09456">
        <ele>312.39999389648</ele>
        <time>2014-02-01T16:00:33Z</time>
      </trkpt>
      <trkpt lat="43.38834" lon="6.09457">
        <ele>312.39999389648</ele>
        <time>2014-02-01T16:00:34Z</time>
      </trkpt>
      <trkpt lat="43.38839" lon="6.09457">
        <ele>312.39999389648</ele>
        <time>2014-02-01T16:00:38Z</time>
      </trkpt>
      <trkpt lat="43.38841" lon="6.09458">
        <ele>312.79998779297</ele>
        <time>2014-02-01T16:00:40Z</time>
      </trkpt>
      <trkpt lat="43.38842" lon="6.09459">
        <ele>313.20001220703</ele>
        <time>2014-02-01T16:00:41Z</time>
      </trkpt>
      <trkpt lat="43.38845" lon="6.09462">
        <ele>314</ele>
        <time>2014-02-01T16:00:43Z</time>
      </trkpt>
      <trkpt lat="43.38846" lon="6.09462">
        <ele>314.39999389648</ele>
        <time>2014-02-01T16:00:44Z</time>
      </trkpt>
      <trkpt lat="43.38847" lon="6.09462">
        <ele>314.39999389648</ele>
        <time>2014-02-01T16:00:45Z</time>
      </trkpt>
      <trkpt lat="43.38847" lon="6.09462">
        <ele>314.39999389648</ele>
        <time>2014-02-01T16:00:46Z</time>
      </trkpt>
      <trkpt lat="43.38847" lon="6.09462">
        <ele>314.79998779297</ele>
        <time>2014-02-01T16:00:47Z</time>
      </trkpt>
      <trkpt lat="43.38847" lon="6.09462">
        <ele>316.39999389648</ele>
        <time>2014-02-01T16:00:51Z</time>
      </trkpt>
      <trkpt lat="43.38847" lon="6.09463">
        <ele>316.39999389648</ele>
        <time>2014-02-01T16:00:53Z</time>
      </trkpt>
      <trkpt lat="43.3885" lon="6.09461">
        <ele>316.39999389648</ele>
        <time>2014-02-01T16:01:05Z</time>
      </trkpt>
      <trkpt lat="43.38852" lon="6.09458">
        <ele>318</ele>
        <time>2014-02-01T16:01:13Z</time>
      </trkpt>
      <trkpt lat="43.38854" lon="6.09458">
        <ele>318.39999389648</ele>
        <time>2014-02-01T16:01:17Z</time>
      </trkpt>
      <trkpt lat="43.38855" lon="6.09458">
        <ele>318.39999389648</ele>
        <time>2014-02-01T16:01:23Z</time>
      </trkpt>
      <trkpt lat="43.38858" lon="6.09461">
        <ele>318.39999389648</ele>
        <time>2014-02-01T16:01:31Z</time>
      </trkpt>
      <trkpt lat="43.38862" lon="6.09465">
        <ele>318.79998779297</ele>
        <time>2014-02-01T16:01:34Z</time>
      </trkpt>
      <trkpt lat="43.38863" lon="6.09466">
        <ele>319.39999389648</ele>
        <time>2014-02-01T16:01:35Z</time>
      </trkpt>
      <trkpt lat="43.38866" lon="6.0947">
        <ele>320.60000610352</ele>
        <time>2014-02-01T16:01:38Z</time>
      </trkpt>
      <trkpt lat="43.38869" lon="6.09476">
        <ele>320.60000610352</ele>
        <time>2014-02-01T16:01:42Z</time>
      </trkpt>
      <trkpt lat="43.38873" lon="6.09482">
        <ele>322</ele>
        <time>2014-02-01T16:01:46Z</time>
      </trkpt>
      <trkpt lat="43.38877" lon="6.09474">
        <ele>322.79998779297</ele>
        <time>2014-02-01T16:01:52Z</time>
      </trkpt>
      <trkpt lat="43.38878" lon="6.09467">
        <ele>322.79998779297</ele>
        <time>2014-02-01T16:01:56Z</time>
      </trkpt>
      <trkpt lat="43.38877" lon="6.09447">
        <ele>322.79998779297</ele>
        <time>2014-02-01T16:02:07Z</time>
      </trkpt>
      <trkpt lat="43.38877" lon="6.09442">
        <ele>323.20001220703</ele>
        <time>2014-02-01T16:02:10Z</time>
      </trkpt>
      <trkpt lat="43.38878" lon="6.09436">
        <ele>324.79998779297</ele>
        <time>2014-02-01T16:02:14Z</time>
      </trkpt>
      <trkpt lat="43.38879" lon="6.0943">
        <ele>324.79998779297</ele>
        <time>2014-02-01T16:02:18Z</time>
      </trkpt>
      <trkpt lat="43.38883" lon="6.09424">
        <ele>324.79998779297</ele>
        <time>2014-02-01T16:02:24Z</time>
      </trkpt>
      <trkpt lat="43.38887" lon="6.09419">
        <ele>324.20001220703</ele>
        <time>2014-02-01T16:02:30Z</time>
      </trkpt>
      <trkpt lat="43.38887" lon="6.09419">
        <ele>323.79998779297</ele>
        <time>2014-02-01T16:02:31Z</time>
      </trkpt>
      <trkpt lat="43.38888" lon="6.09418">
        <ele>323.39999389648</ele>
        <time>2014-02-01T16:02:32Z</time>
      </trkpt>
      <trkpt lat="43.38888" lon="6.09418">
        <ele>322.60000610352</ele>
        <time>2014-02-01T16:02:34Z</time>
      </trkpt>
      <trkpt lat="43.38888" lon="6.09417">
        <ele>322.60000610352</ele>
        <time>2014-02-01T16:02:36Z</time>
      </trkpt>
      <trkpt lat="43.38888" lon="6.09417">
        <ele>322.60000610352</ele>
        <time>2014-02-01T16:02:44Z</time>
      </trkpt>
      <trkpt lat="43.38888" lon="6.09417">
        <ele>322.60000610352</ele>
        <time>2014-02-01T16:02:49Z</time>
      </trkpt>
      <trkpt lat="43.38889" lon="6.0942">
        <ele>322.60000610352</ele>
        <time>2014-02-01T16:02:52Z</time>
      </trkpt>
      <trkpt lat="43.38887" lon="6.09422">
        <ele>322.60000610352</ele>
        <time>2014-02-01T16:02:57Z</time>
      </trkpt>
      <trkpt lat="43.38884" lon="6.09426">
        <ele>322.60000610352</ele>
        <time>2014-02-01T16:03:03Z</time>
      </trkpt>
      <trkpt lat="43.38884" lon="6.09424">
        <ele>322.60000610352</ele>
        <time>2014-02-01T16:03:10Z</time>
      </trkpt>
      <trkpt lat="43.38884" lon="6.09424">
        <ele>322.60000610352</ele>
        <time>2014-02-01T16:03:16Z</time>
      </trkpt>
      <trkpt lat="43.38883" lon="6.09428">
        <ele>322.60000610352</ele>
        <time>2014-02-01T16:03:28Z</time>
      </trkpt>
      <trkpt lat="43.38883" lon="6.09428">
        <ele>322.60000610352</ele>
        <time>2014-02-01T16:03:33Z</time>
      </trkpt>
      <trkpt lat="43.38883" lon="6.09428">
        <ele>322.60000610352</ele>
        <time>2014-02-01T16:03:41Z</time>
      </trkpt>
      <trkpt lat="43.38883" lon="6.09428">
        <ele>322.60000610352</ele>
        <time>2014-02-01T16:03:50Z</time>
      </trkpt>
      <trkpt lat="43.38884" lon="6.09426">
        <ele>322.60000610352</ele>
        <time>2014-02-01T16:03:54Z</time>
      </trkpt>
      <trkpt lat="43.38885" lon="6.09424">
        <ele>322.60000610352</ele>
        <time>2014-02-01T16:04:00Z</time>
      </trkpt>
      <trkpt lat="43.38886" lon="6.09422">
        <ele>322.60000610352</ele>
        <time>2014-02-01T16:04:04Z</time>
      </trkpt>
      <trkpt lat="43.38887" lon="6.09421">
        <ele>322.60000610352</ele>
        <time>2014-02-01T16:04:06Z</time>
      </trkpt>
      <trkpt lat="43.38887" lon="6.09419">
        <ele>322.60000610352</ele>
        <time>2014-02-01T16:04:10Z</time>
      </trkpt>
      <trkpt lat="43.38887" lon="6.09419">
        <ele>322.60000610352</ele>
        <time>2014-02-01T16:04:16Z</time>
      </trkpt>
      <trkpt lat="43.38887" lon="6.09418">
        <ele>322.60000610352</ele>
        <time>2014-02-01T16:04:21Z</time>
      </trkpt>
      <trkpt lat="43.38887" lon="6.09415">
        <ele>322.60000610352</ele>
        <time>2014-02-01T16:04:23Z</time>
      </trkpt>
      <trkpt lat="43.38893" lon="6.09405">
        <ele>322.60000610352</ele>
        <time>2014-02-01T16:04:27Z</time>
      </trkpt>
      <trkpt lat="43.38898" lon="6.09399">
        <ele>322</ele>
        <time>2014-02-01T16:04:29Z</time>
      </trkpt>
      <trkpt lat="43.38902" lon="6.09393">
        <ele>321.20001220703</ele>
        <time>2014-02-01T16:04:31Z</time>
      </trkpt>
      <trkpt lat="43.38907" lon="6.09388">
        <ele>320.20001220703</ele>
        <time>2014-02-01T16:04:33Z</time>
      </trkpt>
      <trkpt lat="43.38911" lon="6.09383">
        <ele>319.79998779297</ele>
        <time>2014-02-01T16:04:36Z</time>
      </trkpt>
      <trkpt lat="43.38913" lon="6.09381">
        <ele>319.39999389648</ele>
        <time>2014-02-01T16:04:37Z</time>
      </trkpt>
      <trkpt lat="43.38917" lon="6.09377">
        <ele>318.20001220703</ele>
        <time>2014-02-01T16:04:39Z</time>
      </trkpt>
      <trkpt lat="43.38921" lon="6.09373">
        <ele>318.20001220703</ele>
        <time>2014-02-01T16:04:41Z</time>
      </trkpt>
      <trkpt lat="43.38937" lon="6.09355">
        <ele>318.20001220703</ele>
        <time>2014-02-01T16:04:47Z</time>
      </trkpt>
      <trkpt lat="43.38953" lon="6.09337">
        <ele>318.20001220703</ele>
        <time>2014-02-01T16:04:52Z</time>
      </trkpt>
      <trkpt lat="43.38958" lon="6.09326">
        <ele>317.79998779297</ele>
        <time>2014-02-01T16:04:54Z</time>
      </trkpt>
      <trkpt lat="43.38972" lon="6.09305">
        <ele>316.20001220703</ele>
        <time>2014-02-01T16:04:58Z</time>
      </trkpt>
      <trkpt lat="43.38982" lon="6.09289">
        <ele>316.20001220703</ele>
        <time>2014-02-01T16:05:01Z</time>
      </trkpt>
      <trkpt lat="43.38987" lon="6.09275">
        <ele>315.20001220703</ele>
        <time>2014-02-01T16:05:03Z</time>
      </trkpt>
      <trkpt lat="43.38989" lon="6.09268">
        <ele>314.79998779297</ele>
        <time>2014-02-01T16:05:04Z</time>
      </trkpt>
      <trkpt lat="43.38994" lon="6.09253">
        <ele>314</ele>
        <time>2014-02-01T16:05:06Z</time>
      </trkpt>
      <trkpt lat="43.39" lon="6.09222">
        <ele>314</ele>
        <time>2014-02-01T16:05:10Z</time>
      </trkpt>
      <trkpt lat="43.39008" lon="6.0918">
        <ele>314</ele>
        <time>2014-02-01T16:05:16Z</time>
      </trkpt>
      <trkpt lat="43.39011" lon="6.09165">
        <ele>313.60000610352</ele>
        <time>2014-02-01T16:05:18Z</time>
      </trkpt>
      <trkpt lat="43.39017" lon="6.09145">
        <ele>312.20001220703</ele>
        <time>2014-02-01T16:05:21Z</time>
      </trkpt>
      <trkpt lat="43.39021" lon="6.09131">
        <ele>311.79998779297</ele>
        <time>2014-02-01T16:05:23Z</time>
      </trkpt>
      <trkpt lat="43.39026" lon="6.09114">
        <ele>311.79998779297</ele>
        <time>2014-02-01T16:05:26Z</time>
      </trkpt>
      <trkpt lat="43.39036" lon="6.09085">
        <ele>311.79998779297</ele>
        <time>2014-02-01T16:05:31Z</time>
      </trkpt>
      <trkpt lat="43.39043" lon="6.09066">
        <ele>311.39999389648</ele>
        <time>2014-02-01T16:05:34Z</time>
      </trkpt>
      <trkpt lat="43.39048" lon="6.09051">
        <ele>310.20001220703</ele>
        <time>2014-02-01T16:05:37Z</time>
      </trkpt>
      <trkpt lat="43.39053" lon="6.09041">
        <ele>309.79998779297</ele>
        <time>2014-02-01T16:05:39Z</time>
      </trkpt>
      <trkpt lat="43.39065" lon="6.09017">
        <ele>309.79998779297</ele>
        <time>2014-02-01T16:05:43Z</time>
      </trkpt>
      <trkpt lat="43.39076" lon="6.08995">
        <ele>309.79998779297</ele>
        <time>2014-02-01T16:05:47Z</time>
      </trkpt>
      <trkpt lat="43.39083" lon="6.08974">
        <ele>309.39999389648</ele>
        <time>2014-02-01T16:05:51Z</time>
      </trkpt>
      <trkpt lat="43.39088" lon="6.08958">
        <ele>307.79998779297</ele>
        <time>2014-02-01T16:05:54Z</time>
      </trkpt>
      <trkpt lat="43.39095" lon="6.08935">
        <ele>307.79998779297</ele>
        <time>2014-02-01T16:05:58Z</time>
      </trkpt>
      <trkpt lat="43.39102" lon="6.08913">
        <ele>307.79998779297</ele>
        <time>2014-02-01T16:06:02Z</time>
      </trkpt>
      <trkpt lat="43.39105" lon="6.08894">
        <ele>307.79998779297</ele>
        <time>2014-02-01T16:06:05Z</time>
      </trkpt>
      <trkpt lat="43.39107" lon="6.08883">
        <ele>307.79998779297</ele>
        <time>2014-02-01T16:06:07Z</time>
      </trkpt>
      <trkpt lat="43.39115" lon="6.08842">
        <ele>307.39999389648</ele>
        <time>2014-02-01T16:06:14Z</time>
      </trkpt>
      <trkpt lat="43.39119" lon="6.08822">
        <ele>305.79998779297</ele>
        <time>2014-02-01T16:06:17Z</time>
      </trkpt>
      <trkpt lat="43.39125" lon="6.08797">
        <ele>305.79998779297</ele>
        <time>2014-02-01T16:06:21Z</time>
      </trkpt>
      <trkpt lat="43.39136" lon="6.08755">
        <ele>305.79998779297</ele>
        <time>2014-02-01T16:06:27Z</time>
      </trkpt>
      <trkpt lat="43.39145" lon="6.08719">
        <ele>305.79998779297</ele>
        <time>2014-02-01T16:06:33Z</time>
      </trkpt>
      <trkpt lat="43.39147" lon="6.08712">
        <ele>305.79998779297</ele>
        <time>2014-02-01T16:06:34Z</time>
      </trkpt>
      <trkpt lat="43.39148" lon="6.08699">
        <ele>305.39999389648</ele>
        <time>2014-02-01T16:06:36Z</time>
      </trkpt>
      <trkpt lat="43.39149" lon="6.0868">
        <ele>304.20001220703</ele>
        <time>2014-02-01T16:06:39Z</time>
      </trkpt>
      <trkpt lat="43.39151" lon="6.08674">
        <ele>303.60000610352</ele>
        <time>2014-02-01T16:06:40Z</time>
      </trkpt>
      <trkpt lat="43.39154" lon="6.08661">
        <ele>303.60000610352</ele>
        <time>2014-02-01T16:06:42Z</time>
      </trkpt>
      <trkpt lat="43.39159" lon="6.08631">
        <ele>303.60000610352</ele>
        <time>2014-02-01T16:06:47Z</time>
      </trkpt>
      <trkpt lat="43.39169" lon="6.08595">
        <ele>303.60000610352</ele>
        <time>2014-02-01T16:06:55Z</time>
      </trkpt>
      <trkpt lat="43.3917" lon="6.08578">
        <ele>303.60000610352</ele>
        <time>2014-02-01T16:06:59Z</time>
      </trkpt>
      <trkpt lat="43.39177" lon="6.08549">
        <ele>303.60000610352</ele>
        <time>2014-02-01T16:07:07Z</time>
      </trkpt>
      <trkpt lat="43.39182" lon="6.08535">
        <ele>303.60000610352</ele>
        <time>2014-02-01T16:07:11Z</time>
      </trkpt>
      <trkpt lat="43.39186" lon="6.08522">
        <ele>303.60000610352</ele>
        <time>2014-02-01T16:07:15Z</time>
      </trkpt>
      <trkpt lat="43.39193" lon="6.08513">
        <ele>304.20001220703</ele>
        <time>2014-02-01T16:07:19Z</time>
      </trkpt>
      <trkpt lat="43.39194" lon="6.08511">
        <ele>304.60000610352</ele>
        <time>2014-02-01T16:07:20Z</time>
      </trkpt>
      <trkpt lat="43.39198" lon="6.08504">
        <ele>305.79998779297</ele>
        <time>2014-02-01T16:07:26Z</time>
      </trkpt>
      <trkpt lat="43.39199" lon="6.08501">
        <ele>305.79998779297</ele>
        <time>2014-02-01T16:07:29Z</time>
      </trkpt>
      <trkpt lat="43.39199" lon="6.085">
        <ele>305.79998779297</ele>
        <time>2014-02-01T16:07:32Z</time>
      </trkpt>
      <trkpt lat="43.392" lon="6.08499">
        <ele>305.79998779297</ele>
        <time>2014-02-01T16:07:39Z</time>
      </trkpt>
      <trkpt lat="43.39199" lon="6.08499">
        <ele>305.79998779297</ele>
        <time>2014-02-01T16:07:46Z</time>
      </trkpt>
      <trkpt lat="43.39198" lon="6.08496">
        <ele>305.79998779297</ele>
        <time>2014-02-01T16:07:52Z</time>
      </trkpt>
      <trkpt lat="43.39197" lon="6.08495">
        <ele>305.79998779297</ele>
        <time>2014-02-01T16:07:53Z</time>
      </trkpt>
      <trkpt lat="43.39196" lon="6.08487">
        <ele>305.79998779297</ele>
        <time>2014-02-01T16:07:56Z</time>
      </trkpt>
      <trkpt lat="43.39199" lon="6.08467">
        <ele>305.79998779297</ele>
        <time>2014-02-01T16:08:01Z</time>
      </trkpt>
      <trkpt lat="43.39202" lon="6.08438">
        <ele>305.39999389648</ele>
        <time>2014-02-01T16:08:06Z</time>
      </trkpt>
      <trkpt lat="43.39202" lon="6.08434">
        <ele>305</ele>
        <time>2014-02-01T16:08:07Z</time>
      </trkpt>
      <trkpt lat="43.39203" lon="6.0843">
        <ele>304.60000610352</ele>
        <time>2014-02-01T16:08:08Z</time>
      </trkpt>
      <trkpt lat="43.39204" lon="6.08424">
        <ele>304.20001220703</ele>
        <time>2014-02-01T16:08:09Z</time>
      </trkpt>
      <trkpt lat="43.39209" lon="6.08408">
        <ele>302.79998779297</ele>
        <time>2014-02-01T16:08:12Z</time>
      </trkpt>
      <trkpt lat="43.39211" lon="6.08403">
        <ele>302.39999389648</ele>
        <time>2014-02-01T16:08:13Z</time>
      </trkpt>
      <trkpt lat="43.39211" lon="6.08388">
        <ele>300.79998779297</ele>
        <time>2014-02-01T16:08:16Z</time>
      </trkpt>
      <trkpt lat="43.39212" lon="6.08383">
        <ele>300.39999389648</ele>
        <time>2014-02-01T16:08:17Z</time>
      </trkpt>
      <trkpt lat="43.39213" lon="6.08378">
        <ele>300</ele>
        <time>2014-02-01T16:08:18Z</time>
      </trkpt>
      <trkpt lat="43.39218" lon="6.08362">
        <ele>298.20001220703</ele>
        <time>2014-02-01T16:08:21Z</time>
      </trkpt>
      <trkpt lat="43.3922" lon="6.08343">
        <ele>297</ele>
        <time>2014-02-01T16:08:24Z</time>
      </trkpt>
      <trkpt lat="43.39222" lon="6.08329">
        <ele>296.60000610352</ele>
        <time>2014-02-01T16:08:27Z</time>
      </trkpt>
      <trkpt lat="43.39223" lon="6.08327">
        <ele>296.20001220703</ele>
        <time>2014-02-01T16:08:28Z</time>
      </trkpt>
      <trkpt lat="43.39224" lon="6.08326">
        <ele>295.60000610352</ele>
        <time>2014-02-01T16:08:29Z</time>
      </trkpt>
      <trkpt lat="43.39226" lon="6.08326">
        <ele>295.20001220703</ele>
        <time>2014-02-01T16:08:30Z</time>
      </trkpt>
      <trkpt lat="43.39229" lon="6.08324">
        <ele>294.79998779297</ele>
        <time>2014-02-01T16:08:31Z</time>
      </trkpt>
      <trkpt lat="43.3923" lon="6.08319">
        <ele>294.79998779297</ele>
        <time>2014-02-01T16:08:33Z</time>
      </trkpt>
      <trkpt lat="43.3923" lon="6.08317">
        <ele>294.39999389648</ele>
        <time>2014-02-01T16:08:34Z</time>
      </trkpt>
      <trkpt lat="43.39231" lon="6.08314">
        <ele>294</ele>
        <time>2014-02-01T16:08:35Z</time>
      </trkpt>
      <trkpt lat="43.39231" lon="6.08312">
        <ele>293.60000610352</ele>
        <time>2014-02-01T16:08:36Z</time>
      </trkpt>
      <trkpt lat="43.39234" lon="6.08305">
        <ele>292.79998779297</ele>
        <time>2014-02-01T16:08:38Z</time>
      </trkpt>
      <trkpt lat="43.39239" lon="6.08294">
        <ele>292.20001220703</ele>
        <time>2014-02-01T16:08:41Z</time>
      </trkpt>
      <trkpt lat="43.39241" lon="6.08288">
        <ele>291.39999389648</ele>
        <time>2014-02-01T16:08:43Z</time>
      </trkpt>
      <trkpt lat="43.39243" lon="6.08283">
        <ele>290.79998779297</ele>
        <time>2014-02-01T16:08:44Z</time>
      </trkpt>
      <trkpt lat="43.39245" lon="6.08279">
        <ele>290.39999389648</ele>
        <time>2014-02-01T16:08:45Z</time>
      </trkpt>
      <trkpt lat="43.39253" lon="6.0827">
        <ele>289.39999389648</ele>
        <time>2014-02-01T16:08:48Z</time>
      </trkpt>
      <trkpt lat="43.39258" lon="6.08264">
        <ele>288.60000610352</ele>
        <time>2014-02-01T16:08:50Z</time>
      </trkpt>
      <trkpt lat="43.3926" lon="6.08261">
        <ele>288</ele>
        <time>2014-02-01T16:08:51Z</time>
      </trkpt>
      <trkpt lat="43.39264" lon="6.08253">
        <ele>288</ele>
        <time>2014-02-01T16:08:53Z</time>
      </trkpt>
      <trkpt lat="43.39264" lon="6.0824">
        <ele>287.60000610352</ele>
        <time>2014-02-01T16:08:56Z</time>
      </trkpt>
      <trkpt lat="43.39267" lon="6.08225">
        <ele>285.79998779297</ele>
        <time>2014-02-01T16:09:00Z</time>
      </trkpt>
      <trkpt lat="43.3927" lon="6.0821">
        <ele>285</ele>
        <time>2014-02-01T16:09:04Z</time>
      </trkpt>
      <trkpt lat="43.3927" lon="6.08202">
        <ele>284</ele>
        <time>2014-02-01T16:09:06Z</time>
      </trkpt>
      <trkpt lat="43.3927" lon="6.08197">
        <ele>283.60000610352</ele>
        <time>2014-02-01T16:09:07Z</time>
      </trkpt>
      <trkpt lat="43.39273" lon="6.08187">
        <ele>283.60000610352</ele>
        <time>2014-02-01T16:09:10Z</time>
      </trkpt>
      <trkpt lat="43.39274" lon="6.08184">
        <ele>283.20001220703</ele>
        <time>2014-02-01T16:09:11Z</time>
      </trkpt>
      <trkpt lat="43.39278" lon="6.08171">
        <ele>281.60000610352</ele>
        <time>2014-02-01T16:09:15Z</time>
      </trkpt>
      <trkpt lat="43.39281" lon="6.08162">
        <ele>281.60000610352</ele>
        <time>2014-02-01T16:09:17Z</time>
      </trkpt>
      <trkpt lat="43.39284" lon="6.08154">
        <ele>281.20001220703</ele>
        <time>2014-02-01T16:09:19Z</time>
      </trkpt>
      <trkpt lat="43.39285" lon="6.08149">
        <ele>280.39999389648</ele>
        <time>2014-02-01T16:09:21Z</time>
      </trkpt>
      <trkpt lat="43.39286" lon="6.08145">
        <ele>279.79998779297</ele>
        <time>2014-02-01T16:09:22Z</time>
      </trkpt>
      <trkpt lat="43.39286" lon="6.08137">
        <ele>279.39999389648</ele>
        <time>2014-02-01T16:09:24Z</time>
      </trkpt>
      <trkpt lat="43.39292" lon="6.08122">
        <ele>278.60000610352</ele>
        <time>2014-02-01T16:09:28Z</time>
      </trkpt>
      <trkpt lat="43.39296" lon="6.08111">
        <ele>277.39999389648</ele>
        <time>2014-02-01T16:09:31Z</time>
      </trkpt>
      <trkpt lat="43.39305" lon="6.08096">
        <ele>277.39999389648</ele>
        <time>2014-02-01T16:09:37Z</time>
      </trkpt>
      <trkpt lat="43.39316" lon="6.08079">
        <ele>275.39999389648</ele>
        <time>2014-02-01T16:09:43Z</time>
      </trkpt>
      <trkpt lat="43.39332" lon="6.0805">
        <ele>275.39999389648</ele>
        <time>2014-02-01T16:09:51Z</time>
      </trkpt>
      <trkpt lat="43.39339" lon="6.08041">
        <ele>275.39999389648</ele>
        <time>2014-02-01T16:09:56Z</time>
      </trkpt>
      <trkpt lat="43.39346" lon="6.08037">
        <ele>275</ele>
        <time>2014-02-01T16:09:59Z</time>
      </trkpt>
      <trkpt lat="43.39348" lon="6.08034">
        <ele>274</ele>
        <time>2014-02-01T16:10:00Z</time>
      </trkpt>
      <trkpt lat="43.3936" lon="6.08016">
        <ele>273.20001220703</ele>
        <time>2014-02-01T16:10:05Z</time>
      </trkpt>
      <trkpt lat="43.39362" lon="6.08013">
        <ele>272.60000610352</ele>
        <time>2014-02-01T16:10:06Z</time>
      </trkpt>
      <trkpt lat="43.39363" lon="6.08011">
        <ele>272.20001220703</ele>
        <time>2014-02-01T16:10:07Z</time>
      </trkpt>
      <trkpt lat="43.39366" lon="6.08009">
        <ele>271.79998779297</ele>
        <time>2014-02-01T16:10:08Z</time>
      </trkpt>
      <trkpt lat="43.39368" lon="6.08007">
        <ele>271.20001220703</ele>
        <time>2014-02-01T16:10:09Z</time>
      </trkpt>
      <trkpt lat="43.39371" lon="6.08007">
        <ele>270.79998779297</ele>
        <time>2014-02-01T16:10:10Z</time>
      </trkpt>
      <trkpt lat="43.39378" lon="6.08005">
        <ele>270.79998779297</ele>
        <time>2014-02-01T16:10:13Z</time>
      </trkpt>
      <trkpt lat="43.3938" lon="6.08005">
        <ele>270.79998779297</ele>
        <time>2014-02-01T16:10:14Z</time>
      </trkpt>
      <trkpt lat="43.39381" lon="6.08005">
        <ele>270.79998779297</ele>
        <time>2014-02-01T16:10:19Z</time>
      </trkpt>
      <trkpt lat="43.39386" lon="6.08005">
        <ele>270.79998779297</ele>
        <time>2014-02-01T16:10:22Z</time>
      </trkpt>
      <trkpt lat="43.39389" lon="6.08003">
        <ele>270.79998779297</ele>
        <time>2014-02-01T16:10:23Z</time>
      </trkpt>
      <trkpt lat="43.39398" lon="6.07999">
        <ele>270.39999389648</ele>
        <time>2014-02-01T16:10:25Z</time>
      </trkpt>
      <trkpt lat="43.39403" lon="6.07997">
        <ele>269.79998779297</ele>
        <time>2014-02-01T16:10:26Z</time>
      </trkpt>
      <trkpt lat="43.39414" lon="6.07992">
        <ele>268.79998779297</ele>
        <time>2014-02-01T16:10:28Z</time>
      </trkpt>
      <trkpt lat="43.3942" lon="6.07991">
        <ele>268.39999389648</ele>
        <time>2014-02-01T16:10:29Z</time>
      </trkpt>
      <trkpt lat="43.39431" lon="6.07987">
        <ele>267.79998779297</ele>
        <time>2014-02-01T16:10:31Z</time>
      </trkpt>
      <trkpt lat="43.39437" lon="6.07985">
        <ele>267.39999389648</ele>
        <time>2014-02-01T16:10:32Z</time>
      </trkpt>
      <trkpt lat="43.39443" lon="6.07982">
        <ele>267</ele>
        <time>2014-02-01T16:10:33Z</time>
      </trkpt>
      <trkpt lat="43.39449" lon="6.0798">
        <ele>266.39999389648</ele>
        <time>2014-02-01T16:10:34Z</time>
      </trkpt>
      <trkpt lat="43.39455" lon="6.07978">
        <ele>266</ele>
        <time>2014-02-01T16:10:35Z</time>
      </trkpt>
      <trkpt lat="43.39475" lon="6.07972">
        <ele>265.20001220703</ele>
        <time>2014-02-01T16:10:39Z</time>
      </trkpt>
      <trkpt lat="43.39479" lon="6.0797">
        <ele>264.79998779297</ele>
        <time>2014-02-01T16:10:40Z</time>
      </trkpt>
      <trkpt lat="43.39483" lon="6.07968">
        <ele>264.39999389648</ele>
        <time>2014-02-01T16:10:41Z</time>
      </trkpt>
      <trkpt lat="43.39487" lon="6.07966">
        <ele>264</ele>
        <time>2014-02-01T16:10:42Z</time>
      </trkpt>
      <trkpt lat="43.39523" lon="6.07952">
        <ele>263</ele>
        <time>2014-02-01T16:10:49Z</time>
      </trkpt>
      <trkpt lat="43.39529" lon="6.07949">
        <ele>262.60000610352</ele>
        <time>2014-02-01T16:10:50Z</time>
      </trkpt>
      <trkpt lat="43.39536" lon="6.07945">
        <ele>262</ele>
        <time>2014-02-01T16:10:51Z</time>
      </trkpt>
      <trkpt lat="43.39544" lon="6.07941">
        <ele>261.60000610352</ele>
        <time>2014-02-01T16:10:52Z</time>
      </trkpt>
      <trkpt lat="43.39551" lon="6.07938">
        <ele>261</ele>
        <time>2014-02-01T16:10:53Z</time>
      </trkpt>
      <trkpt lat="43.39557" lon="6.07935">
        <ele>260.39999389648</ele>
        <time>2014-02-01T16:10:54Z</time>
      </trkpt>
      <trkpt lat="43.39563" lon="6.07934">
        <ele>259.79998779297</ele>
        <time>2014-02-01T16:10:55Z</time>
      </trkpt>
      <trkpt lat="43.39568" lon="6.07933">
        <ele>259.20001220703</ele>
        <time>2014-02-01T16:10:56Z</time>
      </trkpt>
      <trkpt lat="43.39574" lon="6.07926">
        <ele>257.79998779297</ele>
        <time>2014-02-01T16:10:58Z</time>
      </trkpt>
      <trkpt lat="43.39576" lon="6.07918">
        <ele>256.39999389648</ele>
        <time>2014-02-01T16:11:00Z</time>
      </trkpt>
      <trkpt lat="43.39576" lon="6.07914">
        <ele>255.80000305176</ele>
        <time>2014-02-01T16:11:01Z</time>
      </trkpt>
      <trkpt lat="43.39578" lon="6.0791">
        <ele>255.19999694824</ele>
        <time>2014-02-01T16:11:02Z</time>
      </trkpt>
      <trkpt lat="43.39581" lon="6.07907">
        <ele>255.19999694824</ele>
        <time>2014-02-01T16:11:04Z</time>
      </trkpt>
      <trkpt lat="43.39585" lon="6.07905">
        <ele>254.80000305176</ele>
        <time>2014-02-01T16:11:06Z</time>
      </trkpt>
      <trkpt lat="43.39589" lon="6.07905">
        <ele>254.39999389648</ele>
        <time>2014-02-01T16:11:07Z</time>
      </trkpt>
      <trkpt lat="43.39594" lon="6.07905">
        <ele>254</ele>
        <time>2014-02-01T16:11:08Z</time>
      </trkpt>
      <trkpt lat="43.396" lon="6.07904">
        <ele>253.60000610352</ele>
        <time>2014-02-01T16:11:09Z</time>
      </trkpt>
      <trkpt lat="43.39607" lon="6.07902">
        <ele>253.19999694824</ele>
        <time>2014-02-01T16:11:10Z</time>
      </trkpt>
      <trkpt lat="43.39621" lon="6.07896">
        <ele>252.19999694824</ele>
        <time>2014-02-01T16:11:12Z</time>
      </trkpt>
      <trkpt lat="43.39635" lon="6.07893">
        <ele>250.60000610352</ele>
        <time>2014-02-01T16:11:14Z</time>
      </trkpt>
      <trkpt lat="43.39648" lon="6.0789">
        <ele>250.19999694824</ele>
        <time>2014-02-01T16:11:16Z</time>
      </trkpt>
      <trkpt lat="43.39664" lon="6.07891">
        <ele>248.80000305176</ele>
        <time>2014-02-01T16:11:19Z</time>
      </trkpt>
      <trkpt lat="43.39669" lon="6.07892">
        <ele>248.39999389648</ele>
        <time>2014-02-01T16:11:20Z</time>
      </trkpt>
      <trkpt lat="43.39678" lon="6.07895">
        <ele>248.39999389648</ele>
        <time>2014-02-01T16:11:22Z</time>
      </trkpt>
      <trkpt lat="43.39692" lon="6.07906">
        <ele>248</ele>
        <time>2014-02-01T16:11:25Z</time>
      </trkpt>
      <trkpt lat="43.39697" lon="6.07912">
        <ele>247.60000610352</ele>
        <time>2014-02-01T16:11:26Z</time>
      </trkpt>
      <trkpt lat="43.39708" lon="6.07925">
        <ele>246.60000610352</ele>
        <time>2014-02-01T16:11:28Z</time>
      </trkpt>
      <trkpt lat="43.39726" lon="6.07948">
        <ele>244.80000305176</ele>
        <time>2014-02-01T16:11:31Z</time>
      </trkpt>
      <trkpt lat="43.39733" lon="6.07955">
        <ele>244</ele>
        <time>2014-02-01T16:11:32Z</time>
      </trkpt>
      <trkpt lat="43.3974" lon="6.0796">
        <ele>243.19999694824</ele>
        <time>2014-02-01T16:11:33Z</time>
      </trkpt>
      <trkpt lat="43.39746" lon="6.07965">
        <ele>242.39999389648</ele>
        <time>2014-02-01T16:11:34Z</time>
      </trkpt>
      <trkpt lat="43.39754" lon="6.07969">
        <ele>241.60000610352</ele>
        <time>2014-02-01T16:11:35Z</time>
      </trkpt>
      <trkpt lat="43.39762" lon="6.07973">
        <ele>240.80000305176</ele>
        <time>2014-02-01T16:11:36Z</time>
      </trkpt>
      <trkpt lat="43.3977" lon="6.07976">
        <ele>240.39999389648</ele>
        <time>2014-02-01T16:11:37Z</time>
      </trkpt>
      <trkpt lat="43.39777" lon="6.0798">
        <ele>240</ele>
        <time>2014-02-01T16:11:38Z</time>
      </trkpt>
      <trkpt lat="43.39794" lon="6.07987">
        <ele>238.60000610352</ele>
        <time>2014-02-01T16:11:40Z</time>
      </trkpt>
      <trkpt lat="43.3981" lon="6.07994">
        <ele>237.60000610352</ele>
        <time>2014-02-01T16:11:42Z</time>
      </trkpt>
      <trkpt lat="43.39817" lon="6.07997">
        <ele>237</ele>
        <time>2014-02-01T16:11:43Z</time>
      </trkpt>
      <trkpt lat="43.39824" lon="6.08001">
        <ele>236.60000610352</ele>
        <time>2014-02-01T16:11:44Z</time>
      </trkpt>
      <trkpt lat="43.39836" lon="6.08008">
        <ele>236.60000610352</ele>
        <time>2014-02-01T16:11:46Z</time>
      </trkpt>
      <trkpt lat="43.39847" lon="6.08016">
        <ele>236.60000610352</ele>
        <time>2014-02-01T16:11:48Z</time>
      </trkpt>
      <trkpt lat="43.3987" lon="6.08032">
        <ele>236.60000610352</ele>
        <time>2014-02-01T16:11:53Z</time>
      </trkpt>
      <trkpt lat="43.3988" lon="6.08037">
        <ele>236.60000610352</ele>
        <time>2014-02-01T16:11:55Z</time>
      </trkpt>
      <trkpt lat="43.39888" lon="6.08038">
        <ele>236.60000610352</ele>
        <time>2014-02-01T16:11:57Z</time>
      </trkpt>
      <trkpt lat="43.39893" lon="6.08036">
        <ele>236.60000610352</ele>
        <time>2014-02-01T16:11:58Z</time>
      </trkpt>
      <trkpt lat="43.39904" lon="6.08022">
        <ele>236.60000610352</ele>
        <time>2014-02-01T16:12:02Z</time>
      </trkpt>
      <trkpt lat="43.39916" lon="6.08007">
        <ele>236.60000610352</ele>
        <time>2014-02-01T16:12:06Z</time>
      </trkpt>
      <trkpt lat="43.39927" lon="6.07999">
        <ele>236.60000610352</ele>
        <time>2014-02-01T16:12:10Z</time>
      </trkpt>
      <trkpt lat="43.39948" lon="6.07988">
        <ele>236.60000610352</ele>
        <time>2014-02-01T16:12:16Z</time>
      </trkpt>
      <trkpt lat="43.39968" lon="6.07976">
        <ele>236.60000610352</ele>
        <time>2014-02-01T16:12:22Z</time>
      </trkpt>
      <trkpt lat="43.39977" lon="6.07958">
        <ele>236.60000610352</ele>
        <time>2014-02-01T16:12:27Z</time>
      </trkpt>
      <trkpt lat="43.39982" lon="6.07946">
        <ele>236.19999694824</ele>
        <time>2014-02-01T16:12:29Z</time>
      </trkpt>
      <trkpt lat="43.39984" lon="6.07938">
        <ele>235.80000305176</ele>
        <time>2014-02-01T16:12:30Z</time>
      </trkpt>
      <trkpt lat="43.39988" lon="6.07921">
        <ele>234.80000305176</ele>
        <time>2014-02-01T16:12:32Z</time>
      </trkpt>
      <trkpt lat="43.3999" lon="6.07911">
        <ele>234.39999389648</ele>
        <time>2014-02-01T16:12:33Z</time>
      </trkpt>
      <trkpt lat="43.39994" lon="6.07892">
        <ele>234</ele>
        <time>2014-02-01T16:12:35Z</time>
      </trkpt>
      <trkpt lat="43.39996" lon="6.07882">
        <ele>233.60000610352</ele>
        <time>2014-02-01T16:12:36Z</time>
      </trkpt>
      <trkpt lat="43.39999" lon="6.07872">
        <ele>233.19999694824</ele>
        <time>2014-02-01T16:12:37Z</time>
      </trkpt>
      <trkpt lat="43.40001" lon="6.07862">
        <ele>232.80000305176</ele>
        <time>2014-02-01T16:12:38Z</time>
      </trkpt>
      <trkpt lat="43.40003" lon="6.07853">
        <ele>232.39999389648</ele>
        <time>2014-02-01T16:12:39Z</time>
      </trkpt>
      <trkpt lat="43.40019" lon="6.07797">
        <ele>232.39999389648</ele>
        <time>2014-02-01T16:12:47Z</time>
      </trkpt>
      <trkpt lat="43.4003" lon="6.07759">
        <ele>231.60000610352</ele>
        <time>2014-02-01T16:12:52Z</time>
      </trkpt>
      <trkpt lat="43.40032" lon="6.07751">
        <ele>231.19999694824</ele>
        <time>2014-02-01T16:12:53Z</time>
      </trkpt>
      <trkpt lat="43.40038" lon="6.07738">
        <ele>230.39999389648</ele>
        <time>2014-02-01T16:12:55Z</time>
      </trkpt>
      <trkpt lat="43.40054" lon="6.07714">
        <ele>230.39999389648</ele>
        <time>2014-02-01T16:12:59Z</time>
      </trkpt>
      <trkpt lat="43.40059" lon="6.07709">
        <ele>230.39999389648</ele>
        <time>2014-02-01T16:13:00Z</time>
      </trkpt>
      <trkpt lat="43.40067" lon="6.07698">
        <ele>230.39999389648</ele>
        <time>2014-02-01T16:13:02Z</time>
      </trkpt>
      <trkpt lat="43.40074" lon="6.07686">
        <ele>230.39999389648</ele>
        <time>2014-02-01T16:13:04Z</time>
      </trkpt>
      <trkpt lat="43.40088" lon="6.07652">
        <ele>229.80000305176</ele>
        <time>2014-02-01T16:13:08Z</time>
      </trkpt>
      <trkpt lat="43.40092" lon="6.07631">
        <ele>228.80000305176</ele>
        <time>2014-02-01T16:13:10Z</time>
      </trkpt>
      <trkpt lat="43.40093" lon="6.0761">
        <ele>227.60000610352</ele>
        <time>2014-02-01T16:13:12Z</time>
      </trkpt>
      <trkpt lat="43.40096" lon="6.0759">
        <ele>226.19999694824</ele>
        <time>2014-02-01T16:13:14Z</time>
      </trkpt>
      <trkpt lat="43.40099" lon="6.0758">
        <ele>225.60000610352</ele>
        <time>2014-02-01T16:13:15Z</time>
      </trkpt>
      <trkpt lat="43.40113" lon="6.07555">
        <ele>223.60000610352</ele>
        <time>2014-02-01T16:13:18Z</time>
      </trkpt>
      <trkpt lat="43.40137" lon="6.07506">
        <ele>223.19999694824</ele>
        <time>2014-02-01T16:13:24Z</time>
      </trkpt>
      <trkpt lat="43.40146" lon="6.07475">
        <ele>222</ele>
        <time>2014-02-01T16:13:27Z</time>
      </trkpt>
      <trkpt lat="43.40148" lon="6.07452">
        <ele>221</ele>
        <time>2014-02-01T16:13:29Z</time>
      </trkpt>
      <trkpt lat="43.40148" lon="6.07441">
        <ele>220.39999389648</ele>
        <time>2014-02-01T16:13:30Z</time>
      </trkpt>
      <trkpt lat="43.40147" lon="6.07431">
        <ele>220</ele>
        <time>2014-02-01T16:13:31Z</time>
      </trkpt>
      <trkpt lat="43.40145" lon="6.07419">
        <ele>219.39999389648</ele>
        <time>2014-02-01T16:13:32Z</time>
      </trkpt>
      <trkpt lat="43.40142" lon="6.07398">
        <ele>219</ele>
        <time>2014-02-01T16:13:34Z</time>
      </trkpt>
      <trkpt lat="43.40141" lon="6.07378">
        <ele>219</ele>
        <time>2014-02-01T16:13:36Z</time>
      </trkpt>
      <trkpt lat="43.40141" lon="6.07369">
        <ele>219</ele>
        <time>2014-02-01T16:13:37Z</time>
      </trkpt>
      <trkpt lat="43.40144" lon="6.07341">
        <ele>218</ele>
        <time>2014-02-01T16:13:40Z</time>
      </trkpt>
      <trkpt lat="43.40146" lon="6.07323">
        <ele>216.60000610352</ele>
        <time>2014-02-01T16:13:42Z</time>
      </trkpt>
      <trkpt lat="43.40148" lon="6.07304">
        <ele>216.60000610352</ele>
        <time>2014-02-01T16:13:44Z</time>
      </trkpt>
      <trkpt lat="43.40148" lon="6.07275">
        <ele>216.60000610352</ele>
        <time>2014-02-01T16:13:47Z</time>
      </trkpt>
      <trkpt lat="43.40146" lon="6.07251">
        <ele>216.60000610352</ele>
        <time>2014-02-01T16:13:50Z</time>
      </trkpt>
      <trkpt lat="43.4014" lon="6.07212">
        <ele>216.60000610352</ele>
        <time>2014-02-01T16:13:56Z</time>
      </trkpt>
      <trkpt lat="43.40136" lon="6.07188">
        <ele>216.60000610352</ele>
        <time>2014-02-01T16:14:00Z</time>
      </trkpt>
      <trkpt lat="43.40134" lon="6.07176">
        <ele>216.60000610352</ele>
        <time>2014-02-01T16:14:02Z</time>
      </trkpt>
      <trkpt lat="43.40132" lon="6.0717">
        <ele>216.60000610352</ele>
        <time>2014-02-01T16:14:03Z</time>
      </trkpt>
      <trkpt lat="43.4013" lon="6.07149">
        <ele>216.60000610352</ele>
        <time>2014-02-01T16:14:06Z</time>
      </trkpt>
      <trkpt lat="43.40124" lon="6.07101">
        <ele>216.60000610352</ele>
        <time>2014-02-01T16:14:13Z</time>
      </trkpt>
      <trkpt lat="43.40123" lon="6.07079">
        <ele>216.60000610352</ele>
        <time>2014-02-01T16:14:16Z</time>
      </trkpt>
      <trkpt lat="43.40121" lon="6.07056">
        <ele>216.60000610352</ele>
        <time>2014-02-01T16:14:19Z</time>
      </trkpt>
      <trkpt lat="43.4012" lon="6.07032">
        <ele>216.60000610352</ele>
        <time>2014-02-01T16:14:22Z</time>
      </trkpt>
      <trkpt lat="43.40119" lon="6.0699">
        <ele>216.60000610352</ele>
        <time>2014-02-01T16:14:28Z</time>
      </trkpt>
      <trkpt lat="43.40117" lon="6.0697">
        <ele>216.60000610352</ele>
        <time>2014-02-01T16:14:31Z</time>
      </trkpt>
      <trkpt lat="43.4011" lon="6.06933">
        <ele>216.60000610352</ele>
        <time>2014-02-01T16:14:37Z</time>
      </trkpt>
      <trkpt lat="43.40108" lon="6.06915">
        <ele>216.60000610352</ele>
        <time>2014-02-01T16:14:40Z</time>
      </trkpt>
      <trkpt lat="43.4011" lon="6.0688">
        <ele>216.60000610352</ele>
        <time>2014-02-01T16:14:47Z</time>
      </trkpt>
      <trkpt lat="43.40128" lon="6.06829">
        <ele>216.60000610352</ele>
        <time>2014-02-01T16:14:56Z</time>
      </trkpt>
      <trkpt lat="43.40138" lon="6.068">
        <ele>216.60000610352</ele>
        <time>2014-02-01T16:15:00Z</time>
      </trkpt>
      <trkpt lat="43.40152" lon="6.06763">
        <ele>216.19999694824</ele>
        <time>2014-02-01T16:15:06Z</time>
      </trkpt>
      <trkpt lat="43.40158" lon="6.06748">
        <ele>215.39999389648</ele>
        <time>2014-02-01T16:15:08Z</time>
      </trkpt>
      <trkpt lat="43.40164" lon="6.06733">
        <ele>214.60000610352</ele>
        <time>2014-02-01T16:15:10Z</time>
      </trkpt>
      <trkpt lat="43.40175" lon="6.06709">
        <ele>214.19999694824</ele>
        <time>2014-02-01T16:15:13Z</time>
      </trkpt>
      <trkpt lat="43.40179" lon="6.06701">
        <ele>213.80000305176</ele>
        <time>2014-02-01T16:15:14Z</time>
      </trkpt>
      <trkpt lat="43.40182" lon="6.06693">
        <ele>213.39999389648</ele>
        <time>2014-02-01T16:15:15Z</time>
      </trkpt>
      <trkpt lat="43.40186" lon="6.06686">
        <ele>213</ele>
        <time>2014-02-01T16:15:16Z</time>
      </trkpt>
      <trkpt lat="43.40189" lon="6.06678">
        <ele>212.60000610352</ele>
        <time>2014-02-01T16:15:17Z</time>
      </trkpt>
      <trkpt lat="43.40196" lon="6.06665">
        <ele>212.60000610352</ele>
        <time>2014-02-01T16:15:20Z</time>
      </trkpt>
      <trkpt lat="43.40202" lon="6.06654">
        <ele>212.60000610352</ele>
        <time>2014-02-01T16:15:23Z</time>
      </trkpt>
      <trkpt lat="43.40203" lon="6.0665">
        <ele>212.19999694824</ele>
        <time>2014-02-01T16:15:24Z</time>
      </trkpt>
      <trkpt lat="43.40204" lon="6.06646">
        <ele>211.80000305176</ele>
        <time>2014-02-01T16:15:25Z</time>
      </trkpt>
      <trkpt lat="43.40205" lon="6.06642">
        <ele>211.39999389648</ele>
        <time>2014-02-01T16:15:26Z</time>
      </trkpt>
      <trkpt lat="43.40207" lon="6.06639">
        <ele>211</ele>
        <time>2014-02-01T16:15:27Z</time>
      </trkpt>
      <trkpt lat="43.40209" lon="6.06635">
        <ele>210.60000610352</ele>
        <time>2014-02-01T16:15:28Z</time>
      </trkpt>
      <trkpt lat="43.40214" lon="6.06627">
        <ele>210.60000610352</ele>
        <time>2014-02-01T16:15:30Z</time>
      </trkpt>
      <trkpt lat="43.40227" lon="6.06611">
        <ele>210.60000610352</ele>
        <time>2014-02-01T16:15:34Z</time>
      </trkpt>
      <trkpt lat="43.40234" lon="6.06599">
        <ele>210.60000610352</ele>
        <time>2014-02-01T16:15:37Z</time>
      </trkpt>
      <trkpt lat="43.40251" lon="6.06569">
        <ele>210.60000610352</ele>
        <time>2014-02-01T16:15:45Z</time>
      </trkpt>
      <trkpt lat="43.40258" lon="6.06565">
        <ele>210.60000610352</ele>
        <time>2014-02-01T16:15:47Z</time>
      </trkpt>
      <trkpt lat="43.40277" lon="6.06558">
        <ele>210.60000610352</ele>
        <time>2014-02-01T16:15:52Z</time>
      </trkpt>
      <trkpt lat="43.40306" lon="6.0655">
        <ele>210.60000610352</ele>
        <time>2014-02-01T16:15:59Z</time>
      </trkpt>
      <trkpt lat="43.40311" lon="6.06547">
        <ele>210.60000610352</ele>
        <time>2014-02-01T16:16:00Z</time>
      </trkpt>
      <trkpt lat="43.40324" lon="6.06538">
        <ele>210.60000610352</ele>
        <time>2014-02-01T16:16:04Z</time>
      </trkpt>
      <trkpt lat="43.40332" lon="6.06541">
        <ele>210.60000610352</ele>
        <time>2014-02-01T16:16:07Z</time>
      </trkpt>
      <trkpt lat="43.40335" lon="6.06541">
        <ele>210.60000610352</ele>
        <time>2014-02-01T16:16:09Z</time>
      </trkpt>
      <trkpt lat="43.40339" lon="6.0654">
        <ele>210.60000610352</ele>
        <time>2014-02-01T16:16:10Z</time>
      </trkpt>
      <trkpt lat="43.40351" lon="6.0654">
        <ele>210.60000610352</ele>
        <time>2014-02-01T16:16:13Z</time>
      </trkpt>
      <trkpt lat="43.40362" lon="6.06539">
        <ele>210.60000610352</ele>
        <time>2014-02-01T16:16:16Z</time>
      </trkpt>
      <trkpt lat="43.40379" lon="6.06539">
        <ele>210.60000610352</ele>
        <time>2014-02-01T16:16:21Z</time>
      </trkpt>
      <trkpt lat="43.40391" lon="6.06544">
        <ele>210.60000610352</ele>
        <time>2014-02-01T16:16:26Z</time>
      </trkpt>
      <trkpt lat="43.40393" lon="6.06543">
        <ele>210.60000610352</ele>
        <time>2014-02-01T16:16:27Z</time>
      </trkpt>
      <trkpt lat="43.40398" lon="6.06539">
        <ele>210.60000610352</ele>
        <time>2014-02-01T16:16:30Z</time>
      </trkpt>
      <trkpt lat="43.40398" lon="6.06534">
        <ele>210.60000610352</ele>
        <time>2014-02-01T16:16:34Z</time>
      </trkpt>
      <trkpt lat="43.40398" lon="6.06534">
        <ele>210.60000610352</ele>
        <time>2014-02-01T16:16:42Z</time>
      </trkpt>
    </trkseg>
  </trk>
</gpx>